<?xml version="1.0" encoding="UTF-8" standalone="no" ?>
<gpx xmlns="http://www.topografix.com/GPX/1/1" xmlns:xsi="http://www.w3.org/2001/XMLSchema-instance" xsi:schemaLocation="http://www.topografix.com/GPX/1/1 http://www.topografix.com/GPX/1/1/gpx.xsd" version="1.1" creator="VisuGPX - https://www.visugpx.com">
  <metadata>
    <name>Sortie ASPTT Triathlon 20100822</name>
    <desc><![CDATA[Sortie vélo avec l'ASPTT Triathlon d'Angers]]></desc>
  </metadata>
  <trk>
    <name><![CDATA[Sortie ASPTT Triathlon 20100822_1]]></name>
    <trkseg>
      <trkpt lat="47.44258" lon="-0.5094">
        <ele>23</ele>
        <time>2010-08-22T08:38:59Z</time>
      </trkpt>
      <trkpt lat="47.44287" lon="-0.50929">
        <ele>23</ele>
        <time>2010-08-22T08:39:04Z</time>
      </trkpt>
      <trkpt lat="47.44303" lon="-0.50944">
        <ele>23</ele>
        <time>2010-08-22T08:39:09Z</time>
      </trkpt>
      <trkpt lat="47.44318" lon="-0.50992">
        <ele>23</ele>
        <time>2010-08-22T08:39:14Z</time>
      </trkpt>
      <trkpt lat="47.44334" lon="-0.51025">
        <ele>23</ele>
        <time>2010-08-22T08:39:19Z</time>
      </trkpt>
      <trkpt lat="47.44367" lon="-0.51071">
        <ele>23</ele>
        <time>2010-08-22T08:39:24Z</time>
      </trkpt>
      <trkpt lat="47.4439" lon="-0.51094">
        <ele>23</ele>
        <time>2010-08-22T08:39:29Z</time>
      </trkpt>
      <trkpt lat="47.44411" lon="-0.5112">
        <ele>23</ele>
        <time>2010-08-22T08:39:34Z</time>
      </trkpt>
      <trkpt lat="47.44431" lon="-0.51152">
        <ele>23</ele>
        <time>2010-08-22T08:39:39Z</time>
      </trkpt>
      <trkpt lat="47.44457" lon="-0.51178">
        <ele>24</ele>
        <time>2010-08-22T08:39:44Z</time>
      </trkpt>
      <trkpt lat="47.44478" lon="-0.51199">
        <ele>24</ele>
        <time>2010-08-22T08:39:49Z</time>
      </trkpt>
      <trkpt lat="47.44505" lon="-0.51238">
        <ele>27</ele>
        <time>2010-08-22T08:39:54Z</time>
      </trkpt>
      <trkpt lat="47.44515" lon="-0.51271">
        <ele>28</ele>
        <time>2010-08-22T08:39:59Z</time>
      </trkpt>
      <trkpt lat="47.44522" lon="-0.51323">
        <ele>28</ele>
        <time>2010-08-22T08:40:04Z</time>
      </trkpt>
      <trkpt lat="47.44527" lon="-0.51357">
        <ele>28</ele>
        <time>2010-08-22T08:40:09Z</time>
      </trkpt>
      <trkpt lat="47.44536" lon="-0.51407">
        <ele>27</ele>
        <time>2010-08-22T08:40:14Z</time>
      </trkpt>
      <trkpt lat="47.44548" lon="-0.5144">
        <ele>27</ele>
        <time>2010-08-22T08:40:19Z</time>
      </trkpt>
      <trkpt lat="47.44565" lon="-0.51493">
        <ele>27</ele>
        <time>2010-08-22T08:40:24Z</time>
      </trkpt>
      <trkpt lat="47.44579" lon="-0.5153">
        <ele>27</ele>
        <time>2010-08-22T08:40:29Z</time>
      </trkpt>
      <trkpt lat="47.44606" lon="-0.51581">
        <ele>28</ele>
        <time>2010-08-22T08:40:34Z</time>
      </trkpt>
      <trkpt lat="47.44619" lon="-0.51617">
        <ele>29</ele>
        <time>2010-08-22T08:40:39Z</time>
      </trkpt>
      <trkpt lat="47.44637" lon="-0.51676">
        <ele>30</ele>
        <time>2010-08-22T08:40:44Z</time>
      </trkpt>
      <trkpt lat="47.44644" lon="-0.51718">
        <ele>31</ele>
        <time>2010-08-22T08:40:49Z</time>
      </trkpt>
      <trkpt lat="47.44651" lon="-0.51781">
        <ele>31</ele>
        <time>2010-08-22T08:40:54Z</time>
      </trkpt>
      <trkpt lat="47.44661" lon="-0.51821">
        <ele>31</ele>
        <time>2010-08-22T08:40:59Z</time>
      </trkpt>
      <trkpt lat="47.44691" lon="-0.51865">
        <ele>30</ele>
        <time>2010-08-22T08:41:04Z</time>
      </trkpt>
      <trkpt lat="47.44714" lon="-0.51891">
        <ele>30</ele>
        <time>2010-08-22T08:41:09Z</time>
      </trkpt>
      <trkpt lat="47.44747" lon="-0.5193">
        <ele>29</ele>
        <time>2010-08-22T08:41:14Z</time>
      </trkpt>
      <trkpt lat="47.4477" lon="-0.51957">
        <ele>29</ele>
        <time>2010-08-22T08:41:19Z</time>
      </trkpt>
      <trkpt lat="47.44802" lon="-0.51999">
        <ele>29</ele>
        <time>2010-08-22T08:41:24Z</time>
      </trkpt>
      <trkpt lat="47.44824" lon="-0.52028">
        <ele>29</ele>
        <time>2010-08-22T08:41:29Z</time>
      </trkpt>
      <trkpt lat="47.44857" lon="-0.5207">
        <ele>30</ele>
        <time>2010-08-22T08:41:34Z</time>
      </trkpt>
      <trkpt lat="47.44879" lon="-0.52099">
        <ele>31</ele>
        <time>2010-08-22T08:41:39Z</time>
      </trkpt>
      <trkpt lat="47.44915" lon="-0.52137">
        <ele>32</ele>
        <time>2010-08-22T08:41:44Z</time>
      </trkpt>
      <trkpt lat="47.44938" lon="-0.52162">
        <ele>32</ele>
        <time>2010-08-22T08:41:49Z</time>
      </trkpt>
      <trkpt lat="47.44963" lon="-0.522">
        <ele>33</ele>
        <time>2010-08-22T08:41:54Z</time>
      </trkpt>
      <trkpt lat="47.44987" lon="-0.52242">
        <ele>33</ele>
        <time>2010-08-22T08:41:59Z</time>
      </trkpt>
      <trkpt lat="47.45017" lon="-0.52289">
        <ele>34</ele>
        <time>2010-08-22T08:42:04Z</time>
      </trkpt>
      <trkpt lat="47.45036" lon="-0.52319">
        <ele>34</ele>
        <time>2010-08-22T08:42:09Z</time>
      </trkpt>
      <trkpt lat="47.45066" lon="-0.52359">
        <ele>34</ele>
        <time>2010-08-22T08:42:14Z</time>
      </trkpt>
      <trkpt lat="47.45087" lon="-0.52384">
        <ele>34</ele>
        <time>2010-08-22T08:42:19Z</time>
      </trkpt>
      <trkpt lat="47.45113" lon="-0.52417">
        <ele>35</ele>
        <time>2010-08-22T08:42:24Z</time>
      </trkpt>
      <trkpt lat="47.45143" lon="-0.52457">
        <ele>35</ele>
        <time>2010-08-22T08:42:29Z</time>
      </trkpt>
      <trkpt lat="47.45165" lon="-0.52477">
        <ele>34</ele>
        <time>2010-08-22T08:42:34Z</time>
      </trkpt>
      <trkpt lat="47.45189" lon="-0.52498">
        <ele>34</ele>
        <time>2010-08-22T08:42:39Z</time>
      </trkpt>
      <trkpt lat="47.45189" lon="-0.52498">
        <ele>34</ele>
        <time>2010-08-22T08:42:44Z</time>
      </trkpt>
      <trkpt lat="47.45192" lon="-0.52504">
        <ele>35</ele>
        <time>2010-08-22T08:42:49Z</time>
      </trkpt>
      <trkpt lat="47.45207" lon="-0.52516">
        <ele>35</ele>
        <time>2010-08-22T08:42:54Z</time>
      </trkpt>
      <trkpt lat="47.45211" lon="-0.52558">
        <ele>35</ele>
        <time>2010-08-22T08:42:59Z</time>
      </trkpt>
      <trkpt lat="47.45193" lon="-0.52587">
        <ele>36</ele>
        <time>2010-08-22T08:43:04Z</time>
      </trkpt>
      <trkpt lat="47.45165" lon="-0.52634">
        <ele>36</ele>
        <time>2010-08-22T08:43:09Z</time>
      </trkpt>
      <trkpt lat="47.45146" lon="-0.52666">
        <ele>36</ele>
        <time>2010-08-22T08:43:14Z</time>
      </trkpt>
      <trkpt lat="47.45119" lon="-0.5272">
        <ele>36</ele>
        <time>2010-08-22T08:43:19Z</time>
      </trkpt>
      <trkpt lat="47.45102" lon="-0.52758">
        <ele>36</ele>
        <time>2010-08-22T08:43:24Z</time>
      </trkpt>
      <trkpt lat="47.45065" lon="-0.52797">
        <ele>36</ele>
        <time>2010-08-22T08:43:29Z</time>
      </trkpt>
      <trkpt lat="47.45053" lon="-0.52839">
        <ele>36</ele>
        <time>2010-08-22T08:43:34Z</time>
      </trkpt>
      <trkpt lat="47.45036" lon="-0.52903">
        <ele>36</ele>
        <time>2010-08-22T08:43:39Z</time>
      </trkpt>
      <trkpt lat="47.45022" lon="-0.52944">
        <ele>34</ele>
        <time>2010-08-22T08:43:44Z</time>
      </trkpt>
      <trkpt lat="47.44999" lon="-0.53006">
        <ele>33</ele>
        <time>2010-08-22T08:43:49Z</time>
      </trkpt>
      <trkpt lat="47.44992" lon="-0.53051">
        <ele>31</ele>
        <time>2010-08-22T08:43:54Z</time>
      </trkpt>
      <trkpt lat="47.45013" lon="-0.53109">
        <ele>32</ele>
        <time>2010-08-22T08:43:59Z</time>
      </trkpt>
      <trkpt lat="47.45033" lon="-0.53141">
        <ele>33</ele>
        <time>2010-08-22T08:44:04Z</time>
      </trkpt>
      <trkpt lat="47.45057" lon="-0.53195">
        <ele>34</ele>
        <time>2010-08-22T08:44:09Z</time>
      </trkpt>
      <trkpt lat="47.45064" lon="-0.53237">
        <ele>33</ele>
        <time>2010-08-22T08:44:14Z</time>
      </trkpt>
      <trkpt lat="47.45075" lon="-0.533">
        <ele>34</ele>
        <time>2010-08-22T08:44:19Z</time>
      </trkpt>
      <trkpt lat="47.45088" lon="-0.53339">
        <ele>34</ele>
        <time>2010-08-22T08:44:24Z</time>
      </trkpt>
      <trkpt lat="47.45111" lon="-0.53392">
        <ele>36</ele>
        <time>2010-08-22T08:44:29Z</time>
      </trkpt>
      <trkpt lat="47.45127" lon="-0.53427">
        <ele>37</ele>
        <time>2010-08-22T08:44:34Z</time>
      </trkpt>
      <trkpt lat="47.45148" lon="-0.53479">
        <ele>37</ele>
        <time>2010-08-22T08:44:39Z</time>
      </trkpt>
      <trkpt lat="47.45164" lon="-0.53513">
        <ele>37</ele>
        <time>2010-08-22T08:44:44Z</time>
      </trkpt>
      <trkpt lat="47.45178" lon="-0.53573">
        <ele>36</ele>
        <time>2010-08-22T08:44:49Z</time>
      </trkpt>
      <trkpt lat="47.45182" lon="-0.53614">
        <ele>35</ele>
        <time>2010-08-22T08:44:54Z</time>
      </trkpt>
      <trkpt lat="47.45189" lon="-0.53675">
        <ele>35</ele>
        <time>2010-08-22T08:44:59Z</time>
      </trkpt>
      <trkpt lat="47.45195" lon="-0.53718">
        <ele>36</ele>
        <time>2010-08-22T08:45:04Z</time>
      </trkpt>
      <trkpt lat="47.45201" lon="-0.53777">
        <ele>36</ele>
        <time>2010-08-22T08:45:09Z</time>
      </trkpt>
      <trkpt lat="47.45206" lon="-0.53814">
        <ele>36</ele>
        <time>2010-08-22T08:45:14Z</time>
      </trkpt>
      <trkpt lat="47.45239" lon="-0.53835">
        <ele>35</ele>
        <time>2010-08-22T08:45:19Z</time>
      </trkpt>
      <trkpt lat="47.45263" lon="-0.53849">
        <ele>35</ele>
        <time>2010-08-22T08:45:24Z</time>
      </trkpt>
      <trkpt lat="47.45289" lon="-0.53861">
        <ele>35</ele>
        <time>2010-08-22T08:45:29Z</time>
      </trkpt>
      <trkpt lat="47.45292" lon="-0.53862">
        <ele>36</ele>
        <time>2010-08-22T08:45:34Z</time>
      </trkpt>
      <trkpt lat="47.45291" lon="-0.53862">
        <ele>35</ele>
        <time>2010-08-22T08:45:39Z</time>
      </trkpt>
      <trkpt lat="47.45291" lon="-0.5386">
        <ele>35</ele>
        <time>2010-08-22T08:45:44Z</time>
      </trkpt>
      <trkpt lat="47.4529" lon="-0.53863">
        <ele>35</ele>
        <time>2010-08-22T08:45:49Z</time>
      </trkpt>
      <trkpt lat="47.45289" lon="-0.53865">
        <ele>35</ele>
        <time>2010-08-22T08:45:54Z</time>
      </trkpt>
      <trkpt lat="47.45289" lon="-0.53865">
        <ele>35</ele>
        <time>2010-08-22T08:45:59Z</time>
      </trkpt>
      <trkpt lat="47.45289" lon="-0.53866">
        <ele>35</ele>
        <time>2010-08-22T08:46:04Z</time>
      </trkpt>
      <trkpt lat="47.45297" lon="-0.53871">
        <ele>36</ele>
        <time>2010-08-22T08:46:09Z</time>
      </trkpt>
      <trkpt lat="47.45326" lon="-0.53899">
        <ele>36</ele>
        <time>2010-08-22T08:46:14Z</time>
      </trkpt>
      <trkpt lat="47.45345" lon="-0.53929">
        <ele>38</ele>
        <time>2010-08-22T08:46:19Z</time>
      </trkpt>
      <trkpt lat="47.45373" lon="-0.53978">
        <ele>39</ele>
        <time>2010-08-22T08:46:24Z</time>
      </trkpt>
      <trkpt lat="47.45392" lon="-0.54009">
        <ele>40</ele>
        <time>2010-08-22T08:46:29Z</time>
      </trkpt>
      <trkpt lat="47.45431" lon="-0.54034">
        <ele>41</ele>
        <time>2010-08-22T08:46:34Z</time>
      </trkpt>
      <trkpt lat="47.45456" lon="-0.54049">
        <ele>40</ele>
        <time>2010-08-22T08:46:39Z</time>
      </trkpt>
      <trkpt lat="47.45495" lon="-0.54069">
        <ele>40</ele>
        <time>2010-08-22T08:46:44Z</time>
      </trkpt>
      <trkpt lat="47.45522" lon="-0.54079">
        <ele>41</ele>
        <time>2010-08-22T08:46:49Z</time>
      </trkpt>
      <trkpt lat="47.45556" lon="-0.5409">
        <ele>41</ele>
        <time>2010-08-22T08:46:54Z</time>
      </trkpt>
      <trkpt lat="47.45593" lon="-0.54093">
        <ele>42</ele>
        <time>2010-08-22T08:46:59Z</time>
      </trkpt>
      <trkpt lat="47.45627" lon="-0.5413">
        <ele>41</ele>
        <time>2010-08-22T08:47:04Z</time>
      </trkpt>
      <trkpt lat="47.45648" lon="-0.54162">
        <ele>41</ele>
        <time>2010-08-22T08:47:09Z</time>
      </trkpt>
      <trkpt lat="47.4568" lon="-0.54211">
        <ele>40</ele>
        <time>2010-08-22T08:47:14Z</time>
      </trkpt>
      <trkpt lat="47.45702" lon="-0.54244">
        <ele>40</ele>
        <time>2010-08-22T08:47:19Z</time>
      </trkpt>
      <trkpt lat="47.45733" lon="-0.543">
        <ele>39</ele>
        <time>2010-08-22T08:47:24Z</time>
      </trkpt>
      <trkpt lat="47.45753" lon="-0.54338">
        <ele>39</ele>
        <time>2010-08-22T08:47:29Z</time>
      </trkpt>
      <trkpt lat="47.45783" lon="-0.54394">
        <ele>39</ele>
        <time>2010-08-22T08:47:34Z</time>
      </trkpt>
      <trkpt lat="47.45803" lon="-0.54431">
        <ele>38</ele>
        <time>2010-08-22T08:47:39Z</time>
      </trkpt>
      <trkpt lat="47.45835" lon="-0.54483">
        <ele>38</ele>
        <time>2010-08-22T08:47:44Z</time>
      </trkpt>
      <trkpt lat="47.45844" lon="-0.54525">
        <ele>37</ele>
        <time>2010-08-22T08:47:49Z</time>
      </trkpt>
      <trkpt lat="47.4586" lon="-0.54589">
        <ele>38</ele>
        <time>2010-08-22T08:47:54Z</time>
      </trkpt>
      <trkpt lat="47.45871" lon="-0.5463">
        <ele>39</ele>
        <time>2010-08-22T08:47:59Z</time>
      </trkpt>
      <trkpt lat="47.45887" lon="-0.54684">
        <ele>39</ele>
        <time>2010-08-22T08:48:04Z</time>
      </trkpt>
      <trkpt lat="47.45895" lon="-0.54704">
        <ele>39</ele>
        <time>2010-08-22T08:48:09Z</time>
      </trkpt>
      <trkpt lat="47.45896" lon="-0.54707">
        <ele>39</ele>
        <time>2010-08-22T08:48:14Z</time>
      </trkpt>
      <trkpt lat="47.45901" lon="-0.54724">
        <ele>39</ele>
        <time>2010-08-22T08:48:19Z</time>
      </trkpt>
      <trkpt lat="47.45916" lon="-0.54777">
        <ele>38</ele>
        <time>2010-08-22T08:48:24Z</time>
      </trkpt>
      <trkpt lat="47.45929" lon="-0.54817">
        <ele>39</ele>
        <time>2010-08-22T08:48:29Z</time>
      </trkpt>
      <trkpt lat="47.45948" lon="-0.54874">
        <ele>40</ele>
        <time>2010-08-22T08:48:34Z</time>
      </trkpt>
      <trkpt lat="47.45962" lon="-0.54912">
        <ele>40</ele>
        <time>2010-08-22T08:48:39Z</time>
      </trkpt>
      <trkpt lat="47.45982" lon="-0.54969">
        <ele>41</ele>
        <time>2010-08-22T08:48:44Z</time>
      </trkpt>
      <trkpt lat="47.45994" lon="-0.55007">
        <ele>41</ele>
        <time>2010-08-22T08:48:49Z</time>
      </trkpt>
      <trkpt lat="47.46012" lon="-0.55064">
        <ele>42</ele>
        <time>2010-08-22T08:48:54Z</time>
      </trkpt>
      <trkpt lat="47.46022" lon="-0.55101">
        <ele>42</ele>
        <time>2010-08-22T08:48:59Z</time>
      </trkpt>
      <trkpt lat="47.46038" lon="-0.55145">
        <ele>42</ele>
        <time>2010-08-22T08:49:04Z</time>
      </trkpt>
      <trkpt lat="47.46051" lon="-0.55185">
        <ele>42</ele>
        <time>2010-08-22T08:49:09Z</time>
      </trkpt>
      <trkpt lat="47.46072" lon="-0.55226">
        <ele>43</ele>
        <time>2010-08-22T08:49:14Z</time>
      </trkpt>
      <trkpt lat="47.46105" lon="-0.55238">
        <ele>43</ele>
        <time>2010-08-22T08:49:19Z</time>
      </trkpt>
      <trkpt lat="47.46139" lon="-0.55241">
        <ele>43</ele>
        <time>2010-08-22T08:49:24Z</time>
      </trkpt>
      <trkpt lat="47.46175" lon="-0.55245">
        <ele>44</ele>
        <time>2010-08-22T08:49:29Z</time>
      </trkpt>
      <trkpt lat="47.46203" lon="-0.55249">
        <ele>43</ele>
        <time>2010-08-22T08:49:34Z</time>
      </trkpt>
      <trkpt lat="47.46246" lon="-0.55255">
        <ele>44</ele>
        <time>2010-08-22T08:49:39Z</time>
      </trkpt>
      <trkpt lat="47.46273" lon="-0.5526">
        <ele>45</ele>
        <time>2010-08-22T08:49:44Z</time>
      </trkpt>
      <trkpt lat="47.46295" lon="-0.55291">
        <ele>46</ele>
        <time>2010-08-22T08:49:49Z</time>
      </trkpt>
      <trkpt lat="47.46288" lon="-0.55331">
        <ele>46</ele>
        <time>2010-08-22T08:49:54Z</time>
      </trkpt>
      <trkpt lat="47.46299" lon="-0.5539">
        <ele>47</ele>
        <time>2010-08-22T08:49:59Z</time>
      </trkpt>
      <trkpt lat="47.46326" lon="-0.55395">
        <ele>48</ele>
        <time>2010-08-22T08:50:04Z</time>
      </trkpt>
      <trkpt lat="47.46369" lon="-0.55398">
        <ele>49</ele>
        <time>2010-08-22T08:50:09Z</time>
      </trkpt>
      <trkpt lat="47.46396" lon="-0.55407">
        <ele>49</ele>
        <time>2010-08-22T08:50:14Z</time>
      </trkpt>
      <trkpt lat="47.46439" lon="-0.55409">
        <ele>48</ele>
        <time>2010-08-22T08:50:19Z</time>
      </trkpt>
      <trkpt lat="47.46466" lon="-0.55413">
        <ele>48</ele>
        <time>2010-08-22T08:50:24Z</time>
      </trkpt>
      <trkpt lat="47.46507" lon="-0.55417">
        <ele>48</ele>
        <time>2010-08-22T08:50:29Z</time>
      </trkpt>
      <trkpt lat="47.46533" lon="-0.55425">
        <ele>49</ele>
        <time>2010-08-22T08:50:34Z</time>
      </trkpt>
      <trkpt lat="47.46535" lon="-0.55481">
        <ele>48</ele>
        <time>2010-08-22T08:50:39Z</time>
      </trkpt>
      <trkpt lat="47.46529" lon="-0.55526">
        <ele>47</ele>
        <time>2010-08-22T08:50:44Z</time>
      </trkpt>
      <trkpt lat="47.46556" lon="-0.55585">
        <ele>46</ele>
        <time>2010-08-22T08:50:49Z</time>
      </trkpt>
      <trkpt lat="47.46579" lon="-0.55618">
        <ele>46</ele>
        <time>2010-08-22T08:50:54Z</time>
      </trkpt>
      <trkpt lat="47.46612" lon="-0.55667">
        <ele>47</ele>
        <time>2010-08-22T08:50:59Z</time>
      </trkpt>
      <trkpt lat="47.46632" lon="-0.55697">
        <ele>47</ele>
        <time>2010-08-22T08:51:04Z</time>
      </trkpt>
      <trkpt lat="47.46668" lon="-0.55734">
        <ele>45</ele>
        <time>2010-08-22T08:51:09Z</time>
      </trkpt>
      <trkpt lat="47.46688" lon="-0.55768">
        <ele>45</ele>
        <time>2010-08-22T08:51:14Z</time>
      </trkpt>
      <trkpt lat="47.46723" lon="-0.55817">
        <ele>45</ele>
        <time>2010-08-22T08:51:19Z</time>
      </trkpt>
      <trkpt lat="47.46747" lon="-0.55849">
        <ele>45</ele>
        <time>2010-08-22T08:51:24Z</time>
      </trkpt>
      <trkpt lat="47.46781" lon="-0.55897">
        <ele>43</ele>
        <time>2010-08-22T08:51:29Z</time>
      </trkpt>
      <trkpt lat="47.46813" lon="-0.55903">
        <ele>42</ele>
        <time>2010-08-22T08:51:34Z</time>
      </trkpt>
      <trkpt lat="47.46843" lon="-0.5588">
        <ele>40</ele>
        <time>2010-08-22T08:51:39Z</time>
      </trkpt>
      <trkpt lat="47.46843" lon="-0.55878">
        <ele>40</ele>
        <time>2010-08-22T08:51:44Z</time>
      </trkpt>
      <trkpt lat="47.46841" lon="-0.55877">
        <ele>40</ele>
        <time>2010-08-22T08:51:49Z</time>
      </trkpt>
      <trkpt lat="47.46841" lon="-0.55876">
        <ele>40</ele>
        <time>2010-08-22T08:51:54Z</time>
      </trkpt>
      <trkpt lat="47.46841" lon="-0.55875">
        <ele>41</ele>
        <time>2010-08-22T08:51:59Z</time>
      </trkpt>
      <trkpt lat="47.4684" lon="-0.55875">
        <ele>41</ele>
        <time>2010-08-22T08:52:04Z</time>
      </trkpt>
      <trkpt lat="47.4684" lon="-0.55875">
        <ele>41</ele>
        <time>2010-08-22T08:52:09Z</time>
      </trkpt>
      <trkpt lat="47.4684" lon="-0.55875">
        <ele>41</ele>
        <time>2010-08-22T08:52:14Z</time>
      </trkpt>
      <trkpt lat="47.4684" lon="-0.55875">
        <ele>41</ele>
        <time>2010-08-22T08:52:19Z</time>
      </trkpt>
      <trkpt lat="47.4684" lon="-0.55876">
        <ele>41</ele>
        <time>2010-08-22T08:52:24Z</time>
      </trkpt>
      <trkpt lat="47.4684" lon="-0.55876">
        <ele>40</ele>
        <time>2010-08-22T08:52:29Z</time>
      </trkpt>
      <trkpt lat="47.4684" lon="-0.55877">
        <ele>40</ele>
        <time>2010-08-22T08:52:34Z</time>
      </trkpt>
      <trkpt lat="47.46844" lon="-0.55875">
        <ele>41</ele>
        <time>2010-08-22T08:52:39Z</time>
      </trkpt>
      <trkpt lat="47.46869" lon="-0.55872">
        <ele>40</ele>
        <time>2010-08-22T08:52:44Z</time>
      </trkpt>
      <trkpt lat="47.46877" lon="-0.55882">
        <ele>40</ele>
        <time>2010-08-22T08:52:49Z</time>
      </trkpt>
      <trkpt lat="47.46877" lon="-0.55883">
        <ele>40</ele>
        <time>2010-08-22T08:52:54Z</time>
      </trkpt>
      <trkpt lat="47.46877" lon="-0.55884">
        <ele>40</ele>
        <time>2010-08-22T08:52:59Z</time>
      </trkpt>
      <trkpt lat="47.46877" lon="-0.55886">
        <ele>40</ele>
        <time>2010-08-22T08:53:04Z</time>
      </trkpt>
      <trkpt lat="47.46882" lon="-0.55902">
        <ele>40</ele>
        <time>2010-08-22T08:53:09Z</time>
      </trkpt>
      <trkpt lat="47.46899" lon="-0.55958">
        <ele>39</ele>
        <time>2010-08-22T08:53:14Z</time>
      </trkpt>
      <trkpt lat="47.46916" lon="-0.56002">
        <ele>38</ele>
        <time>2010-08-22T08:53:19Z</time>
      </trkpt>
      <trkpt lat="47.46942" lon="-0.56062">
        <ele>38</ele>
        <time>2010-08-22T08:53:24Z</time>
      </trkpt>
      <trkpt lat="47.46962" lon="-0.56109">
        <ele>34</ele>
        <time>2010-08-22T08:53:29Z</time>
      </trkpt>
      <trkpt lat="47.46995" lon="-0.56183">
        <ele>27</ele>
        <time>2010-08-22T08:53:34Z</time>
      </trkpt>
      <trkpt lat="47.47012" lon="-0.5623">
        <ele>20</ele>
        <time>2010-08-22T08:53:39Z</time>
      </trkpt>
      <trkpt lat="47.47034" lon="-0.56295">
        <ele>17</ele>
        <time>2010-08-22T08:53:44Z</time>
      </trkpt>
      <trkpt lat="47.47049" lon="-0.56333">
        <ele>16</ele>
        <time>2010-08-22T08:53:49Z</time>
      </trkpt>
      <trkpt lat="47.47071" lon="-0.56389">
        <ele>17</ele>
        <time>2010-08-22T08:53:54Z</time>
      </trkpt>
      <trkpt lat="47.47087" lon="-0.5643">
        <ele>19</ele>
        <time>2010-08-22T08:53:59Z</time>
      </trkpt>
      <trkpt lat="47.47112" lon="-0.56493">
        <ele>22</ele>
        <time>2010-08-22T08:54:04Z</time>
      </trkpt>
      <trkpt lat="47.47128" lon="-0.56533">
        <ele>23</ele>
        <time>2010-08-22T08:54:09Z</time>
      </trkpt>
      <trkpt lat="47.47151" lon="-0.56596">
        <ele>24</ele>
        <time>2010-08-22T08:54:14Z</time>
      </trkpt>
      <trkpt lat="47.47166" lon="-0.56636">
        <ele>24</ele>
        <time>2010-08-22T08:54:19Z</time>
      </trkpt>
      <trkpt lat="47.47191" lon="-0.56684">
        <ele>26</ele>
        <time>2010-08-22T08:54:24Z</time>
      </trkpt>
      <trkpt lat="47.47202" lon="-0.56712">
        <ele>26</ele>
        <time>2010-08-22T08:54:29Z</time>
      </trkpt>
      <trkpt lat="47.47174" lon="-0.56753">
        <ele>26</ele>
        <time>2010-08-22T08:54:34Z</time>
      </trkpt>
      <trkpt lat="47.47152" lon="-0.56778">
        <ele>25</ele>
        <time>2010-08-22T08:54:39Z</time>
      </trkpt>
      <trkpt lat="47.4712" lon="-0.5682">
        <ele>24</ele>
        <time>2010-08-22T08:54:44Z</time>
      </trkpt>
      <trkpt lat="47.47098" lon="-0.56847">
        <ele>23</ele>
        <time>2010-08-22T08:54:49Z</time>
      </trkpt>
      <trkpt lat="47.47066" lon="-0.56888">
        <ele>22</ele>
        <time>2010-08-22T08:54:54Z</time>
      </trkpt>
      <trkpt lat="47.47049" lon="-0.5691">
        <ele>22</ele>
        <time>2010-08-22T08:54:59Z</time>
      </trkpt>
      <trkpt lat="47.47039" lon="-0.56898">
        <ele>22</ele>
        <time>2010-08-22T08:55:04Z</time>
      </trkpt>
      <trkpt lat="47.47039" lon="-0.56896">
        <ele>22</ele>
        <time>2010-08-22T08:55:09Z</time>
      </trkpt>
      <trkpt lat="47.47041" lon="-0.56897">
        <ele>22</ele>
        <time>2010-08-22T08:55:14Z</time>
      </trkpt>
      <trkpt lat="47.47041" lon="-0.56898">
        <ele>22</ele>
        <time>2010-08-22T08:55:19Z</time>
      </trkpt>
      <trkpt lat="47.47042" lon="-0.56897">
        <ele>22</ele>
        <time>2010-08-22T08:55:24Z</time>
      </trkpt>
      <trkpt lat="47.47042" lon="-0.56898">
        <ele>22</ele>
        <time>2010-08-22T08:55:29Z</time>
      </trkpt>
      <trkpt lat="47.47042" lon="-0.56898">
        <ele>22</ele>
        <time>2010-08-22T08:55:34Z</time>
      </trkpt>
      <trkpt lat="47.47042" lon="-0.56896">
        <ele>22</ele>
        <time>2010-08-22T08:55:39Z</time>
      </trkpt>
      <trkpt lat="47.47042" lon="-0.56897">
        <ele>22</ele>
        <time>2010-08-22T08:55:44Z</time>
      </trkpt>
      <trkpt lat="47.47042" lon="-0.56897">
        <ele>22</ele>
        <time>2010-08-22T08:55:49Z</time>
      </trkpt>
      <trkpt lat="47.47041" lon="-0.56897">
        <ele>22</ele>
        <time>2010-08-22T08:55:54Z</time>
      </trkpt>
      <trkpt lat="47.47041" lon="-0.56897">
        <ele>22</ele>
        <time>2010-08-22T08:55:59Z</time>
      </trkpt>
      <trkpt lat="47.4704" lon="-0.56897">
        <ele>22</ele>
        <time>2010-08-22T08:56:04Z</time>
      </trkpt>
      <trkpt lat="47.47039" lon="-0.56897">
        <ele>22</ele>
        <time>2010-08-22T08:56:09Z</time>
      </trkpt>
      <trkpt lat="47.47039" lon="-0.56896">
        <ele>22</ele>
        <time>2010-08-22T08:56:14Z</time>
      </trkpt>
      <trkpt lat="47.47039" lon="-0.56896">
        <ele>22</ele>
        <time>2010-08-22T08:56:19Z</time>
      </trkpt>
      <trkpt lat="47.47039" lon="-0.56896">
        <ele>22</ele>
        <time>2010-08-22T08:56:24Z</time>
      </trkpt>
      <trkpt lat="47.47039" lon="-0.56896">
        <ele>22</ele>
        <time>2010-08-22T08:56:29Z</time>
      </trkpt>
      <trkpt lat="47.47038" lon="-0.56897">
        <ele>22</ele>
        <time>2010-08-22T08:56:34Z</time>
      </trkpt>
      <trkpt lat="47.47038" lon="-0.56897">
        <ele>22</ele>
        <time>2010-08-22T08:56:39Z</time>
      </trkpt>
      <trkpt lat="47.47038" lon="-0.56896">
        <ele>22</ele>
        <time>2010-08-22T08:56:44Z</time>
      </trkpt>
      <trkpt lat="47.47038" lon="-0.56896">
        <ele>22</ele>
        <time>2010-08-22T08:56:49Z</time>
      </trkpt>
      <trkpt lat="47.47038" lon="-0.56897">
        <ele>22</ele>
        <time>2010-08-22T08:56:54Z</time>
      </trkpt>
      <trkpt lat="47.47039" lon="-0.56897">
        <ele>22</ele>
        <time>2010-08-22T08:56:59Z</time>
      </trkpt>
      <trkpt lat="47.47039" lon="-0.56897">
        <ele>22</ele>
        <time>2010-08-22T08:57:04Z</time>
      </trkpt>
      <trkpt lat="47.47039" lon="-0.56898">
        <ele>22</ele>
        <time>2010-08-22T08:57:09Z</time>
      </trkpt>
      <trkpt lat="47.47039" lon="-0.56897">
        <ele>22</ele>
        <time>2010-08-22T08:57:14Z</time>
      </trkpt>
      <trkpt lat="47.47039" lon="-0.56897">
        <ele>22</ele>
        <time>2010-08-22T08:57:19Z</time>
      </trkpt>
      <trkpt lat="47.47039" lon="-0.56897">
        <ele>22</ele>
        <time>2010-08-22T08:57:24Z</time>
      </trkpt>
      <trkpt lat="47.4704" lon="-0.56897">
        <ele>22</ele>
        <time>2010-08-22T08:57:29Z</time>
      </trkpt>
      <trkpt lat="47.4704" lon="-0.56897">
        <ele>22</ele>
        <time>2010-08-22T08:57:34Z</time>
      </trkpt>
      <trkpt lat="47.4704" lon="-0.56897">
        <ele>22</ele>
        <time>2010-08-22T08:57:39Z</time>
      </trkpt>
      <trkpt lat="47.4704" lon="-0.56896">
        <ele>22</ele>
        <time>2010-08-22T08:57:44Z</time>
      </trkpt>
      <trkpt lat="47.47041" lon="-0.56897">
        <ele>22</ele>
        <time>2010-08-22T08:57:49Z</time>
      </trkpt>
      <trkpt lat="47.47041" lon="-0.56897">
        <ele>22</ele>
        <time>2010-08-22T08:57:54Z</time>
      </trkpt>
      <trkpt lat="47.47041" lon="-0.56898">
        <ele>22</ele>
        <time>2010-08-22T08:57:59Z</time>
      </trkpt>
      <trkpt lat="47.47041" lon="-0.56899">
        <ele>22</ele>
        <time>2010-08-22T08:58:04Z</time>
      </trkpt>
      <trkpt lat="47.47041" lon="-0.569">
        <ele>22</ele>
        <time>2010-08-22T08:58:09Z</time>
      </trkpt>
      <trkpt lat="47.47042" lon="-0.569">
        <ele>22</ele>
        <time>2010-08-22T08:58:14Z</time>
      </trkpt>
      <trkpt lat="47.47041" lon="-0.569">
        <ele>22</ele>
        <time>2010-08-22T08:58:19Z</time>
      </trkpt>
      <trkpt lat="47.47042" lon="-0.56899">
        <ele>22</ele>
        <time>2010-08-22T08:58:24Z</time>
      </trkpt>
      <trkpt lat="47.47042" lon="-0.56899">
        <ele>22</ele>
        <time>2010-08-22T08:58:29Z</time>
      </trkpt>
      <trkpt lat="47.47042" lon="-0.56899">
        <ele>22</ele>
        <time>2010-08-22T08:58:34Z</time>
      </trkpt>
      <trkpt lat="47.47043" lon="-0.56898">
        <ele>22</ele>
        <time>2010-08-22T08:58:39Z</time>
      </trkpt>
      <trkpt lat="47.47043" lon="-0.56898">
        <ele>22</ele>
        <time>2010-08-22T08:58:44Z</time>
      </trkpt>
      <trkpt lat="47.47043" lon="-0.56899">
        <ele>22</ele>
        <time>2010-08-22T08:58:49Z</time>
      </trkpt>
      <trkpt lat="47.47043" lon="-0.569">
        <ele>22</ele>
        <time>2010-08-22T08:58:54Z</time>
      </trkpt>
      <trkpt lat="47.47044" lon="-0.569">
        <ele>22</ele>
        <time>2010-08-22T08:58:59Z</time>
      </trkpt>
      <trkpt lat="47.47044" lon="-0.569">
        <ele>22</ele>
        <time>2010-08-22T08:59:04Z</time>
      </trkpt>
      <trkpt lat="47.47043" lon="-0.569">
        <ele>22</ele>
        <time>2010-08-22T08:59:09Z</time>
      </trkpt>
      <trkpt lat="47.47043" lon="-0.569">
        <ele>22</ele>
        <time>2010-08-22T08:59:14Z</time>
      </trkpt>
      <trkpt lat="47.47043" lon="-0.569">
        <ele>22</ele>
        <time>2010-08-22T08:59:19Z</time>
      </trkpt>
      <trkpt lat="47.47043" lon="-0.569">
        <ele>22</ele>
        <time>2010-08-22T08:59:24Z</time>
      </trkpt>
      <trkpt lat="47.47043" lon="-0.569">
        <ele>22</ele>
        <time>2010-08-22T08:59:29Z</time>
      </trkpt>
      <trkpt lat="47.47043" lon="-0.569">
        <ele>22</ele>
        <time>2010-08-22T08:59:34Z</time>
      </trkpt>
      <trkpt lat="47.47043" lon="-0.569">
        <ele>22</ele>
        <time>2010-08-22T08:59:39Z</time>
      </trkpt>
      <trkpt lat="47.47042" lon="-0.569">
        <ele>22</ele>
        <time>2010-08-22T08:59:44Z</time>
      </trkpt>
      <trkpt lat="47.47042" lon="-0.56899">
        <ele>22</ele>
        <time>2010-08-22T08:59:49Z</time>
      </trkpt>
      <trkpt lat="47.47042" lon="-0.56899">
        <ele>22</ele>
        <time>2010-08-22T08:59:54Z</time>
      </trkpt>
      <trkpt lat="47.47042" lon="-0.56899">
        <ele>22</ele>
        <time>2010-08-22T08:59:59Z</time>
      </trkpt>
      <trkpt lat="47.47042" lon="-0.56899">
        <ele>22</ele>
        <time>2010-08-22T09:00:04Z</time>
      </trkpt>
      <trkpt lat="47.47042" lon="-0.56898">
        <ele>22</ele>
        <time>2010-08-22T09:00:09Z</time>
      </trkpt>
      <trkpt lat="47.47042" lon="-0.56898">
        <ele>22</ele>
        <time>2010-08-22T09:00:14Z</time>
      </trkpt>
      <trkpt lat="47.47042" lon="-0.56898">
        <ele>22</ele>
        <time>2010-08-22T09:00:19Z</time>
      </trkpt>
      <trkpt lat="47.47041" lon="-0.56898">
        <ele>22</ele>
        <time>2010-08-22T09:00:24Z</time>
      </trkpt>
      <trkpt lat="47.47041" lon="-0.56898">
        <ele>22</ele>
        <time>2010-08-22T09:00:29Z</time>
      </trkpt>
      <trkpt lat="47.47042" lon="-0.56898">
        <ele>22</ele>
        <time>2010-08-22T09:00:34Z</time>
      </trkpt>
      <trkpt lat="47.47041" lon="-0.56898">
        <ele>22</ele>
        <time>2010-08-22T09:00:39Z</time>
      </trkpt>
      <trkpt lat="47.47041" lon="-0.56897">
        <ele>22</ele>
        <time>2010-08-22T09:00:44Z</time>
      </trkpt>
      <trkpt lat="47.47041" lon="-0.56897">
        <ele>22</ele>
        <time>2010-08-22T09:00:49Z</time>
      </trkpt>
      <trkpt lat="47.47041" lon="-0.56898">
        <ele>22</ele>
        <time>2010-08-22T09:00:54Z</time>
      </trkpt>
      <trkpt lat="47.47041" lon="-0.56898">
        <ele>22</ele>
        <time>2010-08-22T09:00:59Z</time>
      </trkpt>
      <trkpt lat="47.47041" lon="-0.56898">
        <ele>22</ele>
        <time>2010-08-22T09:01:04Z</time>
      </trkpt>
      <trkpt lat="47.47041" lon="-0.56898">
        <ele>22</ele>
        <time>2010-08-22T09:01:09Z</time>
      </trkpt>
      <trkpt lat="47.4704" lon="-0.56897">
        <ele>22</ele>
        <time>2010-08-22T09:01:14Z</time>
      </trkpt>
      <trkpt lat="47.4704" lon="-0.56897">
        <ele>22</ele>
        <time>2010-08-22T09:01:19Z</time>
      </trkpt>
      <trkpt lat="47.4704" lon="-0.56898">
        <ele>22</ele>
        <time>2010-08-22T09:01:24Z</time>
      </trkpt>
      <trkpt lat="47.4704" lon="-0.56899">
        <ele>22</ele>
        <time>2010-08-22T09:01:29Z</time>
      </trkpt>
      <trkpt lat="47.4704" lon="-0.56902">
        <ele>22</ele>
        <time>2010-08-22T09:01:34Z</time>
      </trkpt>
      <trkpt lat="47.4704" lon="-0.56902">
        <ele>22</ele>
        <time>2010-08-22T09:01:39Z</time>
      </trkpt>
      <trkpt lat="47.4704" lon="-0.56903">
        <ele>22</ele>
        <time>2010-08-22T09:01:44Z</time>
      </trkpt>
      <trkpt lat="47.47039" lon="-0.56903">
        <ele>22</ele>
        <time>2010-08-22T09:01:49Z</time>
      </trkpt>
      <trkpt lat="47.47039" lon="-0.56903">
        <ele>22</ele>
        <time>2010-08-22T09:01:54Z</time>
      </trkpt>
      <trkpt lat="47.47038" lon="-0.56903">
        <ele>22</ele>
        <time>2010-08-22T09:01:59Z</time>
      </trkpt>
      <trkpt lat="47.47038" lon="-0.56903">
        <ele>22</ele>
        <time>2010-08-22T09:02:04Z</time>
      </trkpt>
      <trkpt lat="47.47038" lon="-0.56903">
        <ele>22</ele>
        <time>2010-08-22T09:02:09Z</time>
      </trkpt>
      <trkpt lat="47.47038" lon="-0.56903">
        <ele>22</ele>
        <time>2010-08-22T09:02:14Z</time>
      </trkpt>
      <trkpt lat="47.47038" lon="-0.56903">
        <ele>22</ele>
        <time>2010-08-22T09:02:19Z</time>
      </trkpt>
      <trkpt lat="47.47038" lon="-0.56902">
        <ele>22</ele>
        <time>2010-08-22T09:02:24Z</time>
      </trkpt>
      <trkpt lat="47.47038" lon="-0.56902">
        <ele>22</ele>
        <time>2010-08-22T09:02:29Z</time>
      </trkpt>
      <trkpt lat="47.47038" lon="-0.56901">
        <ele>22</ele>
        <time>2010-08-22T09:02:34Z</time>
      </trkpt>
      <trkpt lat="47.47039" lon="-0.56899">
        <ele>22</ele>
        <time>2010-08-22T09:02:39Z</time>
      </trkpt>
      <trkpt lat="47.4704" lon="-0.56899">
        <ele>22</ele>
        <time>2010-08-22T09:02:44Z</time>
      </trkpt>
      <trkpt lat="47.47041" lon="-0.56898">
        <ele>22</ele>
        <time>2010-08-22T09:02:49Z</time>
      </trkpt>
      <trkpt lat="47.47041" lon="-0.56897">
        <ele>22</ele>
        <time>2010-08-22T09:02:54Z</time>
      </trkpt>
      <trkpt lat="47.47043" lon="-0.56896">
        <ele>22</ele>
        <time>2010-08-22T09:02:59Z</time>
      </trkpt>
      <trkpt lat="47.47043" lon="-0.56895">
        <ele>22</ele>
        <time>2010-08-22T09:03:04Z</time>
      </trkpt>
      <trkpt lat="47.47043" lon="-0.56895">
        <ele>22</ele>
        <time>2010-08-22T09:03:09Z</time>
      </trkpt>
      <trkpt lat="47.47043" lon="-0.56893">
        <ele>22</ele>
        <time>2010-08-22T09:03:14Z</time>
      </trkpt>
      <trkpt lat="47.47042" lon="-0.56893">
        <ele>22</ele>
        <time>2010-08-22T09:03:19Z</time>
      </trkpt>
      <trkpt lat="47.47042" lon="-0.56894">
        <ele>22</ele>
        <time>2010-08-22T09:03:24Z</time>
      </trkpt>
      <trkpt lat="47.47041" lon="-0.56894">
        <ele>22</ele>
        <time>2010-08-22T09:03:29Z</time>
      </trkpt>
      <trkpt lat="47.47041" lon="-0.56894">
        <ele>22</ele>
        <time>2010-08-22T09:03:34Z</time>
      </trkpt>
      <trkpt lat="47.4704" lon="-0.56894">
        <ele>22</ele>
        <time>2010-08-22T09:03:39Z</time>
      </trkpt>
      <trkpt lat="47.4704" lon="-0.56894">
        <ele>22</ele>
        <time>2010-08-22T09:03:44Z</time>
      </trkpt>
      <trkpt lat="47.47041" lon="-0.56894">
        <ele>22</ele>
        <time>2010-08-22T09:03:49Z</time>
      </trkpt>
      <trkpt lat="47.47041" lon="-0.56894">
        <ele>22</ele>
        <time>2010-08-22T09:03:54Z</time>
      </trkpt>
      <trkpt lat="47.47042" lon="-0.56893">
        <ele>22</ele>
        <time>2010-08-22T09:03:59Z</time>
      </trkpt>
      <trkpt lat="47.47043" lon="-0.56892">
        <ele>22</ele>
        <time>2010-08-22T09:04:04Z</time>
      </trkpt>
      <trkpt lat="47.47043" lon="-0.56891">
        <ele>22</ele>
        <time>2010-08-22T09:04:09Z</time>
      </trkpt>
      <trkpt lat="47.47043" lon="-0.56891">
        <ele>22</ele>
        <time>2010-08-22T09:04:14Z</time>
      </trkpt>
      <trkpt lat="47.47042" lon="-0.56891">
        <ele>22</ele>
        <time>2010-08-22T09:04:19Z</time>
      </trkpt>
      <trkpt lat="47.47042" lon="-0.56891">
        <ele>22</ele>
        <time>2010-08-22T09:04:24Z</time>
      </trkpt>
      <trkpt lat="47.47042" lon="-0.5689">
        <ele>22</ele>
        <time>2010-08-22T09:04:29Z</time>
      </trkpt>
      <trkpt lat="47.47042" lon="-0.5689">
        <ele>22</ele>
        <time>2010-08-22T09:04:34Z</time>
      </trkpt>
      <trkpt lat="47.47042" lon="-0.56891">
        <ele>22</ele>
        <time>2010-08-22T09:04:39Z</time>
      </trkpt>
      <trkpt lat="47.47041" lon="-0.56891">
        <ele>22</ele>
        <time>2010-08-22T09:04:44Z</time>
      </trkpt>
      <trkpt lat="47.47041" lon="-0.5689">
        <ele>22</ele>
        <time>2010-08-22T09:04:49Z</time>
      </trkpt>
      <trkpt lat="47.47041" lon="-0.5689">
        <ele>22</ele>
        <time>2010-08-22T09:04:54Z</time>
      </trkpt>
      <trkpt lat="47.47042" lon="-0.56891">
        <ele>22</ele>
        <time>2010-08-22T09:04:59Z</time>
      </trkpt>
      <trkpt lat="47.47042" lon="-0.56891">
        <ele>22</ele>
        <time>2010-08-22T09:05:04Z</time>
      </trkpt>
      <trkpt lat="47.47043" lon="-0.56891">
        <ele>22</ele>
        <time>2010-08-22T09:05:09Z</time>
      </trkpt>
      <trkpt lat="47.47043" lon="-0.56892">
        <ele>22</ele>
        <time>2010-08-22T09:05:14Z</time>
      </trkpt>
      <trkpt lat="47.47042" lon="-0.56891">
        <ele>22</ele>
        <time>2010-08-22T09:05:19Z</time>
      </trkpt>
      <trkpt lat="47.4704" lon="-0.5689">
        <ele>22</ele>
        <time>2010-08-22T09:05:24Z</time>
      </trkpt>
      <trkpt lat="47.4704" lon="-0.56889">
        <ele>22</ele>
        <time>2010-08-22T09:05:29Z</time>
      </trkpt>
      <trkpt lat="47.4704" lon="-0.56889">
        <ele>22</ele>
        <time>2010-08-22T09:05:34Z</time>
      </trkpt>
      <trkpt lat="47.47039" lon="-0.56888">
        <ele>22</ele>
        <time>2010-08-22T09:05:39Z</time>
      </trkpt>
      <trkpt lat="47.47039" lon="-0.56888">
        <ele>22</ele>
        <time>2010-08-22T09:05:44Z</time>
      </trkpt>
      <trkpt lat="47.47039" lon="-0.56888">
        <ele>22</ele>
        <time>2010-08-22T09:05:49Z</time>
      </trkpt>
      <trkpt lat="47.47039" lon="-0.56889">
        <ele>22</ele>
        <time>2010-08-22T09:05:54Z</time>
      </trkpt>
      <trkpt lat="47.4704" lon="-0.5689">
        <ele>22</ele>
        <time>2010-08-22T09:05:59Z</time>
      </trkpt>
      <trkpt lat="47.4704" lon="-0.56891">
        <ele>22</ele>
        <time>2010-08-22T09:06:04Z</time>
      </trkpt>
      <trkpt lat="47.4704" lon="-0.56891">
        <ele>22</ele>
        <time>2010-08-22T09:06:09Z</time>
      </trkpt>
      <trkpt lat="47.4704" lon="-0.56891">
        <ele>22</ele>
        <time>2010-08-22T09:06:14Z</time>
      </trkpt>
      <trkpt lat="47.4704" lon="-0.56891">
        <ele>22</ele>
        <time>2010-08-22T09:06:19Z</time>
      </trkpt>
      <trkpt lat="47.47041" lon="-0.56891">
        <ele>22</ele>
        <time>2010-08-22T09:06:24Z</time>
      </trkpt>
      <trkpt lat="47.47041" lon="-0.56892">
        <ele>22</ele>
        <time>2010-08-22T09:06:29Z</time>
      </trkpt>
      <trkpt lat="47.47041" lon="-0.56892">
        <ele>22</ele>
        <time>2010-08-22T09:06:34Z</time>
      </trkpt>
      <trkpt lat="47.47041" lon="-0.56892">
        <ele>22</ele>
        <time>2010-08-22T09:06:39Z</time>
      </trkpt>
      <trkpt lat="47.47041" lon="-0.56893">
        <ele>22</ele>
        <time>2010-08-22T09:06:44Z</time>
      </trkpt>
      <trkpt lat="47.47041" lon="-0.56893">
        <ele>22</ele>
        <time>2010-08-22T09:06:49Z</time>
      </trkpt>
      <trkpt lat="47.47041" lon="-0.56893">
        <ele>22</ele>
        <time>2010-08-22T09:06:54Z</time>
      </trkpt>
      <trkpt lat="47.47041" lon="-0.56893">
        <ele>22</ele>
        <time>2010-08-22T09:06:59Z</time>
      </trkpt>
      <trkpt lat="47.47041" lon="-0.56894">
        <ele>22</ele>
        <time>2010-08-22T09:07:04Z</time>
      </trkpt>
      <trkpt lat="47.4704" lon="-0.56896">
        <ele>22</ele>
        <time>2010-08-22T09:07:09Z</time>
      </trkpt>
      <trkpt lat="47.47041" lon="-0.56899">
        <ele>22</ele>
        <time>2010-08-22T09:07:14Z</time>
      </trkpt>
      <trkpt lat="47.4704" lon="-0.56901">
        <ele>22</ele>
        <time>2010-08-22T09:07:19Z</time>
      </trkpt>
      <trkpt lat="47.47039" lon="-0.56901">
        <ele>22</ele>
        <time>2010-08-22T09:07:24Z</time>
      </trkpt>
      <trkpt lat="47.47039" lon="-0.56902">
        <ele>22</ele>
        <time>2010-08-22T09:07:29Z</time>
      </trkpt>
      <trkpt lat="47.47039" lon="-0.56902">
        <ele>22</ele>
        <time>2010-08-22T09:07:34Z</time>
      </trkpt>
      <trkpt lat="47.47039" lon="-0.56902">
        <ele>22</ele>
        <time>2010-08-22T09:07:39Z</time>
      </trkpt>
      <trkpt lat="47.47039" lon="-0.56902">
        <ele>22</ele>
        <time>2010-08-22T09:07:44Z</time>
      </trkpt>
      <trkpt lat="47.47038" lon="-0.56902">
        <ele>22</ele>
        <time>2010-08-22T09:07:49Z</time>
      </trkpt>
      <trkpt lat="47.47038" lon="-0.56902">
        <ele>22</ele>
        <time>2010-08-22T09:07:54Z</time>
      </trkpt>
      <trkpt lat="47.47038" lon="-0.56901">
        <ele>22</ele>
        <time>2010-08-22T09:07:59Z</time>
      </trkpt>
      <trkpt lat="47.47038" lon="-0.56902">
        <ele>22</ele>
        <time>2010-08-22T09:08:04Z</time>
      </trkpt>
      <trkpt lat="47.47038" lon="-0.56902">
        <ele>22</ele>
        <time>2010-08-22T09:08:09Z</time>
      </trkpt>
      <trkpt lat="47.47041" lon="-0.56916">
        <ele>22</ele>
        <time>2010-08-22T09:08:14Z</time>
      </trkpt>
      <trkpt lat="47.47034" lon="-0.56932">
        <ele>20</ele>
        <time>2010-08-22T09:08:19Z</time>
      </trkpt>
      <trkpt lat="47.47013" lon="-0.56925">
        <ele>20</ele>
        <time>2010-08-22T09:08:24Z</time>
      </trkpt>
      <trkpt lat="47.47008" lon="-0.56893">
        <ele>22</ele>
        <time>2010-08-22T09:08:29Z</time>
      </trkpt>
      <trkpt lat="47.47" lon="-0.56845">
        <ele>21</ele>
        <time>2010-08-22T09:08:34Z</time>
      </trkpt>
      <trkpt lat="47.46994" lon="-0.56815">
        <ele>21</ele>
        <time>2010-08-22T09:08:39Z</time>
      </trkpt>
      <trkpt lat="47.46992" lon="-0.5677">
        <ele>21</ele>
        <time>2010-08-22T09:08:44Z</time>
      </trkpt>
      <trkpt lat="47.46993" lon="-0.56742">
        <ele>23</ele>
        <time>2010-08-22T09:08:49Z</time>
      </trkpt>
      <trkpt lat="47.47" lon="-0.56697">
        <ele>24</ele>
        <time>2010-08-22T09:08:54Z</time>
      </trkpt>
      <trkpt lat="47.47009" lon="-0.56671">
        <ele>24</ele>
        <time>2010-08-22T09:08:59Z</time>
      </trkpt>
      <trkpt lat="47.47025" lon="-0.56634">
        <ele>24</ele>
        <time>2010-08-22T09:09:04Z</time>
      </trkpt>
      <trkpt lat="47.47041" lon="-0.56608">
        <ele>24</ele>
        <time>2010-08-22T09:09:09Z</time>
      </trkpt>
      <trkpt lat="47.47064" lon="-0.56572">
        <ele>23</ele>
        <time>2010-08-22T09:09:14Z</time>
      </trkpt>
      <trkpt lat="47.4708" lon="-0.56549">
        <ele>23</ele>
        <time>2010-08-22T09:09:19Z</time>
      </trkpt>
      <trkpt lat="47.47109" lon="-0.56506">
        <ele>23</ele>
        <time>2010-08-22T09:09:24Z</time>
      </trkpt>
      <trkpt lat="47.47129" lon="-0.56474">
        <ele>22</ele>
        <time>2010-08-22T09:09:29Z</time>
      </trkpt>
      <trkpt lat="47.47144" lon="-0.56451">
        <ele>21</ele>
        <time>2010-08-22T09:09:34Z</time>
      </trkpt>
      <trkpt lat="47.47146" lon="-0.56449">
        <ele>21</ele>
        <time>2010-08-22T09:09:39Z</time>
      </trkpt>
      <trkpt lat="47.47147" lon="-0.5645">
        <ele>21</ele>
        <time>2010-08-22T09:09:44Z</time>
      </trkpt>
      <trkpt lat="47.47148" lon="-0.56451">
        <ele>21</ele>
        <time>2010-08-22T09:09:49Z</time>
      </trkpt>
      <trkpt lat="47.47149" lon="-0.56452">
        <ele>22</ele>
        <time>2010-08-22T09:09:54Z</time>
      </trkpt>
      <trkpt lat="47.47152" lon="-0.5645">
        <ele>22</ele>
        <time>2010-08-22T09:09:59Z</time>
      </trkpt>
      <trkpt lat="47.47158" lon="-0.56438">
        <ele>22</ele>
        <time>2010-08-22T09:10:04Z</time>
      </trkpt>
      <trkpt lat="47.47176" lon="-0.56411">
        <ele>22</ele>
        <time>2010-08-22T09:10:09Z</time>
      </trkpt>
      <trkpt lat="47.47188" lon="-0.56391">
        <ele>21</ele>
        <time>2010-08-22T09:10:14Z</time>
      </trkpt>
      <trkpt lat="47.4721" lon="-0.56362">
        <ele>21</ele>
        <time>2010-08-22T09:10:19Z</time>
      </trkpt>
      <trkpt lat="47.47222" lon="-0.56343">
        <ele>21</ele>
        <time>2010-08-22T09:10:24Z</time>
      </trkpt>
      <trkpt lat="47.47243" lon="-0.56309">
        <ele>21</ele>
        <time>2010-08-22T09:10:29Z</time>
      </trkpt>
      <trkpt lat="47.47258" lon="-0.56284">
        <ele>22</ele>
        <time>2010-08-22T09:10:34Z</time>
      </trkpt>
      <trkpt lat="47.47284" lon="-0.56248">
        <ele>22</ele>
        <time>2010-08-22T09:10:39Z</time>
      </trkpt>
      <trkpt lat="47.47298" lon="-0.56227">
        <ele>22</ele>
        <time>2010-08-22T09:10:44Z</time>
      </trkpt>
      <trkpt lat="47.47326" lon="-0.56206">
        <ele>23</ele>
        <time>2010-08-22T09:10:49Z</time>
      </trkpt>
      <trkpt lat="47.47342" lon="-0.56182">
        <ele>24</ele>
        <time>2010-08-22T09:10:54Z</time>
      </trkpt>
      <trkpt lat="47.47365" lon="-0.56146">
        <ele>25</ele>
        <time>2010-08-22T09:10:59Z</time>
      </trkpt>
      <trkpt lat="47.47381" lon="-0.5612">
        <ele>25</ele>
        <time>2010-08-22T09:11:04Z</time>
      </trkpt>
      <trkpt lat="47.47406" lon="-0.56081">
        <ele>26</ele>
        <time>2010-08-22T09:11:09Z</time>
      </trkpt>
      <trkpt lat="47.47419" lon="-0.5606">
        <ele>26</ele>
        <time>2010-08-22T09:11:14Z</time>
      </trkpt>
      <trkpt lat="47.47436" lon="-0.56034">
        <ele>26</ele>
        <time>2010-08-22T09:11:19Z</time>
      </trkpt>
      <trkpt lat="47.47439" lon="-0.56033">
        <ele>26</ele>
        <time>2010-08-22T09:11:24Z</time>
      </trkpt>
      <trkpt lat="47.47437" lon="-0.56032">
        <ele>26</ele>
        <time>2010-08-22T09:11:29Z</time>
      </trkpt>
      <trkpt lat="47.47436" lon="-0.56031">
        <ele>26</ele>
        <time>2010-08-22T09:11:34Z</time>
      </trkpt>
      <trkpt lat="47.4744" lon="-0.56025">
        <ele>26</ele>
        <time>2010-08-22T09:11:39Z</time>
      </trkpt>
      <trkpt lat="47.4745" lon="-0.5601">
        <ele>25</ele>
        <time>2010-08-22T09:11:44Z</time>
      </trkpt>
      <trkpt lat="47.4747" lon="-0.5598">
        <ele>23</ele>
        <time>2010-08-22T09:11:49Z</time>
      </trkpt>
      <trkpt lat="47.47485" lon="-0.55957">
        <ele>23</ele>
        <time>2010-08-22T09:11:54Z</time>
      </trkpt>
      <trkpt lat="47.47507" lon="-0.55922">
        <ele>23</ele>
        <time>2010-08-22T09:11:59Z</time>
      </trkpt>
      <trkpt lat="47.47523" lon="-0.55901">
        <ele>24</ele>
        <time>2010-08-22T09:12:04Z</time>
      </trkpt>
      <trkpt lat="47.47555" lon="-0.55879">
        <ele>24</ele>
        <time>2010-08-22T09:12:09Z</time>
      </trkpt>
      <trkpt lat="47.47572" lon="-0.55863">
        <ele>24</ele>
        <time>2010-08-22T09:12:14Z</time>
      </trkpt>
      <trkpt lat="47.476" lon="-0.55838">
        <ele>25</ele>
        <time>2010-08-22T09:12:19Z</time>
      </trkpt>
      <trkpt lat="47.47619" lon="-0.55828">
        <ele>25</ele>
        <time>2010-08-22T09:12:24Z</time>
      </trkpt>
      <trkpt lat="47.47652" lon="-0.55802">
        <ele>25</ele>
        <time>2010-08-22T09:12:29Z</time>
      </trkpt>
      <trkpt lat="47.4767" lon="-0.55781">
        <ele>26</ele>
        <time>2010-08-22T09:12:34Z</time>
      </trkpt>
      <trkpt lat="47.47695" lon="-0.55765">
        <ele>27</ele>
        <time>2010-08-22T09:12:39Z</time>
      </trkpt>
      <trkpt lat="47.47725" lon="-0.55742">
        <ele>27</ele>
        <time>2010-08-22T09:12:44Z</time>
      </trkpt>
      <trkpt lat="47.47757" lon="-0.55715">
        <ele>28</ele>
        <time>2010-08-22T09:12:49Z</time>
      </trkpt>
      <trkpt lat="47.47772" lon="-0.55697">
        <ele>27</ele>
        <time>2010-08-22T09:12:54Z</time>
      </trkpt>
      <trkpt lat="47.47802" lon="-0.55669">
        <ele>27</ele>
        <time>2010-08-22T09:12:59Z</time>
      </trkpt>
      <trkpt lat="47.47822" lon="-0.55648">
        <ele>25</ele>
        <time>2010-08-22T09:13:04Z</time>
      </trkpt>
      <trkpt lat="47.47846" lon="-0.55621">
        <ele>26</ele>
        <time>2010-08-22T09:13:09Z</time>
      </trkpt>
      <trkpt lat="47.47839" lon="-0.55573">
        <ele>26</ele>
        <time>2010-08-22T09:13:14Z</time>
      </trkpt>
      <trkpt lat="47.47827" lon="-0.55548">
        <ele>24</ele>
        <time>2010-08-22T09:13:19Z</time>
      </trkpt>
      <trkpt lat="47.47804" lon="-0.555">
        <ele>22</ele>
        <time>2010-08-22T09:13:24Z</time>
      </trkpt>
      <trkpt lat="47.47793" lon="-0.55474">
        <ele>21</ele>
        <time>2010-08-22T09:13:29Z</time>
      </trkpt>
      <trkpt lat="47.47777" lon="-0.5544">
        <ele>20</ele>
        <time>2010-08-22T09:13:34Z</time>
      </trkpt>
      <trkpt lat="47.47765" lon="-0.55412">
        <ele>21</ele>
        <time>2010-08-22T09:13:39Z</time>
      </trkpt>
      <trkpt lat="47.47756" lon="-0.55396">
        <ele>21</ele>
        <time>2010-08-22T09:13:44Z</time>
      </trkpt>
      <trkpt lat="47.47755" lon="-0.55396">
        <ele>21</ele>
        <time>2010-08-22T09:13:49Z</time>
      </trkpt>
      <trkpt lat="47.47752" lon="-0.55392">
        <ele>21</ele>
        <time>2010-08-22T09:13:54Z</time>
      </trkpt>
      <trkpt lat="47.47743" lon="-0.55376">
        <ele>22</ele>
        <time>2010-08-22T09:13:59Z</time>
      </trkpt>
      <trkpt lat="47.47723" lon="-0.55333">
        <ele>24</ele>
        <time>2010-08-22T09:14:04Z</time>
      </trkpt>
      <trkpt lat="47.47706" lon="-0.55293">
        <ele>24</ele>
        <time>2010-08-22T09:14:09Z</time>
      </trkpt>
      <trkpt lat="47.47691" lon="-0.55252">
        <ele>23</ele>
        <time>2010-08-22T09:14:14Z</time>
      </trkpt>
      <trkpt lat="47.47681" lon="-0.55217">
        <ele>23</ele>
        <time>2010-08-22T09:14:19Z</time>
      </trkpt>
      <trkpt lat="47.4766" lon="-0.55167">
        <ele>23</ele>
        <time>2010-08-22T09:14:24Z</time>
      </trkpt>
      <trkpt lat="47.47647" lon="-0.55135">
        <ele>24</ele>
        <time>2010-08-22T09:14:29Z</time>
      </trkpt>
      <trkpt lat="47.4762" lon="-0.5509">
        <ele>24</ele>
        <time>2010-08-22T09:14:34Z</time>
      </trkpt>
      <trkpt lat="47.47608" lon="-0.55056">
        <ele>25</ele>
        <time>2010-08-22T09:14:39Z</time>
      </trkpt>
      <trkpt lat="47.47586" lon="-0.55009">
        <ele>25</ele>
        <time>2010-08-22T09:14:44Z</time>
      </trkpt>
      <trkpt lat="47.47581" lon="-0.54982">
        <ele>25</ele>
        <time>2010-08-22T09:14:49Z</time>
      </trkpt>
      <trkpt lat="47.47579" lon="-0.54964">
        <ele>25</ele>
        <time>2010-08-22T09:14:54Z</time>
      </trkpt>
      <trkpt lat="47.47582" lon="-0.54962">
        <ele>25</ele>
        <time>2010-08-22T09:14:59Z</time>
      </trkpt>
      <trkpt lat="47.47583" lon="-0.54962">
        <ele>25</ele>
        <time>2010-08-22T09:15:04Z</time>
      </trkpt>
      <trkpt lat="47.47584" lon="-0.54963">
        <ele>25</ele>
        <time>2010-08-22T09:15:09Z</time>
      </trkpt>
      <trkpt lat="47.47586" lon="-0.54963">
        <ele>25</ele>
        <time>2010-08-22T09:15:14Z</time>
      </trkpt>
      <trkpt lat="47.47587" lon="-0.54963">
        <ele>25</ele>
        <time>2010-08-22T09:15:19Z</time>
      </trkpt>
      <trkpt lat="47.47589" lon="-0.54963">
        <ele>25</ele>
        <time>2010-08-22T09:15:24Z</time>
      </trkpt>
      <trkpt lat="47.47589" lon="-0.54963">
        <ele>25</ele>
        <time>2010-08-22T09:15:29Z</time>
      </trkpt>
      <trkpt lat="47.47588" lon="-0.5496">
        <ele>25</ele>
        <time>2010-08-22T09:15:34Z</time>
      </trkpt>
      <trkpt lat="47.47582" lon="-0.54948">
        <ele>25</ele>
        <time>2010-08-22T09:15:39Z</time>
      </trkpt>
      <trkpt lat="47.47567" lon="-0.54916">
        <ele>25</ele>
        <time>2010-08-22T09:15:44Z</time>
      </trkpt>
      <trkpt lat="47.47558" lon="-0.54895">
        <ele>25</ele>
        <time>2010-08-22T09:15:49Z</time>
      </trkpt>
      <trkpt lat="47.47546" lon="-0.5487">
        <ele>25</ele>
        <time>2010-08-22T09:15:54Z</time>
      </trkpt>
      <trkpt lat="47.47544" lon="-0.54868">
        <ele>25</ele>
        <time>2010-08-22T09:15:59Z</time>
      </trkpt>
      <trkpt lat="47.47542" lon="-0.54867">
        <ele>25</ele>
        <time>2010-08-22T09:16:04Z</time>
      </trkpt>
      <trkpt lat="47.47544" lon="-0.54857">
        <ele>25</ele>
        <time>2010-08-22T09:16:09Z</time>
      </trkpt>
      <trkpt lat="47.47562" lon="-0.54836">
        <ele>24</ele>
        <time>2010-08-22T09:16:14Z</time>
      </trkpt>
      <trkpt lat="47.47584" lon="-0.54809">
        <ele>23</ele>
        <time>2010-08-22T09:16:19Z</time>
      </trkpt>
      <trkpt lat="47.47615" lon="-0.54775">
        <ele>23</ele>
        <time>2010-08-22T09:16:24Z</time>
      </trkpt>
      <trkpt lat="47.47637" lon="-0.54754">
        <ele>23</ele>
        <time>2010-08-22T09:16:29Z</time>
      </trkpt>
      <trkpt lat="47.47665" lon="-0.5473">
        <ele>23</ele>
        <time>2010-08-22T09:16:34Z</time>
      </trkpt>
      <trkpt lat="47.47693" lon="-0.54701">
        <ele>24</ele>
        <time>2010-08-22T09:16:39Z</time>
      </trkpt>
      <trkpt lat="47.47712" lon="-0.54683">
        <ele>24</ele>
        <time>2010-08-22T09:16:44Z</time>
      </trkpt>
      <trkpt lat="47.47741" lon="-0.54656">
        <ele>24</ele>
        <time>2010-08-22T09:16:49Z</time>
      </trkpt>
      <trkpt lat="47.4776" lon="-0.54636">
        <ele>24</ele>
        <time>2010-08-22T09:16:54Z</time>
      </trkpt>
      <trkpt lat="47.4779" lon="-0.54607">
        <ele>24</ele>
        <time>2010-08-22T09:16:59Z</time>
      </trkpt>
      <trkpt lat="47.4781" lon="-0.54589">
        <ele>23</ele>
        <time>2010-08-22T09:17:04Z</time>
      </trkpt>
      <trkpt lat="47.4784" lon="-0.54558">
        <ele>22</ele>
        <time>2010-08-22T09:17:09Z</time>
      </trkpt>
      <trkpt lat="47.47861" lon="-0.5454">
        <ele>22</ele>
        <time>2010-08-22T09:17:14Z</time>
      </trkpt>
      <trkpt lat="47.47893" lon="-0.54508">
        <ele>22</ele>
        <time>2010-08-22T09:17:19Z</time>
      </trkpt>
      <trkpt lat="47.47913" lon="-0.54487">
        <ele>23</ele>
        <time>2010-08-22T09:17:24Z</time>
      </trkpt>
      <trkpt lat="47.47946" lon="-0.54453">
        <ele>22</ele>
        <time>2010-08-22T09:17:29Z</time>
      </trkpt>
      <trkpt lat="47.47967" lon="-0.54431">
        <ele>22</ele>
        <time>2010-08-22T09:17:34Z</time>
      </trkpt>
      <trkpt lat="47.48001" lon="-0.54397">
        <ele>22</ele>
        <time>2010-08-22T09:17:39Z</time>
      </trkpt>
      <trkpt lat="47.48027" lon="-0.54375">
        <ele>22</ele>
        <time>2010-08-22T09:17:44Z</time>
      </trkpt>
      <trkpt lat="47.48057" lon="-0.5434">
        <ele>23</ele>
        <time>2010-08-22T09:17:49Z</time>
      </trkpt>
      <trkpt lat="47.4808" lon="-0.54324">
        <ele>23</ele>
        <time>2010-08-22T09:17:54Z</time>
      </trkpt>
      <trkpt lat="47.48116" lon="-0.54303">
        <ele>23</ele>
        <time>2010-08-22T09:17:59Z</time>
      </trkpt>
      <trkpt lat="47.4814" lon="-0.54292">
        <ele>23</ele>
        <time>2010-08-22T09:18:04Z</time>
      </trkpt>
      <trkpt lat="47.48177" lon="-0.54272">
        <ele>22</ele>
        <time>2010-08-22T09:18:09Z</time>
      </trkpt>
      <trkpt lat="47.48202" lon="-0.5426">
        <ele>22</ele>
        <time>2010-08-22T09:18:14Z</time>
      </trkpt>
      <trkpt lat="47.48238" lon="-0.54241">
        <ele>22</ele>
        <time>2010-08-22T09:18:19Z</time>
      </trkpt>
      <trkpt lat="47.48263" lon="-0.54228">
        <ele>22</ele>
        <time>2010-08-22T09:18:24Z</time>
      </trkpt>
      <trkpt lat="47.48299" lon="-0.54208">
        <ele>22</ele>
        <time>2010-08-22T09:18:29Z</time>
      </trkpt>
      <trkpt lat="47.48324" lon="-0.54196">
        <ele>22</ele>
        <time>2010-08-22T09:18:34Z</time>
      </trkpt>
      <trkpt lat="47.48361" lon="-0.54176">
        <ele>22</ele>
        <time>2010-08-22T09:18:39Z</time>
      </trkpt>
      <trkpt lat="47.48388" lon="-0.54165">
        <ele>22</ele>
        <time>2010-08-22T09:18:44Z</time>
      </trkpt>
      <trkpt lat="47.48426" lon="-0.54153">
        <ele>21</ele>
        <time>2010-08-22T09:18:49Z</time>
      </trkpt>
      <trkpt lat="47.48451" lon="-0.54147">
        <ele>21</ele>
        <time>2010-08-22T09:18:54Z</time>
      </trkpt>
      <trkpt lat="47.4849" lon="-0.54133">
        <ele>21</ele>
        <time>2010-08-22T09:18:59Z</time>
      </trkpt>
      <trkpt lat="47.48515" lon="-0.54121">
        <ele>21</ele>
        <time>2010-08-22T09:19:04Z</time>
      </trkpt>
      <trkpt lat="47.4855" lon="-0.54098">
        <ele>21</ele>
        <time>2010-08-22T09:19:09Z</time>
      </trkpt>
      <trkpt lat="47.48571" lon="-0.54079">
        <ele>21</ele>
        <time>2010-08-22T09:19:14Z</time>
      </trkpt>
      <trkpt lat="47.48601" lon="-0.54052">
        <ele>21</ele>
        <time>2010-08-22T09:19:19Z</time>
      </trkpt>
      <trkpt lat="47.4862" lon="-0.54035">
        <ele>21</ele>
        <time>2010-08-22T09:19:24Z</time>
      </trkpt>
      <trkpt lat="47.48647" lon="-0.54009">
        <ele>21</ele>
        <time>2010-08-22T09:19:29Z</time>
      </trkpt>
      <trkpt lat="47.48662" lon="-0.53989">
        <ele>20</ele>
        <time>2010-08-22T09:19:34Z</time>
      </trkpt>
      <trkpt lat="47.48677" lon="-0.53962">
        <ele>20</ele>
        <time>2010-08-22T09:19:39Z</time>
      </trkpt>
      <trkpt lat="47.48681" lon="-0.53951">
        <ele>20</ele>
        <time>2010-08-22T09:19:44Z</time>
      </trkpt>
      <trkpt lat="47.48681" lon="-0.53949">
        <ele>20</ele>
        <time>2010-08-22T09:19:49Z</time>
      </trkpt>
      <trkpt lat="47.48681" lon="-0.53949">
        <ele>20</ele>
        <time>2010-08-22T09:19:54Z</time>
      </trkpt>
      <trkpt lat="47.48682" lon="-0.53949">
        <ele>20</ele>
        <time>2010-08-22T09:19:59Z</time>
      </trkpt>
      <trkpt lat="47.48682" lon="-0.53949">
        <ele>20</ele>
        <time>2010-08-22T09:20:04Z</time>
      </trkpt>
      <trkpt lat="47.48682" lon="-0.53949">
        <ele>20</ele>
        <time>2010-08-22T09:20:09Z</time>
      </trkpt>
      <trkpt lat="47.48683" lon="-0.5395">
        <ele>20</ele>
        <time>2010-08-22T09:20:14Z</time>
      </trkpt>
      <trkpt lat="47.48683" lon="-0.5395">
        <ele>20</ele>
        <time>2010-08-22T09:20:19Z</time>
      </trkpt>
      <trkpt lat="47.48688" lon="-0.53924">
        <ele>20</ele>
        <time>2010-08-22T09:20:24Z</time>
      </trkpt>
      <trkpt lat="47.48688" lon="-0.53899">
        <ele>19</ele>
        <time>2010-08-22T09:20:29Z</time>
      </trkpt>
      <trkpt lat="47.48692" lon="-0.53857">
        <ele>20</ele>
        <time>2010-08-22T09:20:34Z</time>
      </trkpt>
      <trkpt lat="47.48709" lon="-0.53837">
        <ele>20</ele>
        <time>2010-08-22T09:20:39Z</time>
      </trkpt>
      <trkpt lat="47.48733" lon="-0.53806">
        <ele>21</ele>
        <time>2010-08-22T09:20:44Z</time>
      </trkpt>
      <trkpt lat="47.48746" lon="-0.53781">
        <ele>21</ele>
        <time>2010-08-22T09:20:49Z</time>
      </trkpt>
      <trkpt lat="47.48763" lon="-0.53743">
        <ele>24</ele>
        <time>2010-08-22T09:20:54Z</time>
      </trkpt>
      <trkpt lat="47.48773" lon="-0.53715">
        <ele>25</ele>
        <time>2010-08-22T09:20:59Z</time>
      </trkpt>
      <trkpt lat="47.48789" lon="-0.53677">
        <ele>26</ele>
        <time>2010-08-22T09:21:04Z</time>
      </trkpt>
      <trkpt lat="47.48803" lon="-0.53652">
        <ele>28</ele>
        <time>2010-08-22T09:21:09Z</time>
      </trkpt>
      <trkpt lat="47.48825" lon="-0.53615">
        <ele>29</ele>
        <time>2010-08-22T09:21:14Z</time>
      </trkpt>
      <trkpt lat="47.48842" lon="-0.5359">
        <ele>28</ele>
        <time>2010-08-22T09:21:19Z</time>
      </trkpt>
      <trkpt lat="47.48867" lon="-0.53552">
        <ele>28</ele>
        <time>2010-08-22T09:21:24Z</time>
      </trkpt>
      <trkpt lat="47.48884" lon="-0.53524">
        <ele>28</ele>
        <time>2010-08-22T09:21:29Z</time>
      </trkpt>
      <trkpt lat="47.4891" lon="-0.53482">
        <ele>29</ele>
        <time>2010-08-22T09:21:34Z</time>
      </trkpt>
      <trkpt lat="47.48928" lon="-0.53456">
        <ele>29</ele>
        <time>2010-08-22T09:21:39Z</time>
      </trkpt>
      <trkpt lat="47.48952" lon="-0.53415">
        <ele>31</ele>
        <time>2010-08-22T09:21:44Z</time>
      </trkpt>
      <trkpt lat="47.48969" lon="-0.53387">
        <ele>31</ele>
        <time>2010-08-22T09:21:49Z</time>
      </trkpt>
      <trkpt lat="47.48993" lon="-0.53348">
        <ele>31</ele>
        <time>2010-08-22T09:21:54Z</time>
      </trkpt>
      <trkpt lat="47.49009" lon="-0.53324">
        <ele>33</ele>
        <time>2010-08-22T09:21:59Z</time>
      </trkpt>
      <trkpt lat="47.49034" lon="-0.53287">
        <ele>34</ele>
        <time>2010-08-22T09:22:04Z</time>
      </trkpt>
      <trkpt lat="47.49049" lon="-0.53262">
        <ele>35</ele>
        <time>2010-08-22T09:22:09Z</time>
      </trkpt>
      <trkpt lat="47.49069" lon="-0.53224">
        <ele>37</ele>
        <time>2010-08-22T09:22:14Z</time>
      </trkpt>
      <trkpt lat="47.49086" lon="-0.532">
        <ele>37</ele>
        <time>2010-08-22T09:22:19Z</time>
      </trkpt>
      <trkpt lat="47.49108" lon="-0.53164">
        <ele>38</ele>
        <time>2010-08-22T09:22:24Z</time>
      </trkpt>
      <trkpt lat="47.49121" lon="-0.53138">
        <ele>38</ele>
        <time>2010-08-22T09:22:29Z</time>
      </trkpt>
      <trkpt lat="47.49133" lon="-0.53091">
        <ele>39</ele>
        <time>2010-08-22T09:22:34Z</time>
      </trkpt>
      <trkpt lat="47.49135" lon="-0.53057">
        <ele>41</ele>
        <time>2010-08-22T09:22:39Z</time>
      </trkpt>
      <trkpt lat="47.49132" lon="-0.53012">
        <ele>41</ele>
        <time>2010-08-22T09:22:44Z</time>
      </trkpt>
      <trkpt lat="47.49127" lon="-0.52989">
        <ele>42</ele>
        <time>2010-08-22T09:22:49Z</time>
      </trkpt>
      <trkpt lat="47.49125" lon="-0.52981">
        <ele>42</ele>
        <time>2010-08-22T09:22:54Z</time>
      </trkpt>
      <trkpt lat="47.49126" lon="-0.52979">
        <ele>42</ele>
        <time>2010-08-22T09:22:59Z</time>
      </trkpt>
      <trkpt lat="47.49137" lon="-0.5295">
        <ele>41</ele>
        <time>2010-08-22T09:23:04Z</time>
      </trkpt>
      <trkpt lat="47.49164" lon="-0.52937">
        <ele>40</ele>
        <time>2010-08-22T09:23:09Z</time>
      </trkpt>
      <trkpt lat="47.49199" lon="-0.52919">
        <ele>37</ele>
        <time>2010-08-22T09:23:14Z</time>
      </trkpt>
      <trkpt lat="47.49239" lon="-0.52896">
        <ele>38</ele>
        <time>2010-08-22T09:23:19Z</time>
      </trkpt>
      <trkpt lat="47.49282" lon="-0.5287">
        <ele>36</ele>
        <time>2010-08-22T09:23:24Z</time>
      </trkpt>
      <trkpt lat="47.49332" lon="-0.52848">
        <ele>34</ele>
        <time>2010-08-22T09:23:29Z</time>
      </trkpt>
      <trkpt lat="47.4937" lon="-0.52815">
        <ele>34</ele>
        <time>2010-08-22T09:23:34Z</time>
      </trkpt>
      <trkpt lat="47.49402" lon="-0.52788">
        <ele>35</ele>
        <time>2010-08-22T09:23:39Z</time>
      </trkpt>
      <trkpt lat="47.4943" lon="-0.52765">
        <ele>35</ele>
        <time>2010-08-22T09:23:44Z</time>
      </trkpt>
      <trkpt lat="47.49469" lon="-0.52733">
        <ele>34</ele>
        <time>2010-08-22T09:23:49Z</time>
      </trkpt>
      <trkpt lat="47.49499" lon="-0.5271">
        <ele>34</ele>
        <time>2010-08-22T09:23:54Z</time>
      </trkpt>
      <trkpt lat="47.49549" lon="-0.52676">
        <ele>30</ele>
        <time>2010-08-22T09:23:59Z</time>
      </trkpt>
      <trkpt lat="47.49587" lon="-0.52662">
        <ele>27</ele>
        <time>2010-08-22T09:24:04Z</time>
      </trkpt>
      <trkpt lat="47.49646" lon="-0.52655">
        <ele>25</ele>
        <time>2010-08-22T09:24:09Z</time>
      </trkpt>
      <trkpt lat="47.49683" lon="-0.52633">
        <ele>23</ele>
        <time>2010-08-22T09:24:14Z</time>
      </trkpt>
      <trkpt lat="47.49723" lon="-0.5258">
        <ele>25</ele>
        <time>2010-08-22T09:24:19Z</time>
      </trkpt>
      <trkpt lat="47.49744" lon="-0.52542">
        <ele>25</ele>
        <time>2010-08-22T09:24:24Z</time>
      </trkpt>
      <trkpt lat="47.49779" lon="-0.52495">
        <ele>27</ele>
        <time>2010-08-22T09:24:29Z</time>
      </trkpt>
      <trkpt lat="47.49805" lon="-0.52469">
        <ele>27</ele>
        <time>2010-08-22T09:24:34Z</time>
      </trkpt>
      <trkpt lat="47.49844" lon="-0.52432">
        <ele>25</ele>
        <time>2010-08-22T09:24:39Z</time>
      </trkpt>
      <trkpt lat="47.49869" lon="-0.52409">
        <ele>26</ele>
        <time>2010-08-22T09:24:44Z</time>
      </trkpt>
      <trkpt lat="47.49907" lon="-0.52372">
        <ele>26</ele>
        <time>2010-08-22T09:24:49Z</time>
      </trkpt>
      <trkpt lat="47.49934" lon="-0.52346">
        <ele>27</ele>
        <time>2010-08-22T09:24:54Z</time>
      </trkpt>
      <trkpt lat="47.49976" lon="-0.5231">
        <ele>29</ele>
        <time>2010-08-22T09:24:59Z</time>
      </trkpt>
      <trkpt lat="47.50006" lon="-0.5229">
        <ele>28</ele>
        <time>2010-08-22T09:25:04Z</time>
      </trkpt>
      <trkpt lat="47.50052" lon="-0.52265">
        <ele>27</ele>
        <time>2010-08-22T09:25:09Z</time>
      </trkpt>
      <trkpt lat="47.50081" lon="-0.52247">
        <ele>27</ele>
        <time>2010-08-22T09:25:14Z</time>
      </trkpt>
      <trkpt lat="47.50125" lon="-0.52219">
        <ele>28</ele>
        <time>2010-08-22T09:25:19Z</time>
      </trkpt>
      <trkpt lat="47.50153" lon="-0.52198">
        <ele>28</ele>
        <time>2010-08-22T09:25:24Z</time>
      </trkpt>
      <trkpt lat="47.50194" lon="-0.52162">
        <ele>30</ele>
        <time>2010-08-22T09:25:29Z</time>
      </trkpt>
      <trkpt lat="47.50221" lon="-0.52138">
        <ele>29</ele>
        <time>2010-08-22T09:25:34Z</time>
      </trkpt>
      <trkpt lat="47.50262" lon="-0.52099">
        <ele>28</ele>
        <time>2010-08-22T09:25:39Z</time>
      </trkpt>
      <trkpt lat="47.50291" lon="-0.52074">
        <ele>29</ele>
        <time>2010-08-22T09:25:44Z</time>
      </trkpt>
      <trkpt lat="47.50332" lon="-0.52038">
        <ele>29</ele>
        <time>2010-08-22T09:25:49Z</time>
      </trkpt>
      <trkpt lat="47.50357" lon="-0.52012">
        <ele>28</ele>
        <time>2010-08-22T09:25:54Z</time>
      </trkpt>
      <trkpt lat="47.50392" lon="-0.51972">
        <ele>28</ele>
        <time>2010-08-22T09:25:59Z</time>
      </trkpt>
      <trkpt lat="47.50417" lon="-0.51943">
        <ele>27</ele>
        <time>2010-08-22T09:26:04Z</time>
      </trkpt>
      <trkpt lat="47.50454" lon="-0.51898">
        <ele>28</ele>
        <time>2010-08-22T09:26:09Z</time>
      </trkpt>
      <trkpt lat="47.50481" lon="-0.51869">
        <ele>28</ele>
        <time>2010-08-22T09:26:14Z</time>
      </trkpt>
      <trkpt lat="47.50523" lon="-0.51828">
        <ele>28</ele>
        <time>2010-08-22T09:26:19Z</time>
      </trkpt>
      <trkpt lat="47.5055" lon="-0.518">
        <ele>28</ele>
        <time>2010-08-22T09:26:24Z</time>
      </trkpt>
      <trkpt lat="47.5059" lon="-0.5176">
        <ele>27</ele>
        <time>2010-08-22T09:26:29Z</time>
      </trkpt>
      <trkpt lat="47.50616" lon="-0.51734">
        <ele>28</ele>
        <time>2010-08-22T09:26:34Z</time>
      </trkpt>
      <trkpt lat="47.50657" lon="-0.51699">
        <ele>28</ele>
        <time>2010-08-22T09:26:39Z</time>
      </trkpt>
      <trkpt lat="47.50685" lon="-0.51678">
        <ele>27</ele>
        <time>2010-08-22T09:26:44Z</time>
      </trkpt>
      <trkpt lat="47.50732" lon="-0.51658">
        <ele>28</ele>
        <time>2010-08-22T09:26:49Z</time>
      </trkpt>
      <trkpt lat="47.50763" lon="-0.51645">
        <ele>27</ele>
        <time>2010-08-22T09:26:54Z</time>
      </trkpt>
      <trkpt lat="47.50801" lon="-0.51626">
        <ele>26</ele>
        <time>2010-08-22T09:26:59Z</time>
      </trkpt>
      <trkpt lat="47.50847" lon="-0.51601">
        <ele>24</ele>
        <time>2010-08-22T09:27:04Z</time>
      </trkpt>
      <trkpt lat="47.50877" lon="-0.51585">
        <ele>24</ele>
        <time>2010-08-22T09:27:09Z</time>
      </trkpt>
      <trkpt lat="47.50926" lon="-0.51558">
        <ele>22</ele>
        <time>2010-08-22T09:27:14Z</time>
      </trkpt>
      <trkpt lat="47.50959" lon="-0.5154">
        <ele>21</ele>
        <time>2010-08-22T09:27:19Z</time>
      </trkpt>
      <trkpt lat="47.51011" lon="-0.51513">
        <ele>19</ele>
        <time>2010-08-22T09:27:24Z</time>
      </trkpt>
      <trkpt lat="47.51046" lon="-0.51495">
        <ele>19</ele>
        <time>2010-08-22T09:27:29Z</time>
      </trkpt>
      <trkpt lat="47.51097" lon="-0.51473">
        <ele>19</ele>
        <time>2010-08-22T09:27:34Z</time>
      </trkpt>
      <trkpt lat="47.51127" lon="-0.51466">
        <ele>19</ele>
        <time>2010-08-22T09:27:39Z</time>
      </trkpt>
      <trkpt lat="47.51163" lon="-0.5143">
        <ele>20</ele>
        <time>2010-08-22T09:27:44Z</time>
      </trkpt>
      <trkpt lat="47.51195" lon="-0.51414">
        <ele>21</ele>
        <time>2010-08-22T09:27:49Z</time>
      </trkpt>
      <trkpt lat="47.51238" lon="-0.51392">
        <ele>21</ele>
        <time>2010-08-22T09:27:54Z</time>
      </trkpt>
      <trkpt lat="47.51265" lon="-0.51378">
        <ele>22</ele>
        <time>2010-08-22T09:27:59Z</time>
      </trkpt>
      <trkpt lat="47.51307" lon="-0.51355">
        <ele>22</ele>
        <time>2010-08-22T09:28:04Z</time>
      </trkpt>
      <trkpt lat="47.51337" lon="-0.51339">
        <ele>22</ele>
        <time>2010-08-22T09:28:09Z</time>
      </trkpt>
      <trkpt lat="47.51382" lon="-0.51315">
        <ele>24</ele>
        <time>2010-08-22T09:28:14Z</time>
      </trkpt>
      <trkpt lat="47.51411" lon="-0.51299">
        <ele>24</ele>
        <time>2010-08-22T09:28:19Z</time>
      </trkpt>
      <trkpt lat="47.51453" lon="-0.51277">
        <ele>24</ele>
        <time>2010-08-22T09:28:24Z</time>
      </trkpt>
      <trkpt lat="47.51481" lon="-0.51261">
        <ele>25</ele>
        <time>2010-08-22T09:28:29Z</time>
      </trkpt>
      <trkpt lat="47.51523" lon="-0.51238">
        <ele>25</ele>
        <time>2010-08-22T09:28:34Z</time>
      </trkpt>
      <trkpt lat="47.51551" lon="-0.51222">
        <ele>26</ele>
        <time>2010-08-22T09:28:39Z</time>
      </trkpt>
      <trkpt lat="47.51594" lon="-0.51199">
        <ele>26</ele>
        <time>2010-08-22T09:28:44Z</time>
      </trkpt>
      <trkpt lat="47.51622" lon="-0.51184">
        <ele>26</ele>
        <time>2010-08-22T09:28:49Z</time>
      </trkpt>
      <trkpt lat="47.51665" lon="-0.51161">
        <ele>27</ele>
        <time>2010-08-22T09:28:54Z</time>
      </trkpt>
      <trkpt lat="47.51694" lon="-0.51144">
        <ele>26</ele>
        <time>2010-08-22T09:28:59Z</time>
      </trkpt>
      <trkpt lat="47.51736" lon="-0.51122">
        <ele>26</ele>
        <time>2010-08-22T09:29:04Z</time>
      </trkpt>
      <trkpt lat="47.51766" lon="-0.51108">
        <ele>26</ele>
        <time>2010-08-22T09:29:09Z</time>
      </trkpt>
      <trkpt lat="47.51812" lon="-0.51094">
        <ele>26</ele>
        <time>2010-08-22T09:29:14Z</time>
      </trkpt>
      <trkpt lat="47.51845" lon="-0.51087">
        <ele>26</ele>
        <time>2010-08-22T09:29:19Z</time>
      </trkpt>
      <trkpt lat="47.51893" lon="-0.51078">
        <ele>26</ele>
        <time>2010-08-22T09:29:24Z</time>
      </trkpt>
      <trkpt lat="47.51924" lon="-0.51073">
        <ele>26</ele>
        <time>2010-08-22T09:29:29Z</time>
      </trkpt>
      <trkpt lat="47.51971" lon="-0.51066">
        <ele>26</ele>
        <time>2010-08-22T09:29:34Z</time>
      </trkpt>
      <trkpt lat="47.52001" lon="-0.51061">
        <ele>26</ele>
        <time>2010-08-22T09:29:39Z</time>
      </trkpt>
      <trkpt lat="47.52048" lon="-0.51053">
        <ele>26</ele>
        <time>2010-08-22T09:29:44Z</time>
      </trkpt>
      <trkpt lat="47.52079" lon="-0.51047">
        <ele>25</ele>
        <time>2010-08-22T09:29:49Z</time>
      </trkpt>
      <trkpt lat="47.52127" lon="-0.5104">
        <ele>26</ele>
        <time>2010-08-22T09:29:54Z</time>
      </trkpt>
      <trkpt lat="47.52159" lon="-0.51035">
        <ele>27</ele>
        <time>2010-08-22T09:29:59Z</time>
      </trkpt>
      <trkpt lat="47.52206" lon="-0.51022">
        <ele>27</ele>
        <time>2010-08-22T09:30:04Z</time>
      </trkpt>
      <trkpt lat="47.52236" lon="-0.51007">
        <ele>26</ele>
        <time>2010-08-22T09:30:09Z</time>
      </trkpt>
      <trkpt lat="47.52273" lon="-0.50982">
        <ele>26</ele>
        <time>2010-08-22T09:30:14Z</time>
      </trkpt>
      <trkpt lat="47.52307" lon="-0.50951">
        <ele>26</ele>
        <time>2010-08-22T09:30:19Z</time>
      </trkpt>
      <trkpt lat="47.52341" lon="-0.50917">
        <ele>25</ele>
        <time>2010-08-22T09:30:24Z</time>
      </trkpt>
      <trkpt lat="47.52375" lon="-0.50882">
        <ele>25</ele>
        <time>2010-08-22T09:30:29Z</time>
      </trkpt>
      <trkpt lat="47.52407" lon="-0.50843">
        <ele>26</ele>
        <time>2010-08-22T09:30:34Z</time>
      </trkpt>
      <trkpt lat="47.52444" lon="-0.50794">
        <ele>26</ele>
        <time>2010-08-22T09:30:39Z</time>
      </trkpt>
      <trkpt lat="47.52467" lon="-0.50763">
        <ele>26</ele>
        <time>2010-08-22T09:30:44Z</time>
      </trkpt>
      <trkpt lat="47.525" lon="-0.50718">
        <ele>28</ele>
        <time>2010-08-22T09:30:49Z</time>
      </trkpt>
      <trkpt lat="47.52522" lon="-0.5069">
        <ele>29</ele>
        <time>2010-08-22T09:30:54Z</time>
      </trkpt>
      <trkpt lat="47.52556" lon="-0.50646">
        <ele>30</ele>
        <time>2010-08-22T09:30:59Z</time>
      </trkpt>
      <trkpt lat="47.52577" lon="-0.50619">
        <ele>31</ele>
        <time>2010-08-22T09:31:04Z</time>
      </trkpt>
      <trkpt lat="47.52609" lon="-0.50579">
        <ele>31</ele>
        <time>2010-08-22T09:31:09Z</time>
      </trkpt>
      <trkpt lat="47.52628" lon="-0.50553">
        <ele>31</ele>
        <time>2010-08-22T09:31:14Z</time>
      </trkpt>
      <trkpt lat="47.52618" lon="-0.50508">
        <ele>32</ele>
        <time>2010-08-22T09:31:19Z</time>
      </trkpt>
      <trkpt lat="47.52597" lon="-0.50476">
        <ele>32</ele>
        <time>2010-08-22T09:31:24Z</time>
      </trkpt>
      <trkpt lat="47.52575" lon="-0.5042">
        <ele>32</ele>
        <time>2010-08-22T09:31:29Z</time>
      </trkpt>
      <trkpt lat="47.5257" lon="-0.50377">
        <ele>33</ele>
        <time>2010-08-22T09:31:34Z</time>
      </trkpt>
      <trkpt lat="47.52553" lon="-0.50316">
        <ele>34</ele>
        <time>2010-08-22T09:31:39Z</time>
      </trkpt>
      <trkpt lat="47.52537" lon="-0.50279">
        <ele>34</ele>
        <time>2010-08-22T09:31:44Z</time>
      </trkpt>
      <trkpt lat="47.52507" lon="-0.50227">
        <ele>34</ele>
        <time>2010-08-22T09:31:49Z</time>
      </trkpt>
      <trkpt lat="47.52486" lon="-0.50198">
        <ele>34</ele>
        <time>2010-08-22T09:31:54Z</time>
      </trkpt>
      <trkpt lat="47.52459" lon="-0.50155">
        <ele>35</ele>
        <time>2010-08-22T09:31:59Z</time>
      </trkpt>
      <trkpt lat="47.52445" lon="-0.50123">
        <ele>34</ele>
        <time>2010-08-22T09:32:04Z</time>
      </trkpt>
      <trkpt lat="47.52421" lon="-0.50074">
        <ele>34</ele>
        <time>2010-08-22T09:32:09Z</time>
      </trkpt>
      <trkpt lat="47.52389" lon="-0.50085">
        <ele>33</ele>
        <time>2010-08-22T09:32:14Z</time>
      </trkpt>
      <trkpt lat="47.52356" lon="-0.50134">
        <ele>32</ele>
        <time>2010-08-22T09:32:19Z</time>
      </trkpt>
      <trkpt lat="47.52387" lon="-0.50142">
        <ele>33</ele>
        <time>2010-08-22T09:32:24Z</time>
      </trkpt>
      <trkpt lat="47.52429" lon="-0.50117">
        <ele>34</ele>
        <time>2010-08-22T09:32:29Z</time>
      </trkpt>
      <trkpt lat="47.52454" lon="-0.50098">
        <ele>34</ele>
        <time>2010-08-22T09:32:34Z</time>
      </trkpt>
      <trkpt lat="47.52492" lon="-0.50065">
        <ele>35</ele>
        <time>2010-08-22T09:32:39Z</time>
      </trkpt>
      <trkpt lat="47.52504" lon="-0.50026">
        <ele>35</ele>
        <time>2010-08-22T09:32:44Z</time>
      </trkpt>
      <trkpt lat="47.52545" lon="-0.50032">
        <ele>36</ele>
        <time>2010-08-22T09:32:49Z</time>
      </trkpt>
      <trkpt lat="47.52572" lon="-0.50014">
        <ele>36</ele>
        <time>2010-08-22T09:32:54Z</time>
      </trkpt>
      <trkpt lat="47.52613" lon="-0.49986">
        <ele>38</ele>
        <time>2010-08-22T09:32:59Z</time>
      </trkpt>
      <trkpt lat="47.5264" lon="-0.49968">
        <ele>38</ele>
        <time>2010-08-22T09:33:04Z</time>
      </trkpt>
      <trkpt lat="47.52681" lon="-0.49939">
        <ele>38</ele>
        <time>2010-08-22T09:33:09Z</time>
      </trkpt>
      <trkpt lat="47.52709" lon="-0.49921">
        <ele>39</ele>
        <time>2010-08-22T09:33:14Z</time>
      </trkpt>
      <trkpt lat="47.52751" lon="-0.49893">
        <ele>38</ele>
        <time>2010-08-22T09:33:19Z</time>
      </trkpt>
      <trkpt lat="47.5278" lon="-0.49874">
        <ele>38</ele>
        <time>2010-08-22T09:33:24Z</time>
      </trkpt>
      <trkpt lat="47.52824" lon="-0.49846">
        <ele>37</ele>
        <time>2010-08-22T09:33:29Z</time>
      </trkpt>
      <trkpt lat="47.52854" lon="-0.49827">
        <ele>36</ele>
        <time>2010-08-22T09:33:34Z</time>
      </trkpt>
      <trkpt lat="47.529" lon="-0.49799">
        <ele>36</ele>
        <time>2010-08-22T09:33:39Z</time>
      </trkpt>
      <trkpt lat="47.52932" lon="-0.49779">
        <ele>36</ele>
        <time>2010-08-22T09:33:44Z</time>
      </trkpt>
      <trkpt lat="47.52972" lon="-0.49754">
        <ele>36</ele>
        <time>2010-08-22T09:33:49Z</time>
      </trkpt>
      <trkpt lat="47.53013" lon="-0.49729">
        <ele>35</ele>
        <time>2010-08-22T09:33:54Z</time>
      </trkpt>
      <trkpt lat="47.53054" lon="-0.49703">
        <ele>35</ele>
        <time>2010-08-22T09:33:59Z</time>
      </trkpt>
      <trkpt lat="47.53103" lon="-0.49672">
        <ele>33</ele>
        <time>2010-08-22T09:34:04Z</time>
      </trkpt>
      <trkpt lat="47.53145" lon="-0.49645">
        <ele>33</ele>
        <time>2010-08-22T09:34:09Z</time>
      </trkpt>
      <trkpt lat="47.53187" lon="-0.49617">
        <ele>31</ele>
        <time>2010-08-22T09:34:14Z</time>
      </trkpt>
      <trkpt lat="47.5322" lon="-0.49592">
        <ele>31</ele>
        <time>2010-08-22T09:34:19Z</time>
      </trkpt>
      <trkpt lat="47.53268" lon="-0.49552">
        <ele>30</ele>
        <time>2010-08-22T09:34:24Z</time>
      </trkpt>
      <trkpt lat="47.533" lon="-0.49524">
        <ele>30</ele>
        <time>2010-08-22T09:34:29Z</time>
      </trkpt>
      <trkpt lat="47.53347" lon="-0.4948">
        <ele>30</ele>
        <time>2010-08-22T09:34:34Z</time>
      </trkpt>
      <trkpt lat="47.53377" lon="-0.4945">
        <ele>30</ele>
        <time>2010-08-22T09:34:39Z</time>
      </trkpt>
      <trkpt lat="47.5342" lon="-0.49403">
        <ele>33</ele>
        <time>2010-08-22T09:34:44Z</time>
      </trkpt>
      <trkpt lat="47.53448" lon="-0.49372">
        <ele>33</ele>
        <time>2010-08-22T09:34:49Z</time>
      </trkpt>
      <trkpt lat="47.5349" lon="-0.49322">
        <ele>34</ele>
        <time>2010-08-22T09:34:54Z</time>
      </trkpt>
      <trkpt lat="47.53516" lon="-0.49289">
        <ele>35</ele>
        <time>2010-08-22T09:34:59Z</time>
      </trkpt>
      <trkpt lat="47.53555" lon="-0.49243">
        <ele>34</ele>
        <time>2010-08-22T09:35:04Z</time>
      </trkpt>
      <trkpt lat="47.53581" lon="-0.49215">
        <ele>34</ele>
        <time>2010-08-22T09:35:09Z</time>
      </trkpt>
      <trkpt lat="47.53621" lon="-0.49174">
        <ele>35</ele>
        <time>2010-08-22T09:35:14Z</time>
      </trkpt>
      <trkpt lat="47.53648" lon="-0.49148">
        <ele>37</ele>
        <time>2010-08-22T09:35:19Z</time>
      </trkpt>
      <trkpt lat="47.53689" lon="-0.49109">
        <ele>38</ele>
        <time>2010-08-22T09:35:24Z</time>
      </trkpt>
      <trkpt lat="47.53715" lon="-0.49085">
        <ele>38</ele>
        <time>2010-08-22T09:35:29Z</time>
      </trkpt>
      <trkpt lat="47.53754" lon="-0.4905">
        <ele>39</ele>
        <time>2010-08-22T09:35:34Z</time>
      </trkpt>
      <trkpt lat="47.53781" lon="-0.49026">
        <ele>39</ele>
        <time>2010-08-22T09:35:39Z</time>
      </trkpt>
      <trkpt lat="47.53824" lon="-0.4899">
        <ele>41</ele>
        <time>2010-08-22T09:35:44Z</time>
      </trkpt>
      <trkpt lat="47.53852" lon="-0.48963">
        <ele>42</ele>
        <time>2010-08-22T09:35:49Z</time>
      </trkpt>
      <trkpt lat="47.53893" lon="-0.48927">
        <ele>42</ele>
        <time>2010-08-22T09:35:54Z</time>
      </trkpt>
      <trkpt lat="47.5392" lon="-0.48903">
        <ele>41</ele>
        <time>2010-08-22T09:35:59Z</time>
      </trkpt>
      <trkpt lat="47.53961" lon="-0.48866">
        <ele>41</ele>
        <time>2010-08-22T09:36:04Z</time>
      </trkpt>
      <trkpt lat="47.53989" lon="-0.48841">
        <ele>41</ele>
        <time>2010-08-22T09:36:09Z</time>
      </trkpt>
      <trkpt lat="47.54029" lon="-0.48805">
        <ele>41</ele>
        <time>2010-08-22T09:36:14Z</time>
      </trkpt>
      <trkpt lat="47.54056" lon="-0.48781">
        <ele>41</ele>
        <time>2010-08-22T09:36:19Z</time>
      </trkpt>
      <trkpt lat="47.54096" lon="-0.48744">
        <ele>41</ele>
        <time>2010-08-22T09:36:24Z</time>
      </trkpt>
      <trkpt lat="47.54124" lon="-0.4872">
        <ele>42</ele>
        <time>2010-08-22T09:36:29Z</time>
      </trkpt>
      <trkpt lat="47.54165" lon="-0.48683">
        <ele>43</ele>
        <time>2010-08-22T09:36:34Z</time>
      </trkpt>
      <trkpt lat="47.54193" lon="-0.48658">
        <ele>42</ele>
        <time>2010-08-22T09:36:39Z</time>
      </trkpt>
      <trkpt lat="47.54235" lon="-0.4862">
        <ele>41</ele>
        <time>2010-08-22T09:36:44Z</time>
      </trkpt>
      <trkpt lat="47.54264" lon="-0.48597">
        <ele>40</ele>
        <time>2010-08-22T09:36:49Z</time>
      </trkpt>
      <trkpt lat="47.5431" lon="-0.48568">
        <ele>40</ele>
        <time>2010-08-22T09:36:54Z</time>
      </trkpt>
      <trkpt lat="47.54341" lon="-0.48549">
        <ele>40</ele>
        <time>2010-08-22T09:36:59Z</time>
      </trkpt>
      <trkpt lat="47.5438" lon="-0.48507">
        <ele>39</ele>
        <time>2010-08-22T09:37:04Z</time>
      </trkpt>
      <trkpt lat="47.544" lon="-0.48466">
        <ele>40</ele>
        <time>2010-08-22T09:37:09Z</time>
      </trkpt>
      <trkpt lat="47.54428" lon="-0.48398">
        <ele>40</ele>
        <time>2010-08-22T09:37:14Z</time>
      </trkpt>
      <trkpt lat="47.54443" lon="-0.48349">
        <ele>39</ele>
        <time>2010-08-22T09:37:19Z</time>
      </trkpt>
      <trkpt lat="47.5446" lon="-0.48289">
        <ele>38</ele>
        <time>2010-08-22T09:37:24Z</time>
      </trkpt>
      <trkpt lat="47.54489" lon="-0.48228">
        <ele>39</ele>
        <time>2010-08-22T09:37:29Z</time>
      </trkpt>
      <trkpt lat="47.54507" lon="-0.48189">
        <ele>41</ele>
        <time>2010-08-22T09:37:34Z</time>
      </trkpt>
      <trkpt lat="47.54528" lon="-0.48126">
        <ele>42</ele>
        <time>2010-08-22T09:37:39Z</time>
      </trkpt>
      <trkpt lat="47.54544" lon="-0.48072">
        <ele>42</ele>
        <time>2010-08-22T09:37:44Z</time>
      </trkpt>
      <trkpt lat="47.5456" lon="-0.48017">
        <ele>42</ele>
        <time>2010-08-22T09:37:49Z</time>
      </trkpt>
      <trkpt lat="47.54574" lon="-0.47974">
        <ele>42</ele>
        <time>2010-08-22T09:37:54Z</time>
      </trkpt>
      <trkpt lat="47.54594" lon="-0.47908">
        <ele>42</ele>
        <time>2010-08-22T09:37:59Z</time>
      </trkpt>
      <trkpt lat="47.54608" lon="-0.47862">
        <ele>42</ele>
        <time>2010-08-22T09:38:04Z</time>
      </trkpt>
      <trkpt lat="47.54629" lon="-0.47791">
        <ele>42</ele>
        <time>2010-08-22T09:38:09Z</time>
      </trkpt>
      <trkpt lat="47.54643" lon="-0.47743">
        <ele>42</ele>
        <time>2010-08-22T09:38:14Z</time>
      </trkpt>
      <trkpt lat="47.54665" lon="-0.47669">
        <ele>41</ele>
        <time>2010-08-22T09:38:19Z</time>
      </trkpt>
      <trkpt lat="47.54683" lon="-0.4762">
        <ele>39</ele>
        <time>2010-08-22T09:38:24Z</time>
      </trkpt>
      <trkpt lat="47.54717" lon="-0.47553">
        <ele>38</ele>
        <time>2010-08-22T09:38:29Z</time>
      </trkpt>
      <trkpt lat="47.54744" lon="-0.47514">
        <ele>38</ele>
        <time>2010-08-22T09:38:34Z</time>
      </trkpt>
      <trkpt lat="47.54785" lon="-0.47457">
        <ele>37</ele>
        <time>2010-08-22T09:38:39Z</time>
      </trkpt>
      <trkpt lat="47.54812" lon="-0.47419">
        <ele>37</ele>
        <time>2010-08-22T09:38:44Z</time>
      </trkpt>
      <trkpt lat="47.5485" lon="-0.47361">
        <ele>36</ele>
        <time>2010-08-22T09:38:49Z</time>
      </trkpt>
      <trkpt lat="47.54873" lon="-0.47317">
        <ele>36</ele>
        <time>2010-08-22T09:38:54Z</time>
      </trkpt>
      <trkpt lat="47.549" lon="-0.47244">
        <ele>36</ele>
        <time>2010-08-22T09:38:59Z</time>
      </trkpt>
      <trkpt lat="47.54915" lon="-0.47192">
        <ele>36</ele>
        <time>2010-08-22T09:39:04Z</time>
      </trkpt>
      <trkpt lat="47.54935" lon="-0.47109">
        <ele>33</ele>
        <time>2010-08-22T09:39:09Z</time>
      </trkpt>
      <trkpt lat="47.54947" lon="-0.47053">
        <ele>32</ele>
        <time>2010-08-22T09:39:14Z</time>
      </trkpt>
      <trkpt lat="47.54961" lon="-0.46967">
        <ele>32</ele>
        <time>2010-08-22T09:39:19Z</time>
      </trkpt>
      <trkpt lat="47.54968" lon="-0.46911">
        <ele>33</ele>
        <time>2010-08-22T09:39:24Z</time>
      </trkpt>
      <trkpt lat="47.54978" lon="-0.46835">
        <ele>33</ele>
        <time>2010-08-22T09:39:29Z</time>
      </trkpt>
      <trkpt lat="47.54989" lon="-0.46788">
        <ele>34</ele>
        <time>2010-08-22T09:39:34Z</time>
      </trkpt>
      <trkpt lat="47.55014" lon="-0.46725">
        <ele>34</ele>
        <time>2010-08-22T09:39:39Z</time>
      </trkpt>
      <trkpt lat="47.55034" lon="-0.46684">
        <ele>34</ele>
        <time>2010-08-22T09:39:44Z</time>
      </trkpt>
      <trkpt lat="47.55064" lon="-0.46622">
        <ele>33</ele>
        <time>2010-08-22T09:39:49Z</time>
      </trkpt>
      <trkpt lat="47.55085" lon="-0.46579">
        <ele>32</ele>
        <time>2010-08-22T09:39:54Z</time>
      </trkpt>
      <trkpt lat="47.55115" lon="-0.46511">
        <ele>33</ele>
        <time>2010-08-22T09:39:59Z</time>
      </trkpt>
      <trkpt lat="47.55132" lon="-0.46463">
        <ele>33</ele>
        <time>2010-08-22T09:40:04Z</time>
      </trkpt>
      <trkpt lat="47.55155" lon="-0.46391">
        <ele>32</ele>
        <time>2010-08-22T09:40:09Z</time>
      </trkpt>
      <trkpt lat="47.55163" lon="-0.46363">
        <ele>32</ele>
        <time>2010-08-22T09:40:14Z</time>
      </trkpt>
      <trkpt lat="47.55169" lon="-0.46345">
        <ele>31</ele>
        <time>2010-08-22T09:40:19Z</time>
      </trkpt>
      <trkpt lat="47.55172" lon="-0.46341">
        <ele>31</ele>
        <time>2010-08-22T09:40:24Z</time>
      </trkpt>
      <trkpt lat="47.55161" lon="-0.46368">
        <ele>32</ele>
        <time>2010-08-22T09:40:29Z</time>
      </trkpt>
      <trkpt lat="47.55155" lon="-0.46385">
        <ele>32</ele>
        <time>2010-08-22T09:40:34Z</time>
      </trkpt>
      <trkpt lat="47.55154" lon="-0.46386">
        <ele>32</ele>
        <time>2010-08-22T09:40:39Z</time>
      </trkpt>
      <trkpt lat="47.55163" lon="-0.46361">
        <ele>32</ele>
        <time>2010-08-22T09:40:44Z</time>
      </trkpt>
      <trkpt lat="47.55176" lon="-0.46325">
        <ele>31</ele>
        <time>2010-08-22T09:40:49Z</time>
      </trkpt>
      <trkpt lat="47.55192" lon="-0.46272">
        <ele>30</ele>
        <time>2010-08-22T09:40:54Z</time>
      </trkpt>
      <trkpt lat="47.55202" lon="-0.46234">
        <ele>30</ele>
        <time>2010-08-22T09:40:59Z</time>
      </trkpt>
      <trkpt lat="47.55211" lon="-0.46175">
        <ele>29</ele>
        <time>2010-08-22T09:41:04Z</time>
      </trkpt>
      <trkpt lat="47.55213" lon="-0.46132">
        <ele>28</ele>
        <time>2010-08-22T09:41:09Z</time>
      </trkpt>
      <trkpt lat="47.55217" lon="-0.46069">
        <ele>28</ele>
        <time>2010-08-22T09:41:14Z</time>
      </trkpt>
      <trkpt lat="47.55225" lon="-0.46029">
        <ele>28</ele>
        <time>2010-08-22T09:41:19Z</time>
      </trkpt>
      <trkpt lat="47.55245" lon="-0.45972">
        <ele>29</ele>
        <time>2010-08-22T09:41:24Z</time>
      </trkpt>
      <trkpt lat="47.55261" lon="-0.45938">
        <ele>29</ele>
        <time>2010-08-22T09:41:29Z</time>
      </trkpt>
      <trkpt lat="47.55282" lon="-0.4589">
        <ele>31</ele>
        <time>2010-08-22T09:41:34Z</time>
      </trkpt>
      <trkpt lat="47.55296" lon="-0.45854">
        <ele>32</ele>
        <time>2010-08-22T09:41:39Z</time>
      </trkpt>
      <trkpt lat="47.55312" lon="-0.45787">
        <ele>33</ele>
        <time>2010-08-22T09:41:44Z</time>
      </trkpt>
      <trkpt lat="47.55317" lon="-0.45739">
        <ele>34</ele>
        <time>2010-08-22T09:41:49Z</time>
      </trkpt>
      <trkpt lat="47.55314" lon="-0.4566">
        <ele>35</ele>
        <time>2010-08-22T09:41:54Z</time>
      </trkpt>
      <trkpt lat="47.55312" lon="-0.45605">
        <ele>35</ele>
        <time>2010-08-22T09:41:59Z</time>
      </trkpt>
      <trkpt lat="47.55323" lon="-0.4552">
        <ele>36</ele>
        <time>2010-08-22T09:42:04Z</time>
      </trkpt>
      <trkpt lat="47.55333" lon="-0.45463">
        <ele>36</ele>
        <time>2010-08-22T09:42:09Z</time>
      </trkpt>
      <trkpt lat="47.55354" lon="-0.45381">
        <ele>35</ele>
        <time>2010-08-22T09:42:14Z</time>
      </trkpt>
      <trkpt lat="47.55377" lon="-0.45331">
        <ele>35</ele>
        <time>2010-08-22T09:42:19Z</time>
      </trkpt>
      <trkpt lat="47.55415" lon="-0.45263">
        <ele>35</ele>
        <time>2010-08-22T09:42:24Z</time>
      </trkpt>
      <trkpt lat="47.55438" lon="-0.45222">
        <ele>36</ele>
        <time>2010-08-22T09:42:29Z</time>
      </trkpt>
      <trkpt lat="47.55468" lon="-0.45165">
        <ele>36</ele>
        <time>2010-08-22T09:42:34Z</time>
      </trkpt>
      <trkpt lat="47.55487" lon="-0.45127">
        <ele>35</ele>
        <time>2010-08-22T09:42:39Z</time>
      </trkpt>
      <trkpt lat="47.55507" lon="-0.4506">
        <ele>34</ele>
        <time>2010-08-22T09:42:44Z</time>
      </trkpt>
      <trkpt lat="47.55513" lon="-0.4501">
        <ele>33</ele>
        <time>2010-08-22T09:42:49Z</time>
      </trkpt>
      <trkpt lat="47.55509" lon="-0.44934">
        <ele>33</ele>
        <time>2010-08-22T09:42:54Z</time>
      </trkpt>
      <trkpt lat="47.55504" lon="-0.44883">
        <ele>32</ele>
        <time>2010-08-22T09:42:59Z</time>
      </trkpt>
      <trkpt lat="47.55499" lon="-0.44807">
        <ele>32</ele>
        <time>2010-08-22T09:43:04Z</time>
      </trkpt>
      <trkpt lat="47.55504" lon="-0.44757">
        <ele>31</ele>
        <time>2010-08-22T09:43:09Z</time>
      </trkpt>
      <trkpt lat="47.5552" lon="-0.4469">
        <ele>31</ele>
        <time>2010-08-22T09:43:14Z</time>
      </trkpt>
      <trkpt lat="47.55534" lon="-0.44649">
        <ele>31</ele>
        <time>2010-08-22T09:43:19Z</time>
      </trkpt>
      <trkpt lat="47.55555" lon="-0.44586">
        <ele>31</ele>
        <time>2010-08-22T09:43:24Z</time>
      </trkpt>
      <trkpt lat="47.5557" lon="-0.44546">
        <ele>31</ele>
        <time>2010-08-22T09:43:29Z</time>
      </trkpt>
      <trkpt lat="47.55596" lon="-0.44488">
        <ele>31</ele>
        <time>2010-08-22T09:43:34Z</time>
      </trkpt>
      <trkpt lat="47.55614" lon="-0.44447">
        <ele>31</ele>
        <time>2010-08-22T09:43:39Z</time>
      </trkpt>
      <trkpt lat="47.55641" lon="-0.44391">
        <ele>32</ele>
        <time>2010-08-22T09:43:44Z</time>
      </trkpt>
      <trkpt lat="47.55662" lon="-0.44356">
        <ele>32</ele>
        <time>2010-08-22T09:43:49Z</time>
      </trkpt>
      <trkpt lat="47.55696" lon="-0.44306">
        <ele>32</ele>
        <time>2010-08-22T09:43:54Z</time>
      </trkpt>
      <trkpt lat="47.55721" lon="-0.44271">
        <ele>31</ele>
        <time>2010-08-22T09:43:59Z</time>
      </trkpt>
      <trkpt lat="47.55749" lon="-0.44223">
        <ele>32</ele>
        <time>2010-08-22T09:44:04Z</time>
      </trkpt>
      <trkpt lat="47.55771" lon="-0.44171">
        <ele>31</ele>
        <time>2010-08-22T09:44:09Z</time>
      </trkpt>
      <trkpt lat="47.55793" lon="-0.44118">
        <ele>31</ele>
        <time>2010-08-22T09:44:14Z</time>
      </trkpt>
      <trkpt lat="47.55812" lon="-0.44065">
        <ele>30</ele>
        <time>2010-08-22T09:44:19Z</time>
      </trkpt>
      <trkpt lat="47.55829" lon="-0.44008">
        <ele>30</ele>
        <time>2010-08-22T09:44:24Z</time>
      </trkpt>
      <trkpt lat="47.55848" lon="-0.43939">
        <ele>32</ele>
        <time>2010-08-22T09:44:29Z</time>
      </trkpt>
      <trkpt lat="47.55859" lon="-0.43894">
        <ele>33</ele>
        <time>2010-08-22T09:44:34Z</time>
      </trkpt>
      <trkpt lat="47.55873" lon="-0.43822">
        <ele>35</ele>
        <time>2010-08-22T09:44:39Z</time>
      </trkpt>
      <trkpt lat="47.55881" lon="-0.43769">
        <ele>35</ele>
        <time>2010-08-22T09:44:44Z</time>
      </trkpt>
      <trkpt lat="47.5589" lon="-0.43683">
        <ele>36</ele>
        <time>2010-08-22T09:44:49Z</time>
      </trkpt>
      <trkpt lat="47.55896" lon="-0.43627">
        <ele>37</ele>
        <time>2010-08-22T09:44:54Z</time>
      </trkpt>
      <trkpt lat="47.55905" lon="-0.43542">
        <ele>39</ele>
        <time>2010-08-22T09:44:59Z</time>
      </trkpt>
      <trkpt lat="47.55912" lon="-0.43488">
        <ele>41</ele>
        <time>2010-08-22T09:45:04Z</time>
      </trkpt>
      <trkpt lat="47.55923" lon="-0.43414">
        <ele>41</ele>
        <time>2010-08-22T09:45:09Z</time>
      </trkpt>
      <trkpt lat="47.55924" lon="-0.43369">
        <ele>40</ele>
        <time>2010-08-22T09:45:14Z</time>
      </trkpt>
      <trkpt lat="47.55939" lon="-0.43314">
        <ele>39</ele>
        <time>2010-08-22T09:45:19Z</time>
      </trkpt>
      <trkpt lat="47.55946" lon="-0.43274">
        <ele>39</ele>
        <time>2010-08-22T09:45:24Z</time>
      </trkpt>
      <trkpt lat="47.55957" lon="-0.43213">
        <ele>39</ele>
        <time>2010-08-22T09:45:29Z</time>
      </trkpt>
      <trkpt lat="47.55963" lon="-0.43171">
        <ele>39</ele>
        <time>2010-08-22T09:45:34Z</time>
      </trkpt>
      <trkpt lat="47.5597" lon="-0.43106">
        <ele>41</ele>
        <time>2010-08-22T09:45:39Z</time>
      </trkpt>
      <trkpt lat="47.55977" lon="-0.43064">
        <ele>42</ele>
        <time>2010-08-22T09:45:44Z</time>
      </trkpt>
      <trkpt lat="47.55996" lon="-0.43004">
        <ele>43</ele>
        <time>2010-08-22T09:45:49Z</time>
      </trkpt>
      <trkpt lat="47.5601" lon="-0.42964">
        <ele>43</ele>
        <time>2010-08-22T09:45:54Z</time>
      </trkpt>
      <trkpt lat="47.56027" lon="-0.42901">
        <ele>43</ele>
        <time>2010-08-22T09:45:59Z</time>
      </trkpt>
      <trkpt lat="47.56039" lon="-0.42857">
        <ele>43</ele>
        <time>2010-08-22T09:46:04Z</time>
      </trkpt>
      <trkpt lat="47.56055" lon="-0.42797">
        <ele>43</ele>
        <time>2010-08-22T09:46:09Z</time>
      </trkpt>
      <trkpt lat="47.56065" lon="-0.42758">
        <ele>44</ele>
        <time>2010-08-22T09:46:14Z</time>
      </trkpt>
      <trkpt lat="47.56077" lon="-0.42701">
        <ele>44</ele>
        <time>2010-08-22T09:46:19Z</time>
      </trkpt>
      <trkpt lat="47.56085" lon="-0.4266">
        <ele>43</ele>
        <time>2010-08-22T09:46:24Z</time>
      </trkpt>
      <trkpt lat="47.56096" lon="-0.42588">
        <ele>39</ele>
        <time>2010-08-22T09:46:29Z</time>
      </trkpt>
      <trkpt lat="47.56104" lon="-0.42548">
        <ele>36</ele>
        <time>2010-08-22T09:46:34Z</time>
      </trkpt>
      <trkpt lat="47.56106" lon="-0.42483">
        <ele>33</ele>
        <time>2010-08-22T09:46:39Z</time>
      </trkpt>
      <trkpt lat="47.56095" lon="-0.42443">
        <ele>32</ele>
        <time>2010-08-22T09:46:44Z</time>
      </trkpt>
      <trkpt lat="47.56079" lon="-0.42392">
        <ele>32</ele>
        <time>2010-08-22T09:46:49Z</time>
      </trkpt>
      <trkpt lat="47.56077" lon="-0.4238">
        <ele>31</ele>
        <time>2010-08-22T09:46:54Z</time>
      </trkpt>
      <trkpt lat="47.56087" lon="-0.42367">
        <ele>30</ele>
        <time>2010-08-22T09:46:59Z</time>
      </trkpt>
      <trkpt lat="47.56111" lon="-0.42348">
        <ele>29</ele>
        <time>2010-08-22T09:47:04Z</time>
      </trkpt>
      <trkpt lat="47.5614" lon="-0.42325">
        <ele>26</ele>
        <time>2010-08-22T09:47:09Z</time>
      </trkpt>
      <trkpt lat="47.56181" lon="-0.42294">
        <ele>23</ele>
        <time>2010-08-22T09:47:14Z</time>
      </trkpt>
      <trkpt lat="47.56204" lon="-0.42276">
        <ele>22</ele>
        <time>2010-08-22T09:47:19Z</time>
      </trkpt>
      <trkpt lat="47.56214" lon="-0.42267">
        <ele>22</ele>
        <time>2010-08-22T09:47:24Z</time>
      </trkpt>
      <trkpt lat="47.56218" lon="-0.42263">
        <ele>22</ele>
        <time>2010-08-22T09:47:29Z</time>
      </trkpt>
      <trkpt lat="47.56218" lon="-0.42263">
        <ele>22</ele>
        <time>2010-08-22T09:47:34Z</time>
      </trkpt>
      <trkpt lat="47.56218" lon="-0.42263">
        <ele>22</ele>
        <time>2010-08-22T09:47:39Z</time>
      </trkpt>
      <trkpt lat="47.56218" lon="-0.42264">
        <ele>22</ele>
        <time>2010-08-22T09:47:44Z</time>
      </trkpt>
      <trkpt lat="47.56218" lon="-0.42263">
        <ele>22</ele>
        <time>2010-08-22T09:47:49Z</time>
      </trkpt>
      <trkpt lat="47.56219" lon="-0.42263">
        <ele>22</ele>
        <time>2010-08-22T09:47:54Z</time>
      </trkpt>
      <trkpt lat="47.56219" lon="-0.42262">
        <ele>22</ele>
        <time>2010-08-22T09:47:59Z</time>
      </trkpt>
      <trkpt lat="47.56219" lon="-0.42262">
        <ele>22</ele>
        <time>2010-08-22T09:48:04Z</time>
      </trkpt>
      <trkpt lat="47.56219" lon="-0.42264">
        <ele>22</ele>
        <time>2010-08-22T09:48:09Z</time>
      </trkpt>
      <trkpt lat="47.56219" lon="-0.42267">
        <ele>22</ele>
        <time>2010-08-22T09:48:14Z</time>
      </trkpt>
      <trkpt lat="47.56219" lon="-0.42269">
        <ele>22</ele>
        <time>2010-08-22T09:48:19Z</time>
      </trkpt>
      <trkpt lat="47.56219" lon="-0.42269">
        <ele>22</ele>
        <time>2010-08-22T09:48:24Z</time>
      </trkpt>
      <trkpt lat="47.56219" lon="-0.42269">
        <ele>22</ele>
        <time>2010-08-22T09:48:29Z</time>
      </trkpt>
      <trkpt lat="47.56219" lon="-0.42269">
        <ele>22</ele>
        <time>2010-08-22T09:48:34Z</time>
      </trkpt>
      <trkpt lat="47.56219" lon="-0.4227">
        <ele>22</ele>
        <time>2010-08-22T09:48:39Z</time>
      </trkpt>
      <trkpt lat="47.56219" lon="-0.42271">
        <ele>22</ele>
        <time>2010-08-22T09:48:44Z</time>
      </trkpt>
      <trkpt lat="47.56219" lon="-0.42273">
        <ele>22</ele>
        <time>2010-08-22T09:48:49Z</time>
      </trkpt>
      <trkpt lat="47.56218" lon="-0.42273">
        <ele>22</ele>
        <time>2010-08-22T09:48:54Z</time>
      </trkpt>
      <trkpt lat="47.56218" lon="-0.42274">
        <ele>22</ele>
        <time>2010-08-22T09:48:59Z</time>
      </trkpt>
      <trkpt lat="47.56219" lon="-0.42273">
        <ele>22</ele>
        <time>2010-08-22T09:49:04Z</time>
      </trkpt>
      <trkpt lat="47.56219" lon="-0.42272">
        <ele>22</ele>
        <time>2010-08-22T09:49:09Z</time>
      </trkpt>
      <trkpt lat="47.56219" lon="-0.4227">
        <ele>22</ele>
        <time>2010-08-22T09:49:14Z</time>
      </trkpt>
      <trkpt lat="47.5622" lon="-0.4227">
        <ele>22</ele>
        <time>2010-08-22T09:49:19Z</time>
      </trkpt>
      <trkpt lat="47.5622" lon="-0.42269">
        <ele>22</ele>
        <time>2010-08-22T09:49:24Z</time>
      </trkpt>
      <trkpt lat="47.56221" lon="-0.4227">
        <ele>22</ele>
        <time>2010-08-22T09:49:29Z</time>
      </trkpt>
      <trkpt lat="47.56221" lon="-0.4227">
        <ele>22</ele>
        <time>2010-08-22T09:49:34Z</time>
      </trkpt>
      <trkpt lat="47.5622" lon="-0.4227">
        <ele>22</ele>
        <time>2010-08-22T09:49:39Z</time>
      </trkpt>
      <trkpt lat="47.56224" lon="-0.42271">
        <ele>21</ele>
        <time>2010-08-22T09:49:44Z</time>
      </trkpt>
      <trkpt lat="47.56224" lon="-0.42272">
        <ele>21</ele>
        <time>2010-08-22T09:49:49Z</time>
      </trkpt>
      <trkpt lat="47.56223" lon="-0.42273">
        <ele>22</ele>
        <time>2010-08-22T09:49:54Z</time>
      </trkpt>
      <trkpt lat="47.56223" lon="-0.42273">
        <ele>22</ele>
        <time>2010-08-22T09:49:59Z</time>
      </trkpt>
      <trkpt lat="47.56224" lon="-0.42275">
        <ele>22</ele>
        <time>2010-08-22T09:50:04Z</time>
      </trkpt>
      <trkpt lat="47.56225" lon="-0.42275">
        <ele>22</ele>
        <time>2010-08-22T09:50:09Z</time>
      </trkpt>
      <trkpt lat="47.56224" lon="-0.42275">
        <ele>22</ele>
        <time>2010-08-22T09:50:14Z</time>
      </trkpt>
      <trkpt lat="47.56223" lon="-0.42275">
        <ele>22</ele>
        <time>2010-08-22T09:50:19Z</time>
      </trkpt>
      <trkpt lat="47.56221" lon="-0.42274">
        <ele>22</ele>
        <time>2010-08-22T09:50:24Z</time>
      </trkpt>
      <trkpt lat="47.5622" lon="-0.42274">
        <ele>22</ele>
        <time>2010-08-22T09:50:29Z</time>
      </trkpt>
      <trkpt lat="47.5622" lon="-0.42274">
        <ele>22</ele>
        <time>2010-08-22T09:50:34Z</time>
      </trkpt>
      <trkpt lat="47.56219" lon="-0.42276">
        <ele>22</ele>
        <time>2010-08-22T09:50:39Z</time>
      </trkpt>
      <trkpt lat="47.56219" lon="-0.42284">
        <ele>22</ele>
        <time>2010-08-22T09:50:44Z</time>
      </trkpt>
      <trkpt lat="47.56214" lon="-0.42307">
        <ele>22</ele>
        <time>2010-08-22T09:50:49Z</time>
      </trkpt>
      <trkpt lat="47.5621" lon="-0.42333">
        <ele>22</ele>
        <time>2010-08-22T09:50:54Z</time>
      </trkpt>
      <trkpt lat="47.56205" lon="-0.42371">
        <ele>23</ele>
        <time>2010-08-22T09:50:59Z</time>
      </trkpt>
      <trkpt lat="47.56186" lon="-0.4238">
        <ele>24</ele>
        <time>2010-08-22T09:51:04Z</time>
      </trkpt>
      <trkpt lat="47.56157" lon="-0.424">
        <ele>28</ele>
        <time>2010-08-22T09:51:09Z</time>
      </trkpt>
      <trkpt lat="47.5614" lon="-0.42419">
        <ele>30</ele>
        <time>2010-08-22T09:51:14Z</time>
      </trkpt>
      <trkpt lat="47.56118" lon="-0.42453">
        <ele>32</ele>
        <time>2010-08-22T09:51:19Z</time>
      </trkpt>
      <trkpt lat="47.56102" lon="-0.42468">
        <ele>33</ele>
        <time>2010-08-22T09:51:24Z</time>
      </trkpt>
      <trkpt lat="47.56095" lon="-0.42501">
        <ele>35</ele>
        <time>2010-08-22T09:51:29Z</time>
      </trkpt>
      <trkpt lat="47.56098" lon="-0.42535">
        <ele>36</ele>
        <time>2010-08-22T09:51:34Z</time>
      </trkpt>
      <trkpt lat="47.56092" lon="-0.42585">
        <ele>40</ele>
        <time>2010-08-22T09:51:39Z</time>
      </trkpt>
      <trkpt lat="47.56086" lon="-0.42619">
        <ele>40</ele>
        <time>2010-08-22T09:51:44Z</time>
      </trkpt>
      <trkpt lat="47.5608" lon="-0.42668">
        <ele>45</ele>
        <time>2010-08-22T09:51:49Z</time>
      </trkpt>
      <trkpt lat="47.56076" lon="-0.427">
        <ele>44</ele>
        <time>2010-08-22T09:51:54Z</time>
      </trkpt>
      <trkpt lat="47.5607" lon="-0.42746">
        <ele>45</ele>
        <time>2010-08-22T09:51:59Z</time>
      </trkpt>
      <trkpt lat="47.56063" lon="-0.42775">
        <ele>44</ele>
        <time>2010-08-22T09:52:04Z</time>
      </trkpt>
      <trkpt lat="47.56051" lon="-0.42817">
        <ele>43</ele>
        <time>2010-08-22T09:52:09Z</time>
      </trkpt>
      <trkpt lat="47.56045" lon="-0.42828">
        <ele>43</ele>
        <time>2010-08-22T09:52:14Z</time>
      </trkpt>
      <trkpt lat="47.56053" lon="-0.42802">
        <ele>43</ele>
        <time>2010-08-22T09:52:19Z</time>
      </trkpt>
      <trkpt lat="47.56059" lon="-0.42779">
        <ele>44</ele>
        <time>2010-08-22T09:52:24Z</time>
      </trkpt>
      <trkpt lat="47.56068" lon="-0.42748">
        <ele>45</ele>
        <time>2010-08-22T09:52:29Z</time>
      </trkpt>
      <trkpt lat="47.56072" lon="-0.42726">
        <ele>44</ele>
        <time>2010-08-22T09:52:34Z</time>
      </trkpt>
      <trkpt lat="47.56078" lon="-0.42688">
        <ele>44</ele>
        <time>2010-08-22T09:52:39Z</time>
      </trkpt>
      <trkpt lat="47.56083" lon="-0.42657">
        <ele>44</ele>
        <time>2010-08-22T09:52:44Z</time>
      </trkpt>
      <trkpt lat="47.56089" lon="-0.42607">
        <ele>39</ele>
        <time>2010-08-22T09:52:49Z</time>
      </trkpt>
      <trkpt lat="47.56095" lon="-0.42573">
        <ele>37</ele>
        <time>2010-08-22T09:52:54Z</time>
      </trkpt>
      <trkpt lat="47.56107" lon="-0.42522">
        <ele>35</ele>
        <time>2010-08-22T09:52:59Z</time>
      </trkpt>
      <trkpt lat="47.56104" lon="-0.42484">
        <ele>33</ele>
        <time>2010-08-22T09:53:04Z</time>
      </trkpt>
      <trkpt lat="47.56083" lon="-0.42417">
        <ele>33</ele>
        <time>2010-08-22T09:53:09Z</time>
      </trkpt>
      <trkpt lat="47.56074" lon="-0.42382">
        <ele>31</ele>
        <time>2010-08-22T09:53:14Z</time>
      </trkpt>
      <trkpt lat="47.56098" lon="-0.42356">
        <ele>30</ele>
        <time>2010-08-22T09:53:19Z</time>
      </trkpt>
      <trkpt lat="47.56129" lon="-0.42334">
        <ele>28</ele>
        <time>2010-08-22T09:53:24Z</time>
      </trkpt>
      <trkpt lat="47.5618" lon="-0.42295">
        <ele>23</ele>
        <time>2010-08-22T09:53:29Z</time>
      </trkpt>
      <trkpt lat="47.56209" lon="-0.42272">
        <ele>22</ele>
        <time>2010-08-22T09:53:34Z</time>
      </trkpt>
      <trkpt lat="47.56226" lon="-0.42293">
        <ele>22</ele>
        <time>2010-08-22T09:53:39Z</time>
      </trkpt>
      <trkpt lat="47.56217" lon="-0.42329">
        <ele>22</ele>
        <time>2010-08-22T09:53:44Z</time>
      </trkpt>
      <trkpt lat="47.56201" lon="-0.42374">
        <ele>23</ele>
        <time>2010-08-22T09:53:49Z</time>
      </trkpt>
      <trkpt lat="47.56177" lon="-0.42388">
        <ele>24</ele>
        <time>2010-08-22T09:53:54Z</time>
      </trkpt>
      <trkpt lat="47.56151" lon="-0.42407">
        <ele>28</ele>
        <time>2010-08-22T09:53:59Z</time>
      </trkpt>
      <trkpt lat="47.56128" lon="-0.42444">
        <ele>31</ele>
        <time>2010-08-22T09:54:04Z</time>
      </trkpt>
      <trkpt lat="47.56112" lon="-0.42465">
        <ele>32</ele>
        <time>2010-08-22T09:54:09Z</time>
      </trkpt>
      <trkpt lat="47.56098" lon="-0.4249">
        <ele>34</ele>
        <time>2010-08-22T09:54:14Z</time>
      </trkpt>
      <trkpt lat="47.56102" lon="-0.42529">
        <ele>35</ele>
        <time>2010-08-22T09:54:19Z</time>
      </trkpt>
      <trkpt lat="47.56095" lon="-0.42573">
        <ele>38</ele>
        <time>2010-08-22T09:54:24Z</time>
      </trkpt>
      <trkpt lat="47.56088" lon="-0.42609">
        <ele>39</ele>
        <time>2010-08-22T09:54:29Z</time>
      </trkpt>
      <trkpt lat="47.56081" lon="-0.42664">
        <ele>45</ele>
        <time>2010-08-22T09:54:34Z</time>
      </trkpt>
      <trkpt lat="47.56077" lon="-0.42699">
        <ele>44</ele>
        <time>2010-08-22T09:54:39Z</time>
      </trkpt>
      <trkpt lat="47.56071" lon="-0.42746">
        <ele>45</ele>
        <time>2010-08-22T09:54:44Z</time>
      </trkpt>
      <trkpt lat="47.56064" lon="-0.42775">
        <ele>44</ele>
        <time>2010-08-22T09:54:49Z</time>
      </trkpt>
      <trkpt lat="47.56053" lon="-0.42814">
        <ele>43</ele>
        <time>2010-08-22T09:54:54Z</time>
      </trkpt>
      <trkpt lat="47.56042" lon="-0.4282">
        <ele>43</ele>
        <time>2010-08-22T09:54:59Z</time>
      </trkpt>
      <trkpt lat="47.56053" lon="-0.42799">
        <ele>43</ele>
        <time>2010-08-22T09:55:04Z</time>
      </trkpt>
      <trkpt lat="47.56058" lon="-0.4278">
        <ele>44</ele>
        <time>2010-08-22T09:55:09Z</time>
      </trkpt>
      <trkpt lat="47.56067" lon="-0.42744">
        <ele>44</ele>
        <time>2010-08-22T09:55:14Z</time>
      </trkpt>
      <trkpt lat="47.56073" lon="-0.42718">
        <ele>44</ele>
        <time>2010-08-22T09:55:19Z</time>
      </trkpt>
      <trkpt lat="47.5608" lon="-0.42673">
        <ele>45</ele>
        <time>2010-08-22T09:55:24Z</time>
      </trkpt>
      <trkpt lat="47.56086" lon="-0.42635">
        <ele>40</ele>
        <time>2010-08-22T09:55:29Z</time>
      </trkpt>
      <trkpt lat="47.56099" lon="-0.42569">
        <ele>37</ele>
        <time>2010-08-22T09:55:34Z</time>
      </trkpt>
      <trkpt lat="47.56109" lon="-0.42518">
        <ele>35</ele>
        <time>2010-08-22T09:55:39Z</time>
      </trkpt>
      <trkpt lat="47.56096" lon="-0.42461">
        <ele>32</ele>
        <time>2010-08-22T09:55:44Z</time>
      </trkpt>
      <trkpt lat="47.56088" lon="-0.42434">
        <ele>32</ele>
        <time>2010-08-22T09:55:49Z</time>
      </trkpt>
      <trkpt lat="47.56074" lon="-0.42385">
        <ele>32</ele>
        <time>2010-08-22T09:55:54Z</time>
      </trkpt>
      <trkpt lat="47.56085" lon="-0.42365">
        <ele>30</ele>
        <time>2010-08-22T09:55:59Z</time>
      </trkpt>
      <trkpt lat="47.5613" lon="-0.42339">
        <ele>28</ele>
        <time>2010-08-22T09:56:04Z</time>
      </trkpt>
      <trkpt lat="47.5616" lon="-0.42314">
        <ele>26</ele>
        <time>2010-08-22T09:56:09Z</time>
      </trkpt>
      <trkpt lat="47.56204" lon="-0.42279">
        <ele>22</ele>
        <time>2010-08-22T09:56:14Z</time>
      </trkpt>
      <trkpt lat="47.5622" lon="-0.42276">
        <ele>22</ele>
        <time>2010-08-22T09:56:19Z</time>
      </trkpt>
      <trkpt lat="47.56217" lon="-0.42316">
        <ele>22</ele>
        <time>2010-08-22T09:56:24Z</time>
      </trkpt>
      <trkpt lat="47.56215" lon="-0.42347">
        <ele>23</ele>
        <time>2010-08-22T09:56:29Z</time>
      </trkpt>
      <trkpt lat="47.56196" lon="-0.42377">
        <ele>23</ele>
        <time>2010-08-22T09:56:34Z</time>
      </trkpt>
      <trkpt lat="47.56175" lon="-0.42387">
        <ele>24</ele>
        <time>2010-08-22T09:56:39Z</time>
      </trkpt>
      <trkpt lat="47.56147" lon="-0.42409">
        <ele>28</ele>
        <time>2010-08-22T09:56:44Z</time>
      </trkpt>
      <trkpt lat="47.56134" lon="-0.42431">
        <ele>31</ele>
        <time>2010-08-22T09:56:49Z</time>
      </trkpt>
      <trkpt lat="47.56116" lon="-0.42461">
        <ele>32</ele>
        <time>2010-08-22T09:56:54Z</time>
      </trkpt>
      <trkpt lat="47.56101" lon="-0.42473">
        <ele>33</ele>
        <time>2010-08-22T09:56:59Z</time>
      </trkpt>
      <trkpt lat="47.561" lon="-0.42509">
        <ele>35</ele>
        <time>2010-08-22T09:57:04Z</time>
      </trkpt>
      <trkpt lat="47.56099" lon="-0.42536">
        <ele>36</ele>
        <time>2010-08-22T09:57:09Z</time>
      </trkpt>
      <trkpt lat="47.56092" lon="-0.42575">
        <ele>38</ele>
        <time>2010-08-22T09:57:14Z</time>
      </trkpt>
      <trkpt lat="47.56088" lon="-0.426">
        <ele>39</ele>
        <time>2010-08-22T09:57:19Z</time>
      </trkpt>
      <trkpt lat="47.56084" lon="-0.42636">
        <ele>41</ele>
        <time>2010-08-22T09:57:24Z</time>
      </trkpt>
      <trkpt lat="47.56081" lon="-0.42661">
        <ele>44</ele>
        <time>2010-08-22T09:57:29Z</time>
      </trkpt>
      <trkpt lat="47.56077" lon="-0.42697">
        <ele>44</ele>
        <time>2010-08-22T09:57:34Z</time>
      </trkpt>
      <trkpt lat="47.56073" lon="-0.42726">
        <ele>44</ele>
        <time>2010-08-22T09:57:39Z</time>
      </trkpt>
      <trkpt lat="47.56069" lon="-0.4275">
        <ele>45</ele>
        <time>2010-08-22T09:57:44Z</time>
      </trkpt>
      <trkpt lat="47.5606" lon="-0.42788">
        <ele>44</ele>
        <time>2010-08-22T09:57:49Z</time>
      </trkpt>
      <trkpt lat="47.56052" lon="-0.42813">
        <ele>43</ele>
        <time>2010-08-22T09:57:54Z</time>
      </trkpt>
      <trkpt lat="47.56044" lon="-0.4281">
        <ele>43</ele>
        <time>2010-08-22T09:57:59Z</time>
      </trkpt>
      <trkpt lat="47.56055" lon="-0.42791">
        <ele>44</ele>
        <time>2010-08-22T09:58:04Z</time>
      </trkpt>
      <trkpt lat="47.56065" lon="-0.4276">
        <ele>44</ele>
        <time>2010-08-22T09:58:09Z</time>
      </trkpt>
      <trkpt lat="47.56071" lon="-0.4274">
        <ele>45</ele>
        <time>2010-08-22T09:58:14Z</time>
      </trkpt>
      <trkpt lat="47.56077" lon="-0.42708">
        <ele>44</ele>
        <time>2010-08-22T09:58:19Z</time>
      </trkpt>
      <trkpt lat="47.5608" lon="-0.42681">
        <ele>45</ele>
        <time>2010-08-22T09:58:24Z</time>
      </trkpt>
      <trkpt lat="47.56088" lon="-0.42627">
        <ele>40</ele>
        <time>2010-08-22T09:58:29Z</time>
      </trkpt>
      <trkpt lat="47.56096" lon="-0.42586">
        <ele>39</ele>
        <time>2010-08-22T09:58:34Z</time>
      </trkpt>
      <trkpt lat="47.56107" lon="-0.42524">
        <ele>35</ele>
        <time>2010-08-22T09:58:39Z</time>
      </trkpt>
      <trkpt lat="47.56104" lon="-0.42483">
        <ele>33</ele>
        <time>2010-08-22T09:58:44Z</time>
      </trkpt>
      <trkpt lat="47.56085" lon="-0.42416">
        <ele>33</ele>
        <time>2010-08-22T09:58:49Z</time>
      </trkpt>
      <trkpt lat="47.56077" lon="-0.42386">
        <ele>32</ele>
        <time>2010-08-22T09:58:54Z</time>
      </trkpt>
      <trkpt lat="47.56093" lon="-0.4236">
        <ele>30</ele>
        <time>2010-08-22T09:58:59Z</time>
      </trkpt>
      <trkpt lat="47.56119" lon="-0.42346">
        <ele>29</ele>
        <time>2010-08-22T09:59:04Z</time>
      </trkpt>
      <trkpt lat="47.56166" lon="-0.42311">
        <ele>26</ele>
        <time>2010-08-22T09:59:09Z</time>
      </trkpt>
      <trkpt lat="47.56194" lon="-0.42289">
        <ele>22</ele>
        <time>2010-08-22T09:59:14Z</time>
      </trkpt>
      <trkpt lat="47.56219" lon="-0.42269">
        <ele>22</ele>
        <time>2010-08-22T09:59:19Z</time>
      </trkpt>
      <trkpt lat="47.56221" lon="-0.42272">
        <ele>22</ele>
        <time>2010-08-22T09:59:24Z</time>
      </trkpt>
      <trkpt lat="47.5622" lon="-0.42271">
        <ele>22</ele>
        <time>2010-08-22T09:59:29Z</time>
      </trkpt>
      <trkpt lat="47.5622" lon="-0.42271">
        <ele>22</ele>
        <time>2010-08-22T09:59:34Z</time>
      </trkpt>
      <trkpt lat="47.56218" lon="-0.42273">
        <ele>22</ele>
        <time>2010-08-22T09:59:39Z</time>
      </trkpt>
      <trkpt lat="47.56217" lon="-0.42274">
        <ele>22</ele>
        <time>2010-08-22T09:59:44Z</time>
      </trkpt>
      <trkpt lat="47.56217" lon="-0.42275">
        <ele>22</ele>
        <time>2010-08-22T09:59:49Z</time>
      </trkpt>
      <trkpt lat="47.56215" lon="-0.42276">
        <ele>22</ele>
        <time>2010-08-22T09:59:54Z</time>
      </trkpt>
      <trkpt lat="47.56215" lon="-0.42275">
        <ele>22</ele>
        <time>2010-08-22T09:59:59Z</time>
      </trkpt>
      <trkpt lat="47.56215" lon="-0.42275">
        <ele>22</ele>
        <time>2010-08-22T10:00:04Z</time>
      </trkpt>
      <trkpt lat="47.56216" lon="-0.42274">
        <ele>22</ele>
        <time>2010-08-22T10:00:09Z</time>
      </trkpt>
      <trkpt lat="47.56216" lon="-0.42274">
        <ele>22</ele>
        <time>2010-08-22T10:00:14Z</time>
      </trkpt>
      <trkpt lat="47.56216" lon="-0.42273">
        <ele>22</ele>
        <time>2010-08-22T10:00:19Z</time>
      </trkpt>
      <trkpt lat="47.56216" lon="-0.42273">
        <ele>22</ele>
        <time>2010-08-22T10:00:24Z</time>
      </trkpt>
      <trkpt lat="47.56216" lon="-0.42273">
        <ele>22</ele>
        <time>2010-08-22T10:00:29Z</time>
      </trkpt>
      <trkpt lat="47.56217" lon="-0.42273">
        <ele>22</ele>
        <time>2010-08-22T10:00:34Z</time>
      </trkpt>
      <trkpt lat="47.56217" lon="-0.42273">
        <ele>22</ele>
        <time>2010-08-22T10:00:39Z</time>
      </trkpt>
      <trkpt lat="47.56216" lon="-0.42274">
        <ele>22</ele>
        <time>2010-08-22T10:00:44Z</time>
      </trkpt>
      <trkpt lat="47.56215" lon="-0.42275">
        <ele>22</ele>
        <time>2010-08-22T10:00:49Z</time>
      </trkpt>
      <trkpt lat="47.56214" lon="-0.42276">
        <ele>22</ele>
        <time>2010-08-22T10:00:54Z</time>
      </trkpt>
      <trkpt lat="47.56216" lon="-0.42277">
        <ele>22</ele>
        <time>2010-08-22T10:00:59Z</time>
      </trkpt>
      <trkpt lat="47.56217" lon="-0.42278">
        <ele>22</ele>
        <time>2010-08-22T10:01:04Z</time>
      </trkpt>
      <trkpt lat="47.56217" lon="-0.42279">
        <ele>22</ele>
        <time>2010-08-22T10:01:09Z</time>
      </trkpt>
      <trkpt lat="47.56217" lon="-0.4228">
        <ele>22</ele>
        <time>2010-08-22T10:01:14Z</time>
      </trkpt>
      <trkpt lat="47.56217" lon="-0.4228">
        <ele>22</ele>
        <time>2010-08-22T10:01:19Z</time>
      </trkpt>
      <trkpt lat="47.56217" lon="-0.4228">
        <ele>22</ele>
        <time>2010-08-22T10:01:24Z</time>
      </trkpt>
      <trkpt lat="47.56215" lon="-0.42279">
        <ele>22</ele>
        <time>2010-08-22T10:01:29Z</time>
      </trkpt>
      <trkpt lat="47.56214" lon="-0.42278">
        <ele>22</ele>
        <time>2010-08-22T10:01:34Z</time>
      </trkpt>
      <trkpt lat="47.56214" lon="-0.42278">
        <ele>22</ele>
        <time>2010-08-22T10:01:39Z</time>
      </trkpt>
      <trkpt lat="47.56215" lon="-0.42277">
        <ele>22</ele>
        <time>2010-08-22T10:01:44Z</time>
      </trkpt>
      <trkpt lat="47.56215" lon="-0.42276">
        <ele>22</ele>
        <time>2010-08-22T10:01:49Z</time>
      </trkpt>
      <trkpt lat="47.56216" lon="-0.42276">
        <ele>22</ele>
        <time>2010-08-22T10:01:54Z</time>
      </trkpt>
      <trkpt lat="47.56216" lon="-0.42275">
        <ele>22</ele>
        <time>2010-08-22T10:01:59Z</time>
      </trkpt>
      <trkpt lat="47.56217" lon="-0.42275">
        <ele>22</ele>
        <time>2010-08-22T10:02:04Z</time>
      </trkpt>
      <trkpt lat="47.56217" lon="-0.42275">
        <ele>22</ele>
        <time>2010-08-22T10:02:09Z</time>
      </trkpt>
      <trkpt lat="47.56218" lon="-0.42275">
        <ele>22</ele>
        <time>2010-08-22T10:02:14Z</time>
      </trkpt>
      <trkpt lat="47.56218" lon="-0.42274">
        <ele>22</ele>
        <time>2010-08-22T10:02:19Z</time>
      </trkpt>
      <trkpt lat="47.56218" lon="-0.42274">
        <ele>22</ele>
        <time>2010-08-22T10:02:24Z</time>
      </trkpt>
      <trkpt lat="47.56218" lon="-0.42274">
        <ele>22</ele>
        <time>2010-08-22T10:02:29Z</time>
      </trkpt>
      <trkpt lat="47.56218" lon="-0.42274">
        <ele>22</ele>
        <time>2010-08-22T10:02:34Z</time>
      </trkpt>
      <trkpt lat="47.56218" lon="-0.42274">
        <ele>22</ele>
        <time>2010-08-22T10:02:39Z</time>
      </trkpt>
      <trkpt lat="47.56218" lon="-0.42274">
        <ele>22</ele>
        <time>2010-08-22T10:02:44Z</time>
      </trkpt>
      <trkpt lat="47.56218" lon="-0.42274">
        <ele>22</ele>
        <time>2010-08-22T10:02:49Z</time>
      </trkpt>
      <trkpt lat="47.56217" lon="-0.42274">
        <ele>22</ele>
        <time>2010-08-22T10:02:54Z</time>
      </trkpt>
      <trkpt lat="47.56217" lon="-0.42274">
        <ele>22</ele>
        <time>2010-08-22T10:02:59Z</time>
      </trkpt>
      <trkpt lat="47.56217" lon="-0.42274">
        <ele>22</ele>
        <time>2010-08-22T10:03:04Z</time>
      </trkpt>
      <trkpt lat="47.56217" lon="-0.42274">
        <ele>22</ele>
        <time>2010-08-22T10:03:09Z</time>
      </trkpt>
      <trkpt lat="47.56217" lon="-0.42273">
        <ele>22</ele>
        <time>2010-08-22T10:03:14Z</time>
      </trkpt>
      <trkpt lat="47.56217" lon="-0.42272">
        <ele>22</ele>
        <time>2010-08-22T10:03:19Z</time>
      </trkpt>
      <trkpt lat="47.56217" lon="-0.42272">
        <ele>22</ele>
        <time>2010-08-22T10:03:24Z</time>
      </trkpt>
      <trkpt lat="47.56217" lon="-0.42272">
        <ele>22</ele>
        <time>2010-08-22T10:03:29Z</time>
      </trkpt>
      <trkpt lat="47.56217" lon="-0.42272">
        <ele>22</ele>
        <time>2010-08-22T10:03:34Z</time>
      </trkpt>
      <trkpt lat="47.56217" lon="-0.42271">
        <ele>22</ele>
        <time>2010-08-22T10:03:39Z</time>
      </trkpt>
      <trkpt lat="47.56217" lon="-0.42271">
        <ele>22</ele>
        <time>2010-08-22T10:03:44Z</time>
      </trkpt>
      <trkpt lat="47.56217" lon="-0.42271">
        <ele>22</ele>
        <time>2010-08-22T10:03:49Z</time>
      </trkpt>
      <trkpt lat="47.56216" lon="-0.42269">
        <ele>22</ele>
        <time>2010-08-22T10:03:54Z</time>
      </trkpt>
      <trkpt lat="47.56216" lon="-0.42268">
        <ele>22</ele>
        <time>2010-08-22T10:03:59Z</time>
      </trkpt>
      <trkpt lat="47.56217" lon="-0.4227">
        <ele>22</ele>
        <time>2010-08-22T10:04:04Z</time>
      </trkpt>
      <trkpt lat="47.56217" lon="-0.42271">
        <ele>22</ele>
        <time>2010-08-22T10:04:09Z</time>
      </trkpt>
      <trkpt lat="47.56218" lon="-0.42271">
        <ele>22</ele>
        <time>2010-08-22T10:04:14Z</time>
      </trkpt>
      <trkpt lat="47.56218" lon="-0.42271">
        <ele>22</ele>
        <time>2010-08-22T10:04:19Z</time>
      </trkpt>
      <trkpt lat="47.56219" lon="-0.42271">
        <ele>22</ele>
        <time>2010-08-22T10:04:24Z</time>
      </trkpt>
      <trkpt lat="47.56219" lon="-0.4227">
        <ele>22</ele>
        <time>2010-08-22T10:04:29Z</time>
      </trkpt>
      <trkpt lat="47.56219" lon="-0.4227">
        <ele>22</ele>
        <time>2010-08-22T10:04:34Z</time>
      </trkpt>
      <trkpt lat="47.56219" lon="-0.42269">
        <ele>22</ele>
        <time>2010-08-22T10:04:39Z</time>
      </trkpt>
      <trkpt lat="47.56218" lon="-0.4227">
        <ele>22</ele>
        <time>2010-08-22T10:04:44Z</time>
      </trkpt>
      <trkpt lat="47.56219" lon="-0.4227">
        <ele>22</ele>
        <time>2010-08-22T10:04:49Z</time>
      </trkpt>
      <trkpt lat="47.56218" lon="-0.4227">
        <ele>22</ele>
        <time>2010-08-22T10:04:54Z</time>
      </trkpt>
      <trkpt lat="47.56218" lon="-0.42271">
        <ele>22</ele>
        <time>2010-08-22T10:04:59Z</time>
      </trkpt>
      <trkpt lat="47.56218" lon="-0.42271">
        <ele>22</ele>
        <time>2010-08-22T10:05:04Z</time>
      </trkpt>
      <trkpt lat="47.56218" lon="-0.42271">
        <ele>22</ele>
        <time>2010-08-22T10:05:09Z</time>
      </trkpt>
      <trkpt lat="47.56218" lon="-0.42271">
        <ele>22</ele>
        <time>2010-08-22T10:05:14Z</time>
      </trkpt>
      <trkpt lat="47.56217" lon="-0.42272">
        <ele>22</ele>
        <time>2010-08-22T10:05:19Z</time>
      </trkpt>
      <trkpt lat="47.56217" lon="-0.42272">
        <ele>22</ele>
        <time>2010-08-22T10:05:24Z</time>
      </trkpt>
      <trkpt lat="47.56217" lon="-0.42272">
        <ele>22</ele>
        <time>2010-08-22T10:05:29Z</time>
      </trkpt>
      <trkpt lat="47.56218" lon="-0.42272">
        <ele>22</ele>
        <time>2010-08-22T10:05:34Z</time>
      </trkpt>
      <trkpt lat="47.56218" lon="-0.42272">
        <ele>22</ele>
        <time>2010-08-22T10:05:39Z</time>
      </trkpt>
      <trkpt lat="47.56218" lon="-0.42272">
        <ele>22</ele>
        <time>2010-08-22T10:05:44Z</time>
      </trkpt>
      <trkpt lat="47.56218" lon="-0.42272">
        <ele>22</ele>
        <time>2010-08-22T10:05:49Z</time>
      </trkpt>
      <trkpt lat="47.56217" lon="-0.42272">
        <ele>22</ele>
        <time>2010-08-22T10:05:54Z</time>
      </trkpt>
      <trkpt lat="47.56217" lon="-0.42272">
        <ele>22</ele>
        <time>2010-08-22T10:05:59Z</time>
      </trkpt>
      <trkpt lat="47.56217" lon="-0.42271">
        <ele>22</ele>
        <time>2010-08-22T10:06:04Z</time>
      </trkpt>
      <trkpt lat="47.56216" lon="-0.42271">
        <ele>22</ele>
        <time>2010-08-22T10:06:09Z</time>
      </trkpt>
      <trkpt lat="47.56214" lon="-0.42271">
        <ele>22</ele>
        <time>2010-08-22T10:06:14Z</time>
      </trkpt>
      <trkpt lat="47.56215" lon="-0.42271">
        <ele>22</ele>
        <time>2010-08-22T10:06:19Z</time>
      </trkpt>
      <trkpt lat="47.56216" lon="-0.42271">
        <ele>22</ele>
        <time>2010-08-22T10:06:24Z</time>
      </trkpt>
      <trkpt lat="47.56214" lon="-0.42272">
        <ele>22</ele>
        <time>2010-08-22T10:06:29Z</time>
      </trkpt>
      <trkpt lat="47.56214" lon="-0.42274">
        <ele>22</ele>
        <time>2010-08-22T10:06:34Z</time>
      </trkpt>
      <trkpt lat="47.56214" lon="-0.42274">
        <ele>22</ele>
        <time>2010-08-22T10:06:39Z</time>
      </trkpt>
      <trkpt lat="47.56215" lon="-0.42284">
        <ele>22</ele>
        <time>2010-08-22T10:06:44Z</time>
      </trkpt>
      <trkpt lat="47.56213" lon="-0.42308">
        <ele>22</ele>
        <time>2010-08-22T10:06:49Z</time>
      </trkpt>
      <trkpt lat="47.5621" lon="-0.42326">
        <ele>22</ele>
        <time>2010-08-22T10:06:54Z</time>
      </trkpt>
      <trkpt lat="47.56213" lon="-0.42358">
        <ele>23</ele>
        <time>2010-08-22T10:06:59Z</time>
      </trkpt>
      <trkpt lat="47.56207" lon="-0.42371">
        <ele>23</ele>
        <time>2010-08-22T10:07:04Z</time>
      </trkpt>
      <trkpt lat="47.56184" lon="-0.42382">
        <ele>24</ele>
        <time>2010-08-22T10:07:09Z</time>
      </trkpt>
      <trkpt lat="47.56171" lon="-0.42388">
        <ele>24</ele>
        <time>2010-08-22T10:07:14Z</time>
      </trkpt>
      <trkpt lat="47.56156" lon="-0.42402">
        <ele>28</ele>
        <time>2010-08-22T10:07:19Z</time>
      </trkpt>
      <trkpt lat="47.56148" lon="-0.42413">
        <ele>28</ele>
        <time>2010-08-22T10:07:24Z</time>
      </trkpt>
      <trkpt lat="47.56138" lon="-0.42429">
        <ele>30</ele>
        <time>2010-08-22T10:07:29Z</time>
      </trkpt>
      <trkpt lat="47.56131" lon="-0.4244">
        <ele>31</ele>
        <time>2010-08-22T10:07:34Z</time>
      </trkpt>
      <trkpt lat="47.5612" lon="-0.42454">
        <ele>32</ele>
        <time>2010-08-22T10:07:39Z</time>
      </trkpt>
      <trkpt lat="47.56107" lon="-0.42464">
        <ele>32</ele>
        <time>2010-08-22T10:07:44Z</time>
      </trkpt>
      <trkpt lat="47.56099" lon="-0.42479">
        <ele>33</ele>
        <time>2010-08-22T10:07:49Z</time>
      </trkpt>
      <trkpt lat="47.56101" lon="-0.42504">
        <ele>35</ele>
        <time>2010-08-22T10:07:54Z</time>
      </trkpt>
      <trkpt lat="47.561" lon="-0.42524">
        <ele>35</ele>
        <time>2010-08-22T10:07:59Z</time>
      </trkpt>
      <trkpt lat="47.56095" lon="-0.42553">
        <ele>36</ele>
        <time>2010-08-22T10:08:04Z</time>
      </trkpt>
      <trkpt lat="47.56091" lon="-0.42571">
        <ele>38</ele>
        <time>2010-08-22T10:08:09Z</time>
      </trkpt>
      <trkpt lat="47.56086" lon="-0.42601">
        <ele>39</ele>
        <time>2010-08-22T10:08:14Z</time>
      </trkpt>
      <trkpt lat="47.56084" lon="-0.42622">
        <ele>40</ele>
        <time>2010-08-22T10:08:19Z</time>
      </trkpt>
      <trkpt lat="47.5608" lon="-0.42655">
        <ele>44</ele>
        <time>2010-08-22T10:08:24Z</time>
      </trkpt>
      <trkpt lat="47.56076" lon="-0.42681">
        <ele>45</ele>
        <time>2010-08-22T10:08:29Z</time>
      </trkpt>
      <trkpt lat="47.56074" lon="-0.42707">
        <ele>44</ele>
        <time>2010-08-22T10:08:34Z</time>
      </trkpt>
      <trkpt lat="47.56071" lon="-0.42729">
        <ele>44</ele>
        <time>2010-08-22T10:08:39Z</time>
      </trkpt>
      <trkpt lat="47.56065" lon="-0.42763">
        <ele>44</ele>
        <time>2010-08-22T10:08:44Z</time>
      </trkpt>
      <trkpt lat="47.56059" lon="-0.42786">
        <ele>44</ele>
        <time>2010-08-22T10:08:49Z</time>
      </trkpt>
      <trkpt lat="47.5605" lon="-0.42824">
        <ele>43</ele>
        <time>2010-08-22T10:08:54Z</time>
      </trkpt>
      <trkpt lat="47.56042" lon="-0.42848">
        <ele>43</ele>
        <time>2010-08-22T10:08:59Z</time>
      </trkpt>
      <trkpt lat="47.56034" lon="-0.42887">
        <ele>43</ele>
        <time>2010-08-22T10:09:04Z</time>
      </trkpt>
      <trkpt lat="47.56027" lon="-0.42915">
        <ele>43</ele>
        <time>2010-08-22T10:09:09Z</time>
      </trkpt>
      <trkpt lat="47.56016" lon="-0.42955">
        <ele>43</ele>
        <time>2010-08-22T10:09:14Z</time>
      </trkpt>
      <trkpt lat="47.56009" lon="-0.4298">
        <ele>43</ele>
        <time>2010-08-22T10:09:19Z</time>
      </trkpt>
      <trkpt lat="47.55996" lon="-0.43017">
        <ele>43</ele>
        <time>2010-08-22T10:09:24Z</time>
      </trkpt>
      <trkpt lat="47.55987" lon="-0.43045">
        <ele>43</ele>
        <time>2010-08-22T10:09:29Z</time>
      </trkpt>
      <trkpt lat="47.55974" lon="-0.43095">
        <ele>41</ele>
        <time>2010-08-22T10:09:34Z</time>
      </trkpt>
      <trkpt lat="47.55969" lon="-0.43132">
        <ele>40</ele>
        <time>2010-08-22T10:09:39Z</time>
      </trkpt>
      <trkpt lat="47.55962" lon="-0.43191">
        <ele>39</ele>
        <time>2010-08-22T10:09:44Z</time>
      </trkpt>
      <trkpt lat="47.55956" lon="-0.43227">
        <ele>39</ele>
        <time>2010-08-22T10:09:49Z</time>
      </trkpt>
      <trkpt lat="47.55946" lon="-0.43278">
        <ele>39</ele>
        <time>2010-08-22T10:09:54Z</time>
      </trkpt>
      <trkpt lat="47.5594" lon="-0.43313">
        <ele>39</ele>
        <time>2010-08-22T10:09:59Z</time>
      </trkpt>
      <trkpt lat="47.55931" lon="-0.43362">
        <ele>40</ele>
        <time>2010-08-22T10:10:04Z</time>
      </trkpt>
      <trkpt lat="47.55926" lon="-0.43394">
        <ele>40</ele>
        <time>2010-08-22T10:10:09Z</time>
      </trkpt>
      <trkpt lat="47.55918" lon="-0.43448">
        <ele>40</ele>
        <time>2010-08-22T10:10:14Z</time>
      </trkpt>
      <trkpt lat="47.55913" lon="-0.43482">
        <ele>41</ele>
        <time>2010-08-22T10:10:19Z</time>
      </trkpt>
      <trkpt lat="47.55906" lon="-0.43535">
        <ele>40</ele>
        <time>2010-08-22T10:10:24Z</time>
      </trkpt>
      <trkpt lat="47.55902" lon="-0.43573">
        <ele>38</ele>
        <time>2010-08-22T10:10:29Z</time>
      </trkpt>
      <trkpt lat="47.55895" lon="-0.43636">
        <ele>37</ele>
        <time>2010-08-22T10:10:34Z</time>
      </trkpt>
      <trkpt lat="47.5589" lon="-0.43681">
        <ele>36</ele>
        <time>2010-08-22T10:10:39Z</time>
      </trkpt>
      <trkpt lat="47.55881" lon="-0.43755">
        <ele>35</ele>
        <time>2010-08-22T10:10:44Z</time>
      </trkpt>
      <trkpt lat="47.55875" lon="-0.43806">
        <ele>35</ele>
        <time>2010-08-22T10:10:49Z</time>
      </trkpt>
      <trkpt lat="47.55864" lon="-0.43869">
        <ele>34</ele>
        <time>2010-08-22T10:10:54Z</time>
      </trkpt>
      <trkpt lat="47.55852" lon="-0.43926">
        <ele>32</ele>
        <time>2010-08-22T10:10:59Z</time>
      </trkpt>
      <trkpt lat="47.55834" lon="-0.43995">
        <ele>30</ele>
        <time>2010-08-22T10:11:04Z</time>
      </trkpt>
      <trkpt lat="47.55821" lon="-0.44041">
        <ele>30</ele>
        <time>2010-08-22T10:11:09Z</time>
      </trkpt>
      <trkpt lat="47.55801" lon="-0.44103">
        <ele>30</ele>
        <time>2010-08-22T10:11:14Z</time>
      </trkpt>
      <trkpt lat="47.55782" lon="-0.4415">
        <ele>31</ele>
        <time>2010-08-22T10:11:19Z</time>
      </trkpt>
      <trkpt lat="47.55767" lon="-0.44187">
        <ele>31</ele>
        <time>2010-08-22T10:11:24Z</time>
      </trkpt>
      <trkpt lat="47.55743" lon="-0.44241">
        <ele>31</ele>
        <time>2010-08-22T10:11:29Z</time>
      </trkpt>
      <trkpt lat="47.55725" lon="-0.44275">
        <ele>31</ele>
        <time>2010-08-22T10:11:34Z</time>
      </trkpt>
      <trkpt lat="47.55694" lon="-0.44319">
        <ele>32</ele>
        <time>2010-08-22T10:11:39Z</time>
      </trkpt>
      <trkpt lat="47.55673" lon="-0.44348">
        <ele>32</ele>
        <time>2010-08-22T10:11:44Z</time>
      </trkpt>
      <trkpt lat="47.55641" lon="-0.44401">
        <ele>32</ele>
        <time>2010-08-22T10:11:49Z</time>
      </trkpt>
      <trkpt lat="47.55621" lon="-0.44443">
        <ele>31</ele>
        <time>2010-08-22T10:11:54Z</time>
      </trkpt>
      <trkpt lat="47.55593" lon="-0.44506">
        <ele>31</ele>
        <time>2010-08-22T10:11:59Z</time>
      </trkpt>
      <trkpt lat="47.55576" lon="-0.44543">
        <ele>31</ele>
        <time>2010-08-22T10:12:04Z</time>
      </trkpt>
      <trkpt lat="47.55556" lon="-0.44594">
        <ele>31</ele>
        <time>2010-08-22T10:12:09Z</time>
      </trkpt>
      <trkpt lat="47.55544" lon="-0.4463">
        <ele>31</ele>
        <time>2010-08-22T10:12:14Z</time>
      </trkpt>
      <trkpt lat="47.55526" lon="-0.44683">
        <ele>31</ele>
        <time>2010-08-22T10:12:19Z</time>
      </trkpt>
      <trkpt lat="47.55515" lon="-0.44719">
        <ele>31</ele>
        <time>2010-08-22T10:12:24Z</time>
      </trkpt>
      <trkpt lat="47.55502" lon="-0.44776">
        <ele>31</ele>
        <time>2010-08-22T10:12:29Z</time>
      </trkpt>
      <trkpt lat="47.55499" lon="-0.44815">
        <ele>32</ele>
        <time>2010-08-22T10:12:34Z</time>
      </trkpt>
      <trkpt lat="47.55503" lon="-0.44874">
        <ele>32</ele>
        <time>2010-08-22T10:12:39Z</time>
      </trkpt>
      <trkpt lat="47.55507" lon="-0.44912">
        <ele>33</ele>
        <time>2010-08-22T10:12:44Z</time>
      </trkpt>
      <trkpt lat="47.55513" lon="-0.4497">
        <ele>33</ele>
        <time>2010-08-22T10:12:49Z</time>
      </trkpt>
      <trkpt lat="47.55514" lon="-0.45008">
        <ele>33</ele>
        <time>2010-08-22T10:12:54Z</time>
      </trkpt>
      <trkpt lat="47.5551" lon="-0.45064">
        <ele>34</ele>
        <time>2010-08-22T10:12:59Z</time>
      </trkpt>
      <trkpt lat="47.55501" lon="-0.45101">
        <ele>34</ele>
        <time>2010-08-22T10:13:04Z</time>
      </trkpt>
      <trkpt lat="47.55482" lon="-0.45152">
        <ele>36</ele>
        <time>2010-08-22T10:13:09Z</time>
      </trkpt>
      <trkpt lat="47.55466" lon="-0.45183">
        <ele>36</ele>
        <time>2010-08-22T10:13:14Z</time>
      </trkpt>
      <trkpt lat="47.5544" lon="-0.4523">
        <ele>36</ele>
        <time>2010-08-22T10:13:19Z</time>
      </trkpt>
      <trkpt lat="47.55423" lon="-0.45261">
        <ele>35</ele>
        <time>2010-08-22T10:13:24Z</time>
      </trkpt>
      <trkpt lat="47.55396" lon="-0.4531">
        <ele>34</ele>
        <time>2010-08-22T10:13:29Z</time>
      </trkpt>
      <trkpt lat="47.55379" lon="-0.45342">
        <ele>35</ele>
        <time>2010-08-22T10:13:34Z</time>
      </trkpt>
      <trkpt lat="47.55356" lon="-0.45392">
        <ele>35</ele>
        <time>2010-08-22T10:13:39Z</time>
      </trkpt>
      <trkpt lat="47.55344" lon="-0.45429">
        <ele>36</ele>
        <time>2010-08-22T10:13:44Z</time>
      </trkpt>
      <trkpt lat="47.55332" lon="-0.45486">
        <ele>36</ele>
        <time>2010-08-22T10:13:49Z</time>
      </trkpt>
      <trkpt lat="47.55326" lon="-0.45527">
        <ele>36</ele>
        <time>2010-08-22T10:13:54Z</time>
      </trkpt>
      <trkpt lat="47.55317" lon="-0.45589">
        <ele>36</ele>
        <time>2010-08-22T10:13:59Z</time>
      </trkpt>
      <trkpt lat="47.55314" lon="-0.45631">
        <ele>35</ele>
        <time>2010-08-22T10:14:04Z</time>
      </trkpt>
      <trkpt lat="47.55318" lon="-0.4569">
        <ele>35</ele>
        <time>2010-08-22T10:14:09Z</time>
      </trkpt>
      <trkpt lat="47.55336" lon="-0.45713">
        <ele>35</ele>
        <time>2010-08-22T10:14:14Z</time>
      </trkpt>
      <trkpt lat="47.55376" lon="-0.45716">
        <ele>35</ele>
        <time>2010-08-22T10:14:19Z</time>
      </trkpt>
      <trkpt lat="47.55403" lon="-0.45715">
        <ele>36</ele>
        <time>2010-08-22T10:14:24Z</time>
      </trkpt>
      <trkpt lat="47.55444" lon="-0.45716">
        <ele>35</ele>
        <time>2010-08-22T10:14:29Z</time>
      </trkpt>
      <trkpt lat="47.55472" lon="-0.45718">
        <ele>35</ele>
        <time>2010-08-22T10:14:34Z</time>
      </trkpt>
      <trkpt lat="47.55516" lon="-0.45735">
        <ele>31</ele>
        <time>2010-08-22T10:14:39Z</time>
      </trkpt>
      <trkpt lat="47.55544" lon="-0.45767">
        <ele>27</ele>
        <time>2010-08-22T10:14:44Z</time>
      </trkpt>
      <trkpt lat="47.55589" lon="-0.4583">
        <ele>23</ele>
        <time>2010-08-22T10:14:49Z</time>
      </trkpt>
      <trkpt lat="47.55629" lon="-0.45888">
        <ele>20</ele>
        <time>2010-08-22T10:14:54Z</time>
      </trkpt>
      <trkpt lat="47.55663" lon="-0.45936">
        <ele>20</ele>
        <time>2010-08-22T10:14:59Z</time>
      </trkpt>
      <trkpt lat="47.55711" lon="-0.46">
        <ele>19</ele>
        <time>2010-08-22T10:15:04Z</time>
      </trkpt>
      <trkpt lat="47.55741" lon="-0.46038">
        <ele>21</ele>
        <time>2010-08-22T10:15:09Z</time>
      </trkpt>
      <trkpt lat="47.55781" lon="-0.46083">
        <ele>22</ele>
        <time>2010-08-22T10:15:14Z</time>
      </trkpt>
      <trkpt lat="47.55806" lon="-0.46111">
        <ele>23</ele>
        <time>2010-08-22T10:15:19Z</time>
      </trkpt>
      <trkpt lat="47.5584" lon="-0.46154">
        <ele>21</ele>
        <time>2010-08-22T10:15:24Z</time>
      </trkpt>
      <trkpt lat="47.5586" lon="-0.46186">
        <ele>21</ele>
        <time>2010-08-22T10:15:29Z</time>
      </trkpt>
      <trkpt lat="47.55882" lon="-0.46214">
        <ele>22</ele>
        <time>2010-08-22T10:15:34Z</time>
      </trkpt>
      <trkpt lat="47.55883" lon="-0.46215">
        <ele>22</ele>
        <time>2010-08-22T10:15:39Z</time>
      </trkpt>
      <trkpt lat="47.55883" lon="-0.46207">
        <ele>22</ele>
        <time>2010-08-22T10:15:44Z</time>
      </trkpt>
      <trkpt lat="47.55883" lon="-0.46206">
        <ele>22</ele>
        <time>2010-08-22T10:15:49Z</time>
      </trkpt>
      <trkpt lat="47.55883" lon="-0.46207">
        <ele>22</ele>
        <time>2010-08-22T10:15:54Z</time>
      </trkpt>
      <trkpt lat="47.55883" lon="-0.46208">
        <ele>22</ele>
        <time>2010-08-22T10:15:59Z</time>
      </trkpt>
      <trkpt lat="47.55883" lon="-0.46209">
        <ele>22</ele>
        <time>2010-08-22T10:16:04Z</time>
      </trkpt>
      <trkpt lat="47.55883" lon="-0.46209">
        <ele>22</ele>
        <time>2010-08-22T10:16:09Z</time>
      </trkpt>
      <trkpt lat="47.55882" lon="-0.46212">
        <ele>22</ele>
        <time>2010-08-22T10:16:14Z</time>
      </trkpt>
      <trkpt lat="47.55882" lon="-0.46216">
        <ele>22</ele>
        <time>2010-08-22T10:16:19Z</time>
      </trkpt>
      <trkpt lat="47.55884" lon="-0.46219">
        <ele>22</ele>
        <time>2010-08-22T10:16:24Z</time>
      </trkpt>
      <trkpt lat="47.55896" lon="-0.46235">
        <ele>22</ele>
        <time>2010-08-22T10:16:29Z</time>
      </trkpt>
      <trkpt lat="47.55923" lon="-0.46283">
        <ele>23</ele>
        <time>2010-08-22T10:16:34Z</time>
      </trkpt>
      <trkpt lat="47.55943" lon="-0.46324">
        <ele>23</ele>
        <time>2010-08-22T10:16:39Z</time>
      </trkpt>
      <trkpt lat="47.55963" lon="-0.46395">
        <ele>21</ele>
        <time>2010-08-22T10:16:44Z</time>
      </trkpt>
      <trkpt lat="47.55968" lon="-0.46446">
        <ele>21</ele>
        <time>2010-08-22T10:16:49Z</time>
      </trkpt>
      <trkpt lat="47.55968" lon="-0.46519">
        <ele>21</ele>
        <time>2010-08-22T10:16:54Z</time>
      </trkpt>
      <trkpt lat="47.55974" lon="-0.46563">
        <ele>21</ele>
        <time>2010-08-22T10:16:59Z</time>
      </trkpt>
      <trkpt lat="47.55981" lon="-0.4663">
        <ele>21</ele>
        <time>2010-08-22T10:17:04Z</time>
      </trkpt>
      <trkpt lat="47.55977" lon="-0.46677">
        <ele>20</ele>
        <time>2010-08-22T10:17:09Z</time>
      </trkpt>
      <trkpt lat="47.5597" lon="-0.46748">
        <ele>20</ele>
        <time>2010-08-22T10:17:14Z</time>
      </trkpt>
      <trkpt lat="47.55965" lon="-0.46795">
        <ele>19</ele>
        <time>2010-08-22T10:17:19Z</time>
      </trkpt>
      <trkpt lat="47.55956" lon="-0.46867">
        <ele>18</ele>
        <time>2010-08-22T10:17:24Z</time>
      </trkpt>
      <trkpt lat="47.55955" lon="-0.46914">
        <ele>18</ele>
        <time>2010-08-22T10:17:29Z</time>
      </trkpt>
      <trkpt lat="47.55955" lon="-0.46985">
        <ele>18</ele>
        <time>2010-08-22T10:17:34Z</time>
      </trkpt>
      <trkpt lat="47.55953" lon="-0.47034">
        <ele>17</ele>
        <time>2010-08-22T10:17:39Z</time>
      </trkpt>
      <trkpt lat="47.55941" lon="-0.47108">
        <ele>17</ele>
        <time>2010-08-22T10:17:44Z</time>
      </trkpt>
      <trkpt lat="47.55922" lon="-0.47148">
        <ele>17</ele>
        <time>2010-08-22T10:17:49Z</time>
      </trkpt>
      <trkpt lat="47.55874" lon="-0.47175">
        <ele>17</ele>
        <time>2010-08-22T10:17:54Z</time>
      </trkpt>
      <trkpt lat="47.55842" lon="-0.47191">
        <ele>17</ele>
        <time>2010-08-22T10:17:59Z</time>
      </trkpt>
      <trkpt lat="47.55793" lon="-0.47202">
        <ele>18</ele>
        <time>2010-08-22T10:18:04Z</time>
      </trkpt>
      <trkpt lat="47.5576" lon="-0.47204">
        <ele>19</ele>
        <time>2010-08-22T10:18:09Z</time>
      </trkpt>
      <trkpt lat="47.55719" lon="-0.47216">
        <ele>20</ele>
        <time>2010-08-22T10:18:14Z</time>
      </trkpt>
      <trkpt lat="47.55677" lon="-0.47259">
        <ele>20</ele>
        <time>2010-08-22T10:18:19Z</time>
      </trkpt>
      <trkpt lat="47.55649" lon="-0.47287">
        <ele>20</ele>
        <time>2010-08-22T10:18:24Z</time>
      </trkpt>
      <trkpt lat="47.55604" lon="-0.47326">
        <ele>20</ele>
        <time>2010-08-22T10:18:29Z</time>
      </trkpt>
      <trkpt lat="47.55576" lon="-0.4735">
        <ele>19</ele>
        <time>2010-08-22T10:18:34Z</time>
      </trkpt>
      <trkpt lat="47.55535" lon="-0.47392">
        <ele>19</ele>
        <time>2010-08-22T10:18:39Z</time>
      </trkpt>
      <trkpt lat="47.55508" lon="-0.47424">
        <ele>18</ele>
        <time>2010-08-22T10:18:44Z</time>
      </trkpt>
      <trkpt lat="47.5547" lon="-0.47474">
        <ele>19</ele>
        <time>2010-08-22T10:18:49Z</time>
      </trkpt>
      <trkpt lat="47.55445" lon="-0.47509">
        <ele>19</ele>
        <time>2010-08-22T10:18:54Z</time>
      </trkpt>
      <trkpt lat="47.55412" lon="-0.47565">
        <ele>20</ele>
        <time>2010-08-22T10:18:59Z</time>
      </trkpt>
      <trkpt lat="47.55391" lon="-0.47605">
        <ele>19</ele>
        <time>2010-08-22T10:19:04Z</time>
      </trkpt>
      <trkpt lat="47.55358" lon="-0.47658">
        <ele>20</ele>
        <time>2010-08-22T10:19:09Z</time>
      </trkpt>
      <trkpt lat="47.55338" lon="-0.47694">
        <ele>20</ele>
        <time>2010-08-22T10:19:14Z</time>
      </trkpt>
      <trkpt lat="47.55309" lon="-0.47741">
        <ele>21</ele>
        <time>2010-08-22T10:19:19Z</time>
      </trkpt>
      <trkpt lat="47.55292" lon="-0.47769">
        <ele>21</ele>
        <time>2010-08-22T10:19:24Z</time>
      </trkpt>
      <trkpt lat="47.55272" lon="-0.47803">
        <ele>21</ele>
        <time>2010-08-22T10:19:29Z</time>
      </trkpt>
      <trkpt lat="47.55257" lon="-0.47823">
        <ele>22</ele>
        <time>2010-08-22T10:19:34Z</time>
      </trkpt>
      <trkpt lat="47.55228" lon="-0.47843">
        <ele>23</ele>
        <time>2010-08-22T10:19:39Z</time>
      </trkpt>
      <trkpt lat="47.55207" lon="-0.47855">
        <ele>23</ele>
        <time>2010-08-22T10:19:44Z</time>
      </trkpt>
      <trkpt lat="47.55178" lon="-0.47875">
        <ele>23</ele>
        <time>2010-08-22T10:19:49Z</time>
      </trkpt>
      <trkpt lat="47.55163" lon="-0.47896">
        <ele>25</ele>
        <time>2010-08-22T10:19:54Z</time>
      </trkpt>
      <trkpt lat="47.55141" lon="-0.47935">
        <ele>24</ele>
        <time>2010-08-22T10:19:59Z</time>
      </trkpt>
      <trkpt lat="47.55129" lon="-0.47956">
        <ele>24</ele>
        <time>2010-08-22T10:20:04Z</time>
      </trkpt>
      <trkpt lat="47.55106" lon="-0.47957">
        <ele>24</ele>
        <time>2010-08-22T10:20:09Z</time>
      </trkpt>
      <trkpt lat="47.55092" lon="-0.47945">
        <ele>25</ele>
        <time>2010-08-22T10:20:14Z</time>
      </trkpt>
      <trkpt lat="47.55072" lon="-0.4791">
        <ele>28</ele>
        <time>2010-08-22T10:20:19Z</time>
      </trkpt>
      <trkpt lat="47.55062" lon="-0.4788">
        <ele>29</ele>
        <time>2010-08-22T10:20:24Z</time>
      </trkpt>
      <trkpt lat="47.55042" lon="-0.47839">
        <ele>30</ele>
        <time>2010-08-22T10:20:29Z</time>
      </trkpt>
      <trkpt lat="47.55027" lon="-0.47815">
        <ele>31</ele>
        <time>2010-08-22T10:20:34Z</time>
      </trkpt>
      <trkpt lat="47.55004" lon="-0.47786">
        <ele>32</ele>
        <time>2010-08-22T10:20:39Z</time>
      </trkpt>
      <trkpt lat="47.54987" lon="-0.47774">
        <ele>34</ele>
        <time>2010-08-22T10:20:44Z</time>
      </trkpt>
      <trkpt lat="47.54956" lon="-0.47768">
        <ele>35</ele>
        <time>2010-08-22T10:20:49Z</time>
      </trkpt>
      <trkpt lat="47.54933" lon="-0.47769">
        <ele>35</ele>
        <time>2010-08-22T10:20:54Z</time>
      </trkpt>
      <trkpt lat="47.54897" lon="-0.47783">
        <ele>36</ele>
        <time>2010-08-22T10:20:59Z</time>
      </trkpt>
      <trkpt lat="47.54875" lon="-0.47796">
        <ele>36</ele>
        <time>2010-08-22T10:21:04Z</time>
      </trkpt>
      <trkpt lat="47.54841" lon="-0.47815">
        <ele>36</ele>
        <time>2010-08-22T10:21:09Z</time>
      </trkpt>
      <trkpt lat="47.54818" lon="-0.47828">
        <ele>37</ele>
        <time>2010-08-22T10:21:14Z</time>
      </trkpt>
      <trkpt lat="47.54791" lon="-0.47846">
        <ele>37</ele>
        <time>2010-08-22T10:21:19Z</time>
      </trkpt>
      <trkpt lat="47.54764" lon="-0.47865">
        <ele>37</ele>
        <time>2010-08-22T10:21:24Z</time>
      </trkpt>
      <trkpt lat="47.5473" lon="-0.47888">
        <ele>39</ele>
        <time>2010-08-22T10:21:29Z</time>
      </trkpt>
      <trkpt lat="47.54707" lon="-0.47898">
        <ele>40</ele>
        <time>2010-08-22T10:21:34Z</time>
      </trkpt>
      <trkpt lat="47.54671" lon="-0.47905">
        <ele>41</ele>
        <time>2010-08-22T10:21:39Z</time>
      </trkpt>
      <trkpt lat="47.54649" lon="-0.47914">
        <ele>41</ele>
        <time>2010-08-22T10:21:44Z</time>
      </trkpt>
      <trkpt lat="47.54622" lon="-0.47927">
        <ele>42</ele>
        <time>2010-08-22T10:21:49Z</time>
      </trkpt>
      <trkpt lat="47.54596" lon="-0.47946">
        <ele>42</ele>
        <time>2010-08-22T10:21:54Z</time>
      </trkpt>
      <trkpt lat="47.54584" lon="-0.4796">
        <ele>42</ele>
        <time>2010-08-22T10:21:59Z</time>
      </trkpt>
      <trkpt lat="47.54581" lon="-0.47961">
        <ele>42</ele>
        <time>2010-08-22T10:22:04Z</time>
      </trkpt>
      <trkpt lat="47.54579" lon="-0.47961">
        <ele>42</ele>
        <time>2010-08-22T10:22:09Z</time>
      </trkpt>
      <trkpt lat="47.54582" lon="-0.4794">
        <ele>42</ele>
        <time>2010-08-22T10:22:14Z</time>
      </trkpt>
      <trkpt lat="47.54591" lon="-0.47914">
        <ele>42</ele>
        <time>2010-08-22T10:22:19Z</time>
      </trkpt>
      <trkpt lat="47.54604" lon="-0.47872">
        <ele>42</ele>
        <time>2010-08-22T10:22:24Z</time>
      </trkpt>
      <trkpt lat="47.54612" lon="-0.47843">
        <ele>42</ele>
        <time>2010-08-22T10:22:29Z</time>
      </trkpt>
      <trkpt lat="47.54625" lon="-0.47799">
        <ele>42</ele>
        <time>2010-08-22T10:22:34Z</time>
      </trkpt>
      <trkpt lat="47.54635" lon="-0.47768">
        <ele>42</ele>
        <time>2010-08-22T10:22:39Z</time>
      </trkpt>
      <trkpt lat="47.54649" lon="-0.47719">
        <ele>42</ele>
        <time>2010-08-22T10:22:44Z</time>
      </trkpt>
      <trkpt lat="47.5466" lon="-0.47683">
        <ele>41</ele>
        <time>2010-08-22T10:22:49Z</time>
      </trkpt>
      <trkpt lat="47.54679" lon="-0.47627">
        <ele>39</ele>
        <time>2010-08-22T10:22:54Z</time>
      </trkpt>
      <trkpt lat="47.54695" lon="-0.4759">
        <ele>39</ele>
        <time>2010-08-22T10:22:59Z</time>
      </trkpt>
      <trkpt lat="47.54725" lon="-0.47539">
        <ele>38</ele>
        <time>2010-08-22T10:23:04Z</time>
      </trkpt>
      <trkpt lat="47.54748" lon="-0.47507">
        <ele>38</ele>
        <time>2010-08-22T10:23:09Z</time>
      </trkpt>
      <trkpt lat="47.54781" lon="-0.4746">
        <ele>37</ele>
        <time>2010-08-22T10:23:14Z</time>
      </trkpt>
      <trkpt lat="47.54803" lon="-0.4743">
        <ele>37</ele>
        <time>2010-08-22T10:23:19Z</time>
      </trkpt>
      <trkpt lat="47.54835" lon="-0.47384">
        <ele>36</ele>
        <time>2010-08-22T10:23:24Z</time>
      </trkpt>
      <trkpt lat="47.54855" lon="-0.47351">
        <ele>36</ele>
        <time>2010-08-22T10:23:29Z</time>
      </trkpt>
      <trkpt lat="47.54882" lon="-0.47296">
        <ele>36</ele>
        <time>2010-08-22T10:23:34Z</time>
      </trkpt>
      <trkpt lat="47.54897" lon="-0.47255">
        <ele>36</ele>
        <time>2010-08-22T10:23:39Z</time>
      </trkpt>
      <trkpt lat="47.54916" lon="-0.47191">
        <ele>36</ele>
        <time>2010-08-22T10:23:44Z</time>
      </trkpt>
      <trkpt lat="47.54927" lon="-0.47145">
        <ele>34</ele>
        <time>2010-08-22T10:23:49Z</time>
      </trkpt>
      <trkpt lat="47.54942" lon="-0.47075">
        <ele>32</ele>
        <time>2010-08-22T10:23:54Z</time>
      </trkpt>
      <trkpt lat="47.54952" lon="-0.47027">
        <ele>32</ele>
        <time>2010-08-22T10:23:59Z</time>
      </trkpt>
      <trkpt lat="47.54963" lon="-0.46954">
        <ele>32</ele>
        <time>2010-08-22T10:24:04Z</time>
      </trkpt>
      <trkpt lat="47.54969" lon="-0.46907">
        <ele>33</ele>
        <time>2010-08-22T10:24:09Z</time>
      </trkpt>
      <trkpt lat="47.54979" lon="-0.46841">
        <ele>33</ele>
        <time>2010-08-22T10:24:14Z</time>
      </trkpt>
      <trkpt lat="47.54988" lon="-0.46798">
        <ele>34</ele>
        <time>2010-08-22T10:24:19Z</time>
      </trkpt>
      <trkpt lat="47.55009" lon="-0.46738">
        <ele>34</ele>
        <time>2010-08-22T10:24:24Z</time>
      </trkpt>
      <trkpt lat="47.55028" lon="-0.46701">
        <ele>34</ele>
        <time>2010-08-22T10:24:29Z</time>
      </trkpt>
      <trkpt lat="47.55056" lon="-0.46643">
        <ele>33</ele>
        <time>2010-08-22T10:24:34Z</time>
      </trkpt>
      <trkpt lat="47.55075" lon="-0.46605">
        <ele>33</ele>
        <time>2010-08-22T10:24:39Z</time>
      </trkpt>
      <trkpt lat="47.55101" lon="-0.46547">
        <ele>32</ele>
        <time>2010-08-22T10:24:44Z</time>
      </trkpt>
      <trkpt lat="47.55117" lon="-0.46508">
        <ele>33</ele>
        <time>2010-08-22T10:24:49Z</time>
      </trkpt>
      <trkpt lat="47.55134" lon="-0.4646">
        <ele>33</ele>
        <time>2010-08-22T10:24:54Z</time>
      </trkpt>
      <trkpt lat="47.55147" lon="-0.46414">
        <ele>32</ele>
        <time>2010-08-22T10:24:59Z</time>
      </trkpt>
      <trkpt lat="47.55152" lon="-0.46366">
        <ele>32</ele>
        <time>2010-08-22T10:25:04Z</time>
      </trkpt>
      <trkpt lat="47.55134" lon="-0.4631">
        <ele>31</ele>
        <time>2010-08-22T10:25:09Z</time>
      </trkpt>
      <trkpt lat="47.55116" lon="-0.46276">
        <ele>31</ele>
        <time>2010-08-22T10:25:14Z</time>
      </trkpt>
      <trkpt lat="47.55083" lon="-0.46231">
        <ele>31</ele>
        <time>2010-08-22T10:25:19Z</time>
      </trkpt>
      <trkpt lat="47.5506" lon="-0.46204">
        <ele>31</ele>
        <time>2010-08-22T10:25:24Z</time>
      </trkpt>
      <trkpt lat="47.55025" lon="-0.46166">
        <ele>32</ele>
        <time>2010-08-22T10:25:29Z</time>
      </trkpt>
      <trkpt lat="47.55001" lon="-0.46143">
        <ele>32</ele>
        <time>2010-08-22T10:25:34Z</time>
      </trkpt>
      <trkpt lat="47.54972" lon="-0.46098">
        <ele>32</ele>
        <time>2010-08-22T10:25:39Z</time>
      </trkpt>
      <trkpt lat="47.54962" lon="-0.46059">
        <ele>33</ele>
        <time>2010-08-22T10:25:44Z</time>
      </trkpt>
      <trkpt lat="47.54936" lon="-0.46023">
        <ele>33</ele>
        <time>2010-08-22T10:25:49Z</time>
      </trkpt>
      <trkpt lat="47.54909" lon="-0.46015">
        <ele>34</ele>
        <time>2010-08-22T10:25:54Z</time>
      </trkpt>
      <trkpt lat="47.54867" lon="-0.4601">
        <ele>35</ele>
        <time>2010-08-22T10:25:59Z</time>
      </trkpt>
      <trkpt lat="47.5484" lon="-0.46007">
        <ele>36</ele>
        <time>2010-08-22T10:26:04Z</time>
      </trkpt>
      <trkpt lat="47.54803" lon="-0.45985">
        <ele>36</ele>
        <time>2010-08-22T10:26:09Z</time>
      </trkpt>
      <trkpt lat="47.54778" lon="-0.45966">
        <ele>36</ele>
        <time>2010-08-22T10:26:14Z</time>
      </trkpt>
      <trkpt lat="47.54742" lon="-0.45934">
        <ele>36</ele>
        <time>2010-08-22T10:26:19Z</time>
      </trkpt>
      <trkpt lat="47.54717" lon="-0.45916">
        <ele>37</ele>
        <time>2010-08-22T10:26:24Z</time>
      </trkpt>
      <trkpt lat="47.54684" lon="-0.45899">
        <ele>37</ele>
        <time>2010-08-22T10:26:29Z</time>
      </trkpt>
      <trkpt lat="47.54661" lon="-0.45891">
        <ele>38</ele>
        <time>2010-08-22T10:26:34Z</time>
      </trkpt>
      <trkpt lat="47.54626" lon="-0.45875">
        <ele>39</ele>
        <time>2010-08-22T10:26:39Z</time>
      </trkpt>
      <trkpt lat="47.54604" lon="-0.4586">
        <ele>39</ele>
        <time>2010-08-22T10:26:44Z</time>
      </trkpt>
      <trkpt lat="47.54567" lon="-0.45851">
        <ele>39</ele>
        <time>2010-08-22T10:26:49Z</time>
      </trkpt>
      <trkpt lat="47.54543" lon="-0.45848">
        <ele>40</ele>
        <time>2010-08-22T10:26:54Z</time>
      </trkpt>
      <trkpt lat="47.54506" lon="-0.4584">
        <ele>39</ele>
        <time>2010-08-22T10:26:59Z</time>
      </trkpt>
      <trkpt lat="47.54481" lon="-0.45833">
        <ele>39</ele>
        <time>2010-08-22T10:27:04Z</time>
      </trkpt>
      <trkpt lat="47.54442" lon="-0.45821">
        <ele>39</ele>
        <time>2010-08-22T10:27:09Z</time>
      </trkpt>
      <trkpt lat="47.54415" lon="-0.45814">
        <ele>40</ele>
        <time>2010-08-22T10:27:14Z</time>
      </trkpt>
      <trkpt lat="47.54375" lon="-0.45809">
        <ele>39</ele>
        <time>2010-08-22T10:27:19Z</time>
      </trkpt>
      <trkpt lat="47.54349" lon="-0.45806">
        <ele>39</ele>
        <time>2010-08-22T10:27:24Z</time>
      </trkpt>
      <trkpt lat="47.5431" lon="-0.45805">
        <ele>41</ele>
        <time>2010-08-22T10:27:29Z</time>
      </trkpt>
      <trkpt lat="47.54283" lon="-0.45806">
        <ele>41</ele>
        <time>2010-08-22T10:27:34Z</time>
      </trkpt>
      <trkpt lat="47.54244" lon="-0.4581">
        <ele>42</ele>
        <time>2010-08-22T10:27:39Z</time>
      </trkpt>
      <trkpt lat="47.54219" lon="-0.45811">
        <ele>41</ele>
        <time>2010-08-22T10:27:44Z</time>
      </trkpt>
      <trkpt lat="47.54182" lon="-0.45809">
        <ele>41</ele>
        <time>2010-08-22T10:27:49Z</time>
      </trkpt>
      <trkpt lat="47.54157" lon="-0.458">
        <ele>40</ele>
        <time>2010-08-22T10:27:54Z</time>
      </trkpt>
      <trkpt lat="47.54118" lon="-0.45784">
        <ele>41</ele>
        <time>2010-08-22T10:27:59Z</time>
      </trkpt>
      <trkpt lat="47.54091" lon="-0.45778">
        <ele>41</ele>
        <time>2010-08-22T10:28:04Z</time>
      </trkpt>
      <trkpt lat="47.54052" lon="-0.45772">
        <ele>41</ele>
        <time>2010-08-22T10:28:09Z</time>
      </trkpt>
      <trkpt lat="47.54025" lon="-0.45767">
        <ele>41</ele>
        <time>2010-08-22T10:28:14Z</time>
      </trkpt>
      <trkpt lat="47.53985" lon="-0.45765">
        <ele>42</ele>
        <time>2010-08-22T10:28:19Z</time>
      </trkpt>
      <trkpt lat="47.53959" lon="-0.45767">
        <ele>43</ele>
        <time>2010-08-22T10:28:24Z</time>
      </trkpt>
      <trkpt lat="47.53927" lon="-0.4577">
        <ele>43</ele>
        <time>2010-08-22T10:28:29Z</time>
      </trkpt>
      <trkpt lat="47.53896" lon="-0.4577">
        <ele>45</ele>
        <time>2010-08-22T10:28:34Z</time>
      </trkpt>
      <trkpt lat="47.53865" lon="-0.45765">
        <ele>45</ele>
        <time>2010-08-22T10:28:39Z</time>
      </trkpt>
      <trkpt lat="47.53829" lon="-0.45749">
        <ele>46</ele>
        <time>2010-08-22T10:28:44Z</time>
      </trkpt>
      <trkpt lat="47.53805" lon="-0.45737">
        <ele>47</ele>
        <time>2010-08-22T10:28:49Z</time>
      </trkpt>
      <trkpt lat="47.53767" lon="-0.45724">
        <ele>47</ele>
        <time>2010-08-22T10:28:54Z</time>
      </trkpt>
      <trkpt lat="47.53742" lon="-0.45718">
        <ele>48</ele>
        <time>2010-08-22T10:28:59Z</time>
      </trkpt>
      <trkpt lat="47.53706" lon="-0.45714">
        <ele>49</ele>
        <time>2010-08-22T10:29:04Z</time>
      </trkpt>
      <trkpt lat="47.53684" lon="-0.45715">
        <ele>49</ele>
        <time>2010-08-22T10:29:09Z</time>
      </trkpt>
      <trkpt lat="47.5365" lon="-0.45726">
        <ele>49</ele>
        <time>2010-08-22T10:29:14Z</time>
      </trkpt>
      <trkpt lat="47.53627" lon="-0.45729">
        <ele>49</ele>
        <time>2010-08-22T10:29:19Z</time>
      </trkpt>
      <trkpt lat="47.5359" lon="-0.4572">
        <ele>49</ele>
        <time>2010-08-22T10:29:24Z</time>
      </trkpt>
      <trkpt lat="47.53565" lon="-0.45707">
        <ele>50</ele>
        <time>2010-08-22T10:29:29Z</time>
      </trkpt>
      <trkpt lat="47.53527" lon="-0.45685">
        <ele>51</ele>
        <time>2010-08-22T10:29:34Z</time>
      </trkpt>
      <trkpt lat="47.53501" lon="-0.45678">
        <ele>51</ele>
        <time>2010-08-22T10:29:39Z</time>
      </trkpt>
      <trkpt lat="47.53467" lon="-0.45685">
        <ele>51</ele>
        <time>2010-08-22T10:29:44Z</time>
      </trkpt>
      <trkpt lat="47.53459" lon="-0.45667">
        <ele>50</ele>
        <time>2010-08-22T10:29:49Z</time>
      </trkpt>
      <trkpt lat="47.53461" lon="-0.4562">
        <ele>50</ele>
        <time>2010-08-22T10:29:54Z</time>
      </trkpt>
      <trkpt lat="47.53469" lon="-0.45585">
        <ele>49</ele>
        <time>2010-08-22T10:29:59Z</time>
      </trkpt>
      <trkpt lat="47.53489" lon="-0.45531">
        <ele>49</ele>
        <time>2010-08-22T10:30:04Z</time>
      </trkpt>
      <trkpt lat="47.53504" lon="-0.45498">
        <ele>49</ele>
        <time>2010-08-22T10:30:09Z</time>
      </trkpt>
      <trkpt lat="47.53532" lon="-0.45451">
        <ele>48</ele>
        <time>2010-08-22T10:30:14Z</time>
      </trkpt>
      <trkpt lat="47.53551" lon="-0.45421">
        <ele>48</ele>
        <time>2010-08-22T10:30:19Z</time>
      </trkpt>
      <trkpt lat="47.5358" lon="-0.45373">
        <ele>49</ele>
        <time>2010-08-22T10:30:24Z</time>
      </trkpt>
      <trkpt lat="47.536" lon="-0.4534">
        <ele>49</ele>
        <time>2010-08-22T10:30:29Z</time>
      </trkpt>
      <trkpt lat="47.53627" lon="-0.45286">
        <ele>49</ele>
        <time>2010-08-22T10:30:34Z</time>
      </trkpt>
      <trkpt lat="47.5364" lon="-0.45245">
        <ele>48</ele>
        <time>2010-08-22T10:30:39Z</time>
      </trkpt>
      <trkpt lat="47.53657" lon="-0.45184">
        <ele>47</ele>
        <time>2010-08-22T10:30:44Z</time>
      </trkpt>
      <trkpt lat="47.53668" lon="-0.45144">
        <ele>46</ele>
        <time>2010-08-22T10:30:49Z</time>
      </trkpt>
      <trkpt lat="47.53686" lon="-0.45088">
        <ele>47</ele>
        <time>2010-08-22T10:30:54Z</time>
      </trkpt>
      <trkpt lat="47.537" lon="-0.45052">
        <ele>48</ele>
        <time>2010-08-22T10:30:59Z</time>
      </trkpt>
      <trkpt lat="47.53725" lon="-0.45002">
        <ele>48</ele>
        <time>2010-08-22T10:31:04Z</time>
      </trkpt>
      <trkpt lat="47.53743" lon="-0.4497">
        <ele>48</ele>
        <time>2010-08-22T10:31:09Z</time>
      </trkpt>
      <trkpt lat="47.53774" lon="-0.44925">
        <ele>47</ele>
        <time>2010-08-22T10:31:14Z</time>
      </trkpt>
      <trkpt lat="47.53797" lon="-0.44901">
        <ele>46</ele>
        <time>2010-08-22T10:31:19Z</time>
      </trkpt>
      <trkpt lat="47.53834" lon="-0.44863">
        <ele>46</ele>
        <time>2010-08-22T10:31:24Z</time>
      </trkpt>
      <trkpt lat="47.53859" lon="-0.44837">
        <ele>46</ele>
        <time>2010-08-22T10:31:29Z</time>
      </trkpt>
      <trkpt lat="47.53901" lon="-0.4481">
        <ele>46</ele>
        <time>2010-08-22T10:31:34Z</time>
      </trkpt>
      <trkpt lat="47.53927" lon="-0.44789">
        <ele>46</ele>
        <time>2010-08-22T10:31:39Z</time>
      </trkpt>
      <trkpt lat="47.53956" lon="-0.44736">
        <ele>45</ele>
        <time>2010-08-22T10:31:44Z</time>
      </trkpt>
      <trkpt lat="47.53975" lon="-0.44709">
        <ele>45</ele>
        <time>2010-08-22T10:31:49Z</time>
      </trkpt>
      <trkpt lat="47.54006" lon="-0.44679">
        <ele>46</ele>
        <time>2010-08-22T10:31:54Z</time>
      </trkpt>
      <trkpt lat="47.54034" lon="-0.44624">
        <ele>46</ele>
        <time>2010-08-22T10:31:59Z</time>
      </trkpt>
      <trkpt lat="47.54055" lon="-0.44592">
        <ele>46</ele>
        <time>2010-08-22T10:32:04Z</time>
      </trkpt>
      <trkpt lat="47.54088" lon="-0.44548">
        <ele>44</ele>
        <time>2010-08-22T10:32:09Z</time>
      </trkpt>
      <trkpt lat="47.5411" lon="-0.4452">
        <ele>44</ele>
        <time>2010-08-22T10:32:14Z</time>
      </trkpt>
      <trkpt lat="47.54136" lon="-0.44467">
        <ele>44</ele>
        <time>2010-08-22T10:32:19Z</time>
      </trkpt>
      <trkpt lat="47.54153" lon="-0.44431">
        <ele>45</ele>
        <time>2010-08-22T10:32:24Z</time>
      </trkpt>
      <trkpt lat="47.54181" lon="-0.44381">
        <ele>45</ele>
        <time>2010-08-22T10:32:29Z</time>
      </trkpt>
      <trkpt lat="47.54201" lon="-0.44347">
        <ele>44</ele>
        <time>2010-08-22T10:32:34Z</time>
      </trkpt>
      <trkpt lat="47.54229" lon="-0.44295">
        <ele>42</ele>
        <time>2010-08-22T10:32:39Z</time>
      </trkpt>
      <trkpt lat="47.54252" lon="-0.44267">
        <ele>41</ele>
        <time>2010-08-22T10:32:44Z</time>
      </trkpt>
      <trkpt lat="47.54287" lon="-0.44226">
        <ele>41</ele>
        <time>2010-08-22T10:32:49Z</time>
      </trkpt>
      <trkpt lat="47.54315" lon="-0.44211">
        <ele>41</ele>
        <time>2010-08-22T10:32:54Z</time>
      </trkpt>
      <trkpt lat="47.54359" lon="-0.44195">
        <ele>41</ele>
        <time>2010-08-22T10:32:59Z</time>
      </trkpt>
      <trkpt lat="47.54387" lon="-0.44184">
        <ele>41</ele>
        <time>2010-08-22T10:33:04Z</time>
      </trkpt>
      <trkpt lat="47.54429" lon="-0.44166">
        <ele>41</ele>
        <time>2010-08-22T10:33:09Z</time>
      </trkpt>
      <trkpt lat="47.54458" lon="-0.44155">
        <ele>41</ele>
        <time>2010-08-22T10:33:14Z</time>
      </trkpt>
      <trkpt lat="47.54501" lon="-0.44143">
        <ele>40</ele>
        <time>2010-08-22T10:33:19Z</time>
      </trkpt>
      <trkpt lat="47.54532" lon="-0.44134">
        <ele>40</ele>
        <time>2010-08-22T10:33:24Z</time>
      </trkpt>
      <trkpt lat="47.54572" lon="-0.44118">
        <ele>39</ele>
        <time>2010-08-22T10:33:29Z</time>
      </trkpt>
      <trkpt lat="47.54574" lon="-0.44092">
        <ele>39</ele>
        <time>2010-08-22T10:33:34Z</time>
      </trkpt>
      <trkpt lat="47.54575" lon="-0.44056">
        <ele>39</ele>
        <time>2010-08-22T10:33:39Z</time>
      </trkpt>
      <trkpt lat="47.54587" lon="-0.44047">
        <ele>39</ele>
        <time>2010-08-22T10:33:44Z</time>
      </trkpt>
      <trkpt lat="47.54586" lon="-0.4405">
        <ele>39</ele>
        <time>2010-08-22T10:33:49Z</time>
      </trkpt>
      <trkpt lat="47.54575" lon="-0.44056">
        <ele>39</ele>
        <time>2010-08-22T10:33:54Z</time>
      </trkpt>
      <trkpt lat="47.54553" lon="-0.44031">
        <ele>39</ele>
        <time>2010-08-22T10:33:59Z</time>
      </trkpt>
      <trkpt lat="47.54542" lon="-0.43993">
        <ele>39</ele>
        <time>2010-08-22T10:34:04Z</time>
      </trkpt>
      <trkpt lat="47.54523" lon="-0.43928">
        <ele>38</ele>
        <time>2010-08-22T10:34:09Z</time>
      </trkpt>
      <trkpt lat="47.5451" lon="-0.43884">
        <ele>37</ele>
        <time>2010-08-22T10:34:14Z</time>
      </trkpt>
      <trkpt lat="47.54499" lon="-0.43851">
        <ele>38</ele>
        <time>2010-08-22T10:34:19Z</time>
      </trkpt>
      <trkpt lat="47.54499" lon="-0.43851">
        <ele>38</ele>
        <time>2010-08-22T10:34:24Z</time>
      </trkpt>
      <trkpt lat="47.54499" lon="-0.43852">
        <ele>38</ele>
        <time>2010-08-22T10:34:29Z</time>
      </trkpt>
      <trkpt lat="47.54499" lon="-0.43852">
        <ele>38</ele>
        <time>2010-08-22T10:34:34Z</time>
      </trkpt>
      <trkpt lat="47.54493" lon="-0.43829">
        <ele>38</ele>
        <time>2010-08-22T10:34:39Z</time>
      </trkpt>
      <trkpt lat="47.54481" lon="-0.43791">
        <ele>37</ele>
        <time>2010-08-22T10:34:44Z</time>
      </trkpt>
      <trkpt lat="47.54459" lon="-0.43715">
        <ele>35</ele>
        <time>2010-08-22T10:34:49Z</time>
      </trkpt>
      <trkpt lat="47.54441" lon="-0.43663">
        <ele>33</ele>
        <time>2010-08-22T10:34:54Z</time>
      </trkpt>
      <trkpt lat="47.54417" lon="-0.43585">
        <ele>32</ele>
        <time>2010-08-22T10:34:59Z</time>
      </trkpt>
      <trkpt lat="47.54407" lon="-0.43531">
        <ele>31</ele>
        <time>2010-08-22T10:35:04Z</time>
      </trkpt>
      <trkpt lat="47.54395" lon="-0.43459">
        <ele>30</ele>
        <time>2010-08-22T10:35:09Z</time>
      </trkpt>
      <trkpt lat="47.54392" lon="-0.43442">
        <ele>30</ele>
        <time>2010-08-22T10:35:14Z</time>
      </trkpt>
      <trkpt lat="47.54387" lon="-0.43401">
        <ele>29</ele>
        <time>2010-08-22T10:35:19Z</time>
      </trkpt>
      <trkpt lat="47.54378" lon="-0.43342">
        <ele>29</ele>
        <time>2010-08-22T10:35:24Z</time>
      </trkpt>
      <trkpt lat="47.54362" lon="-0.43282">
        <ele>27</ele>
        <time>2010-08-22T10:35:29Z</time>
      </trkpt>
      <trkpt lat="47.54353" lon="-0.43205">
        <ele>27</ele>
        <time>2010-08-22T10:35:34Z</time>
      </trkpt>
      <trkpt lat="47.54354" lon="-0.43152">
        <ele>27</ele>
        <time>2010-08-22T10:35:39Z</time>
      </trkpt>
      <trkpt lat="47.54377" lon="-0.43078">
        <ele>27</ele>
        <time>2010-08-22T10:35:44Z</time>
      </trkpt>
      <trkpt lat="47.54397" lon="-0.43017">
        <ele>26</ele>
        <time>2010-08-22T10:35:49Z</time>
      </trkpt>
      <trkpt lat="47.54409" lon="-0.42951">
        <ele>26</ele>
        <time>2010-08-22T10:35:54Z</time>
      </trkpt>
      <trkpt lat="47.54412" lon="-0.42899">
        <ele>26</ele>
        <time>2010-08-22T10:35:59Z</time>
      </trkpt>
      <trkpt lat="47.54406" lon="-0.42838">
        <ele>26</ele>
        <time>2010-08-22T10:36:04Z</time>
      </trkpt>
      <trkpt lat="47.54397" lon="-0.4281">
        <ele>25</ele>
        <time>2010-08-22T10:36:09Z</time>
      </trkpt>
      <trkpt lat="47.54366" lon="-0.42791">
        <ele>25</ele>
        <time>2010-08-22T10:36:14Z</time>
      </trkpt>
      <trkpt lat="47.54345" lon="-0.42777">
        <ele>25</ele>
        <time>2010-08-22T10:36:19Z</time>
      </trkpt>
      <trkpt lat="47.54319" lon="-0.42756">
        <ele>25</ele>
        <time>2010-08-22T10:36:24Z</time>
      </trkpt>
      <trkpt lat="47.543" lon="-0.42741">
        <ele>26</ele>
        <time>2010-08-22T10:36:29Z</time>
      </trkpt>
      <trkpt lat="47.54271" lon="-0.42722">
        <ele>26</ele>
        <time>2010-08-22T10:36:34Z</time>
      </trkpt>
      <trkpt lat="47.54248" lon="-0.42714">
        <ele>27</ele>
        <time>2010-08-22T10:36:39Z</time>
      </trkpt>
      <trkpt lat="47.54212" lon="-0.42706">
        <ele>27</ele>
        <time>2010-08-22T10:36:44Z</time>
      </trkpt>
      <trkpt lat="47.54187" lon="-0.42698">
        <ele>27</ele>
        <time>2010-08-22T10:36:49Z</time>
      </trkpt>
      <trkpt lat="47.54152" lon="-0.42687">
        <ele>26</ele>
        <time>2010-08-22T10:36:54Z</time>
      </trkpt>
      <trkpt lat="47.54129" lon="-0.42678">
        <ele>26</ele>
        <time>2010-08-22T10:36:59Z</time>
      </trkpt>
      <trkpt lat="47.54094" lon="-0.42661">
        <ele>25</ele>
        <time>2010-08-22T10:37:04Z</time>
      </trkpt>
      <trkpt lat="47.54071" lon="-0.4265">
        <ele>24</ele>
        <time>2010-08-22T10:37:09Z</time>
      </trkpt>
      <trkpt lat="47.54035" lon="-0.42632">
        <ele>24</ele>
        <time>2010-08-22T10:37:14Z</time>
      </trkpt>
      <trkpt lat="47.54009" lon="-0.42619">
        <ele>23</ele>
        <time>2010-08-22T10:37:19Z</time>
      </trkpt>
      <trkpt lat="47.53971" lon="-0.42606">
        <ele>23</ele>
        <time>2010-08-22T10:37:24Z</time>
      </trkpt>
      <trkpt lat="47.53944" lon="-0.42601">
        <ele>23</ele>
        <time>2010-08-22T10:37:29Z</time>
      </trkpt>
      <trkpt lat="47.53905" lon="-0.426">
        <ele>24</ele>
        <time>2010-08-22T10:37:34Z</time>
      </trkpt>
      <trkpt lat="47.5388" lon="-0.42602">
        <ele>24</ele>
        <time>2010-08-22T10:37:39Z</time>
      </trkpt>
      <trkpt lat="47.53845" lon="-0.42606">
        <ele>24</ele>
        <time>2010-08-22T10:37:44Z</time>
      </trkpt>
      <trkpt lat="47.53821" lon="-0.4261">
        <ele>25</ele>
        <time>2010-08-22T10:37:49Z</time>
      </trkpt>
      <trkpt lat="47.53786" lon="-0.42617">
        <ele>26</ele>
        <time>2010-08-22T10:37:54Z</time>
      </trkpt>
      <trkpt lat="47.53761" lon="-0.42616">
        <ele>26</ele>
        <time>2010-08-22T10:37:59Z</time>
      </trkpt>
      <trkpt lat="47.53728" lon="-0.42607">
        <ele>26</ele>
        <time>2010-08-22T10:38:04Z</time>
      </trkpt>
      <trkpt lat="47.5371" lon="-0.42594">
        <ele>26</ele>
        <time>2010-08-22T10:38:09Z</time>
      </trkpt>
      <trkpt lat="47.53704" lon="-0.4255">
        <ele>27</ele>
        <time>2010-08-22T10:38:14Z</time>
      </trkpt>
      <trkpt lat="47.53704" lon="-0.42514">
        <ele>26</ele>
        <time>2010-08-22T10:38:19Z</time>
      </trkpt>
      <trkpt lat="47.53673" lon="-0.42484">
        <ele>26</ele>
        <time>2010-08-22T10:38:24Z</time>
      </trkpt>
      <trkpt lat="47.53648" lon="-0.42474">
        <ele>26</ele>
        <time>2010-08-22T10:38:29Z</time>
      </trkpt>
      <trkpt lat="47.53609" lon="-0.42457">
        <ele>26</ele>
        <time>2010-08-22T10:38:34Z</time>
      </trkpt>
      <trkpt lat="47.53583" lon="-0.42445">
        <ele>26</ele>
        <time>2010-08-22T10:38:39Z</time>
      </trkpt>
      <trkpt lat="47.53546" lon="-0.42433">
        <ele>26</ele>
        <time>2010-08-22T10:38:44Z</time>
      </trkpt>
      <trkpt lat="47.53517" lon="-0.42437">
        <ele>27</ele>
        <time>2010-08-22T10:38:49Z</time>
      </trkpt>
      <trkpt lat="47.53494" lon="-0.42435">
        <ele>27</ele>
        <time>2010-08-22T10:38:54Z</time>
      </trkpt>
      <trkpt lat="47.53461" lon="-0.42412">
        <ele>27</ele>
        <time>2010-08-22T10:38:59Z</time>
      </trkpt>
      <trkpt lat="47.53438" lon="-0.42392">
        <ele>27</ele>
        <time>2010-08-22T10:39:04Z</time>
      </trkpt>
      <trkpt lat="47.53409" lon="-0.42361">
        <ele>27</ele>
        <time>2010-08-22T10:39:09Z</time>
      </trkpt>
      <trkpt lat="47.53411" lon="-0.42344">
        <ele>26</ele>
        <time>2010-08-22T10:39:14Z</time>
      </trkpt>
      <trkpt lat="47.53435" lon="-0.42322">
        <ele>26</ele>
        <time>2010-08-22T10:39:19Z</time>
      </trkpt>
      <trkpt lat="47.53455" lon="-0.42303">
        <ele>27</ele>
        <time>2010-08-22T10:39:24Z</time>
      </trkpt>
      <trkpt lat="47.5349" lon="-0.4227">
        <ele>27</ele>
        <time>2010-08-22T10:39:29Z</time>
      </trkpt>
      <trkpt lat="47.53513" lon="-0.42247">
        <ele>27</ele>
        <time>2010-08-22T10:39:34Z</time>
      </trkpt>
      <trkpt lat="47.53543" lon="-0.42204">
        <ele>26</ele>
        <time>2010-08-22T10:39:39Z</time>
      </trkpt>
      <trkpt lat="47.53556" lon="-0.42168">
        <ele>26</ele>
        <time>2010-08-22T10:39:44Z</time>
      </trkpt>
      <trkpt lat="47.53574" lon="-0.42115">
        <ele>25</ele>
        <time>2010-08-22T10:39:49Z</time>
      </trkpt>
      <trkpt lat="47.53586" lon="-0.42079">
        <ele>24</ele>
        <time>2010-08-22T10:39:54Z</time>
      </trkpt>
      <trkpt lat="47.53605" lon="-0.42026">
        <ele>24</ele>
        <time>2010-08-22T10:39:59Z</time>
      </trkpt>
      <trkpt lat="47.53617" lon="-0.41988">
        <ele>24</ele>
        <time>2010-08-22T10:40:04Z</time>
      </trkpt>
      <trkpt lat="47.53635" lon="-0.41933">
        <ele>24</ele>
        <time>2010-08-22T10:40:09Z</time>
      </trkpt>
      <trkpt lat="47.53649" lon="-0.41899">
        <ele>23</ele>
        <time>2010-08-22T10:40:14Z</time>
      </trkpt>
      <trkpt lat="47.53668" lon="-0.41847">
        <ele>23</ele>
        <time>2010-08-22T10:40:19Z</time>
      </trkpt>
      <trkpt lat="47.53677" lon="-0.41811">
        <ele>24</ele>
        <time>2010-08-22T10:40:24Z</time>
      </trkpt>
      <trkpt lat="47.5369" lon="-0.41755">
        <ele>25</ele>
        <time>2010-08-22T10:40:29Z</time>
      </trkpt>
      <trkpt lat="47.53696" lon="-0.41717">
        <ele>24</ele>
        <time>2010-08-22T10:40:34Z</time>
      </trkpt>
      <trkpt lat="47.53707" lon="-0.4166">
        <ele>23</ele>
        <time>2010-08-22T10:40:39Z</time>
      </trkpt>
      <trkpt lat="47.53716" lon="-0.41623">
        <ele>23</ele>
        <time>2010-08-22T10:40:44Z</time>
      </trkpt>
      <trkpt lat="47.53732" lon="-0.41565">
        <ele>22</ele>
        <time>2010-08-22T10:40:49Z</time>
      </trkpt>
      <trkpt lat="47.53744" lon="-0.41527">
        <ele>22</ele>
        <time>2010-08-22T10:40:54Z</time>
      </trkpt>
      <trkpt lat="47.53761" lon="-0.41472">
        <ele>21</ele>
        <time>2010-08-22T10:40:59Z</time>
      </trkpt>
      <trkpt lat="47.53771" lon="-0.41433">
        <ele>21</ele>
        <time>2010-08-22T10:41:04Z</time>
      </trkpt>
      <trkpt lat="47.53789" lon="-0.41379">
        <ele>20</ele>
        <time>2010-08-22T10:41:09Z</time>
      </trkpt>
      <trkpt lat="47.53806" lon="-0.41347">
        <ele>20</ele>
        <time>2010-08-22T10:41:14Z</time>
      </trkpt>
      <trkpt lat="47.53838" lon="-0.41302">
        <ele>19</ele>
        <time>2010-08-22T10:41:19Z</time>
      </trkpt>
      <trkpt lat="47.53856" lon="-0.41272">
        <ele>20</ele>
        <time>2010-08-22T10:41:24Z</time>
      </trkpt>
      <trkpt lat="47.53885" lon="-0.41228">
        <ele>20</ele>
        <time>2010-08-22T10:41:29Z</time>
      </trkpt>
      <trkpt lat="47.53905" lon="-0.41197">
        <ele>20</ele>
        <time>2010-08-22T10:41:34Z</time>
      </trkpt>
      <trkpt lat="47.53934" lon="-0.41151">
        <ele>20</ele>
        <time>2010-08-22T10:41:39Z</time>
      </trkpt>
      <trkpt lat="47.53954" lon="-0.4112">
        <ele>19</ele>
        <time>2010-08-22T10:41:44Z</time>
      </trkpt>
      <trkpt lat="47.53985" lon="-0.41079">
        <ele>19</ele>
        <time>2010-08-22T10:41:49Z</time>
      </trkpt>
      <trkpt lat="47.54012" lon="-0.41066">
        <ele>20</ele>
        <time>2010-08-22T10:41:54Z</time>
      </trkpt>
      <trkpt lat="47.54054" lon="-0.41053">
        <ele>20</ele>
        <time>2010-08-22T10:41:59Z</time>
      </trkpt>
      <trkpt lat="47.54083" lon="-0.41042">
        <ele>20</ele>
        <time>2010-08-22T10:42:04Z</time>
      </trkpt>
      <trkpt lat="47.54121" lon="-0.41004">
        <ele>19</ele>
        <time>2010-08-22T10:42:09Z</time>
      </trkpt>
      <trkpt lat="47.54146" lon="-0.40964">
        <ele>19</ele>
        <time>2010-08-22T10:42:14Z</time>
      </trkpt>
      <trkpt lat="47.54168" lon="-0.40933">
        <ele>19</ele>
        <time>2010-08-22T10:42:19Z</time>
      </trkpt>
      <trkpt lat="47.54198" lon="-0.40888">
        <ele>18</ele>
        <time>2010-08-22T10:42:24Z</time>
      </trkpt>
      <trkpt lat="47.54217" lon="-0.40858">
        <ele>18</ele>
        <time>2010-08-22T10:42:29Z</time>
      </trkpt>
      <trkpt lat="47.54247" lon="-0.40816">
        <ele>18</ele>
        <time>2010-08-22T10:42:34Z</time>
      </trkpt>
      <trkpt lat="47.5428" lon="-0.40811">
        <ele>18</ele>
        <time>2010-08-22T10:42:39Z</time>
      </trkpt>
      <trkpt lat="47.54311" lon="-0.40821">
        <ele>18</ele>
        <time>2010-08-22T10:42:44Z</time>
      </trkpt>
      <trkpt lat="47.54336" lon="-0.40827">
        <ele>18</ele>
        <time>2010-08-22T10:42:49Z</time>
      </trkpt>
      <trkpt lat="47.54379" lon="-0.40841">
        <ele>18</ele>
        <time>2010-08-22T10:42:54Z</time>
      </trkpt>
      <trkpt lat="47.54408" lon="-0.4085">
        <ele>18</ele>
        <time>2010-08-22T10:42:59Z</time>
      </trkpt>
      <trkpt lat="47.54449" lon="-0.40861">
        <ele>18</ele>
        <time>2010-08-22T10:43:04Z</time>
      </trkpt>
      <trkpt lat="47.54468" lon="-0.40886">
        <ele>18</ele>
        <time>2010-08-22T10:43:09Z</time>
      </trkpt>
      <trkpt lat="47.54479" lon="-0.40944">
        <ele>19</ele>
        <time>2010-08-22T10:43:14Z</time>
      </trkpt>
      <trkpt lat="47.54484" lon="-0.40984">
        <ele>19</ele>
        <time>2010-08-22T10:43:19Z</time>
      </trkpt>
      <trkpt lat="47.54515" lon="-0.41025">
        <ele>20</ele>
        <time>2010-08-22T10:43:24Z</time>
      </trkpt>
      <trkpt lat="47.54539" lon="-0.41051">
        <ele>20</ele>
        <time>2010-08-22T10:43:29Z</time>
      </trkpt>
      <trkpt lat="47.54575" lon="-0.41083">
        <ele>18</ele>
        <time>2010-08-22T10:43:34Z</time>
      </trkpt>
      <trkpt lat="47.54594" lon="-0.4111">
        <ele>18</ele>
        <time>2010-08-22T10:43:39Z</time>
      </trkpt>
      <trkpt lat="47.54615" lon="-0.41166">
        <ele>18</ele>
        <time>2010-08-22T10:43:44Z</time>
      </trkpt>
      <trkpt lat="47.54624" lon="-0.41204">
        <ele>18</ele>
        <time>2010-08-22T10:43:49Z</time>
      </trkpt>
      <trkpt lat="47.54641" lon="-0.41262">
        <ele>20</ele>
        <time>2010-08-22T10:43:54Z</time>
      </trkpt>
      <trkpt lat="47.54656" lon="-0.41298">
        <ele>20</ele>
        <time>2010-08-22T10:43:59Z</time>
      </trkpt>
      <trkpt lat="47.54679" lon="-0.41343">
        <ele>21</ele>
        <time>2010-08-22T10:44:04Z</time>
      </trkpt>
      <trkpt lat="47.54694" lon="-0.41354">
        <ele>21</ele>
        <time>2010-08-22T10:44:09Z</time>
      </trkpt>
      <trkpt lat="47.54713" lon="-0.41304">
        <ele>19</ele>
        <time>2010-08-22T10:44:14Z</time>
      </trkpt>
      <trkpt lat="47.54714" lon="-0.41268">
        <ele>18</ele>
        <time>2010-08-22T10:44:19Z</time>
      </trkpt>
      <trkpt lat="47.54714" lon="-0.41213">
        <ele>17</ele>
        <time>2010-08-22T10:44:24Z</time>
      </trkpt>
      <trkpt lat="47.54713" lon="-0.41175">
        <ele>17</ele>
        <time>2010-08-22T10:44:29Z</time>
      </trkpt>
      <trkpt lat="47.54713" lon="-0.41116">
        <ele>17</ele>
        <time>2010-08-22T10:44:34Z</time>
      </trkpt>
      <trkpt lat="47.54714" lon="-0.41075">
        <ele>17</ele>
        <time>2010-08-22T10:44:39Z</time>
      </trkpt>
      <trkpt lat="47.54715" lon="-0.41016">
        <ele>18</ele>
        <time>2010-08-22T10:44:44Z</time>
      </trkpt>
      <trkpt lat="47.54716" lon="-0.40978">
        <ele>18</ele>
        <time>2010-08-22T10:44:49Z</time>
      </trkpt>
      <trkpt lat="47.54717" lon="-0.4093">
        <ele>18</ele>
        <time>2010-08-22T10:44:54Z</time>
      </trkpt>
      <trkpt lat="47.54717" lon="-0.40908">
        <ele>18</ele>
        <time>2010-08-22T10:44:59Z</time>
      </trkpt>
      <trkpt lat="47.54718" lon="-0.40906">
        <ele>18</ele>
        <time>2010-08-22T10:45:04Z</time>
      </trkpt>
      <trkpt lat="47.54718" lon="-0.40906">
        <ele>18</ele>
        <time>2010-08-22T10:45:09Z</time>
      </trkpt>
      <trkpt lat="47.54719" lon="-0.40906">
        <ele>18</ele>
        <time>2010-08-22T10:45:14Z</time>
      </trkpt>
      <trkpt lat="47.54721" lon="-0.40907">
        <ele>18</ele>
        <time>2010-08-22T10:45:19Z</time>
      </trkpt>
      <trkpt lat="47.54723" lon="-0.40908">
        <ele>18</ele>
        <time>2010-08-22T10:45:24Z</time>
      </trkpt>
      <trkpt lat="47.54723" lon="-0.40908">
        <ele>18</ele>
        <time>2010-08-22T10:45:29Z</time>
      </trkpt>
      <trkpt lat="47.54724" lon="-0.40908">
        <ele>18</ele>
        <time>2010-08-22T10:45:34Z</time>
      </trkpt>
      <trkpt lat="47.54724" lon="-0.40909">
        <ele>18</ele>
        <time>2010-08-22T10:45:39Z</time>
      </trkpt>
      <trkpt lat="47.54724" lon="-0.40909">
        <ele>18</ele>
        <time>2010-08-22T10:45:44Z</time>
      </trkpt>
      <trkpt lat="47.54725" lon="-0.40908">
        <ele>18</ele>
        <time>2010-08-22T10:45:49Z</time>
      </trkpt>
      <trkpt lat="47.54725" lon="-0.40907">
        <ele>18</ele>
        <time>2010-08-22T10:45:54Z</time>
      </trkpt>
      <trkpt lat="47.54725" lon="-0.40906">
        <ele>18</ele>
        <time>2010-08-22T10:45:59Z</time>
      </trkpt>
      <trkpt lat="47.54725" lon="-0.40906">
        <ele>18</ele>
        <time>2010-08-22T10:46:04Z</time>
      </trkpt>
      <trkpt lat="47.54724" lon="-0.40906">
        <ele>18</ele>
        <time>2010-08-22T10:46:09Z</time>
      </trkpt>
      <trkpt lat="47.54724" lon="-0.40905">
        <ele>18</ele>
        <time>2010-08-22T10:46:14Z</time>
      </trkpt>
      <trkpt lat="47.54724" lon="-0.40906">
        <ele>18</ele>
        <time>2010-08-22T10:46:19Z</time>
      </trkpt>
      <trkpt lat="47.54725" lon="-0.40906">
        <ele>18</ele>
        <time>2010-08-22T10:46:24Z</time>
      </trkpt>
      <trkpt lat="47.54726" lon="-0.40907">
        <ele>18</ele>
        <time>2010-08-22T10:46:29Z</time>
      </trkpt>
      <trkpt lat="47.54727" lon="-0.40907">
        <ele>18</ele>
        <time>2010-08-22T10:46:34Z</time>
      </trkpt>
      <trkpt lat="47.54729" lon="-0.40908">
        <ele>18</ele>
        <time>2010-08-22T10:46:39Z</time>
      </trkpt>
      <trkpt lat="47.5473" lon="-0.40908">
        <ele>18</ele>
        <time>2010-08-22T10:46:44Z</time>
      </trkpt>
      <trkpt lat="47.54729" lon="-0.40908">
        <ele>18</ele>
        <time>2010-08-22T10:46:49Z</time>
      </trkpt>
      <trkpt lat="47.54728" lon="-0.40908">
        <ele>18</ele>
        <time>2010-08-22T10:46:54Z</time>
      </trkpt>
      <trkpt lat="47.54726" lon="-0.40908">
        <ele>18</ele>
        <time>2010-08-22T10:46:59Z</time>
      </trkpt>
      <trkpt lat="47.54725" lon="-0.40908">
        <ele>18</ele>
        <time>2010-08-22T10:47:04Z</time>
      </trkpt>
      <trkpt lat="47.54724" lon="-0.40907">
        <ele>18</ele>
        <time>2010-08-22T10:47:09Z</time>
      </trkpt>
      <trkpt lat="47.54723" lon="-0.40907">
        <ele>18</ele>
        <time>2010-08-22T10:47:14Z</time>
      </trkpt>
      <trkpt lat="47.54724" lon="-0.40907">
        <ele>18</ele>
        <time>2010-08-22T10:47:19Z</time>
      </trkpt>
      <trkpt lat="47.54724" lon="-0.40907">
        <ele>18</ele>
        <time>2010-08-22T10:47:24Z</time>
      </trkpt>
      <trkpt lat="47.54725" lon="-0.40907">
        <ele>18</ele>
        <time>2010-08-22T10:47:29Z</time>
      </trkpt>
      <trkpt lat="47.54725" lon="-0.40908">
        <ele>18</ele>
        <time>2010-08-22T10:47:34Z</time>
      </trkpt>
      <trkpt lat="47.54728" lon="-0.40893">
        <ele>18</ele>
        <time>2010-08-22T10:47:39Z</time>
      </trkpt>
      <trkpt lat="47.54729" lon="-0.40875">
        <ele>18</ele>
        <time>2010-08-22T10:47:44Z</time>
      </trkpt>
      <trkpt lat="47.54738" lon="-0.40834">
        <ele>18</ele>
        <time>2010-08-22T10:47:49Z</time>
      </trkpt>
      <trkpt lat="47.54754" lon="-0.40811">
        <ele>18</ele>
        <time>2010-08-22T10:47:54Z</time>
      </trkpt>
      <trkpt lat="47.54789" lon="-0.40791">
        <ele>17</ele>
        <time>2010-08-22T10:47:59Z</time>
      </trkpt>
      <trkpt lat="47.54818" lon="-0.40776">
        <ele>17</ele>
        <time>2010-08-22T10:48:04Z</time>
      </trkpt>
      <trkpt lat="47.54859" lon="-0.40743">
        <ele>16</ele>
        <time>2010-08-22T10:48:09Z</time>
      </trkpt>
      <trkpt lat="47.54883" lon="-0.40714">
        <ele>17</ele>
        <time>2010-08-22T10:48:14Z</time>
      </trkpt>
      <trkpt lat="47.54918" lon="-0.4067">
        <ele>17</ele>
        <time>2010-08-22T10:48:19Z</time>
      </trkpt>
      <trkpt lat="47.5494" lon="-0.40643">
        <ele>18</ele>
        <time>2010-08-22T10:48:24Z</time>
      </trkpt>
      <trkpt lat="47.54975" lon="-0.40598">
        <ele>19</ele>
        <time>2010-08-22T10:48:29Z</time>
      </trkpt>
      <trkpt lat="47.55002" lon="-0.40566">
        <ele>19</ele>
        <time>2010-08-22T10:48:34Z</time>
      </trkpt>
      <trkpt lat="47.55033" lon="-0.40515">
        <ele>19</ele>
        <time>2010-08-22T10:48:39Z</time>
      </trkpt>
      <trkpt lat="47.55048" lon="-0.40482">
        <ele>19</ele>
        <time>2010-08-22T10:48:44Z</time>
      </trkpt>
      <trkpt lat="47.55057" lon="-0.4043">
        <ele>19</ele>
        <time>2010-08-22T10:48:49Z</time>
      </trkpt>
      <trkpt lat="47.5506" lon="-0.40392">
        <ele>19</ele>
        <time>2010-08-22T10:48:54Z</time>
      </trkpt>
      <trkpt lat="47.55058" lon="-0.40338">
        <ele>19</ele>
        <time>2010-08-22T10:48:59Z</time>
      </trkpt>
      <trkpt lat="47.55052" lon="-0.40289">
        <ele>19</ele>
        <time>2010-08-22T10:49:04Z</time>
      </trkpt>
      <trkpt lat="47.55049" lon="-0.4025">
        <ele>18</ele>
        <time>2010-08-22T10:49:09Z</time>
      </trkpt>
      <trkpt lat="47.55048" lon="-0.40188">
        <ele>19</ele>
        <time>2010-08-22T10:49:14Z</time>
      </trkpt>
      <trkpt lat="47.5505" lon="-0.4014">
        <ele>20</ele>
        <time>2010-08-22T10:49:19Z</time>
      </trkpt>
      <trkpt lat="47.55054" lon="-0.40058">
        <ele>20</ele>
        <time>2010-08-22T10:49:24Z</time>
      </trkpt>
      <trkpt lat="47.55056" lon="-0.39997">
        <ele>20</ele>
        <time>2010-08-22T10:49:29Z</time>
      </trkpt>
      <trkpt lat="47.55064" lon="-0.39905">
        <ele>21</ele>
        <time>2010-08-22T10:49:34Z</time>
      </trkpt>
      <trkpt lat="47.55058" lon="-0.3985">
        <ele>21</ele>
        <time>2010-08-22T10:49:39Z</time>
      </trkpt>
      <trkpt lat="47.55033" lon="-0.39779">
        <ele>21</ele>
        <time>2010-08-22T10:49:44Z</time>
      </trkpt>
      <trkpt lat="47.55018" lon="-0.39736">
        <ele>21</ele>
        <time>2010-08-22T10:49:49Z</time>
      </trkpt>
      <trkpt lat="47.55005" lon="-0.39695">
        <ele>21</ele>
        <time>2010-08-22T10:49:54Z</time>
      </trkpt>
      <trkpt lat="47.5501" lon="-0.39701">
        <ele>21</ele>
        <time>2010-08-22T10:49:59Z</time>
      </trkpt>
      <trkpt lat="47.55024" lon="-0.39718">
        <ele>21</ele>
        <time>2010-08-22T10:50:04Z</time>
      </trkpt>
      <trkpt lat="47.55037" lon="-0.39725">
        <ele>22</ele>
        <time>2010-08-22T10:50:09Z</time>
      </trkpt>
      <trkpt lat="47.55063" lon="-0.39734">
        <ele>22</ele>
        <time>2010-08-22T10:50:14Z</time>
      </trkpt>
      <trkpt lat="47.5508" lon="-0.3974">
        <ele>23</ele>
        <time>2010-08-22T10:50:19Z</time>
      </trkpt>
      <trkpt lat="47.55107" lon="-0.39749">
        <ele>23</ele>
        <time>2010-08-22T10:50:24Z</time>
      </trkpt>
      <trkpt lat="47.55125" lon="-0.39755">
        <ele>22</ele>
        <time>2010-08-22T10:50:29Z</time>
      </trkpt>
      <trkpt lat="47.55156" lon="-0.39766">
        <ele>22</ele>
        <time>2010-08-22T10:50:34Z</time>
      </trkpt>
      <trkpt lat="47.55178" lon="-0.39774">
        <ele>22</ele>
        <time>2010-08-22T10:50:39Z</time>
      </trkpt>
      <trkpt lat="47.55209" lon="-0.39791">
        <ele>21</ele>
        <time>2010-08-22T10:50:44Z</time>
      </trkpt>
      <trkpt lat="47.55229" lon="-0.39804">
        <ele>21</ele>
        <time>2010-08-22T10:50:49Z</time>
      </trkpt>
      <trkpt lat="47.55275" lon="-0.39821">
        <ele>21</ele>
        <time>2010-08-22T10:50:54Z</time>
      </trkpt>
      <trkpt lat="47.55316" lon="-0.39837">
        <ele>21</ele>
        <time>2010-08-22T10:50:59Z</time>
      </trkpt>
      <trkpt lat="47.55389" lon="-0.39869">
        <ele>21</ele>
        <time>2010-08-22T10:51:04Z</time>
      </trkpt>
      <trkpt lat="47.55432" lon="-0.39888">
        <ele>21</ele>
        <time>2010-08-22T10:51:09Z</time>
      </trkpt>
      <trkpt lat="47.55476" lon="-0.39909">
        <ele>20</ele>
        <time>2010-08-22T10:51:14Z</time>
      </trkpt>
      <trkpt lat="47.55492" lon="-0.39918">
        <ele>20</ele>
        <time>2010-08-22T10:51:19Z</time>
      </trkpt>
      <trkpt lat="47.55483" lon="-0.39934">
        <ele>20</ele>
        <time>2010-08-22T10:51:24Z</time>
      </trkpt>
      <trkpt lat="47.55474" lon="-0.39958">
        <ele>20</ele>
        <time>2010-08-22T10:51:29Z</time>
      </trkpt>
      <trkpt lat="47.55459" lon="-0.40013">
        <ele>20</ele>
        <time>2010-08-22T10:51:34Z</time>
      </trkpt>
      <trkpt lat="47.5545" lon="-0.40051">
        <ele>20</ele>
        <time>2010-08-22T10:51:39Z</time>
      </trkpt>
      <trkpt lat="47.55439" lon="-0.40106">
        <ele>20</ele>
        <time>2010-08-22T10:51:44Z</time>
      </trkpt>
      <trkpt lat="47.55427" lon="-0.40155">
        <ele>20</ele>
        <time>2010-08-22T10:51:49Z</time>
      </trkpt>
      <trkpt lat="47.55416" lon="-0.4024">
        <ele>22</ele>
        <time>2010-08-22T10:51:54Z</time>
      </trkpt>
      <trkpt lat="47.55407" lon="-0.40298">
        <ele>22</ele>
        <time>2010-08-22T10:51:59Z</time>
      </trkpt>
      <trkpt lat="47.55388" lon="-0.40373">
        <ele>21</ele>
        <time>2010-08-22T10:52:04Z</time>
      </trkpt>
      <trkpt lat="47.55376" lon="-0.40417">
        <ele>21</ele>
        <time>2010-08-22T10:52:09Z</time>
      </trkpt>
      <trkpt lat="47.55358" lon="-0.40477">
        <ele>20</ele>
        <time>2010-08-22T10:52:14Z</time>
      </trkpt>
      <trkpt lat="47.55354" lon="-0.40516">
        <ele>20</ele>
        <time>2010-08-22T10:52:19Z</time>
      </trkpt>
      <trkpt lat="47.5538" lon="-0.40576">
        <ele>20</ele>
        <time>2010-08-22T10:52:24Z</time>
      </trkpt>
      <trkpt lat="47.55403" lon="-0.40624">
        <ele>21</ele>
        <time>2010-08-22T10:52:29Z</time>
      </trkpt>
      <trkpt lat="47.55434" lon="-0.4069">
        <ele>23</ele>
        <time>2010-08-22T10:52:34Z</time>
      </trkpt>
      <trkpt lat="47.55478" lon="-0.40778">
        <ele>20</ele>
        <time>2010-08-22T10:52:39Z</time>
      </trkpt>
      <trkpt lat="47.55506" lon="-0.40835">
        <ele>18</ele>
        <time>2010-08-22T10:52:44Z</time>
      </trkpt>
      <trkpt lat="47.55545" lon="-0.40917">
        <ele>17</ele>
        <time>2010-08-22T10:52:49Z</time>
      </trkpt>
      <trkpt lat="47.5557" lon="-0.40969">
        <ele>17</ele>
        <time>2010-08-22T10:52:54Z</time>
      </trkpt>
      <trkpt lat="47.55603" lon="-0.4104">
        <ele>17</ele>
        <time>2010-08-22T10:52:59Z</time>
      </trkpt>
      <trkpt lat="47.55623" lon="-0.41081">
        <ele>18</ele>
        <time>2010-08-22T10:53:04Z</time>
      </trkpt>
      <trkpt lat="47.5565" lon="-0.41135">
        <ele>17</ele>
        <time>2010-08-22T10:53:09Z</time>
      </trkpt>
      <trkpt lat="47.55667" lon="-0.41168">
        <ele>17</ele>
        <time>2010-08-22T10:53:14Z</time>
      </trkpt>
      <trkpt lat="47.55692" lon="-0.41217">
        <ele>17</ele>
        <time>2010-08-22T10:53:19Z</time>
      </trkpt>
      <trkpt lat="47.5571" lon="-0.41251">
        <ele>17</ele>
        <time>2010-08-22T10:53:24Z</time>
      </trkpt>
      <trkpt lat="47.55736" lon="-0.41303">
        <ele>17</ele>
        <time>2010-08-22T10:53:29Z</time>
      </trkpt>
      <trkpt lat="47.55752" lon="-0.41337">
        <ele>18</ele>
        <time>2010-08-22T10:53:34Z</time>
      </trkpt>
      <trkpt lat="47.55771" lon="-0.41378">
        <ele>18</ele>
        <time>2010-08-22T10:53:39Z</time>
      </trkpt>
      <trkpt lat="47.55767" lon="-0.4138">
        <ele>18</ele>
        <time>2010-08-22T10:53:44Z</time>
      </trkpt>
      <trkpt lat="47.55749" lon="-0.41348">
        <ele>17</ele>
        <time>2010-08-22T10:53:49Z</time>
      </trkpt>
      <trkpt lat="47.55733" lon="-0.41316">
        <ele>17</ele>
        <time>2010-08-22T10:53:54Z</time>
      </trkpt>
      <trkpt lat="47.55711" lon="-0.41276">
        <ele>17</ele>
        <time>2010-08-22T10:53:59Z</time>
      </trkpt>
      <trkpt lat="47.55699" lon="-0.41254">
        <ele>17</ele>
        <time>2010-08-22T10:54:04Z</time>
      </trkpt>
      <trkpt lat="47.55696" lon="-0.41243">
        <ele>17</ele>
        <time>2010-08-22T10:54:09Z</time>
      </trkpt>
      <trkpt lat="47.55704" lon="-0.41256">
        <ele>17</ele>
        <time>2010-08-22T10:54:14Z</time>
      </trkpt>
      <trkpt lat="47.55726" lon="-0.41296">
        <ele>17</ele>
        <time>2010-08-22T10:54:19Z</time>
      </trkpt>
      <trkpt lat="47.55742" lon="-0.41328">
        <ele>18</ele>
        <time>2010-08-22T10:54:24Z</time>
      </trkpt>
      <trkpt lat="47.55761" lon="-0.4137">
        <ele>18</ele>
        <time>2010-08-22T10:54:29Z</time>
      </trkpt>
      <trkpt lat="47.55769" lon="-0.41392">
        <ele>17</ele>
        <time>2010-08-22T10:54:34Z</time>
      </trkpt>
      <trkpt lat="47.55769" lon="-0.41391">
        <ele>18</ele>
        <time>2010-08-22T10:54:39Z</time>
      </trkpt>
      <trkpt lat="47.55773" lon="-0.41398">
        <ele>17</ele>
        <time>2010-08-22T10:54:44Z</time>
      </trkpt>
      <trkpt lat="47.5579" lon="-0.4143">
        <ele>18</ele>
        <time>2010-08-22T10:54:49Z</time>
      </trkpt>
      <trkpt lat="47.55803" lon="-0.41464">
        <ele>18</ele>
        <time>2010-08-22T10:54:54Z</time>
      </trkpt>
      <trkpt lat="47.55822" lon="-0.41512">
        <ele>20</ele>
        <time>2010-08-22T10:54:59Z</time>
      </trkpt>
      <trkpt lat="47.55834" lon="-0.41544">
        <ele>20</ele>
        <time>2010-08-22T10:55:04Z</time>
      </trkpt>
      <trkpt lat="47.55851" lon="-0.41589">
        <ele>20</ele>
        <time>2010-08-22T10:55:09Z</time>
      </trkpt>
      <trkpt lat="47.55861" lon="-0.41618">
        <ele>19</ele>
        <time>2010-08-22T10:55:14Z</time>
      </trkpt>
      <trkpt lat="47.55875" lon="-0.41656">
        <ele>19</ele>
        <time>2010-08-22T10:55:19Z</time>
      </trkpt>
      <trkpt lat="47.5589" lon="-0.41696">
        <ele>19</ele>
        <time>2010-08-22T10:55:24Z</time>
      </trkpt>
      <trkpt lat="47.55908" lon="-0.41744">
        <ele>19</ele>
        <time>2010-08-22T10:55:29Z</time>
      </trkpt>
      <trkpt lat="47.55919" lon="-0.41776">
        <ele>20</ele>
        <time>2010-08-22T10:55:34Z</time>
      </trkpt>
      <trkpt lat="47.55937" lon="-0.41823">
        <ele>21</ele>
        <time>2010-08-22T10:55:39Z</time>
      </trkpt>
      <trkpt lat="47.55947" lon="-0.41851">
        <ele>21</ele>
        <time>2010-08-22T10:55:44Z</time>
      </trkpt>
      <trkpt lat="47.55963" lon="-0.41895">
        <ele>22</ele>
        <time>2010-08-22T10:55:49Z</time>
      </trkpt>
      <trkpt lat="47.55974" lon="-0.41933">
        <ele>22</ele>
        <time>2010-08-22T10:55:54Z</time>
      </trkpt>
      <trkpt lat="47.55985" lon="-0.41963">
        <ele>21</ele>
        <time>2010-08-22T10:55:59Z</time>
      </trkpt>
      <trkpt lat="47.55999" lon="-0.42011">
        <ele>21</ele>
        <time>2010-08-22T10:56:04Z</time>
      </trkpt>
      <trkpt lat="47.56008" lon="-0.42043">
        <ele>21</ele>
        <time>2010-08-22T10:56:09Z</time>
      </trkpt>
      <trkpt lat="47.56021" lon="-0.42086">
        <ele>23</ele>
        <time>2010-08-22T10:56:14Z</time>
      </trkpt>
      <trkpt lat="47.5603" lon="-0.42117">
        <ele>23</ele>
        <time>2010-08-22T10:56:19Z</time>
      </trkpt>
      <trkpt lat="47.56038" lon="-0.42147">
        <ele>23</ele>
        <time>2010-08-22T10:56:24Z</time>
      </trkpt>
      <trkpt lat="47.56044" lon="-0.42169">
        <ele>25</ele>
        <time>2010-08-22T10:56:29Z</time>
      </trkpt>
      <trkpt lat="47.56067" lon="-0.42167">
        <ele>24</ele>
        <time>2010-08-22T10:56:34Z</time>
      </trkpt>
      <trkpt lat="47.56083" lon="-0.42153">
        <ele>23</ele>
        <time>2010-08-22T10:56:39Z</time>
      </trkpt>
      <trkpt lat="47.56109" lon="-0.42132">
        <ele>21</ele>
        <time>2010-08-22T10:56:44Z</time>
      </trkpt>
      <trkpt lat="47.56128" lon="-0.42118">
        <ele>21</ele>
        <time>2010-08-22T10:56:49Z</time>
      </trkpt>
      <trkpt lat="47.56151" lon="-0.421">
        <ele>20</ele>
        <time>2010-08-22T10:56:54Z</time>
      </trkpt>
      <trkpt lat="47.56158" lon="-0.42096">
        <ele>20</ele>
        <time>2010-08-22T10:56:59Z</time>
      </trkpt>
      <trkpt lat="47.5617" lon="-0.42126">
        <ele>20</ele>
        <time>2010-08-22T10:57:04Z</time>
      </trkpt>
      <trkpt lat="47.56181" lon="-0.42156">
        <ele>20</ele>
        <time>2010-08-22T10:57:09Z</time>
      </trkpt>
      <trkpt lat="47.562" lon="-0.42203">
        <ele>21</ele>
        <time>2010-08-22T10:57:14Z</time>
      </trkpt>
      <trkpt lat="47.5621" lon="-0.42237">
        <ele>21</ele>
        <time>2010-08-22T10:57:19Z</time>
      </trkpt>
      <trkpt lat="47.56219" lon="-0.42268">
        <ele>22</ele>
        <time>2010-08-22T10:57:24Z</time>
      </trkpt>
      <trkpt lat="47.5622" lon="-0.4227">
        <ele>22</ele>
        <time>2010-08-22T10:57:29Z</time>
      </trkpt>
      <trkpt lat="47.56219" lon="-0.4227">
        <ele>22</ele>
        <time>2010-08-22T10:57:34Z</time>
      </trkpt>
      <trkpt lat="47.56218" lon="-0.4227">
        <ele>22</ele>
        <time>2010-08-22T10:57:39Z</time>
      </trkpt>
      <trkpt lat="47.56218" lon="-0.4227">
        <ele>22</ele>
        <time>2010-08-22T10:57:44Z</time>
      </trkpt>
      <trkpt lat="47.56217" lon="-0.42271">
        <ele>22</ele>
        <time>2010-08-22T10:57:49Z</time>
      </trkpt>
      <trkpt lat="47.56217" lon="-0.42271">
        <ele>22</ele>
        <time>2010-08-22T10:57:54Z</time>
      </trkpt>
      <trkpt lat="47.56216" lon="-0.4227">
        <ele>22</ele>
        <time>2010-08-22T10:57:59Z</time>
      </trkpt>
      <trkpt lat="47.56215" lon="-0.42269">
        <ele>22</ele>
        <time>2010-08-22T10:58:04Z</time>
      </trkpt>
      <trkpt lat="47.56214" lon="-0.4227">
        <ele>22</ele>
        <time>2010-08-22T10:58:09Z</time>
      </trkpt>
      <trkpt lat="47.56213" lon="-0.4227">
        <ele>22</ele>
        <time>2010-08-22T10:58:14Z</time>
      </trkpt>
      <trkpt lat="47.56212" lon="-0.42271">
        <ele>22</ele>
        <time>2010-08-22T10:58:19Z</time>
      </trkpt>
      <trkpt lat="47.56212" lon="-0.4227">
        <ele>22</ele>
        <time>2010-08-22T10:58:24Z</time>
      </trkpt>
      <trkpt lat="47.56212" lon="-0.42269">
        <ele>22</ele>
        <time>2010-08-22T10:58:29Z</time>
      </trkpt>
      <trkpt lat="47.56214" lon="-0.42268">
        <ele>22</ele>
        <time>2010-08-22T10:58:34Z</time>
      </trkpt>
      <trkpt lat="47.56215" lon="-0.42269">
        <ele>22</ele>
        <time>2010-08-22T10:58:39Z</time>
      </trkpt>
      <trkpt lat="47.56217" lon="-0.42269">
        <ele>22</ele>
        <time>2010-08-22T10:58:44Z</time>
      </trkpt>
      <trkpt lat="47.56217" lon="-0.42268">
        <ele>22</ele>
        <time>2010-08-22T10:58:49Z</time>
      </trkpt>
      <trkpt lat="47.56218" lon="-0.42269">
        <ele>22</ele>
        <time>2010-08-22T10:58:54Z</time>
      </trkpt>
      <trkpt lat="47.56218" lon="-0.42269">
        <ele>22</ele>
        <time>2010-08-22T10:58:59Z</time>
      </trkpt>
      <trkpt lat="47.56217" lon="-0.42269">
        <ele>22</ele>
        <time>2010-08-22T10:59:04Z</time>
      </trkpt>
      <trkpt lat="47.56218" lon="-0.4227">
        <ele>22</ele>
        <time>2010-08-22T10:59:09Z</time>
      </trkpt>
      <trkpt lat="47.56218" lon="-0.4227">
        <ele>22</ele>
        <time>2010-08-22T10:59:14Z</time>
      </trkpt>
      <trkpt lat="47.5622" lon="-0.42268">
        <ele>22</ele>
        <time>2010-08-22T10:59:19Z</time>
      </trkpt>
      <trkpt lat="47.56221" lon="-0.42268">
        <ele>22</ele>
        <time>2010-08-22T10:59:24Z</time>
      </trkpt>
      <trkpt lat="47.56221" lon="-0.42267">
        <ele>22</ele>
        <time>2010-08-22T10:59:29Z</time>
      </trkpt>
      <trkpt lat="47.56221" lon="-0.42267">
        <ele>22</ele>
        <time>2010-08-22T10:59:34Z</time>
      </trkpt>
      <trkpt lat="47.5622" lon="-0.42266">
        <ele>22</ele>
        <time>2010-08-22T10:59:39Z</time>
      </trkpt>
      <trkpt lat="47.56219" lon="-0.42265">
        <ele>22</ele>
        <time>2010-08-22T10:59:44Z</time>
      </trkpt>
      <trkpt lat="47.56222" lon="-0.42262">
        <ele>21</ele>
        <time>2010-08-22T10:59:49Z</time>
      </trkpt>
      <trkpt lat="47.56225" lon="-0.4226">
        <ele>21</ele>
        <time>2010-08-22T10:59:54Z</time>
      </trkpt>
      <trkpt lat="47.56227" lon="-0.42258">
        <ele>21</ele>
        <time>2010-08-22T10:59:59Z</time>
      </trkpt>
      <trkpt lat="47.56229" lon="-0.42257">
        <ele>21</ele>
        <time>2010-08-22T11:00:04Z</time>
      </trkpt>
      <trkpt lat="47.5623" lon="-0.42255">
        <ele>21</ele>
        <time>2010-08-22T11:00:09Z</time>
      </trkpt>
      <trkpt lat="47.5623" lon="-0.42255">
        <ele>21</ele>
        <time>2010-08-22T11:00:14Z</time>
      </trkpt>
      <trkpt lat="47.56229" lon="-0.42261">
        <ele>21</ele>
        <time>2010-08-22T11:00:19Z</time>
      </trkpt>
      <trkpt lat="47.56229" lon="-0.42264">
        <ele>21</ele>
        <time>2010-08-22T11:00:24Z</time>
      </trkpt>
      <trkpt lat="47.56228" lon="-0.42267">
        <ele>21</ele>
        <time>2010-08-22T11:00:29Z</time>
      </trkpt>
      <trkpt lat="47.56228" lon="-0.42268">
        <ele>21</ele>
        <time>2010-08-22T11:00:34Z</time>
      </trkpt>
      <trkpt lat="47.56227" lon="-0.42267">
        <ele>21</ele>
        <time>2010-08-22T11:00:39Z</time>
      </trkpt>
      <trkpt lat="47.56227" lon="-0.42266">
        <ele>21</ele>
        <time>2010-08-22T11:00:44Z</time>
      </trkpt>
      <trkpt lat="47.56227" lon="-0.42265">
        <ele>21</ele>
        <time>2010-08-22T11:00:49Z</time>
      </trkpt>
      <trkpt lat="47.56226" lon="-0.42266">
        <ele>21</ele>
        <time>2010-08-22T11:00:54Z</time>
      </trkpt>
      <trkpt lat="47.56224" lon="-0.42267">
        <ele>21</ele>
        <time>2010-08-22T11:00:59Z</time>
      </trkpt>
      <trkpt lat="47.56223" lon="-0.42268">
        <ele>21</ele>
        <time>2010-08-22T11:01:04Z</time>
      </trkpt>
      <trkpt lat="47.56223" lon="-0.4227">
        <ele>22</ele>
        <time>2010-08-22T11:01:09Z</time>
      </trkpt>
      <trkpt lat="47.56222" lon="-0.42271">
        <ele>22</ele>
        <time>2010-08-22T11:01:14Z</time>
      </trkpt>
      <trkpt lat="47.56221" lon="-0.4227">
        <ele>22</ele>
        <time>2010-08-22T11:01:19Z</time>
      </trkpt>
      <trkpt lat="47.56222" lon="-0.42269">
        <ele>22</ele>
        <time>2010-08-22T11:01:24Z</time>
      </trkpt>
      <trkpt lat="47.56222" lon="-0.42268">
        <ele>22</ele>
        <time>2010-08-22T11:01:29Z</time>
      </trkpt>
      <trkpt lat="47.56221" lon="-0.42269">
        <ele>22</ele>
        <time>2010-08-22T11:01:34Z</time>
      </trkpt>
      <trkpt lat="47.56221" lon="-0.42269">
        <ele>22</ele>
        <time>2010-08-22T11:01:39Z</time>
      </trkpt>
      <trkpt lat="47.5622" lon="-0.42269">
        <ele>22</ele>
        <time>2010-08-22T11:01:44Z</time>
      </trkpt>
      <trkpt lat="47.5622" lon="-0.42269">
        <ele>22</ele>
        <time>2010-08-22T11:01:49Z</time>
      </trkpt>
      <trkpt lat="47.5622" lon="-0.42268">
        <ele>22</ele>
        <time>2010-08-22T11:01:54Z</time>
      </trkpt>
      <trkpt lat="47.5622" lon="-0.42268">
        <ele>22</ele>
        <time>2010-08-22T11:01:59Z</time>
      </trkpt>
      <trkpt lat="47.56221" lon="-0.42269">
        <ele>22</ele>
        <time>2010-08-22T11:02:04Z</time>
      </trkpt>
      <trkpt lat="47.56222" lon="-0.4227">
        <ele>22</ele>
        <time>2010-08-22T11:02:09Z</time>
      </trkpt>
      <trkpt lat="47.56223" lon="-0.4227">
        <ele>21</ele>
        <time>2010-08-22T11:02:14Z</time>
      </trkpt>
      <trkpt lat="47.56225" lon="-0.42271">
        <ele>21</ele>
        <time>2010-08-22T11:02:19Z</time>
      </trkpt>
      <trkpt lat="47.56224" lon="-0.42272">
        <ele>21</ele>
        <time>2010-08-22T11:02:24Z</time>
      </trkpt>
      <trkpt lat="47.56225" lon="-0.42273">
        <ele>21</ele>
        <time>2010-08-22T11:02:29Z</time>
      </trkpt>
      <trkpt lat="47.56225" lon="-0.42272">
        <ele>21</ele>
        <time>2010-08-22T11:02:34Z</time>
      </trkpt>
      <trkpt lat="47.56226" lon="-0.42271">
        <ele>21</ele>
        <time>2010-08-22T11:02:39Z</time>
      </trkpt>
      <trkpt lat="47.56227" lon="-0.4227">
        <ele>21</ele>
        <time>2010-08-22T11:02:44Z</time>
      </trkpt>
      <trkpt lat="47.56228" lon="-0.42269">
        <ele>21</ele>
        <time>2010-08-22T11:02:49Z</time>
      </trkpt>
      <trkpt lat="47.56227" lon="-0.42269">
        <ele>21</ele>
        <time>2010-08-22T11:02:54Z</time>
      </trkpt>
      <trkpt lat="47.56226" lon="-0.42269">
        <ele>21</ele>
        <time>2010-08-22T11:02:59Z</time>
      </trkpt>
      <trkpt lat="47.56227" lon="-0.4227">
        <ele>21</ele>
        <time>2010-08-22T11:03:04Z</time>
      </trkpt>
      <trkpt lat="47.56228" lon="-0.42271">
        <ele>21</ele>
        <time>2010-08-22T11:03:09Z</time>
      </trkpt>
      <trkpt lat="47.56228" lon="-0.42273">
        <ele>21</ele>
        <time>2010-08-22T11:03:14Z</time>
      </trkpt>
      <trkpt lat="47.56228" lon="-0.42273">
        <ele>21</ele>
        <time>2010-08-22T11:03:19Z</time>
      </trkpt>
      <trkpt lat="47.56227" lon="-0.42273">
        <ele>21</ele>
        <time>2010-08-22T11:03:24Z</time>
      </trkpt>
      <trkpt lat="47.56226" lon="-0.42273">
        <ele>21</ele>
        <time>2010-08-22T11:03:29Z</time>
      </trkpt>
      <trkpt lat="47.56223" lon="-0.42273">
        <ele>22</ele>
        <time>2010-08-22T11:03:34Z</time>
      </trkpt>
      <trkpt lat="47.56221" lon="-0.42274">
        <ele>22</ele>
        <time>2010-08-22T11:03:39Z</time>
      </trkpt>
      <trkpt lat="47.56219" lon="-0.42276">
        <ele>22</ele>
        <time>2010-08-22T11:03:44Z</time>
      </trkpt>
      <trkpt lat="47.56219" lon="-0.42274">
        <ele>22</ele>
        <time>2010-08-22T11:03:49Z</time>
      </trkpt>
      <trkpt lat="47.56221" lon="-0.4227">
        <ele>22</ele>
        <time>2010-08-22T11:03:54Z</time>
      </trkpt>
      <trkpt lat="47.56221" lon="-0.42267">
        <ele>22</ele>
        <time>2010-08-22T11:03:59Z</time>
      </trkpt>
      <trkpt lat="47.56223" lon="-0.42265">
        <ele>21</ele>
        <time>2010-08-22T11:04:04Z</time>
      </trkpt>
      <trkpt lat="47.56223" lon="-0.42266">
        <ele>21</ele>
        <time>2010-08-22T11:04:09Z</time>
      </trkpt>
      <trkpt lat="47.56222" lon="-0.42268">
        <ele>22</ele>
        <time>2010-08-22T11:04:14Z</time>
      </trkpt>
      <trkpt lat="47.56221" lon="-0.42269">
        <ele>22</ele>
        <time>2010-08-22T11:04:19Z</time>
      </trkpt>
      <trkpt lat="47.56221" lon="-0.4227">
        <ele>22</ele>
        <time>2010-08-22T11:04:24Z</time>
      </trkpt>
      <trkpt lat="47.5622" lon="-0.42271">
        <ele>22</ele>
        <time>2010-08-22T11:04:29Z</time>
      </trkpt>
      <trkpt lat="47.56221" lon="-0.42272">
        <ele>22</ele>
        <time>2010-08-22T11:04:34Z</time>
      </trkpt>
      <trkpt lat="47.56223" lon="-0.42272">
        <ele>22</ele>
        <time>2010-08-22T11:04:39Z</time>
      </trkpt>
      <trkpt lat="47.56222" lon="-0.42269">
        <ele>22</ele>
        <time>2010-08-22T11:04:44Z</time>
      </trkpt>
      <trkpt lat="47.56222" lon="-0.42268">
        <ele>22</ele>
        <time>2010-08-22T11:04:49Z</time>
      </trkpt>
      <trkpt lat="47.56221" lon="-0.42268">
        <ele>22</ele>
        <time>2010-08-22T11:04:54Z</time>
      </trkpt>
      <trkpt lat="47.56221" lon="-0.42268">
        <ele>22</ele>
        <time>2010-08-22T11:04:59Z</time>
      </trkpt>
      <trkpt lat="47.56221" lon="-0.42267">
        <ele>22</ele>
        <time>2010-08-22T11:05:04Z</time>
      </trkpt>
      <trkpt lat="47.56221" lon="-0.42267">
        <ele>22</ele>
        <time>2010-08-22T11:05:09Z</time>
      </trkpt>
      <trkpt lat="47.5622" lon="-0.42266">
        <ele>22</ele>
        <time>2010-08-22T11:05:14Z</time>
      </trkpt>
      <trkpt lat="47.56221" lon="-0.42265">
        <ele>22</ele>
        <time>2010-08-22T11:05:19Z</time>
      </trkpt>
      <trkpt lat="47.56221" lon="-0.42264">
        <ele>22</ele>
        <time>2010-08-22T11:05:24Z</time>
      </trkpt>
      <trkpt lat="47.56221" lon="-0.42263">
        <ele>21</ele>
        <time>2010-08-22T11:05:29Z</time>
      </trkpt>
      <trkpt lat="47.56222" lon="-0.42263">
        <ele>21</ele>
        <time>2010-08-22T11:05:34Z</time>
      </trkpt>
      <trkpt lat="47.56223" lon="-0.42264">
        <ele>21</ele>
        <time>2010-08-22T11:05:39Z</time>
      </trkpt>
      <trkpt lat="47.56223" lon="-0.42266">
        <ele>21</ele>
        <time>2010-08-22T11:05:44Z</time>
      </trkpt>
      <trkpt lat="47.56223" lon="-0.42266">
        <ele>21</ele>
        <time>2010-08-22T11:05:49Z</time>
      </trkpt>
      <trkpt lat="47.56222" lon="-0.42266">
        <ele>21</ele>
        <time>2010-08-22T11:05:54Z</time>
      </trkpt>
      <trkpt lat="47.56223" lon="-0.42263">
        <ele>21</ele>
        <time>2010-08-22T11:05:59Z</time>
      </trkpt>
      <trkpt lat="47.56223" lon="-0.42263">
        <ele>21</ele>
        <time>2010-08-22T11:06:04Z</time>
      </trkpt>
      <trkpt lat="47.56223" lon="-0.42263">
        <ele>21</ele>
        <time>2010-08-22T11:06:09Z</time>
      </trkpt>
      <trkpt lat="47.56223" lon="-0.42263">
        <ele>21</ele>
        <time>2010-08-22T11:06:14Z</time>
      </trkpt>
      <trkpt lat="47.56222" lon="-0.42264">
        <ele>21</ele>
        <time>2010-08-22T11:06:19Z</time>
      </trkpt>
      <trkpt lat="47.56222" lon="-0.42265">
        <ele>21</ele>
        <time>2010-08-22T11:06:24Z</time>
      </trkpt>
      <trkpt lat="47.56221" lon="-0.42266">
        <ele>22</ele>
        <time>2010-08-22T11:06:29Z</time>
      </trkpt>
      <trkpt lat="47.5622" lon="-0.42266">
        <ele>22</ele>
        <time>2010-08-22T11:06:34Z</time>
      </trkpt>
      <trkpt lat="47.56221" lon="-0.42265">
        <ele>21</ele>
        <time>2010-08-22T11:06:39Z</time>
      </trkpt>
      <trkpt lat="47.56221" lon="-0.42265">
        <ele>22</ele>
        <time>2010-08-22T11:06:44Z</time>
      </trkpt>
      <trkpt lat="47.56222" lon="-0.42265">
        <ele>21</ele>
        <time>2010-08-22T11:06:49Z</time>
      </trkpt>
      <trkpt lat="47.56221" lon="-0.42265">
        <ele>22</ele>
        <time>2010-08-22T11:06:54Z</time>
      </trkpt>
      <trkpt lat="47.56221" lon="-0.42266">
        <ele>22</ele>
        <time>2010-08-22T11:06:59Z</time>
      </trkpt>
      <trkpt lat="47.56221" lon="-0.42266">
        <ele>22</ele>
        <time>2010-08-22T11:07:04Z</time>
      </trkpt>
      <trkpt lat="47.5622" lon="-0.42267">
        <ele>22</ele>
        <time>2010-08-22T11:07:09Z</time>
      </trkpt>
      <trkpt lat="47.56219" lon="-0.42267">
        <ele>22</ele>
        <time>2010-08-22T11:07:14Z</time>
      </trkpt>
      <trkpt lat="47.56218" lon="-0.42267">
        <ele>22</ele>
        <time>2010-08-22T11:07:19Z</time>
      </trkpt>
      <trkpt lat="47.56218" lon="-0.42267">
        <ele>22</ele>
        <time>2010-08-22T11:07:24Z</time>
      </trkpt>
      <trkpt lat="47.56218" lon="-0.42267">
        <ele>22</ele>
        <time>2010-08-22T11:07:29Z</time>
      </trkpt>
      <trkpt lat="47.56218" lon="-0.42267">
        <ele>22</ele>
        <time>2010-08-22T11:07:34Z</time>
      </trkpt>
      <trkpt lat="47.56219" lon="-0.42269">
        <ele>22</ele>
        <time>2010-08-22T11:07:39Z</time>
      </trkpt>
      <trkpt lat="47.56221" lon="-0.42282">
        <ele>22</ele>
        <time>2010-08-22T11:07:44Z</time>
      </trkpt>
      <trkpt lat="47.56216" lon="-0.42309">
        <ele>22</ele>
        <time>2010-08-22T11:07:49Z</time>
      </trkpt>
      <trkpt lat="47.56214" lon="-0.42331">
        <ele>22</ele>
        <time>2010-08-22T11:07:54Z</time>
      </trkpt>
      <trkpt lat="47.56216" lon="-0.42359">
        <ele>23</ele>
        <time>2010-08-22T11:07:59Z</time>
      </trkpt>
      <trkpt lat="47.56206" lon="-0.4237">
        <ele>23</ele>
        <time>2010-08-22T11:08:04Z</time>
      </trkpt>
      <trkpt lat="47.56186" lon="-0.42379">
        <ele>24</ele>
        <time>2010-08-22T11:08:09Z</time>
      </trkpt>
      <trkpt lat="47.56175" lon="-0.42386">
        <ele>24</ele>
        <time>2010-08-22T11:08:14Z</time>
      </trkpt>
      <trkpt lat="47.56157" lon="-0.42401">
        <ele>28</ele>
        <time>2010-08-22T11:08:19Z</time>
      </trkpt>
      <trkpt lat="47.56146" lon="-0.42415">
        <ele>28</ele>
        <time>2010-08-22T11:08:24Z</time>
      </trkpt>
      <trkpt lat="47.56129" lon="-0.42439">
        <ele>31</ele>
        <time>2010-08-22T11:08:29Z</time>
      </trkpt>
      <trkpt lat="47.56118" lon="-0.42455">
        <ele>32</ele>
        <time>2010-08-22T11:08:34Z</time>
      </trkpt>
      <trkpt lat="47.561" lon="-0.4247">
        <ele>33</ele>
        <time>2010-08-22T11:08:39Z</time>
      </trkpt>
      <trkpt lat="47.561" lon="-0.4249">
        <ele>34</ele>
        <time>2010-08-22T11:08:44Z</time>
      </trkpt>
      <trkpt lat="47.56103" lon="-0.42528">
        <ele>35</ele>
        <time>2010-08-22T11:08:49Z</time>
      </trkpt>
      <trkpt lat="47.56098" lon="-0.42553">
        <ele>36</ele>
        <time>2010-08-22T11:08:54Z</time>
      </trkpt>
      <trkpt lat="47.56092" lon="-0.42588">
        <ele>39</ele>
        <time>2010-08-22T11:08:59Z</time>
      </trkpt>
      <trkpt lat="47.56088" lon="-0.42615">
        <ele>39</ele>
        <time>2010-08-22T11:09:04Z</time>
      </trkpt>
      <trkpt lat="47.56083" lon="-0.42655">
        <ele>44</ele>
        <time>2010-08-22T11:09:09Z</time>
      </trkpt>
      <trkpt lat="47.5608" lon="-0.42682">
        <ele>45</ele>
        <time>2010-08-22T11:09:14Z</time>
      </trkpt>
      <trkpt lat="47.56075" lon="-0.42721">
        <ele>44</ele>
        <time>2010-08-22T11:09:19Z</time>
      </trkpt>
      <trkpt lat="47.56071" lon="-0.42747">
        <ele>45</ele>
        <time>2010-08-22T11:09:24Z</time>
      </trkpt>
      <trkpt lat="47.56063" lon="-0.4278">
        <ele>44</ele>
        <time>2010-08-22T11:09:29Z</time>
      </trkpt>
      <trkpt lat="47.56054" lon="-0.42813">
        <ele>43</ele>
        <time>2010-08-22T11:09:34Z</time>
      </trkpt>
      <trkpt lat="47.56045" lon="-0.42847">
        <ele>43</ele>
        <time>2010-08-22T11:09:39Z</time>
      </trkpt>
      <trkpt lat="47.56035" lon="-0.42887">
        <ele>43</ele>
        <time>2010-08-22T11:09:44Z</time>
      </trkpt>
      <trkpt lat="47.56027" lon="-0.42914">
        <ele>43</ele>
        <time>2010-08-22T11:09:49Z</time>
      </trkpt>
      <trkpt lat="47.56015" lon="-0.42958">
        <ele>43</ele>
        <time>2010-08-22T11:09:54Z</time>
      </trkpt>
      <trkpt lat="47.56006" lon="-0.42989">
        <ele>43</ele>
        <time>2010-08-22T11:09:59Z</time>
      </trkpt>
      <trkpt lat="47.55989" lon="-0.4304">
        <ele>43</ele>
        <time>2010-08-22T11:10:04Z</time>
      </trkpt>
      <trkpt lat="47.55978" lon="-0.43078">
        <ele>42</ele>
        <time>2010-08-22T11:10:09Z</time>
      </trkpt>
      <trkpt lat="47.55967" lon="-0.43142">
        <ele>40</ele>
        <time>2010-08-22T11:10:14Z</time>
      </trkpt>
      <trkpt lat="47.55962" lon="-0.43187">
        <ele>39</ele>
        <time>2010-08-22T11:10:19Z</time>
      </trkpt>
      <trkpt lat="47.55952" lon="-0.43251">
        <ele>39</ele>
        <time>2010-08-22T11:10:24Z</time>
      </trkpt>
      <trkpt lat="47.55944" lon="-0.43293">
        <ele>39</ele>
        <time>2010-08-22T11:10:29Z</time>
      </trkpt>
      <trkpt lat="47.55932" lon="-0.43356">
        <ele>40</ele>
        <time>2010-08-22T11:10:34Z</time>
      </trkpt>
      <trkpt lat="47.55925" lon="-0.43399">
        <ele>40</ele>
        <time>2010-08-22T11:10:39Z</time>
      </trkpt>
      <trkpt lat="47.55915" lon="-0.43464">
        <ele>41</ele>
        <time>2010-08-22T11:10:44Z</time>
      </trkpt>
      <trkpt lat="47.55909" lon="-0.43508">
        <ele>40</ele>
        <time>2010-08-22T11:10:49Z</time>
      </trkpt>
      <trkpt lat="47.55902" lon="-0.43574">
        <ele>38</ele>
        <time>2010-08-22T11:10:54Z</time>
      </trkpt>
      <trkpt lat="47.55898" lon="-0.43617">
        <ele>37</ele>
        <time>2010-08-22T11:10:59Z</time>
      </trkpt>
      <trkpt lat="47.5589" lon="-0.43686">
        <ele>36</ele>
        <time>2010-08-22T11:11:04Z</time>
      </trkpt>
      <trkpt lat="47.55885" lon="-0.43734">
        <ele>35</ele>
        <time>2010-08-22T11:11:09Z</time>
      </trkpt>
      <trkpt lat="47.55876" lon="-0.43808">
        <ele>35</ele>
        <time>2010-08-22T11:11:14Z</time>
      </trkpt>
      <trkpt lat="47.55868" lon="-0.43858">
        <ele>34</ele>
        <time>2010-08-22T11:11:19Z</time>
      </trkpt>
      <trkpt lat="47.55852" lon="-0.43933">
        <ele>32</ele>
        <time>2010-08-22T11:11:24Z</time>
      </trkpt>
      <trkpt lat="47.55838" lon="-0.43984">
        <ele>31</ele>
        <time>2010-08-22T11:11:29Z</time>
      </trkpt>
      <trkpt lat="47.55816" lon="-0.4406">
        <ele>30</ele>
        <time>2010-08-22T11:11:34Z</time>
      </trkpt>
      <trkpt lat="47.55799" lon="-0.44107">
        <ele>31</ele>
        <time>2010-08-22T11:11:39Z</time>
      </trkpt>
      <trkpt lat="47.55771" lon="-0.44178">
        <ele>31</ele>
        <time>2010-08-22T11:11:44Z</time>
      </trkpt>
      <trkpt lat="47.55751" lon="-0.44225">
        <ele>31</ele>
        <time>2010-08-22T11:11:49Z</time>
      </trkpt>
      <trkpt lat="47.55714" lon="-0.4429">
        <ele>31</ele>
        <time>2010-08-22T11:11:54Z</time>
      </trkpt>
      <trkpt lat="47.55685" lon="-0.4433">
        <ele>32</ele>
        <time>2010-08-22T11:11:59Z</time>
      </trkpt>
      <trkpt lat="47.55642" lon="-0.44395">
        <ele>32</ele>
        <time>2010-08-22T11:12:04Z</time>
      </trkpt>
      <trkpt lat="47.55617" lon="-0.44447">
        <ele>31</ele>
        <time>2010-08-22T11:12:09Z</time>
      </trkpt>
      <trkpt lat="47.55583" lon="-0.44521">
        <ele>31</ele>
        <time>2010-08-22T11:12:14Z</time>
      </trkpt>
      <trkpt lat="47.55565" lon="-0.44565">
        <ele>31</ele>
        <time>2010-08-22T11:12:19Z</time>
      </trkpt>
      <trkpt lat="47.55542" lon="-0.44632">
        <ele>31</ele>
        <time>2010-08-22T11:12:24Z</time>
      </trkpt>
      <trkpt lat="47.55525" lon="-0.44681">
        <ele>31</ele>
        <time>2010-08-22T11:12:29Z</time>
      </trkpt>
      <trkpt lat="47.55504" lon="-0.44756">
        <ele>31</ele>
        <time>2010-08-22T11:12:34Z</time>
      </trkpt>
      <trkpt lat="47.55498" lon="-0.44804">
        <ele>32</ele>
        <time>2010-08-22T11:12:39Z</time>
      </trkpt>
      <trkpt lat="47.55503" lon="-0.44877">
        <ele>32</ele>
        <time>2010-08-22T11:12:44Z</time>
      </trkpt>
      <trkpt lat="47.55508" lon="-0.44926">
        <ele>33</ele>
        <time>2010-08-22T11:12:49Z</time>
      </trkpt>
      <trkpt lat="47.55513" lon="-0.44988">
        <ele>33</ele>
        <time>2010-08-22T11:12:54Z</time>
      </trkpt>
      <trkpt lat="47.5551" lon="-0.45053">
        <ele>34</ele>
        <time>2010-08-22T11:12:59Z</time>
      </trkpt>
      <trkpt lat="47.55495" lon="-0.45114">
        <ele>35</ele>
        <time>2010-08-22T11:13:04Z</time>
      </trkpt>
      <trkpt lat="47.55464" lon="-0.45182">
        <ele>36</ele>
        <time>2010-08-22T11:13:09Z</time>
      </trkpt>
      <trkpt lat="47.5544" lon="-0.45226">
        <ele>36</ele>
        <time>2010-08-22T11:13:14Z</time>
      </trkpt>
      <trkpt lat="47.55403" lon="-0.45291">
        <ele>35</ele>
        <time>2010-08-22T11:13:19Z</time>
      </trkpt>
      <trkpt lat="47.55379" lon="-0.45334">
        <ele>35</ele>
        <time>2010-08-22T11:13:24Z</time>
      </trkpt>
      <trkpt lat="47.55348" lon="-0.45404">
        <ele>36</ele>
        <time>2010-08-22T11:13:29Z</time>
      </trkpt>
      <trkpt lat="47.55335" lon="-0.45456">
        <ele>36</ele>
        <time>2010-08-22T11:13:34Z</time>
      </trkpt>
      <trkpt lat="47.55321" lon="-0.45539">
        <ele>36</ele>
        <time>2010-08-22T11:13:39Z</time>
      </trkpt>
      <trkpt lat="47.55313" lon="-0.45597">
        <ele>35</ele>
        <time>2010-08-22T11:13:44Z</time>
      </trkpt>
      <trkpt lat="47.55314" lon="-0.45684">
        <ele>35</ele>
        <time>2010-08-22T11:13:49Z</time>
      </trkpt>
      <trkpt lat="47.55317" lon="-0.45744">
        <ele>34</ele>
        <time>2010-08-22T11:13:54Z</time>
      </trkpt>
      <trkpt lat="47.55304" lon="-0.45838">
        <ele>32</ele>
        <time>2010-08-22T11:13:59Z</time>
      </trkpt>
      <trkpt lat="47.55283" lon="-0.45899">
        <ele>31</ele>
        <time>2010-08-22T11:14:04Z</time>
      </trkpt>
      <trkpt lat="47.5524" lon="-0.45991">
        <ele>28</ele>
        <time>2010-08-22T11:14:09Z</time>
      </trkpt>
      <trkpt lat="47.5522" lon="-0.46055">
        <ele>28</ele>
        <time>2010-08-22T11:14:14Z</time>
      </trkpt>
      <trkpt lat="47.55211" lon="-0.46155">
        <ele>28</ele>
        <time>2010-08-22T11:14:19Z</time>
      </trkpt>
      <trkpt lat="47.55207" lon="-0.46217">
        <ele>30</ele>
        <time>2010-08-22T11:14:24Z</time>
      </trkpt>
      <trkpt lat="47.55186" lon="-0.46302">
        <ele>31</ele>
        <time>2010-08-22T11:14:29Z</time>
      </trkpt>
      <trkpt lat="47.55169" lon="-0.46354">
        <ele>31</ele>
        <time>2010-08-22T11:14:34Z</time>
      </trkpt>
      <trkpt lat="47.55144" lon="-0.46429">
        <ele>32</ele>
        <time>2010-08-22T11:14:39Z</time>
      </trkpt>
      <trkpt lat="47.55129" lon="-0.46479">
        <ele>33</ele>
        <time>2010-08-22T11:14:44Z</time>
      </trkpt>
      <trkpt lat="47.55103" lon="-0.4655">
        <ele>32</ele>
        <time>2010-08-22T11:14:49Z</time>
      </trkpt>
      <trkpt lat="47.55082" lon="-0.46594">
        <ele>33</ele>
        <time>2010-08-22T11:14:54Z</time>
      </trkpt>
      <trkpt lat="47.5505" lon="-0.46659">
        <ele>33</ele>
        <time>2010-08-22T11:14:59Z</time>
      </trkpt>
      <trkpt lat="47.55029" lon="-0.46702">
        <ele>34</ele>
        <time>2010-08-22T11:15:04Z</time>
      </trkpt>
      <trkpt lat="47.54999" lon="-0.46767">
        <ele>35</ele>
        <time>2010-08-22T11:15:09Z</time>
      </trkpt>
      <trkpt lat="47.54983" lon="-0.46815">
        <ele>34</ele>
        <time>2010-08-22T11:15:14Z</time>
      </trkpt>
      <trkpt lat="47.54969" lon="-0.46897">
        <ele>33</ele>
        <time>2010-08-22T11:15:19Z</time>
      </trkpt>
      <trkpt lat="47.54961" lon="-0.46955">
        <ele>32</ele>
        <time>2010-08-22T11:15:24Z</time>
      </trkpt>
      <trkpt lat="47.54948" lon="-0.47038">
        <ele>32</ele>
        <time>2010-08-22T11:15:29Z</time>
      </trkpt>
      <trkpt lat="47.54939" lon="-0.4709">
        <ele>33</ele>
        <time>2010-08-22T11:15:34Z</time>
      </trkpt>
      <trkpt lat="47.54922" lon="-0.47163">
        <ele>35</ele>
        <time>2010-08-22T11:15:39Z</time>
      </trkpt>
      <trkpt lat="47.5491" lon="-0.4721">
        <ele>36</ele>
        <time>2010-08-22T11:15:44Z</time>
      </trkpt>
      <trkpt lat="47.5489" lon="-0.47277">
        <ele>36</ele>
        <time>2010-08-22T11:15:49Z</time>
      </trkpt>
      <trkpt lat="47.54873" lon="-0.4732">
        <ele>36</ele>
        <time>2010-08-22T11:15:54Z</time>
      </trkpt>
      <trkpt lat="47.54842" lon="-0.47378">
        <ele>36</ele>
        <time>2010-08-22T11:15:59Z</time>
      </trkpt>
      <trkpt lat="47.54819" lon="-0.47412">
        <ele>36</ele>
        <time>2010-08-22T11:16:04Z</time>
      </trkpt>
      <trkpt lat="47.54784" lon="-0.47462">
        <ele>37</ele>
        <time>2010-08-22T11:16:09Z</time>
      </trkpt>
      <trkpt lat="47.54759" lon="-0.47497">
        <ele>38</ele>
        <time>2010-08-22T11:16:14Z</time>
      </trkpt>
      <trkpt lat="47.54728" lon="-0.47541">
        <ele>38</ele>
        <time>2010-08-22T11:16:19Z</time>
      </trkpt>
      <trkpt lat="47.54699" lon="-0.47587">
        <ele>39</ele>
        <time>2010-08-22T11:16:24Z</time>
      </trkpt>
      <trkpt lat="47.54675" lon="-0.4764">
        <ele>40</ele>
        <time>2010-08-22T11:16:29Z</time>
      </trkpt>
      <trkpt lat="47.54653" lon="-0.47709">
        <ele>42</ele>
        <time>2010-08-22T11:16:34Z</time>
      </trkpt>
      <trkpt lat="47.5464" lon="-0.47755">
        <ele>42</ele>
        <time>2010-08-22T11:16:39Z</time>
      </trkpt>
      <trkpt lat="47.54618" lon="-0.47825">
        <ele>43</ele>
        <time>2010-08-22T11:16:44Z</time>
      </trkpt>
      <trkpt lat="47.54604" lon="-0.47872">
        <ele>42</ele>
        <time>2010-08-22T11:16:49Z</time>
      </trkpt>
      <trkpt lat="47.54583" lon="-0.47942">
        <ele>42</ele>
        <time>2010-08-22T11:16:54Z</time>
      </trkpt>
      <trkpt lat="47.54569" lon="-0.47989">
        <ele>42</ele>
        <time>2010-08-22T11:16:59Z</time>
      </trkpt>
      <trkpt lat="47.54547" lon="-0.4806">
        <ele>42</ele>
        <time>2010-08-22T11:17:04Z</time>
      </trkpt>
      <trkpt lat="47.54533" lon="-0.48108">
        <ele>42</ele>
        <time>2010-08-22T11:17:09Z</time>
      </trkpt>
      <trkpt lat="47.54509" lon="-0.48184">
        <ele>41</ele>
        <time>2010-08-22T11:17:14Z</time>
      </trkpt>
      <trkpt lat="47.54486" lon="-0.48234">
        <ele>39</ele>
        <time>2010-08-22T11:17:19Z</time>
      </trkpt>
      <trkpt lat="47.54452" lon="-0.48312">
        <ele>38</ele>
        <time>2010-08-22T11:17:24Z</time>
      </trkpt>
      <trkpt lat="47.54437" lon="-0.48368">
        <ele>39</ele>
        <time>2010-08-22T11:17:29Z</time>
      </trkpt>
      <trkpt lat="47.5441" lon="-0.48442">
        <ele>40</ele>
        <time>2010-08-22T11:17:34Z</time>
      </trkpt>
      <trkpt lat="47.54392" lon="-0.48485">
        <ele>40</ele>
        <time>2010-08-22T11:17:39Z</time>
      </trkpt>
      <trkpt lat="47.54387" lon="-0.48554">
        <ele>39</ele>
        <time>2010-08-22T11:17:44Z</time>
      </trkpt>
      <trkpt lat="47.54354" lon="-0.48563">
        <ele>40</ele>
        <time>2010-08-22T11:17:49Z</time>
      </trkpt>
      <trkpt lat="47.54298" lon="-0.4858">
        <ele>40</ele>
        <time>2010-08-22T11:17:54Z</time>
      </trkpt>
      <trkpt lat="47.54261" lon="-0.48604">
        <ele>40</ele>
        <time>2010-08-22T11:17:59Z</time>
      </trkpt>
      <trkpt lat="47.54209" lon="-0.48648">
        <ele>42</ele>
        <time>2010-08-22T11:18:04Z</time>
      </trkpt>
      <trkpt lat="47.54175" lon="-0.48678">
        <ele>43</ele>
        <time>2010-08-22T11:18:09Z</time>
      </trkpt>
      <trkpt lat="47.54124" lon="-0.48723">
        <ele>42</ele>
        <time>2010-08-22T11:18:14Z</time>
      </trkpt>
      <trkpt lat="47.5409" lon="-0.48753">
        <ele>41</ele>
        <time>2010-08-22T11:18:19Z</time>
      </trkpt>
      <trkpt lat="47.5404" lon="-0.48798">
        <ele>41</ele>
        <time>2010-08-22T11:18:24Z</time>
      </trkpt>
      <trkpt lat="47.54006" lon="-0.48828">
        <ele>41</ele>
        <time>2010-08-22T11:18:29Z</time>
      </trkpt>
      <trkpt lat="47.53956" lon="-0.48873">
        <ele>41</ele>
        <time>2010-08-22T11:18:34Z</time>
      </trkpt>
      <trkpt lat="47.53922" lon="-0.48904">
        <ele>41</ele>
        <time>2010-08-22T11:18:39Z</time>
      </trkpt>
      <trkpt lat="47.53869" lon="-0.48951">
        <ele>42</ele>
        <time>2010-08-22T11:18:44Z</time>
      </trkpt>
      <trkpt lat="47.53832" lon="-0.48983">
        <ele>41</ele>
        <time>2010-08-22T11:18:49Z</time>
      </trkpt>
      <trkpt lat="47.53788" lon="-0.49023">
        <ele>39</ele>
        <time>2010-08-22T11:18:54Z</time>
      </trkpt>
      <trkpt lat="47.53747" lon="-0.49061">
        <ele>39</ele>
        <time>2010-08-22T11:18:59Z</time>
      </trkpt>
      <trkpt lat="47.53695" lon="-0.49108">
        <ele>38</ele>
        <time>2010-08-22T11:19:04Z</time>
      </trkpt>
      <trkpt lat="47.53661" lon="-0.49139">
        <ele>37</ele>
        <time>2010-08-22T11:19:09Z</time>
      </trkpt>
      <trkpt lat="47.53611" lon="-0.49189">
        <ele>35</ele>
        <time>2010-08-22T11:19:14Z</time>
      </trkpt>
      <trkpt lat="47.53577" lon="-0.49224">
        <ele>34</ele>
        <time>2010-08-22T11:19:19Z</time>
      </trkpt>
      <trkpt lat="47.53526" lon="-0.49282">
        <ele>35</ele>
        <time>2010-08-22T11:19:24Z</time>
      </trkpt>
      <trkpt lat="47.53493" lon="-0.49324">
        <ele>35</ele>
        <time>2010-08-22T11:19:29Z</time>
      </trkpt>
      <trkpt lat="47.5344" lon="-0.49387">
        <ele>33</ele>
        <time>2010-08-22T11:19:34Z</time>
      </trkpt>
      <trkpt lat="47.53402" lon="-0.49428">
        <ele>31</ele>
        <time>2010-08-22T11:19:39Z</time>
      </trkpt>
      <trkpt lat="47.53343" lon="-0.49489">
        <ele>30</ele>
        <time>2010-08-22T11:19:44Z</time>
      </trkpt>
      <trkpt lat="47.53304" lon="-0.49524">
        <ele>30</ele>
        <time>2010-08-22T11:19:49Z</time>
      </trkpt>
      <trkpt lat="47.53259" lon="-0.49564">
        <ele>30</ele>
        <time>2010-08-22T11:19:54Z</time>
      </trkpt>
      <trkpt lat="47.53207" lon="-0.49606">
        <ele>31</ele>
        <time>2010-08-22T11:19:59Z</time>
      </trkpt>
      <trkpt lat="47.53169" lon="-0.49633">
        <ele>32</ele>
        <time>2010-08-22T11:20:04Z</time>
      </trkpt>
      <trkpt lat="47.53112" lon="-0.49671">
        <ele>33</ele>
        <time>2010-08-22T11:20:09Z</time>
      </trkpt>
      <trkpt lat="47.53073" lon="-0.49696">
        <ele>34</ele>
        <time>2010-08-22T11:20:14Z</time>
      </trkpt>
      <trkpt lat="47.53015" lon="-0.49733">
        <ele>35</ele>
        <time>2010-08-22T11:20:19Z</time>
      </trkpt>
      <trkpt lat="47.52977" lon="-0.49757">
        <ele>36</ele>
        <time>2010-08-22T11:20:24Z</time>
      </trkpt>
      <trkpt lat="47.52923" lon="-0.4979">
        <ele>36</ele>
        <time>2010-08-22T11:20:29Z</time>
      </trkpt>
      <trkpt lat="47.5289" lon="-0.49811">
        <ele>36</ele>
        <time>2010-08-22T11:20:34Z</time>
      </trkpt>
      <trkpt lat="47.52841" lon="-0.49841">
        <ele>37</ele>
        <time>2010-08-22T11:20:39Z</time>
      </trkpt>
      <trkpt lat="47.52808" lon="-0.49863">
        <ele>37</ele>
        <time>2010-08-22T11:20:44Z</time>
      </trkpt>
      <trkpt lat="47.52757" lon="-0.49896">
        <ele>38</ele>
        <time>2010-08-22T11:20:49Z</time>
      </trkpt>
      <trkpt lat="47.52721" lon="-0.4992">
        <ele>39</ele>
        <time>2010-08-22T11:20:54Z</time>
      </trkpt>
      <trkpt lat="47.52667" lon="-0.49956">
        <ele>38</ele>
        <time>2010-08-22T11:20:59Z</time>
      </trkpt>
      <trkpt lat="47.52631" lon="-0.49982">
        <ele>38</ele>
        <time>2010-08-22T11:21:04Z</time>
      </trkpt>
      <trkpt lat="47.52576" lon="-0.5002">
        <ele>36</ele>
        <time>2010-08-22T11:21:09Z</time>
      </trkpt>
      <trkpt lat="47.52538" lon="-0.50042">
        <ele>36</ele>
        <time>2010-08-22T11:21:14Z</time>
      </trkpt>
      <trkpt lat="47.52482" lon="-0.5008">
        <ele>35</ele>
        <time>2010-08-22T11:21:19Z</time>
      </trkpt>
      <trkpt lat="47.52445" lon="-0.50106">
        <ele>34</ele>
        <time>2010-08-22T11:21:24Z</time>
      </trkpt>
      <trkpt lat="47.52387" lon="-0.50142">
        <ele>33</ele>
        <time>2010-08-22T11:21:29Z</time>
      </trkpt>
      <trkpt lat="47.52349" lon="-0.50168">
        <ele>32</ele>
        <time>2010-08-22T11:21:34Z</time>
      </trkpt>
      <trkpt lat="47.5229" lon="-0.5021">
        <ele>31</ele>
        <time>2010-08-22T11:21:39Z</time>
      </trkpt>
      <trkpt lat="47.52247" lon="-0.50237">
        <ele>31</ele>
        <time>2010-08-22T11:21:44Z</time>
      </trkpt>
      <trkpt lat="47.52183" lon="-0.50274">
        <ele>31</ele>
        <time>2010-08-22T11:21:49Z</time>
      </trkpt>
      <trkpt lat="47.52141" lon="-0.50297">
        <ele>31</ele>
        <time>2010-08-22T11:21:54Z</time>
      </trkpt>
      <trkpt lat="47.5208" lon="-0.50327">
        <ele>30</ele>
        <time>2010-08-22T11:21:59Z</time>
      </trkpt>
      <trkpt lat="47.52038" lon="-0.50345">
        <ele>29</ele>
        <time>2010-08-22T11:22:04Z</time>
      </trkpt>
      <trkpt lat="47.51975" lon="-0.50369">
        <ele>28</ele>
        <time>2010-08-22T11:22:09Z</time>
      </trkpt>
      <trkpt lat="47.51933" lon="-0.50382">
        <ele>28</ele>
        <time>2010-08-22T11:22:14Z</time>
      </trkpt>
      <trkpt lat="47.51869" lon="-0.50401">
        <ele>29</ele>
        <time>2010-08-22T11:22:19Z</time>
      </trkpt>
      <trkpt lat="47.51829" lon="-0.50411">
        <ele>30</ele>
        <time>2010-08-22T11:22:24Z</time>
      </trkpt>
      <trkpt lat="47.5178" lon="-0.50421">
        <ele>31</ele>
        <time>2010-08-22T11:22:29Z</time>
      </trkpt>
      <trkpt lat="47.51734" lon="-0.5043">
        <ele>31</ele>
        <time>2010-08-22T11:22:34Z</time>
      </trkpt>
      <trkpt lat="47.5168" lon="-0.50437">
        <ele>31</ele>
        <time>2010-08-22T11:22:39Z</time>
      </trkpt>
      <trkpt lat="47.51646" lon="-0.50441">
        <ele>31</ele>
        <time>2010-08-22T11:22:44Z</time>
      </trkpt>
      <trkpt lat="47.51597" lon="-0.50444">
        <ele>31</ele>
        <time>2010-08-22T11:22:49Z</time>
      </trkpt>
      <trkpt lat="47.51565" lon="-0.50445">
        <ele>33</ele>
        <time>2010-08-22T11:22:54Z</time>
      </trkpt>
      <trkpt lat="47.51517" lon="-0.50444">
        <ele>34</ele>
        <time>2010-08-22T11:22:59Z</time>
      </trkpt>
      <trkpt lat="47.51485" lon="-0.50443">
        <ele>35</ele>
        <time>2010-08-22T11:23:04Z</time>
      </trkpt>
      <trkpt lat="47.51445" lon="-0.50442">
        <ele>36</ele>
        <time>2010-08-22T11:23:09Z</time>
      </trkpt>
      <trkpt lat="47.51405" lon="-0.50439">
        <ele>38</ele>
        <time>2010-08-22T11:23:14Z</time>
      </trkpt>
      <trkpt lat="47.51366" lon="-0.50436">
        <ele>39</ele>
        <time>2010-08-22T11:23:19Z</time>
      </trkpt>
      <trkpt lat="47.51319" lon="-0.50431">
        <ele>41</ele>
        <time>2010-08-22T11:23:24Z</time>
      </trkpt>
      <trkpt lat="47.51288" lon="-0.50429">
        <ele>41</ele>
        <time>2010-08-22T11:23:29Z</time>
      </trkpt>
      <trkpt lat="47.51244" lon="-0.50423">
        <ele>41</ele>
        <time>2010-08-22T11:23:34Z</time>
      </trkpt>
      <trkpt lat="47.51221" lon="-0.50428">
        <ele>40</ele>
        <time>2010-08-22T11:23:39Z</time>
      </trkpt>
      <trkpt lat="47.51192" lon="-0.50434">
        <ele>40</ele>
        <time>2010-08-22T11:23:44Z</time>
      </trkpt>
      <trkpt lat="47.5117" lon="-0.50434">
        <ele>40</ele>
        <time>2010-08-22T11:23:49Z</time>
      </trkpt>
      <trkpt lat="47.51137" lon="-0.50435">
        <ele>40</ele>
        <time>2010-08-22T11:23:54Z</time>
      </trkpt>
      <trkpt lat="47.51124" lon="-0.50456">
        <ele>40</ele>
        <time>2010-08-22T11:23:59Z</time>
      </trkpt>
      <trkpt lat="47.51143" lon="-0.50506">
        <ele>39</ele>
        <time>2010-08-22T11:24:04Z</time>
      </trkpt>
      <trkpt lat="47.51157" lon="-0.50539">
        <ele>39</ele>
        <time>2010-08-22T11:24:09Z</time>
      </trkpt>
      <trkpt lat="47.51178" lon="-0.5059">
        <ele>39</ele>
        <time>2010-08-22T11:24:14Z</time>
      </trkpt>
      <trkpt lat="47.51192" lon="-0.50623">
        <ele>38</ele>
        <time>2010-08-22T11:24:19Z</time>
      </trkpt>
      <trkpt lat="47.51207" lon="-0.50677">
        <ele>35</ele>
        <time>2010-08-22T11:24:24Z</time>
      </trkpt>
      <trkpt lat="47.51218" lon="-0.50718">
        <ele>34</ele>
        <time>2010-08-22T11:24:29Z</time>
      </trkpt>
      <trkpt lat="47.51232" lon="-0.50774">
        <ele>32</ele>
        <time>2010-08-22T11:24:34Z</time>
      </trkpt>
      <trkpt lat="47.51247" lon="-0.50815">
        <ele>32</ele>
        <time>2010-08-22T11:24:39Z</time>
      </trkpt>
      <trkpt lat="47.51272" lon="-0.50884">
        <ele>30</ele>
        <time>2010-08-22T11:24:44Z</time>
      </trkpt>
      <trkpt lat="47.5129" lon="-0.50932">
        <ele>29</ele>
        <time>2010-08-22T11:24:49Z</time>
      </trkpt>
      <trkpt lat="47.51295" lon="-0.51011">
        <ele>28</ele>
        <time>2010-08-22T11:24:54Z</time>
      </trkpt>
      <trkpt lat="47.51266" lon="-0.51042">
        <ele>28</ele>
        <time>2010-08-22T11:24:59Z</time>
      </trkpt>
      <trkpt lat="47.5122" lon="-0.51085">
        <ele>25</ele>
        <time>2010-08-22T11:25:04Z</time>
      </trkpt>
      <trkpt lat="47.5119" lon="-0.51113">
        <ele>25</ele>
        <time>2010-08-22T11:25:09Z</time>
      </trkpt>
      <trkpt lat="47.51147" lon="-0.51153">
        <ele>24</ele>
        <time>2010-08-22T11:25:14Z</time>
      </trkpt>
      <trkpt lat="47.51119" lon="-0.51179">
        <ele>24</ele>
        <time>2010-08-22T11:25:19Z</time>
      </trkpt>
      <trkpt lat="47.51075" lon="-0.51215">
        <ele>22</ele>
        <time>2010-08-22T11:25:24Z</time>
      </trkpt>
      <trkpt lat="47.51054" lon="-0.51235">
        <ele>22</ele>
        <time>2010-08-22T11:25:29Z</time>
      </trkpt>
      <trkpt lat="47.51051" lon="-0.51263">
        <ele>21</ele>
        <time>2010-08-22T11:25:34Z</time>
      </trkpt>
      <trkpt lat="47.51064" lon="-0.5129">
        <ele>21</ele>
        <time>2010-08-22T11:25:39Z</time>
      </trkpt>
      <trkpt lat="47.51089" lon="-0.5134">
        <ele>19</ele>
        <time>2010-08-22T11:25:44Z</time>
      </trkpt>
      <trkpt lat="47.51106" lon="-0.51372">
        <ele>19</ele>
        <time>2010-08-22T11:25:49Z</time>
      </trkpt>
      <trkpt lat="47.51133" lon="-0.51414">
        <ele>20</ele>
        <time>2010-08-22T11:25:54Z</time>
      </trkpt>
      <trkpt lat="47.51155" lon="-0.51433">
        <ele>20</ele>
        <time>2010-08-22T11:25:59Z</time>
      </trkpt>
      <trkpt lat="47.51173" lon="-0.5146">
        <ele>21</ele>
        <time>2010-08-22T11:26:04Z</time>
      </trkpt>
      <trkpt lat="47.51149" lon="-0.51481">
        <ele>20</ele>
        <time>2010-08-22T11:26:09Z</time>
      </trkpt>
      <trkpt lat="47.51112" lon="-0.51486">
        <ele>19</ele>
        <time>2010-08-22T11:26:14Z</time>
      </trkpt>
      <trkpt lat="47.51089" lon="-0.5149">
        <ele>18</ele>
        <time>2010-08-22T11:26:19Z</time>
      </trkpt>
      <trkpt lat="47.51054" lon="-0.51499">
        <ele>19</ele>
        <time>2010-08-22T11:26:24Z</time>
      </trkpt>
      <trkpt lat="47.5103" lon="-0.5151">
        <ele>19</ele>
        <time>2010-08-22T11:26:29Z</time>
      </trkpt>
      <trkpt lat="47.50997" lon="-0.51528">
        <ele>20</ele>
        <time>2010-08-22T11:26:34Z</time>
      </trkpt>
      <trkpt lat="47.50974" lon="-0.51541">
        <ele>21</ele>
        <time>2010-08-22T11:26:39Z</time>
      </trkpt>
      <trkpt lat="47.50945" lon="-0.51556">
        <ele>22</ele>
        <time>2010-08-22T11:26:44Z</time>
      </trkpt>
      <trkpt lat="47.50909" lon="-0.51575">
        <ele>23</ele>
        <time>2010-08-22T11:26:49Z</time>
      </trkpt>
      <trkpt lat="47.50885" lon="-0.51588">
        <ele>24</ele>
        <time>2010-08-22T11:26:54Z</time>
      </trkpt>
      <trkpt lat="47.50849" lon="-0.51607">
        <ele>24</ele>
        <time>2010-08-22T11:26:59Z</time>
      </trkpt>
      <trkpt lat="47.50825" lon="-0.5162">
        <ele>26</ele>
        <time>2010-08-22T11:27:04Z</time>
      </trkpt>
      <trkpt lat="47.50786" lon="-0.51639">
        <ele>26</ele>
        <time>2010-08-22T11:27:09Z</time>
      </trkpt>
      <trkpt lat="47.5076" lon="-0.51652">
        <ele>27</ele>
        <time>2010-08-22T11:27:14Z</time>
      </trkpt>
      <trkpt lat="47.50721" lon="-0.51669">
        <ele>27</ele>
        <time>2010-08-22T11:27:19Z</time>
      </trkpt>
      <trkpt lat="47.50695" lon="-0.51678">
        <ele>27</ele>
        <time>2010-08-22T11:27:24Z</time>
      </trkpt>
      <trkpt lat="47.50657" lon="-0.51705">
        <ele>28</ele>
        <time>2010-08-22T11:27:29Z</time>
      </trkpt>
      <trkpt lat="47.50631" lon="-0.51726">
        <ele>28</ele>
        <time>2010-08-22T11:27:34Z</time>
      </trkpt>
      <trkpt lat="47.50593" lon="-0.51763">
        <ele>27</ele>
        <time>2010-08-22T11:27:39Z</time>
      </trkpt>
      <trkpt lat="47.50567" lon="-0.51789">
        <ele>28</ele>
        <time>2010-08-22T11:27:44Z</time>
      </trkpt>
      <trkpt lat="47.50529" lon="-0.51827">
        <ele>28</ele>
        <time>2010-08-22T11:27:49Z</time>
      </trkpt>
      <trkpt lat="47.50505" lon="-0.51853">
        <ele>27</ele>
        <time>2010-08-22T11:27:54Z</time>
      </trkpt>
      <trkpt lat="47.5047" lon="-0.51889">
        <ele>28</ele>
        <time>2010-08-22T11:27:59Z</time>
      </trkpt>
      <trkpt lat="47.50446" lon="-0.51914">
        <ele>28</ele>
        <time>2010-08-22T11:28:04Z</time>
      </trkpt>
      <trkpt lat="47.50412" lon="-0.51955">
        <ele>29</ele>
        <time>2010-08-22T11:28:09Z</time>
      </trkpt>
      <trkpt lat="47.50388" lon="-0.51982">
        <ele>28</ele>
        <time>2010-08-22T11:28:14Z</time>
      </trkpt>
      <trkpt lat="47.5035" lon="-0.52023">
        <ele>28</ele>
        <time>2010-08-22T11:28:19Z</time>
      </trkpt>
      <trkpt lat="47.50324" lon="-0.52049">
        <ele>29</ele>
        <time>2010-08-22T11:28:24Z</time>
      </trkpt>
      <trkpt lat="47.50282" lon="-0.52086">
        <ele>28</ele>
        <time>2010-08-22T11:28:29Z</time>
      </trkpt>
      <trkpt lat="47.50254" lon="-0.52112">
        <ele>28</ele>
        <time>2010-08-22T11:28:34Z</time>
      </trkpt>
      <trkpt lat="47.50212" lon="-0.52152">
        <ele>29</ele>
        <time>2010-08-22T11:28:39Z</time>
      </trkpt>
      <trkpt lat="47.50181" lon="-0.52178">
        <ele>28</ele>
        <time>2010-08-22T11:28:44Z</time>
      </trkpt>
      <trkpt lat="47.50135" lon="-0.52214">
        <ele>28</ele>
        <time>2010-08-22T11:28:49Z</time>
      </trkpt>
      <trkpt lat="47.50104" lon="-0.52236">
        <ele>28</ele>
        <time>2010-08-22T11:28:54Z</time>
      </trkpt>
      <trkpt lat="47.50057" lon="-0.52266">
        <ele>27</ele>
        <time>2010-08-22T11:28:59Z</time>
      </trkpt>
      <trkpt lat="47.50026" lon="-0.52284">
        <ele>28</ele>
        <time>2010-08-22T11:29:04Z</time>
      </trkpt>
      <trkpt lat="47.4998" lon="-0.5231">
        <ele>29</ele>
        <time>2010-08-22T11:29:09Z</time>
      </trkpt>
      <trkpt lat="47.49951" lon="-0.52332">
        <ele>29</ele>
        <time>2010-08-22T11:29:14Z</time>
      </trkpt>
      <trkpt lat="47.49911" lon="-0.5237">
        <ele>27</ele>
        <time>2010-08-22T11:29:19Z</time>
      </trkpt>
      <trkpt lat="47.49885" lon="-0.52396">
        <ele>26</ele>
        <time>2010-08-22T11:29:24Z</time>
      </trkpt>
      <trkpt lat="47.49844" lon="-0.52434">
        <ele>25</ele>
        <time>2010-08-22T11:29:29Z</time>
      </trkpt>
      <trkpt lat="47.49818" lon="-0.5246">
        <ele>27</ele>
        <time>2010-08-22T11:29:34Z</time>
      </trkpt>
      <trkpt lat="47.49784" lon="-0.52492">
        <ele>27</ele>
        <time>2010-08-22T11:29:39Z</time>
      </trkpt>
      <trkpt lat="47.49751" lon="-0.5253">
        <ele>25</ele>
        <time>2010-08-22T11:29:44Z</time>
      </trkpt>
      <trkpt lat="47.49718" lon="-0.52585">
        <ele>24</ele>
        <time>2010-08-22T11:29:49Z</time>
      </trkpt>
      <trkpt lat="47.49695" lon="-0.5262">
        <ele>23</ele>
        <time>2010-08-22T11:29:54Z</time>
      </trkpt>
      <trkpt lat="47.49653" lon="-0.52655">
        <ele>24</ele>
        <time>2010-08-22T11:29:59Z</time>
      </trkpt>
      <trkpt lat="47.49623" lon="-0.52664">
        <ele>26</ele>
        <time>2010-08-22T11:30:04Z</time>
      </trkpt>
      <trkpt lat="47.49582" lon="-0.52665">
        <ele>28</ele>
        <time>2010-08-22T11:30:09Z</time>
      </trkpt>
      <trkpt lat="47.49556" lon="-0.52672">
        <ele>29</ele>
        <time>2010-08-22T11:30:14Z</time>
      </trkpt>
      <trkpt lat="47.49526" lon="-0.52692">
        <ele>30</ele>
        <time>2010-08-22T11:30:19Z</time>
      </trkpt>
      <trkpt lat="47.4949" lon="-0.52718">
        <ele>34</ele>
        <time>2010-08-22T11:30:24Z</time>
      </trkpt>
      <trkpt lat="47.49466" lon="-0.52738">
        <ele>35</ele>
        <time>2010-08-22T11:30:29Z</time>
      </trkpt>
      <trkpt lat="47.4943" lon="-0.52764">
        <ele>35</ele>
        <time>2010-08-22T11:30:34Z</time>
      </trkpt>
      <trkpt lat="47.49407" lon="-0.52782">
        <ele>35</ele>
        <time>2010-08-22T11:30:39Z</time>
      </trkpt>
      <trkpt lat="47.4937" lon="-0.52811">
        <ele>34</ele>
        <time>2010-08-22T11:30:44Z</time>
      </trkpt>
      <trkpt lat="47.49336" lon="-0.52837">
        <ele>34</ele>
        <time>2010-08-22T11:30:49Z</time>
      </trkpt>
      <trkpt lat="47.49302" lon="-0.52857">
        <ele>35</ele>
        <time>2010-08-22T11:30:54Z</time>
      </trkpt>
      <trkpt lat="47.49275" lon="-0.52872">
        <ele>36</ele>
        <time>2010-08-22T11:30:59Z</time>
      </trkpt>
      <trkpt lat="47.49241" lon="-0.52893">
        <ele>38</ele>
        <time>2010-08-22T11:31:04Z</time>
      </trkpt>
      <trkpt lat="47.4922" lon="-0.52906">
        <ele>38</ele>
        <time>2010-08-22T11:31:09Z</time>
      </trkpt>
      <trkpt lat="47.49189" lon="-0.52923">
        <ele>38</ele>
        <time>2010-08-22T11:31:14Z</time>
      </trkpt>
      <trkpt lat="47.49173" lon="-0.52943">
        <ele>38</ele>
        <time>2010-08-22T11:31:19Z</time>
      </trkpt>
      <trkpt lat="47.49157" lon="-0.52984">
        <ele>41</ele>
        <time>2010-08-22T11:31:24Z</time>
      </trkpt>
      <trkpt lat="47.49148" lon="-0.53009">
        <ele>41</ele>
        <time>2010-08-22T11:31:29Z</time>
      </trkpt>
      <trkpt lat="47.49138" lon="-0.5304">
        <ele>41</ele>
        <time>2010-08-22T11:31:34Z</time>
      </trkpt>
      <trkpt lat="47.49138" lon="-0.53064">
        <ele>41</ele>
        <time>2010-08-22T11:31:39Z</time>
      </trkpt>
      <trkpt lat="47.49134" lon="-0.53106">
        <ele>39</ele>
        <time>2010-08-22T11:31:44Z</time>
      </trkpt>
      <trkpt lat="47.49124" lon="-0.53137">
        <ele>38</ele>
        <time>2010-08-22T11:31:49Z</time>
      </trkpt>
      <trkpt lat="47.49098" lon="-0.53187">
        <ele>37</ele>
        <time>2010-08-22T11:31:54Z</time>
      </trkpt>
      <trkpt lat="47.49075" lon="-0.53224">
        <ele>37</ele>
        <time>2010-08-22T11:31:59Z</time>
      </trkpt>
      <trkpt lat="47.49035" lon="-0.53291">
        <ele>34</ele>
        <time>2010-08-22T11:32:04Z</time>
      </trkpt>
      <trkpt lat="47.49006" lon="-0.53342">
        <ele>32</ele>
        <time>2010-08-22T11:32:09Z</time>
      </trkpt>
      <trkpt lat="47.48961" lon="-0.53416">
        <ele>31</ele>
        <time>2010-08-22T11:32:14Z</time>
      </trkpt>
      <trkpt lat="47.48934" lon="-0.5346">
        <ele>29</ele>
        <time>2010-08-22T11:32:19Z</time>
      </trkpt>
      <trkpt lat="47.48897" lon="-0.53518">
        <ele>28</ele>
        <time>2010-08-22T11:32:24Z</time>
      </trkpt>
      <trkpt lat="47.48875" lon="-0.53556">
        <ele>28</ele>
        <time>2010-08-22T11:32:29Z</time>
      </trkpt>
      <trkpt lat="47.48842" lon="-0.53613">
        <ele>27</ele>
        <time>2010-08-22T11:32:34Z</time>
      </trkpt>
      <trkpt lat="47.4882" lon="-0.5365">
        <ele>28</ele>
        <time>2010-08-22T11:32:39Z</time>
      </trkpt>
      <trkpt lat="47.4879" lon="-0.53706">
        <ele>26</ele>
        <time>2010-08-22T11:32:44Z</time>
      </trkpt>
      <trkpt lat="47.4877" lon="-0.53744">
        <ele>24</ele>
        <time>2010-08-22T11:32:49Z</time>
      </trkpt>
      <trkpt lat="47.48743" lon="-0.53807">
        <ele>21</ele>
        <time>2010-08-22T11:32:54Z</time>
      </trkpt>
      <trkpt lat="47.48725" lon="-0.53857">
        <ele>20</ele>
        <time>2010-08-22T11:32:59Z</time>
      </trkpt>
      <trkpt lat="47.48698" lon="-0.53943">
        <ele>20</ele>
        <time>2010-08-22T11:33:04Z</time>
      </trkpt>
      <trkpt lat="47.48672" lon="-0.53997">
        <ele>20</ele>
        <time>2010-08-22T11:33:09Z</time>
      </trkpt>
      <trkpt lat="47.48628" lon="-0.54045">
        <ele>21</ele>
        <time>2010-08-22T11:33:14Z</time>
      </trkpt>
      <trkpt lat="47.4858" lon="-0.54086">
        <ele>21</ele>
        <time>2010-08-22T11:33:19Z</time>
      </trkpt>
      <trkpt lat="47.48516" lon="-0.54131">
        <ele>20</ele>
        <time>2010-08-22T11:33:24Z</time>
      </trkpt>
      <trkpt lat="47.48473" lon="-0.5415">
        <ele>21</ele>
        <time>2010-08-22T11:33:29Z</time>
      </trkpt>
      <trkpt lat="47.48422" lon="-0.54165">
        <ele>21</ele>
        <time>2010-08-22T11:33:34Z</time>
      </trkpt>
      <trkpt lat="47.48373" lon="-0.5418">
        <ele>22</ele>
        <time>2010-08-22T11:33:39Z</time>
      </trkpt>
      <trkpt lat="47.48327" lon="-0.54195">
        <ele>22</ele>
        <time>2010-08-22T11:33:44Z</time>
      </trkpt>
      <trkpt lat="47.4828" lon="-0.54219">
        <ele>22</ele>
        <time>2010-08-22T11:33:49Z</time>
      </trkpt>
      <trkpt lat="47.48241" lon="-0.54237">
        <ele>22</ele>
        <time>2010-08-22T11:33:54Z</time>
      </trkpt>
      <trkpt lat="47.48207" lon="-0.54268">
        <ele>22</ele>
        <time>2010-08-22T11:33:59Z</time>
      </trkpt>
      <trkpt lat="47.48191" lon="-0.54308">
        <ele>22</ele>
        <time>2010-08-22T11:34:04Z</time>
      </trkpt>
      <trkpt lat="47.48171" lon="-0.5437">
        <ele>22</ele>
        <time>2010-08-22T11:34:09Z</time>
      </trkpt>
      <trkpt lat="47.48147" lon="-0.54397">
        <ele>23</ele>
        <time>2010-08-22T11:34:14Z</time>
      </trkpt>
      <trkpt lat="47.48102" lon="-0.54435">
        <ele>22</ele>
        <time>2010-08-22T11:34:19Z</time>
      </trkpt>
      <trkpt lat="47.48073" lon="-0.54468">
        <ele>21</ele>
        <time>2010-08-22T11:34:24Z</time>
      </trkpt>
      <trkpt lat="47.48028" lon="-0.5451">
        <ele>21</ele>
        <time>2010-08-22T11:34:29Z</time>
      </trkpt>
      <trkpt lat="47.47998" lon="-0.5454">
        <ele>21</ele>
        <time>2010-08-22T11:34:34Z</time>
      </trkpt>
      <trkpt lat="47.4795" lon="-0.54583">
        <ele>21</ele>
        <time>2010-08-22T11:34:39Z</time>
      </trkpt>
      <trkpt lat="47.47919" lon="-0.54611">
        <ele>21</ele>
        <time>2010-08-22T11:34:44Z</time>
      </trkpt>
      <trkpt lat="47.47873" lon="-0.54654">
        <ele>23</ele>
        <time>2010-08-22T11:34:49Z</time>
      </trkpt>
      <trkpt lat="47.47844" lon="-0.54681">
        <ele>23</ele>
        <time>2010-08-22T11:34:54Z</time>
      </trkpt>
      <trkpt lat="47.478" lon="-0.54718">
        <ele>23</ele>
        <time>2010-08-22T11:34:59Z</time>
      </trkpt>
      <trkpt lat="47.47771" lon="-0.54745">
        <ele>23</ele>
        <time>2010-08-22T11:35:04Z</time>
      </trkpt>
      <trkpt lat="47.47728" lon="-0.54782">
        <ele>23</ele>
        <time>2010-08-22T11:35:09Z</time>
      </trkpt>
      <trkpt lat="47.47701" lon="-0.54809">
        <ele>23</ele>
        <time>2010-08-22T11:35:14Z</time>
      </trkpt>
      <trkpt lat="47.47658" lon="-0.5485">
        <ele>24</ele>
        <time>2010-08-22T11:35:19Z</time>
      </trkpt>
      <trkpt lat="47.47628" lon="-0.54875">
        <ele>24</ele>
        <time>2010-08-22T11:35:24Z</time>
      </trkpt>
      <trkpt lat="47.47589" lon="-0.54909">
        <ele>25</ele>
        <time>2010-08-22T11:35:29Z</time>
      </trkpt>
      <trkpt lat="47.47574" lon="-0.54933">
        <ele>25</ele>
        <time>2010-08-22T11:35:34Z</time>
      </trkpt>
      <trkpt lat="47.47574" lon="-0.54932">
        <ele>25</ele>
        <time>2010-08-22T11:35:39Z</time>
      </trkpt>
      <trkpt lat="47.47575" lon="-0.54929">
        <ele>25</ele>
        <time>2010-08-22T11:35:44Z</time>
      </trkpt>
      <trkpt lat="47.47575" lon="-0.54932">
        <ele>25</ele>
        <time>2010-08-22T11:35:49Z</time>
      </trkpt>
      <trkpt lat="47.47574" lon="-0.54933">
        <ele>25</ele>
        <time>2010-08-22T11:35:54Z</time>
      </trkpt>
      <trkpt lat="47.47574" lon="-0.54933">
        <ele>25</ele>
        <time>2010-08-22T11:35:59Z</time>
      </trkpt>
      <trkpt lat="47.47574" lon="-0.54933">
        <ele>25</ele>
        <time>2010-08-22T11:36:04Z</time>
      </trkpt>
      <trkpt lat="47.47574" lon="-0.54933">
        <ele>25</ele>
        <time>2010-08-22T11:36:09Z</time>
      </trkpt>
      <trkpt lat="47.47574" lon="-0.54933">
        <ele>25</ele>
        <time>2010-08-22T11:36:14Z</time>
      </trkpt>
      <trkpt lat="47.47574" lon="-0.54933">
        <ele>25</ele>
        <time>2010-08-22T11:36:19Z</time>
      </trkpt>
      <trkpt lat="47.47574" lon="-0.54933">
        <ele>25</ele>
        <time>2010-08-22T11:36:24Z</time>
      </trkpt>
      <trkpt lat="47.47574" lon="-0.54932">
        <ele>25</ele>
        <time>2010-08-22T11:36:29Z</time>
      </trkpt>
      <trkpt lat="47.47574" lon="-0.54932">
        <ele>25</ele>
        <time>2010-08-22T11:36:34Z</time>
      </trkpt>
      <trkpt lat="47.47571" lon="-0.54956">
        <ele>26</ele>
        <time>2010-08-22T11:36:39Z</time>
      </trkpt>
      <trkpt lat="47.47581" lon="-0.54974">
        <ele>25</ele>
        <time>2010-08-22T11:36:44Z</time>
      </trkpt>
      <trkpt lat="47.47593" lon="-0.54994">
        <ele>25</ele>
        <time>2010-08-22T11:36:49Z</time>
      </trkpt>
      <trkpt lat="47.47606" lon="-0.55021">
        <ele>25</ele>
        <time>2010-08-22T11:36:54Z</time>
      </trkpt>
      <trkpt lat="47.47622" lon="-0.55061">
        <ele>25</ele>
        <time>2010-08-22T11:36:59Z</time>
      </trkpt>
      <trkpt lat="47.47633" lon="-0.55089">
        <ele>25</ele>
        <time>2010-08-22T11:37:04Z</time>
      </trkpt>
      <trkpt lat="47.47651" lon="-0.55124">
        <ele>24</ele>
        <time>2010-08-22T11:37:09Z</time>
      </trkpt>
      <trkpt lat="47.47672" lon="-0.55169">
        <ele>23</ele>
        <time>2010-08-22T11:37:14Z</time>
      </trkpt>
      <trkpt lat="47.47688" lon="-0.55207">
        <ele>23</ele>
        <time>2010-08-22T11:37:19Z</time>
      </trkpt>
      <trkpt lat="47.47702" lon="-0.55237">
        <ele>23</ele>
        <time>2010-08-22T11:37:24Z</time>
      </trkpt>
      <trkpt lat="47.47708" lon="-0.5525">
        <ele>24</ele>
        <time>2010-08-22T11:37:29Z</time>
      </trkpt>
      <trkpt lat="47.47707" lon="-0.55249">
        <ele>24</ele>
        <time>2010-08-22T11:37:34Z</time>
      </trkpt>
      <trkpt lat="47.47707" lon="-0.55249">
        <ele>24</ele>
        <time>2010-08-22T11:37:39Z</time>
      </trkpt>
      <trkpt lat="47.47707" lon="-0.55249">
        <ele>24</ele>
        <time>2010-08-22T11:37:44Z</time>
      </trkpt>
      <trkpt lat="47.47707" lon="-0.55249">
        <ele>24</ele>
        <time>2010-08-22T11:37:49Z</time>
      </trkpt>
      <trkpt lat="47.47707" lon="-0.55249">
        <ele>24</ele>
        <time>2010-08-22T11:37:54Z</time>
      </trkpt>
      <trkpt lat="47.47707" lon="-0.55249">
        <ele>24</ele>
        <time>2010-08-22T11:37:59Z</time>
      </trkpt>
      <trkpt lat="47.47706" lon="-0.55254">
        <ele>24</ele>
        <time>2010-08-22T11:38:04Z</time>
      </trkpt>
      <trkpt lat="47.47709" lon="-0.55267">
        <ele>24</ele>
        <time>2010-08-22T11:38:09Z</time>
      </trkpt>
      <trkpt lat="47.47721" lon="-0.55296">
        <ele>24</ele>
        <time>2010-08-22T11:38:14Z</time>
      </trkpt>
      <trkpt lat="47.47731" lon="-0.55318">
        <ele>24</ele>
        <time>2010-08-22T11:38:19Z</time>
      </trkpt>
      <trkpt lat="47.47748" lon="-0.55354">
        <ele>23</ele>
        <time>2010-08-22T11:38:24Z</time>
      </trkpt>
      <trkpt lat="47.47758" lon="-0.55383">
        <ele>21</ele>
        <time>2010-08-22T11:38:29Z</time>
      </trkpt>
      <trkpt lat="47.47776" lon="-0.5543">
        <ele>20</ele>
        <time>2010-08-22T11:38:34Z</time>
      </trkpt>
      <trkpt lat="47.4779" lon="-0.55462">
        <ele>20</ele>
        <time>2010-08-22T11:38:39Z</time>
      </trkpt>
      <trkpt lat="47.47814" lon="-0.55513">
        <ele>22</ele>
        <time>2010-08-22T11:38:44Z</time>
      </trkpt>
      <trkpt lat="47.47832" lon="-0.55546">
        <ele>24</ele>
        <time>2010-08-22T11:38:49Z</time>
      </trkpt>
      <trkpt lat="47.47875" lon="-0.55556">
        <ele>25</ele>
        <time>2010-08-22T11:38:54Z</time>
      </trkpt>
      <trkpt lat="47.47903" lon="-0.55549">
        <ele>25</ele>
        <time>2010-08-22T11:38:59Z</time>
      </trkpt>
      <trkpt lat="47.47917" lon="-0.5558">
        <ele>27</ele>
        <time>2010-08-22T11:39:04Z</time>
      </trkpt>
      <trkpt lat="47.47899" lon="-0.55596">
        <ele>27</ele>
        <time>2010-08-22T11:39:09Z</time>
      </trkpt>
      <trkpt lat="47.47883" lon="-0.55612">
        <ele>27</ele>
        <time>2010-08-22T11:39:14Z</time>
      </trkpt>
      <trkpt lat="47.47883" lon="-0.55612">
        <ele>27</ele>
        <time>2010-08-22T11:39:19Z</time>
      </trkpt>
      <trkpt lat="47.47883" lon="-0.55612">
        <ele>27</ele>
        <time>2010-08-22T11:39:24Z</time>
      </trkpt>
      <trkpt lat="47.47883" lon="-0.55612">
        <ele>27</ele>
        <time>2010-08-22T11:39:29Z</time>
      </trkpt>
      <trkpt lat="47.47883" lon="-0.55613">
        <ele>27</ele>
        <time>2010-08-22T11:39:34Z</time>
      </trkpt>
      <trkpt lat="47.47877" lon="-0.55619">
        <ele>27</ele>
        <time>2010-08-22T11:39:39Z</time>
      </trkpt>
      <trkpt lat="47.47852" lon="-0.55636">
        <ele>26</ele>
        <time>2010-08-22T11:39:44Z</time>
      </trkpt>
      <trkpt lat="47.4783" lon="-0.55651">
        <ele>25</ele>
        <time>2010-08-22T11:39:49Z</time>
      </trkpt>
      <trkpt lat="47.47799" lon="-0.55674">
        <ele>27</ele>
        <time>2010-08-22T11:39:54Z</time>
      </trkpt>
      <trkpt lat="47.47775" lon="-0.55691">
        <ele>27</ele>
        <time>2010-08-22T11:39:59Z</time>
      </trkpt>
      <trkpt lat="47.47754" lon="-0.55711">
        <ele>28</ele>
        <time>2010-08-22T11:40:04Z</time>
      </trkpt>
      <trkpt lat="47.47728" lon="-0.55735">
        <ele>27</ele>
        <time>2010-08-22T11:40:09Z</time>
      </trkpt>
      <trkpt lat="47.47696" lon="-0.5576">
        <ele>27</ele>
        <time>2010-08-22T11:40:14Z</time>
      </trkpt>
      <trkpt lat="47.47667" lon="-0.55788">
        <ele>27</ele>
        <time>2010-08-22T11:40:19Z</time>
      </trkpt>
      <trkpt lat="47.4764" lon="-0.55813">
        <ele>25</ele>
        <time>2010-08-22T11:40:24Z</time>
      </trkpt>
      <trkpt lat="47.47611" lon="-0.55837">
        <ele>25</ele>
        <time>2010-08-22T11:40:29Z</time>
      </trkpt>
      <trkpt lat="47.47589" lon="-0.55855">
        <ele>25</ele>
        <time>2010-08-22T11:40:34Z</time>
      </trkpt>
      <trkpt lat="47.47552" lon="-0.5588">
        <ele>24</ele>
        <time>2010-08-22T11:40:39Z</time>
      </trkpt>
      <trkpt lat="47.4753" lon="-0.55901">
        <ele>24</ele>
        <time>2010-08-22T11:40:44Z</time>
      </trkpt>
      <trkpt lat="47.47498" lon="-0.55936">
        <ele>23</ele>
        <time>2010-08-22T11:40:49Z</time>
      </trkpt>
      <trkpt lat="47.47474" lon="-0.55973">
        <ele>23</ele>
        <time>2010-08-22T11:40:54Z</time>
      </trkpt>
      <trkpt lat="47.47449" lon="-0.5601">
        <ele>25</ele>
        <time>2010-08-22T11:40:59Z</time>
      </trkpt>
      <trkpt lat="47.47429" lon="-0.56041">
        <ele>26</ele>
        <time>2010-08-22T11:41:04Z</time>
      </trkpt>
      <trkpt lat="47.47398" lon="-0.56088">
        <ele>25</ele>
        <time>2010-08-22T11:41:09Z</time>
      </trkpt>
      <trkpt lat="47.47378" lon="-0.56119">
        <ele>25</ele>
        <time>2010-08-22T11:41:14Z</time>
      </trkpt>
      <trkpt lat="47.47347" lon="-0.56162">
        <ele>24</ele>
        <time>2010-08-22T11:41:19Z</time>
      </trkpt>
      <trkpt lat="47.47327" lon="-0.56189">
        <ele>23</ele>
        <time>2010-08-22T11:41:24Z</time>
      </trkpt>
      <trkpt lat="47.47292" lon="-0.5622">
        <ele>22</ele>
        <time>2010-08-22T11:41:29Z</time>
      </trkpt>
      <trkpt lat="47.47275" lon="-0.56254">
        <ele>22</ele>
        <time>2010-08-22T11:41:34Z</time>
      </trkpt>
      <trkpt lat="47.47248" lon="-0.56299">
        <ele>20</ele>
        <time>2010-08-22T11:41:39Z</time>
      </trkpt>
      <trkpt lat="47.4723" lon="-0.56327">
        <ele>21</ele>
        <time>2010-08-22T11:41:44Z</time>
      </trkpt>
      <trkpt lat="47.47204" lon="-0.56366">
        <ele>21</ele>
        <time>2010-08-22T11:41:49Z</time>
      </trkpt>
      <trkpt lat="47.47188" lon="-0.56389">
        <ele>21</ele>
        <time>2010-08-22T11:41:54Z</time>
      </trkpt>
      <trkpt lat="47.47166" lon="-0.56424">
        <ele>22</ele>
        <time>2010-08-22T11:41:59Z</time>
      </trkpt>
      <trkpt lat="47.4715" lon="-0.56448">
        <ele>22</ele>
        <time>2010-08-22T11:42:04Z</time>
      </trkpt>
      <trkpt lat="47.47123" lon="-0.56489">
        <ele>22</ele>
        <time>2010-08-22T11:42:09Z</time>
      </trkpt>
      <trkpt lat="47.47101" lon="-0.56516">
        <ele>22</ele>
        <time>2010-08-22T11:42:14Z</time>
      </trkpt>
      <trkpt lat="47.47075" lon="-0.56556">
        <ele>23</ele>
        <time>2010-08-22T11:42:19Z</time>
      </trkpt>
      <trkpt lat="47.47058" lon="-0.56583">
        <ele>23</ele>
        <time>2010-08-22T11:42:24Z</time>
      </trkpt>
      <trkpt lat="47.47031" lon="-0.56627">
        <ele>24</ele>
        <time>2010-08-22T11:42:29Z</time>
      </trkpt>
      <trkpt lat="47.47013" lon="-0.56659">
        <ele>24</ele>
        <time>2010-08-22T11:42:34Z</time>
      </trkpt>
      <trkpt lat="47.46996" lon="-0.56716">
        <ele>23</ele>
        <time>2010-08-22T11:42:39Z</time>
      </trkpt>
      <trkpt lat="47.46993" lon="-0.56759">
        <ele>22</ele>
        <time>2010-08-22T11:42:44Z</time>
      </trkpt>
      <trkpt lat="47.47002" lon="-0.56819">
        <ele>23</ele>
        <time>2010-08-22T11:42:49Z</time>
      </trkpt>
      <trkpt lat="47.47015" lon="-0.56858">
        <ele>22</ele>
        <time>2010-08-22T11:42:54Z</time>
      </trkpt>
      <trkpt lat="47.47037" lon="-0.5691">
        <ele>22</ele>
        <time>2010-08-22T11:42:59Z</time>
      </trkpt>
      <trkpt lat="47.47041" lon="-0.56953">
        <ele>20</ele>
        <time>2010-08-22T11:43:04Z</time>
      </trkpt>
      <trkpt lat="47.47057" lon="-0.57017">
        <ele>18</ele>
        <time>2010-08-22T11:43:09Z</time>
      </trkpt>
      <trkpt lat="47.47067" lon="-0.57061">
        <ele>18</ele>
        <time>2010-08-22T11:43:14Z</time>
      </trkpt>
      <trkpt lat="47.47082" lon="-0.57124">
        <ele>17</ele>
        <time>2010-08-22T11:43:19Z</time>
      </trkpt>
      <trkpt lat="47.47092" lon="-0.57177">
        <ele>19</ele>
        <time>2010-08-22T11:43:24Z</time>
      </trkpt>
      <trkpt lat="47.47105" lon="-0.57226">
        <ele>18</ele>
        <time>2010-08-22T11:43:29Z</time>
      </trkpt>
      <trkpt lat="47.47119" lon="-0.57273">
        <ele>17</ele>
        <time>2010-08-22T11:43:34Z</time>
      </trkpt>
      <trkpt lat="47.47134" lon="-0.57319">
        <ele>18</ele>
        <time>2010-08-22T11:43:39Z</time>
      </trkpt>
      <trkpt lat="47.47151" lon="-0.57366">
        <ele>18</ele>
        <time>2010-08-22T11:43:44Z</time>
      </trkpt>
      <trkpt lat="47.47166" lon="-0.57403">
        <ele>19</ele>
        <time>2010-08-22T11:43:49Z</time>
      </trkpt>
      <trkpt lat="47.47188" lon="-0.5746">
        <ele>21</ele>
        <time>2010-08-22T11:43:54Z</time>
      </trkpt>
      <trkpt lat="47.47204" lon="-0.57497">
        <ele>22</ele>
        <time>2010-08-22T11:43:59Z</time>
      </trkpt>
      <trkpt lat="47.47229" lon="-0.57552">
        <ele>21</ele>
        <time>2010-08-22T11:44:04Z</time>
      </trkpt>
      <trkpt lat="47.47245" lon="-0.57589">
        <ele>20</ele>
        <time>2010-08-22T11:44:09Z</time>
      </trkpt>
      <trkpt lat="47.47267" lon="-0.57638">
        <ele>21</ele>
        <time>2010-08-22T11:44:14Z</time>
      </trkpt>
      <trkpt lat="47.47274" lon="-0.57654">
        <ele>21</ele>
        <time>2010-08-22T11:44:19Z</time>
      </trkpt>
      <trkpt lat="47.47277" lon="-0.57658">
        <ele>21</ele>
        <time>2010-08-22T11:44:24Z</time>
      </trkpt>
      <trkpt lat="47.47277" lon="-0.57657">
        <ele>21</ele>
        <time>2010-08-22T11:44:29Z</time>
      </trkpt>
      <trkpt lat="47.47277" lon="-0.57656">
        <ele>21</ele>
        <time>2010-08-22T11:44:34Z</time>
      </trkpt>
      <trkpt lat="47.47277" lon="-0.57656">
        <ele>21</ele>
        <time>2010-08-22T11:44:39Z</time>
      </trkpt>
      <trkpt lat="47.47277" lon="-0.57656">
        <ele>21</ele>
        <time>2010-08-22T11:44:44Z</time>
      </trkpt>
      <trkpt lat="47.47277" lon="-0.57655">
        <ele>21</ele>
        <time>2010-08-22T11:44:49Z</time>
      </trkpt>
      <trkpt lat="47.47277" lon="-0.57655">
        <ele>21</ele>
        <time>2010-08-22T11:44:54Z</time>
      </trkpt>
      <trkpt lat="47.47277" lon="-0.57656">
        <ele>21</ele>
        <time>2010-08-22T11:44:59Z</time>
      </trkpt>
      <trkpt lat="47.47286" lon="-0.57673">
        <ele>22</ele>
        <time>2010-08-22T11:45:04Z</time>
      </trkpt>
      <trkpt lat="47.47295" lon="-0.57694">
        <ele>23</ele>
        <time>2010-08-22T11:45:09Z</time>
      </trkpt>
      <trkpt lat="47.47312" lon="-0.57734">
        <ele>23</ele>
        <time>2010-08-22T11:45:14Z</time>
      </trkpt>
      <trkpt lat="47.47322" lon="-0.57766">
        <ele>25</ele>
        <time>2010-08-22T11:45:19Z</time>
      </trkpt>
      <trkpt lat="47.47338" lon="-0.57814">
        <ele>27</ele>
        <time>2010-08-22T11:45:24Z</time>
      </trkpt>
      <trkpt lat="47.47347" lon="-0.57839">
        <ele>28</ele>
        <time>2010-08-22T11:45:29Z</time>
      </trkpt>
      <trkpt lat="47.4735" lon="-0.57848">
        <ele>28</ele>
        <time>2010-08-22T11:45:34Z</time>
      </trkpt>
      <trkpt lat="47.4735" lon="-0.57848">
        <ele>28</ele>
        <time>2010-08-22T11:45:39Z</time>
      </trkpt>
      <trkpt lat="47.47349" lon="-0.57848">
        <ele>28</ele>
        <time>2010-08-22T11:45:44Z</time>
      </trkpt>
      <trkpt lat="47.47349" lon="-0.57848">
        <ele>28</ele>
        <time>2010-08-22T11:45:49Z</time>
      </trkpt>
      <trkpt lat="47.47349" lon="-0.57848">
        <ele>28</ele>
        <time>2010-08-22T11:45:54Z</time>
      </trkpt>
      <trkpt lat="47.47349" lon="-0.57848">
        <ele>28</ele>
        <time>2010-08-22T11:45:59Z</time>
      </trkpt>
      <trkpt lat="47.47348" lon="-0.57848">
        <ele>28</ele>
        <time>2010-08-22T11:46:04Z</time>
      </trkpt>
      <trkpt lat="47.47352" lon="-0.57858">
        <ele>28</ele>
        <time>2010-08-22T11:46:09Z</time>
      </trkpt>
      <trkpt lat="47.47356" lon="-0.5789">
        <ele>29</ele>
        <time>2010-08-22T11:46:14Z</time>
      </trkpt>
      <trkpt lat="47.47343" lon="-0.57914">
        <ele>29</ele>
        <time>2010-08-22T11:46:19Z</time>
      </trkpt>
      <trkpt lat="47.47345" lon="-0.57959">
        <ele>30</ele>
        <time>2010-08-22T11:46:24Z</time>
      </trkpt>
      <trkpt lat="47.47346" lon="-0.57986">
        <ele>30</ele>
        <time>2010-08-22T11:46:29Z</time>
      </trkpt>
      <trkpt lat="47.47341" lon="-0.58032">
        <ele>31</ele>
        <time>2010-08-22T11:46:34Z</time>
      </trkpt>
      <trkpt lat="47.47333" lon="-0.58061">
        <ele>30</ele>
        <time>2010-08-22T11:46:39Z</time>
      </trkpt>
      <trkpt lat="47.47319" lon="-0.58104">
        <ele>31</ele>
        <time>2010-08-22T11:46:44Z</time>
      </trkpt>
      <trkpt lat="47.47308" lon="-0.5814">
        <ele>32</ele>
        <time>2010-08-22T11:46:49Z</time>
      </trkpt>
      <trkpt lat="47.47294" lon="-0.58179">
        <ele>32</ele>
        <time>2010-08-22T11:46:54Z</time>
      </trkpt>
      <trkpt lat="47.47285" lon="-0.58218">
        <ele>32</ele>
        <time>2010-08-22T11:46:59Z</time>
      </trkpt>
      <trkpt lat="47.47276" lon="-0.58258">
        <ele>31</ele>
        <time>2010-08-22T11:47:04Z</time>
      </trkpt>
      <trkpt lat="47.47265" lon="-0.58299">
        <ele>31</ele>
        <time>2010-08-22T11:47:09Z</time>
      </trkpt>
      <trkpt lat="47.47257" lon="-0.58341">
        <ele>30</ele>
        <time>2010-08-22T11:47:14Z</time>
      </trkpt>
      <trkpt lat="47.47251" lon="-0.58384">
        <ele>32</ele>
        <time>2010-08-22T11:47:19Z</time>
      </trkpt>
      <trkpt lat="47.47245" lon="-0.58419">
        <ele>32</ele>
        <time>2010-08-22T11:47:24Z</time>
      </trkpt>
      <trkpt lat="47.47233" lon="-0.58472">
        <ele>32</ele>
        <time>2010-08-22T11:47:29Z</time>
      </trkpt>
      <trkpt lat="47.47225" lon="-0.58507">
        <ele>33</ele>
        <time>2010-08-22T11:47:34Z</time>
      </trkpt>
      <trkpt lat="47.47219" lon="-0.58538">
        <ele>33</ele>
        <time>2010-08-22T11:47:39Z</time>
      </trkpt>
      <trkpt lat="47.47219" lon="-0.58559">
        <ele>34</ele>
        <time>2010-08-22T11:47:44Z</time>
      </trkpt>
      <trkpt lat="47.47209" lon="-0.58587">
        <ele>34</ele>
        <time>2010-08-22T11:47:49Z</time>
      </trkpt>
      <trkpt lat="47.47195" lon="-0.58604">
        <ele>34</ele>
        <time>2010-08-22T11:47:54Z</time>
      </trkpt>
      <trkpt lat="47.47168" lon="-0.58634">
        <ele>34</ele>
        <time>2010-08-22T11:47:59Z</time>
      </trkpt>
      <trkpt lat="47.47153" lon="-0.58652">
        <ele>32</ele>
        <time>2010-08-22T11:48:04Z</time>
      </trkpt>
      <trkpt lat="47.47143" lon="-0.58664">
        <ele>32</ele>
        <time>2010-08-22T11:48:09Z</time>
      </trkpt>
      <trkpt lat="47.47144" lon="-0.58663">
        <ele>32</ele>
        <time>2010-08-22T11:48:14Z</time>
      </trkpt>
      <trkpt lat="47.47137" lon="-0.5867">
        <ele>32</ele>
        <time>2010-08-22T11:48:19Z</time>
      </trkpt>
      <trkpt lat="47.47124" lon="-0.58685">
        <ele>32</ele>
        <time>2010-08-22T11:48:24Z</time>
      </trkpt>
      <trkpt lat="47.47103" lon="-0.5872">
        <ele>31</ele>
        <time>2010-08-22T11:48:29Z</time>
      </trkpt>
      <trkpt lat="47.47088" lon="-0.58747">
        <ele>31</ele>
        <time>2010-08-22T11:48:34Z</time>
      </trkpt>
      <trkpt lat="47.47065" lon="-0.58792">
        <ele>30</ele>
        <time>2010-08-22T11:48:39Z</time>
      </trkpt>
      <trkpt lat="47.4705" lon="-0.58822">
        <ele>29</ele>
        <time>2010-08-22T11:48:44Z</time>
      </trkpt>
      <trkpt lat="47.47026" lon="-0.58871">
        <ele>29</ele>
        <time>2010-08-22T11:48:49Z</time>
      </trkpt>
      <trkpt lat="47.4701" lon="-0.58905">
        <ele>28</ele>
        <time>2010-08-22T11:48:54Z</time>
      </trkpt>
      <trkpt lat="47.46998" lon="-0.58963">
        <ele>26</ele>
        <time>2010-08-22T11:48:59Z</time>
      </trkpt>
      <trkpt lat="47.46999" lon="-0.59004">
        <ele>26</ele>
        <time>2010-08-22T11:49:04Z</time>
      </trkpt>
      <trkpt lat="47.46989" lon="-0.59056">
        <ele>27</ele>
        <time>2010-08-22T11:49:09Z</time>
      </trkpt>
      <trkpt lat="47.46973" lon="-0.59083">
        <ele>27</ele>
        <time>2010-08-22T11:49:14Z</time>
      </trkpt>
      <trkpt lat="47.46944" lon="-0.59119">
        <ele>27</ele>
        <time>2010-08-22T11:49:19Z</time>
      </trkpt>
      <trkpt lat="47.46923" lon="-0.59144">
        <ele>26</ele>
        <time>2010-08-22T11:49:24Z</time>
      </trkpt>
      <trkpt lat="47.46891" lon="-0.59185">
        <ele>26</ele>
        <time>2010-08-22T11:49:29Z</time>
      </trkpt>
      <trkpt lat="47.46869" lon="-0.59211">
        <ele>26</ele>
        <time>2010-08-22T11:49:34Z</time>
      </trkpt>
      <trkpt lat="47.46838" lon="-0.5925">
        <ele>26</ele>
        <time>2010-08-22T11:49:39Z</time>
      </trkpt>
      <trkpt lat="47.46819" lon="-0.59276">
        <ele>26</ele>
        <time>2010-08-22T11:49:44Z</time>
      </trkpt>
      <trkpt lat="47.46796" lon="-0.59317">
        <ele>26</ele>
        <time>2010-08-22T11:49:49Z</time>
      </trkpt>
      <trkpt lat="47.46772" lon="-0.59322">
        <ele>26</ele>
        <time>2010-08-22T11:49:54Z</time>
      </trkpt>
      <trkpt lat="47.46734" lon="-0.59355">
        <ele>27</ele>
        <time>2010-08-22T11:49:59Z</time>
      </trkpt>
      <trkpt lat="47.46708" lon="-0.59377">
        <ele>27</ele>
        <time>2010-08-22T11:50:04Z</time>
      </trkpt>
      <trkpt lat="47.4667" lon="-0.59409">
        <ele>27</ele>
        <time>2010-08-22T11:50:09Z</time>
      </trkpt>
      <trkpt lat="47.46647" lon="-0.59432">
        <ele>27</ele>
        <time>2010-08-22T11:50:14Z</time>
      </trkpt>
      <trkpt lat="47.46613" lon="-0.59465">
        <ele>27</ele>
        <time>2010-08-22T11:50:19Z</time>
      </trkpt>
      <trkpt lat="47.46586" lon="-0.59488">
        <ele>28</ele>
        <time>2010-08-22T11:50:24Z</time>
      </trkpt>
      <trkpt lat="47.4656" lon="-0.59511">
        <ele>27</ele>
        <time>2010-08-22T11:50:29Z</time>
      </trkpt>
      <trkpt lat="47.46537" lon="-0.59519">
        <ele>27</ele>
        <time>2010-08-22T11:50:34Z</time>
      </trkpt>
      <trkpt lat="47.46526" lon="-0.59493">
        <ele>26</ele>
        <time>2010-08-22T11:50:39Z</time>
      </trkpt>
      <trkpt lat="47.46511" lon="-0.59442">
        <ele>26</ele>
        <time>2010-08-22T11:50:44Z</time>
      </trkpt>
      <trkpt lat="47.46498" lon="-0.59411">
        <ele>25</ele>
        <time>2010-08-22T11:50:49Z</time>
      </trkpt>
      <trkpt lat="47.46465" lon="-0.59385">
        <ele>25</ele>
        <time>2010-08-22T11:50:54Z</time>
      </trkpt>
      <trkpt lat="47.46438" lon="-0.59398">
        <ele>25</ele>
        <time>2010-08-22T11:50:59Z</time>
      </trkpt>
      <trkpt lat="47.46405" lon="-0.59428">
        <ele>24</ele>
        <time>2010-08-22T11:51:04Z</time>
      </trkpt>
      <trkpt lat="47.46383" lon="-0.59448">
        <ele>24</ele>
        <time>2010-08-22T11:51:09Z</time>
      </trkpt>
      <trkpt lat="47.46346" lon="-0.59477">
        <ele>23</ele>
        <time>2010-08-22T11:51:14Z</time>
      </trkpt>
      <trkpt lat="47.46314" lon="-0.59503">
        <ele>22</ele>
        <time>2010-08-22T11:51:19Z</time>
      </trkpt>
      <trkpt lat="47.46282" lon="-0.5953">
        <ele>22</ele>
        <time>2010-08-22T11:51:24Z</time>
      </trkpt>
      <trkpt lat="47.46256" lon="-0.59551">
        <ele>22</ele>
        <time>2010-08-22T11:51:29Z</time>
      </trkpt>
      <trkpt lat="47.46218" lon="-0.59578">
        <ele>22</ele>
        <time>2010-08-22T11:51:34Z</time>
      </trkpt>
      <trkpt lat="47.46193" lon="-0.59594">
        <ele>22</ele>
        <time>2010-08-22T11:51:39Z</time>
      </trkpt>
      <trkpt lat="47.46154" lon="-0.59613">
        <ele>23</ele>
        <time>2010-08-22T11:51:44Z</time>
      </trkpt>
      <trkpt lat="47.46127" lon="-0.59622">
        <ele>23</ele>
        <time>2010-08-22T11:51:49Z</time>
      </trkpt>
      <trkpt lat="47.46091" lon="-0.5965">
        <ele>23</ele>
        <time>2010-08-22T11:51:54Z</time>
      </trkpt>
      <trkpt lat="47.4607" lon="-0.5967">
        <ele>23</ele>
        <time>2010-08-22T11:51:59Z</time>
      </trkpt>
      <trkpt lat="47.46029" lon="-0.59673">
        <ele>23</ele>
        <time>2010-08-22T11:52:04Z</time>
      </trkpt>
      <trkpt lat="47.46001" lon="-0.59685">
        <ele>23</ele>
        <time>2010-08-22T11:52:09Z</time>
      </trkpt>
      <trkpt lat="47.4596" lon="-0.59701">
        <ele>22</ele>
        <time>2010-08-22T11:52:14Z</time>
      </trkpt>
      <trkpt lat="47.45932" lon="-0.59704">
        <ele>22</ele>
        <time>2010-08-22T11:52:19Z</time>
      </trkpt>
      <trkpt lat="47.45889" lon="-0.59704">
        <ele>22</ele>
        <time>2010-08-22T11:52:24Z</time>
      </trkpt>
      <trkpt lat="47.45861" lon="-0.59707">
        <ele>22</ele>
        <time>2010-08-22T11:52:29Z</time>
      </trkpt>
      <trkpt lat="47.45819" lon="-0.59708">
        <ele>23</ele>
        <time>2010-08-22T11:52:34Z</time>
      </trkpt>
      <trkpt lat="47.45792" lon="-0.59709">
        <ele>23</ele>
        <time>2010-08-22T11:52:39Z</time>
      </trkpt>
      <trkpt lat="47.45752" lon="-0.59713">
        <ele>23</ele>
        <time>2010-08-22T11:52:44Z</time>
      </trkpt>
      <trkpt lat="47.45727" lon="-0.5971">
        <ele>23</ele>
        <time>2010-08-22T11:52:49Z</time>
      </trkpt>
      <trkpt lat="47.45687" lon="-0.59703">
        <ele>23</ele>
        <time>2010-08-22T11:52:54Z</time>
      </trkpt>
      <trkpt lat="47.45661" lon="-0.59698">
        <ele>24</ele>
        <time>2010-08-22T11:52:59Z</time>
      </trkpt>
      <trkpt lat="47.45621" lon="-0.59692">
        <ele>24</ele>
        <time>2010-08-22T11:53:04Z</time>
      </trkpt>
      <trkpt lat="47.45596" lon="-0.59688">
        <ele>24</ele>
        <time>2010-08-22T11:53:09Z</time>
      </trkpt>
      <trkpt lat="47.45557" lon="-0.59685">
        <ele>22</ele>
        <time>2010-08-22T11:53:14Z</time>
      </trkpt>
      <trkpt lat="47.45531" lon="-0.59688">
        <ele>22</ele>
        <time>2010-08-22T11:53:19Z</time>
      </trkpt>
      <trkpt lat="47.45494" lon="-0.59699">
        <ele>22</ele>
        <time>2010-08-22T11:53:24Z</time>
      </trkpt>
      <trkpt lat="47.45471" lon="-0.59711">
        <ele>22</ele>
        <time>2010-08-22T11:53:29Z</time>
      </trkpt>
      <trkpt lat="47.45441" lon="-0.59732">
        <ele>23</ele>
        <time>2010-08-22T11:53:34Z</time>
      </trkpt>
      <trkpt lat="47.45423" lon="-0.59747">
        <ele>24</ele>
        <time>2010-08-22T11:53:39Z</time>
      </trkpt>
      <trkpt lat="47.45398" lon="-0.59769">
        <ele>28</ele>
        <time>2010-08-22T11:53:44Z</time>
      </trkpt>
      <trkpt lat="47.45377" lon="-0.59786">
        <ele>30</ele>
        <time>2010-08-22T11:53:49Z</time>
      </trkpt>
      <trkpt lat="47.45355" lon="-0.59805">
        <ele>32</ele>
        <time>2010-08-22T11:53:54Z</time>
      </trkpt>
      <trkpt lat="47.45334" lon="-0.59825">
        <ele>35</ele>
        <time>2010-08-22T11:53:59Z</time>
      </trkpt>
      <trkpt lat="47.45317" lon="-0.59842">
        <ele>39</ele>
        <time>2010-08-22T11:54:04Z</time>
      </trkpt>
      <trkpt lat="47.45287" lon="-0.59861">
        <ele>40</ele>
        <time>2010-08-22T11:54:09Z</time>
      </trkpt>
      <trkpt lat="47.45267" lon="-0.59874">
        <ele>41</ele>
        <time>2010-08-22T11:54:14Z</time>
      </trkpt>
      <trkpt lat="47.45237" lon="-0.59895">
        <ele>43</ele>
        <time>2010-08-22T11:54:19Z</time>
      </trkpt>
      <trkpt lat="47.45212" lon="-0.59913">
        <ele>44</ele>
        <time>2010-08-22T11:54:24Z</time>
      </trkpt>
      <trkpt lat="47.45188" lon="-0.5993">
        <ele>45</ele>
        <time>2010-08-22T11:54:29Z</time>
      </trkpt>
      <trkpt lat="47.45171" lon="-0.59946">
        <ele>45</ele>
        <time>2010-08-22T11:54:34Z</time>
      </trkpt>
      <trkpt lat="47.45145" lon="-0.59972">
        <ele>46</ele>
        <time>2010-08-22T11:54:39Z</time>
      </trkpt>
      <trkpt lat="47.45128" lon="-0.59991">
        <ele>46</ele>
        <time>2010-08-22T11:54:44Z</time>
      </trkpt>
      <trkpt lat="47.45101" lon="-0.60022">
        <ele>46</ele>
        <time>2010-08-22T11:54:49Z</time>
      </trkpt>
      <trkpt lat="47.45084" lon="-0.60042">
        <ele>47</ele>
        <time>2010-08-22T11:54:54Z</time>
      </trkpt>
      <trkpt lat="47.45058" lon="-0.60071">
        <ele>48</ele>
        <time>2010-08-22T11:54:59Z</time>
      </trkpt>
      <trkpt lat="47.45041" lon="-0.60091">
        <ele>49</ele>
        <time>2010-08-22T11:55:04Z</time>
      </trkpt>
      <trkpt lat="47.45014" lon="-0.60121">
        <ele>49</ele>
        <time>2010-08-22T11:55:09Z</time>
      </trkpt>
      <trkpt lat="47.44997" lon="-0.60141">
        <ele>51</ele>
        <time>2010-08-22T11:55:14Z</time>
      </trkpt>
      <trkpt lat="47.44972" lon="-0.60172">
        <ele>53</ele>
        <time>2010-08-22T11:55:19Z</time>
      </trkpt>
      <trkpt lat="47.44958" lon="-0.60196">
        <ele>53</ele>
        <time>2010-08-22T11:55:24Z</time>
      </trkpt>
      <trkpt lat="47.44936" lon="-0.60232">
        <ele>54</ele>
        <time>2010-08-22T11:55:29Z</time>
      </trkpt>
      <trkpt lat="47.44921" lon="-0.60257">
        <ele>55</ele>
        <time>2010-08-22T11:55:34Z</time>
      </trkpt>
      <trkpt lat="47.44908" lon="-0.60301">
        <ele>58</ele>
        <time>2010-08-22T11:55:39Z</time>
      </trkpt>
      <trkpt lat="47.44902" lon="-0.60332">
        <ele>58</ele>
        <time>2010-08-22T11:55:44Z</time>
      </trkpt>
      <trkpt lat="47.44896" lon="-0.6038">
        <ele>60</ele>
        <time>2010-08-22T11:55:49Z</time>
      </trkpt>
      <trkpt lat="47.44891" lon="-0.60411">
        <ele>60</ele>
        <time>2010-08-22T11:55:54Z</time>
      </trkpt>
      <trkpt lat="47.44884" lon="-0.60459">
        <ele>60</ele>
        <time>2010-08-22T11:55:59Z</time>
      </trkpt>
      <trkpt lat="47.44877" lon="-0.60491">
        <ele>60</ele>
        <time>2010-08-22T11:56:04Z</time>
      </trkpt>
      <trkpt lat="47.44855" lon="-0.60529">
        <ele>60</ele>
        <time>2010-08-22T11:56:09Z</time>
      </trkpt>
      <trkpt lat="47.44835" lon="-0.60554">
        <ele>60</ele>
        <time>2010-08-22T11:56:14Z</time>
      </trkpt>
      <trkpt lat="47.44799" lon="-0.606">
        <ele>56</ele>
        <time>2010-08-22T11:56:19Z</time>
      </trkpt>
      <trkpt lat="47.4477" lon="-0.60634">
        <ele>55</ele>
        <time>2010-08-22T11:56:24Z</time>
      </trkpt>
      <trkpt lat="47.44717" lon="-0.60659">
        <ele>50</ele>
        <time>2010-08-22T11:56:29Z</time>
      </trkpt>
      <trkpt lat="47.44679" lon="-0.60644">
        <ele>49</ele>
        <time>2010-08-22T11:56:34Z</time>
      </trkpt>
      <trkpt lat="47.44628" lon="-0.6059">
        <ele>45</ele>
        <time>2010-08-22T11:56:39Z</time>
      </trkpt>
      <trkpt lat="47.44592" lon="-0.60574">
        <ele>43</ele>
        <time>2010-08-22T11:56:44Z</time>
      </trkpt>
      <trkpt lat="47.44542" lon="-0.60564">
        <ele>40</ele>
        <time>2010-08-22T11:56:49Z</time>
      </trkpt>
      <trkpt lat="47.44509" lon="-0.60583">
        <ele>40</ele>
        <time>2010-08-22T11:56:54Z</time>
      </trkpt>
      <trkpt lat="47.44459" lon="-0.60606">
        <ele>38</ele>
        <time>2010-08-22T11:56:59Z</time>
      </trkpt>
      <trkpt lat="47.44424" lon="-0.60621">
        <ele>38</ele>
        <time>2010-08-22T11:57:04Z</time>
      </trkpt>
      <trkpt lat="47.44363" lon="-0.60639">
        <ele>32</ele>
        <time>2010-08-22T11:57:09Z</time>
      </trkpt>
      <trkpt lat="47.44307" lon="-0.60652">
        <ele>29</ele>
        <time>2010-08-22T11:57:14Z</time>
      </trkpt>
      <trkpt lat="47.44255" lon="-0.60673">
        <ele>29</ele>
        <time>2010-08-22T11:57:19Z</time>
      </trkpt>
      <trkpt lat="47.4422" lon="-0.60695">
        <ele>30</ele>
        <time>2010-08-22T11:57:24Z</time>
      </trkpt>
      <trkpt lat="47.442" lon="-0.60709">
        <ele>30</ele>
        <time>2010-08-22T11:57:29Z</time>
      </trkpt>
      <trkpt lat="47.44172" lon="-0.60728">
        <ele>31</ele>
        <time>2010-08-22T11:57:34Z</time>
      </trkpt>
      <trkpt lat="47.44146" lon="-0.60744">
        <ele>31</ele>
        <time>2010-08-22T11:57:39Z</time>
      </trkpt>
      <trkpt lat="47.44117" lon="-0.60765">
        <ele>31</ele>
        <time>2010-08-22T11:57:44Z</time>
      </trkpt>
      <trkpt lat="47.44084" lon="-0.60787">
        <ele>32</ele>
        <time>2010-08-22T11:57:49Z</time>
      </trkpt>
      <trkpt lat="47.4405" lon="-0.60808">
        <ele>33</ele>
        <time>2010-08-22T11:57:54Z</time>
      </trkpt>
      <trkpt lat="47.44025" lon="-0.60824">
        <ele>34</ele>
        <time>2010-08-22T11:57:59Z</time>
      </trkpt>
      <trkpt lat="47.43992" lon="-0.60848">
        <ele>39</ele>
        <time>2010-08-22T11:58:04Z</time>
      </trkpt>
      <trkpt lat="47.43966" lon="-0.60867">
        <ele>41</ele>
        <time>2010-08-22T11:58:09Z</time>
      </trkpt>
      <trkpt lat="47.43941" lon="-0.60885">
        <ele>42</ele>
        <time>2010-08-22T11:58:14Z</time>
      </trkpt>
      <trkpt lat="47.43922" lon="-0.60894">
        <ele>43</ele>
        <time>2010-08-22T11:58:19Z</time>
      </trkpt>
      <trkpt lat="47.43893" lon="-0.60908">
        <ele>45</ele>
        <time>2010-08-22T11:58:24Z</time>
      </trkpt>
      <trkpt lat="47.43874" lon="-0.60917">
        <ele>48</ele>
        <time>2010-08-22T11:58:29Z</time>
      </trkpt>
      <trkpt lat="47.43846" lon="-0.60929">
        <ele>49</ele>
        <time>2010-08-22T11:58:34Z</time>
      </trkpt>
      <trkpt lat="47.4383" lon="-0.60937">
        <ele>50</ele>
        <time>2010-08-22T11:58:39Z</time>
      </trkpt>
      <trkpt lat="47.43804" lon="-0.60948">
        <ele>51</ele>
        <time>2010-08-22T11:58:44Z</time>
      </trkpt>
      <trkpt lat="47.43787" lon="-0.60956">
        <ele>51</ele>
        <time>2010-08-22T11:58:49Z</time>
      </trkpt>
      <trkpt lat="47.43761" lon="-0.60966">
        <ele>51</ele>
        <time>2010-08-22T11:58:54Z</time>
      </trkpt>
      <trkpt lat="47.43743" lon="-0.6097">
        <ele>53</ele>
        <time>2010-08-22T11:58:59Z</time>
      </trkpt>
      <trkpt lat="47.43716" lon="-0.60971">
        <ele>53</ele>
        <time>2010-08-22T11:59:04Z</time>
      </trkpt>
      <trkpt lat="47.43697" lon="-0.6097">
        <ele>54</ele>
        <time>2010-08-22T11:59:09Z</time>
      </trkpt>
      <trkpt lat="47.4367" lon="-0.60971">
        <ele>54</ele>
        <time>2010-08-22T11:59:14Z</time>
      </trkpt>
      <trkpt lat="47.43651" lon="-0.6097">
        <ele>55</ele>
        <time>2010-08-22T11:59:19Z</time>
      </trkpt>
      <trkpt lat="47.4362" lon="-0.6097">
        <ele>54</ele>
        <time>2010-08-22T11:59:24Z</time>
      </trkpt>
      <trkpt lat="47.43598" lon="-0.60971">
        <ele>55</ele>
        <time>2010-08-22T11:59:29Z</time>
      </trkpt>
      <trkpt lat="47.43564" lon="-0.60978">
        <ele>54</ele>
        <time>2010-08-22T11:59:34Z</time>
      </trkpt>
      <trkpt lat="47.43541" lon="-0.60989">
        <ele>54</ele>
        <time>2010-08-22T11:59:39Z</time>
      </trkpt>
      <trkpt lat="47.43507" lon="-0.61012">
        <ele>56</ele>
        <time>2010-08-22T11:59:44Z</time>
      </trkpt>
      <trkpt lat="47.43486" lon="-0.6103">
        <ele>57</ele>
        <time>2010-08-22T11:59:49Z</time>
      </trkpt>
      <trkpt lat="47.43457" lon="-0.61062">
        <ele>58</ele>
        <time>2010-08-22T11:59:54Z</time>
      </trkpt>
      <trkpt lat="47.43439" lon="-0.61086">
        <ele>61</ele>
        <time>2010-08-22T11:59:59Z</time>
      </trkpt>
      <trkpt lat="47.43422" lon="-0.61133">
        <ele>62</ele>
        <time>2010-08-22T12:00:04Z</time>
      </trkpt>
      <trkpt lat="47.43417" lon="-0.61169">
        <ele>63</ele>
        <time>2010-08-22T12:00:09Z</time>
      </trkpt>
      <trkpt lat="47.43418" lon="-0.61224">
        <ele>64</ele>
        <time>2010-08-22T12:00:14Z</time>
      </trkpt>
      <trkpt lat="47.43426" lon="-0.6126">
        <ele>65</ele>
        <time>2010-08-22T12:00:19Z</time>
      </trkpt>
      <trkpt lat="47.43437" lon="-0.61303">
        <ele>65</ele>
        <time>2010-08-22T12:00:24Z</time>
      </trkpt>
      <trkpt lat="47.43437" lon="-0.61355">
        <ele>65</ele>
        <time>2010-08-22T12:00:29Z</time>
      </trkpt>
      <trkpt lat="47.43429" lon="-0.61395">
        <ele>65</ele>
        <time>2010-08-22T12:00:34Z</time>
      </trkpt>
      <trkpt lat="47.43423" lon="-0.61421">
        <ele>64</ele>
        <time>2010-08-22T12:00:39Z</time>
      </trkpt>
      <trkpt lat="47.43417" lon="-0.61432">
        <ele>65</ele>
        <time>2010-08-22T12:00:44Z</time>
      </trkpt>
      <trkpt lat="47.43397" lon="-0.61429">
        <ele>64</ele>
        <time>2010-08-22T12:00:49Z</time>
      </trkpt>
      <trkpt lat="47.43374" lon="-0.61412">
        <ele>63</ele>
        <time>2010-08-22T12:00:54Z</time>
      </trkpt>
      <trkpt lat="47.43346" lon="-0.61396">
        <ele>62</ele>
        <time>2010-08-22T12:00:59Z</time>
      </trkpt>
      <trkpt lat="47.43319" lon="-0.61382">
        <ele>61</ele>
        <time>2010-08-22T12:01:04Z</time>
      </trkpt>
      <trkpt lat="47.43274" lon="-0.61365">
        <ele>61</ele>
        <time>2010-08-22T12:01:09Z</time>
      </trkpt>
      <trkpt lat="47.43233" lon="-0.61355">
        <ele>60</ele>
        <time>2010-08-22T12:01:14Z</time>
      </trkpt>
      <trkpt lat="47.4319" lon="-0.61353">
        <ele>60</ele>
        <time>2010-08-22T12:01:19Z</time>
      </trkpt>
      <trkpt lat="47.43145" lon="-0.61359">
        <ele>59</ele>
        <time>2010-08-22T12:01:24Z</time>
      </trkpt>
      <trkpt lat="47.43098" lon="-0.61368">
        <ele>58</ele>
        <time>2010-08-22T12:01:29Z</time>
      </trkpt>
      <trkpt lat="47.43047" lon="-0.61382">
        <ele>57</ele>
        <time>2010-08-22T12:01:34Z</time>
      </trkpt>
      <trkpt lat="47.4299" lon="-0.61397">
        <ele>54</ele>
        <time>2010-08-22T12:01:39Z</time>
      </trkpt>
      <trkpt lat="47.42941" lon="-0.6141">
        <ele>51</ele>
        <time>2010-08-22T12:01:44Z</time>
      </trkpt>
      <trkpt lat="47.42862" lon="-0.61433">
        <ele>45</ele>
        <time>2010-08-22T12:01:49Z</time>
      </trkpt>
      <trkpt lat="47.42806" lon="-0.61448">
        <ele>39</ele>
        <time>2010-08-22T12:01:54Z</time>
      </trkpt>
      <trkpt lat="47.42713" lon="-0.61453">
        <ele>30</ele>
        <time>2010-08-22T12:01:59Z</time>
      </trkpt>
      <trkpt lat="47.42645" lon="-0.61439">
        <ele>26</ele>
        <time>2010-08-22T12:02:04Z</time>
      </trkpt>
      <trkpt lat="47.4255" lon="-0.6139">
        <ele>27</ele>
        <time>2010-08-22T12:02:09Z</time>
      </trkpt>
      <trkpt lat="47.425" lon="-0.61349">
        <ele>27</ele>
        <time>2010-08-22T12:02:14Z</time>
      </trkpt>
      <trkpt lat="47.42441" lon="-0.61299">
        <ele>30</ele>
        <time>2010-08-22T12:02:19Z</time>
      </trkpt>
      <trkpt lat="47.42409" lon="-0.61269">
        <ele>30</ele>
        <time>2010-08-22T12:02:24Z</time>
      </trkpt>
      <trkpt lat="47.42363" lon="-0.61229">
        <ele>31</ele>
        <time>2010-08-22T12:02:29Z</time>
      </trkpt>
      <trkpt lat="47.42332" lon="-0.61203">
        <ele>28</ele>
        <time>2010-08-22T12:02:34Z</time>
      </trkpt>
      <trkpt lat="47.42288" lon="-0.61169">
        <ele>27</ele>
        <time>2010-08-22T12:02:39Z</time>
      </trkpt>
      <trkpt lat="47.42261" lon="-0.61157">
        <ele>26</ele>
        <time>2010-08-22T12:02:44Z</time>
      </trkpt>
      <trkpt lat="47.42213" lon="-0.61148">
        <ele>23</ele>
        <time>2010-08-22T12:02:49Z</time>
      </trkpt>
      <trkpt lat="47.42177" lon="-0.6114">
        <ele>22</ele>
        <time>2010-08-22T12:02:54Z</time>
      </trkpt>
      <trkpt lat="47.42138" lon="-0.61112">
        <ele>20</ele>
        <time>2010-08-22T12:02:59Z</time>
      </trkpt>
      <trkpt lat="47.42118" lon="-0.6108">
        <ele>20</ele>
        <time>2010-08-22T12:03:04Z</time>
      </trkpt>
      <trkpt lat="47.42098" lon="-0.61038">
        <ele>20</ele>
        <time>2010-08-22T12:03:09Z</time>
      </trkpt>
      <trkpt lat="47.42084" lon="-0.6103">
        <ele>20</ele>
        <time>2010-08-22T12:03:14Z</time>
      </trkpt>
      <trkpt lat="47.42078" lon="-0.60992">
        <ele>19</ele>
        <time>2010-08-22T12:03:19Z</time>
      </trkpt>
      <trkpt lat="47.42073" lon="-0.60957">
        <ele>18</ele>
        <time>2010-08-22T12:03:24Z</time>
      </trkpt>
      <trkpt lat="47.42055" lon="-0.60907">
        <ele>18</ele>
        <time>2010-08-22T12:03:29Z</time>
      </trkpt>
      <trkpt lat="47.42044" lon="-0.60874">
        <ele>18</ele>
        <time>2010-08-22T12:03:34Z</time>
      </trkpt>
      <trkpt lat="47.42024" lon="-0.6082">
        <ele>16</ele>
        <time>2010-08-22T12:03:39Z</time>
      </trkpt>
      <trkpt lat="47.42009" lon="-0.6078">
        <ele>15</ele>
        <time>2010-08-22T12:03:44Z</time>
      </trkpt>
      <trkpt lat="47.41985" lon="-0.60715">
        <ele>18</ele>
        <time>2010-08-22T12:03:49Z</time>
      </trkpt>
      <trkpt lat="47.41963" lon="-0.60657">
        <ele>21</ele>
        <time>2010-08-22T12:03:54Z</time>
      </trkpt>
      <trkpt lat="47.4195" lon="-0.60611">
        <ele>21</ele>
        <time>2010-08-22T12:03:59Z</time>
      </trkpt>
      <trkpt lat="47.41932" lon="-0.60542">
        <ele>21</ele>
        <time>2010-08-22T12:04:04Z</time>
      </trkpt>
      <trkpt lat="47.41921" lon="-0.60497">
        <ele>20</ele>
        <time>2010-08-22T12:04:09Z</time>
      </trkpt>
      <trkpt lat="47.41909" lon="-0.60428">
        <ele>18</ele>
        <time>2010-08-22T12:04:14Z</time>
      </trkpt>
      <trkpt lat="47.419" lon="-0.6037">
        <ele>16</ele>
        <time>2010-08-22T12:04:19Z</time>
      </trkpt>
      <trkpt lat="47.41892" lon="-0.60311">
        <ele>16</ele>
        <time>2010-08-22T12:04:24Z</time>
      </trkpt>
      <trkpt lat="47.41887" lon="-0.60262">
        <ele>17</ele>
        <time>2010-08-22T12:04:29Z</time>
      </trkpt>
      <trkpt lat="47.41882" lon="-0.60189">
        <ele>18</ele>
        <time>2010-08-22T12:04:34Z</time>
      </trkpt>
      <trkpt lat="47.4188" lon="-0.60142">
        <ele>19</ele>
        <time>2010-08-22T12:04:39Z</time>
      </trkpt>
      <trkpt lat="47.41878" lon="-0.6007">
        <ele>17</ele>
        <time>2010-08-22T12:04:44Z</time>
      </trkpt>
      <trkpt lat="47.41876" lon="-0.60009">
        <ele>17</ele>
        <time>2010-08-22T12:04:49Z</time>
      </trkpt>
      <trkpt lat="47.41875" lon="-0.59949">
        <ele>17</ele>
        <time>2010-08-22T12:04:54Z</time>
      </trkpt>
      <trkpt lat="47.41873" lon="-0.59901">
        <ele>17</ele>
        <time>2010-08-22T12:04:59Z</time>
      </trkpt>
      <trkpt lat="47.41871" lon="-0.5983">
        <ele>17</ele>
        <time>2010-08-22T12:05:04Z</time>
      </trkpt>
      <trkpt lat="47.41869" lon="-0.59781">
        <ele>17</ele>
        <time>2010-08-22T12:05:09Z</time>
      </trkpt>
      <trkpt lat="47.41868" lon="-0.59709">
        <ele>18</ele>
        <time>2010-08-22T12:05:14Z</time>
      </trkpt>
      <trkpt lat="47.41868" lon="-0.59661">
        <ele>19</ele>
        <time>2010-08-22T12:05:19Z</time>
      </trkpt>
      <trkpt lat="47.41865" lon="-0.59591">
        <ele>20</ele>
        <time>2010-08-22T12:05:24Z</time>
      </trkpt>
      <trkpt lat="47.41866" lon="-0.59543">
        <ele>21</ele>
        <time>2010-08-22T12:05:29Z</time>
      </trkpt>
      <trkpt lat="47.41865" lon="-0.5947">
        <ele>22</ele>
        <time>2010-08-22T12:05:34Z</time>
      </trkpt>
      <trkpt lat="47.41865" lon="-0.59423">
        <ele>22</ele>
        <time>2010-08-22T12:05:39Z</time>
      </trkpt>
      <trkpt lat="47.41866" lon="-0.59349">
        <ele>22</ele>
        <time>2010-08-22T12:05:44Z</time>
      </trkpt>
      <trkpt lat="47.41867" lon="-0.593">
        <ele>21</ele>
        <time>2010-08-22T12:05:49Z</time>
      </trkpt>
      <trkpt lat="47.4187" lon="-0.59227">
        <ele>20</ele>
        <time>2010-08-22T12:05:54Z</time>
      </trkpt>
      <trkpt lat="47.41873" lon="-0.59178">
        <ele>20</ele>
        <time>2010-08-22T12:05:59Z</time>
      </trkpt>
      <trkpt lat="47.4188" lon="-0.59105">
        <ele>19</ele>
        <time>2010-08-22T12:06:04Z</time>
      </trkpt>
      <trkpt lat="47.41886" lon="-0.59057">
        <ele>19</ele>
        <time>2010-08-22T12:06:09Z</time>
      </trkpt>
      <trkpt lat="47.41896" lon="-0.58987">
        <ele>21</ele>
        <time>2010-08-22T12:06:14Z</time>
      </trkpt>
      <trkpt lat="47.41903" lon="-0.58942">
        <ele>21</ele>
        <time>2010-08-22T12:06:19Z</time>
      </trkpt>
      <trkpt lat="47.41915" lon="-0.58879">
        <ele>22</ele>
        <time>2010-08-22T12:06:24Z</time>
      </trkpt>
      <trkpt lat="47.41922" lon="-0.58837">
        <ele>22</ele>
        <time>2010-08-22T12:06:29Z</time>
      </trkpt>
      <trkpt lat="47.41934" lon="-0.58774">
        <ele>21</ele>
        <time>2010-08-22T12:06:34Z</time>
      </trkpt>
      <trkpt lat="47.41942" lon="-0.58733">
        <ele>22</ele>
        <time>2010-08-22T12:06:39Z</time>
      </trkpt>
      <trkpt lat="47.41954" lon="-0.58669">
        <ele>22</ele>
        <time>2010-08-22T12:06:44Z</time>
      </trkpt>
      <trkpt lat="47.41962" lon="-0.58627">
        <ele>23</ele>
        <time>2010-08-22T12:06:49Z</time>
      </trkpt>
      <trkpt lat="47.41975" lon="-0.58563">
        <ele>23</ele>
        <time>2010-08-22T12:06:54Z</time>
      </trkpt>
      <trkpt lat="47.41984" lon="-0.5852">
        <ele>23</ele>
        <time>2010-08-22T12:06:59Z</time>
      </trkpt>
      <trkpt lat="47.41996" lon="-0.58455">
        <ele>23</ele>
        <time>2010-08-22T12:07:04Z</time>
      </trkpt>
      <trkpt lat="47.42005" lon="-0.58411">
        <ele>23</ele>
        <time>2010-08-22T12:07:09Z</time>
      </trkpt>
      <trkpt lat="47.42018" lon="-0.58346">
        <ele>24</ele>
        <time>2010-08-22T12:07:14Z</time>
      </trkpt>
      <trkpt lat="47.42026" lon="-0.58292">
        <ele>25</ele>
        <time>2010-08-22T12:07:19Z</time>
      </trkpt>
      <trkpt lat="47.42033" lon="-0.58238">
        <ele>25</ele>
        <time>2010-08-22T12:07:24Z</time>
      </trkpt>
      <trkpt lat="47.42035" lon="-0.58187">
        <ele>25</ele>
        <time>2010-08-22T12:07:29Z</time>
      </trkpt>
      <trkpt lat="47.42053" lon="-0.58154">
        <ele>25</ele>
        <time>2010-08-22T12:07:34Z</time>
      </trkpt>
      <trkpt lat="47.42066" lon="-0.58091">
        <ele>25</ele>
        <time>2010-08-22T12:07:39Z</time>
      </trkpt>
      <trkpt lat="47.42074" lon="-0.58036">
        <ele>26</ele>
        <time>2010-08-22T12:07:44Z</time>
      </trkpt>
      <trkpt lat="47.42081" lon="-0.57981">
        <ele>27</ele>
        <time>2010-08-22T12:07:49Z</time>
      </trkpt>
      <trkpt lat="47.42086" lon="-0.57937">
        <ele>27</ele>
        <time>2010-08-22T12:07:54Z</time>
      </trkpt>
      <trkpt lat="47.42091" lon="-0.5787">
        <ele>28</ele>
        <time>2010-08-22T12:07:59Z</time>
      </trkpt>
      <trkpt lat="47.42096" lon="-0.57813">
        <ele>28</ele>
        <time>2010-08-22T12:08:04Z</time>
      </trkpt>
      <trkpt lat="47.42103" lon="-0.57757">
        <ele>28</ele>
        <time>2010-08-22T12:08:09Z</time>
      </trkpt>
      <trkpt lat="47.42111" lon="-0.577">
        <ele>28</ele>
        <time>2010-08-22T12:08:14Z</time>
      </trkpt>
      <trkpt lat="47.42121" lon="-0.57646">
        <ele>28</ele>
        <time>2010-08-22T12:08:19Z</time>
      </trkpt>
      <trkpt lat="47.42131" lon="-0.57592">
        <ele>28</ele>
        <time>2010-08-22T12:08:24Z</time>
      </trkpt>
      <trkpt lat="47.42144" lon="-0.57539">
        <ele>28</ele>
        <time>2010-08-22T12:08:29Z</time>
      </trkpt>
      <trkpt lat="47.42154" lon="-0.57497">
        <ele>28</ele>
        <time>2010-08-22T12:08:34Z</time>
      </trkpt>
      <trkpt lat="47.42172" lon="-0.57434">
        <ele>28</ele>
        <time>2010-08-22T12:08:39Z</time>
      </trkpt>
      <trkpt lat="47.42185" lon="-0.57392">
        <ele>29</ele>
        <time>2010-08-22T12:08:44Z</time>
      </trkpt>
      <trkpt lat="47.42206" lon="-0.5733">
        <ele>29</ele>
        <time>2010-08-22T12:08:49Z</time>
      </trkpt>
      <trkpt lat="47.42222" lon="-0.57286">
        <ele>29</ele>
        <time>2010-08-22T12:08:54Z</time>
      </trkpt>
      <trkpt lat="47.42248" lon="-0.57221">
        <ele>29</ele>
        <time>2010-08-22T12:08:59Z</time>
      </trkpt>
      <trkpt lat="47.42266" lon="-0.57178">
        <ele>29</ele>
        <time>2010-08-22T12:09:04Z</time>
      </trkpt>
      <trkpt lat="47.42295" lon="-0.57115">
        <ele>28</ele>
        <time>2010-08-22T12:09:09Z</time>
      </trkpt>
      <trkpt lat="47.42314" lon="-0.57072">
        <ele>27</ele>
        <time>2010-08-22T12:09:14Z</time>
      </trkpt>
      <trkpt lat="47.42343" lon="-0.57007">
        <ele>28</ele>
        <time>2010-08-22T12:09:19Z</time>
      </trkpt>
      <trkpt lat="47.42363" lon="-0.56963">
        <ele>28</ele>
        <time>2010-08-22T12:09:24Z</time>
      </trkpt>
      <trkpt lat="47.42394" lon="-0.56897">
        <ele>28</ele>
        <time>2010-08-22T12:09:29Z</time>
      </trkpt>
      <trkpt lat="47.42415" lon="-0.56851">
        <ele>29</ele>
        <time>2010-08-22T12:09:34Z</time>
      </trkpt>
      <trkpt lat="47.42445" lon="-0.56783">
        <ele>28</ele>
        <time>2010-08-22T12:09:39Z</time>
      </trkpt>
      <trkpt lat="47.42466" lon="-0.56739">
        <ele>28</ele>
        <time>2010-08-22T12:09:44Z</time>
      </trkpt>
      <trkpt lat="47.42495" lon="-0.56673">
        <ele>28</ele>
        <time>2010-08-22T12:09:49Z</time>
      </trkpt>
      <trkpt lat="47.42514" lon="-0.5663">
        <ele>28</ele>
        <time>2010-08-22T12:09:54Z</time>
      </trkpt>
      <trkpt lat="47.4254" lon="-0.56566">
        <ele>29</ele>
        <time>2010-08-22T12:09:59Z</time>
      </trkpt>
      <trkpt lat="47.42556" lon="-0.56522">
        <ele>29</ele>
        <time>2010-08-22T12:10:04Z</time>
      </trkpt>
      <trkpt lat="47.42569" lon="-0.56451">
        <ele>29</ele>
        <time>2010-08-22T12:10:09Z</time>
      </trkpt>
      <trkpt lat="47.4259" lon="-0.56412">
        <ele>29</ele>
        <time>2010-08-22T12:10:14Z</time>
      </trkpt>
      <trkpt lat="47.42614" lon="-0.56346">
        <ele>29</ele>
        <time>2010-08-22T12:10:19Z</time>
      </trkpt>
      <trkpt lat="47.42629" lon="-0.56301">
        <ele>29</ele>
        <time>2010-08-22T12:10:24Z</time>
      </trkpt>
      <trkpt lat="47.4265" lon="-0.56234">
        <ele>29</ele>
        <time>2010-08-22T12:10:29Z</time>
      </trkpt>
      <trkpt lat="47.42664" lon="-0.56188">
        <ele>29</ele>
        <time>2010-08-22T12:10:34Z</time>
      </trkpt>
      <trkpt lat="47.42686" lon="-0.5612">
        <ele>29</ele>
        <time>2010-08-22T12:10:39Z</time>
      </trkpt>
      <trkpt lat="47.42704" lon="-0.56062">
        <ele>29</ele>
        <time>2010-08-22T12:10:44Z</time>
      </trkpt>
      <trkpt lat="47.42722" lon="-0.56002">
        <ele>28</ele>
        <time>2010-08-22T12:10:49Z</time>
      </trkpt>
      <trkpt lat="47.42738" lon="-0.55937">
        <ele>27</ele>
        <time>2010-08-22T12:10:54Z</time>
      </trkpt>
      <trkpt lat="47.42751" lon="-0.55871">
        <ele>27</ele>
        <time>2010-08-22T12:10:59Z</time>
      </trkpt>
      <trkpt lat="47.42762" lon="-0.55806">
        <ele>27</ele>
        <time>2010-08-22T12:11:04Z</time>
      </trkpt>
      <trkpt lat="47.4277" lon="-0.55754">
        <ele>26</ele>
        <time>2010-08-22T12:11:09Z</time>
      </trkpt>
      <trkpt lat="47.42777" lon="-0.55681">
        <ele>25</ele>
        <time>2010-08-22T12:11:14Z</time>
      </trkpt>
      <trkpt lat="47.42779" lon="-0.55633">
        <ele>25</ele>
        <time>2010-08-22T12:11:19Z</time>
      </trkpt>
      <trkpt lat="47.4278" lon="-0.55556">
        <ele>25</ele>
        <time>2010-08-22T12:11:24Z</time>
      </trkpt>
      <trkpt lat="47.42784" lon="-0.55509">
        <ele>26</ele>
        <time>2010-08-22T12:11:29Z</time>
      </trkpt>
      <trkpt lat="47.42782" lon="-0.55436">
        <ele>25</ele>
        <time>2010-08-22T12:11:34Z</time>
      </trkpt>
      <trkpt lat="47.42779" lon="-0.55386">
        <ele>26</ele>
        <time>2010-08-22T12:11:39Z</time>
      </trkpt>
      <trkpt lat="47.42773" lon="-0.55313">
        <ele>26</ele>
        <time>2010-08-22T12:11:44Z</time>
      </trkpt>
      <trkpt lat="47.42768" lon="-0.55263">
        <ele>25</ele>
        <time>2010-08-22T12:11:49Z</time>
      </trkpt>
      <trkpt lat="47.42762" lon="-0.55188">
        <ele>23</ele>
        <time>2010-08-22T12:11:54Z</time>
      </trkpt>
      <trkpt lat="47.42757" lon="-0.55138">
        <ele>23</ele>
        <time>2010-08-22T12:11:59Z</time>
      </trkpt>
      <trkpt lat="47.42751" lon="-0.55063">
        <ele>23</ele>
        <time>2010-08-22T12:12:04Z</time>
      </trkpt>
      <trkpt lat="47.42753" lon="-0.55013">
        <ele>23</ele>
        <time>2010-08-22T12:12:09Z</time>
      </trkpt>
      <trkpt lat="47.42759" lon="-0.5494">
        <ele>23</ele>
        <time>2010-08-22T12:12:14Z</time>
      </trkpt>
      <trkpt lat="47.42771" lon="-0.54892">
        <ele>23</ele>
        <time>2010-08-22T12:12:19Z</time>
      </trkpt>
      <trkpt lat="47.42788" lon="-0.54816">
        <ele>22</ele>
        <time>2010-08-22T12:12:24Z</time>
      </trkpt>
      <trkpt lat="47.42803" lon="-0.54768">
        <ele>22</ele>
        <time>2010-08-22T12:12:29Z</time>
      </trkpt>
      <trkpt lat="47.42827" lon="-0.54695">
        <ele>21</ele>
        <time>2010-08-22T12:12:34Z</time>
      </trkpt>
      <trkpt lat="47.42842" lon="-0.54647">
        <ele>20</ele>
        <time>2010-08-22T12:12:39Z</time>
      </trkpt>
      <trkpt lat="47.42864" lon="-0.54575">
        <ele>20</ele>
        <time>2010-08-22T12:12:44Z</time>
      </trkpt>
      <trkpt lat="47.42879" lon="-0.54528">
        <ele>20</ele>
        <time>2010-08-22T12:12:49Z</time>
      </trkpt>
      <trkpt lat="47.42899" lon="-0.54457">
        <ele>20</ele>
        <time>2010-08-22T12:12:54Z</time>
      </trkpt>
      <trkpt lat="47.42914" lon="-0.5441">
        <ele>20</ele>
        <time>2010-08-22T12:12:59Z</time>
      </trkpt>
      <trkpt lat="47.42934" lon="-0.54341">
        <ele>19</ele>
        <time>2010-08-22T12:13:04Z</time>
      </trkpt>
      <trkpt lat="47.42947" lon="-0.54295">
        <ele>18</ele>
        <time>2010-08-22T12:13:09Z</time>
      </trkpt>
      <trkpt lat="47.42968" lon="-0.54227">
        <ele>19</ele>
        <time>2010-08-22T12:13:14Z</time>
      </trkpt>
      <trkpt lat="47.42977" lon="-0.5418">
        <ele>19</ele>
        <time>2010-08-22T12:13:19Z</time>
      </trkpt>
      <trkpt lat="47.42999" lon="-0.54118">
        <ele>18</ele>
        <time>2010-08-22T12:13:24Z</time>
      </trkpt>
      <trkpt lat="47.43013" lon="-0.54072">
        <ele>18</ele>
        <time>2010-08-22T12:13:29Z</time>
      </trkpt>
      <trkpt lat="47.43032" lon="-0.54004">
        <ele>17</ele>
        <time>2010-08-22T12:13:34Z</time>
      </trkpt>
      <trkpt lat="47.43045" lon="-0.5396">
        <ele>17</ele>
        <time>2010-08-22T12:13:39Z</time>
      </trkpt>
      <trkpt lat="47.43064" lon="-0.53894">
        <ele>18</ele>
        <time>2010-08-22T12:13:44Z</time>
      </trkpt>
      <trkpt lat="47.43078" lon="-0.5385">
        <ele>18</ele>
        <time>2010-08-22T12:13:49Z</time>
      </trkpt>
      <trkpt lat="47.43097" lon="-0.53785">
        <ele>19</ele>
        <time>2010-08-22T12:13:54Z</time>
      </trkpt>
      <trkpt lat="47.4311" lon="-0.53741">
        <ele>18</ele>
        <time>2010-08-22T12:13:59Z</time>
      </trkpt>
      <trkpt lat="47.43129" lon="-0.53676">
        <ele>18</ele>
        <time>2010-08-22T12:14:04Z</time>
      </trkpt>
      <trkpt lat="47.43142" lon="-0.53633">
        <ele>19</ele>
        <time>2010-08-22T12:14:09Z</time>
      </trkpt>
      <trkpt lat="47.43161" lon="-0.53568">
        <ele>20</ele>
        <time>2010-08-22T12:14:14Z</time>
      </trkpt>
      <trkpt lat="47.43181" lon="-0.53517">
        <ele>20</ele>
        <time>2010-08-22T12:14:19Z</time>
      </trkpt>
      <trkpt lat="47.43198" lon="-0.53463">
        <ele>21</ele>
        <time>2010-08-22T12:14:24Z</time>
      </trkpt>
      <trkpt lat="47.43212" lon="-0.53407">
        <ele>22</ele>
        <time>2010-08-22T12:14:29Z</time>
      </trkpt>
      <trkpt lat="47.43223" lon="-0.53362">
        <ele>22</ele>
        <time>2010-08-22T12:14:34Z</time>
      </trkpt>
      <trkpt lat="47.43244" lon="-0.53297">
        <ele>23</ele>
        <time>2010-08-22T12:14:39Z</time>
      </trkpt>
      <trkpt lat="47.43258" lon="-0.53254">
        <ele>24</ele>
        <time>2010-08-22T12:14:44Z</time>
      </trkpt>
      <trkpt lat="47.43278" lon="-0.53188">
        <ele>23</ele>
        <time>2010-08-22T12:14:49Z</time>
      </trkpt>
      <trkpt lat="47.43295" lon="-0.53131">
        <ele>23</ele>
        <time>2010-08-22T12:14:54Z</time>
      </trkpt>
      <trkpt lat="47.43312" lon="-0.53077">
        <ele>22</ele>
        <time>2010-08-22T12:14:59Z</time>
      </trkpt>
      <trkpt lat="47.43326" lon="-0.53038">
        <ele>21</ele>
        <time>2010-08-22T12:15:04Z</time>
      </trkpt>
      <trkpt lat="47.43342" lon="-0.52982">
        <ele>21</ele>
        <time>2010-08-22T12:15:09Z</time>
      </trkpt>
      <trkpt lat="47.43345" lon="-0.52942">
        <ele>21</ele>
        <time>2010-08-22T12:15:14Z</time>
      </trkpt>
      <trkpt lat="47.43366" lon="-0.52887">
        <ele>21</ele>
        <time>2010-08-22T12:15:19Z</time>
      </trkpt>
      <trkpt lat="47.43378" lon="-0.52841">
        <ele>21</ele>
        <time>2010-08-22T12:15:24Z</time>
      </trkpt>
      <trkpt lat="47.43397" lon="-0.52766">
        <ele>22</ele>
        <time>2010-08-22T12:15:29Z</time>
      </trkpt>
      <trkpt lat="47.43409" lon="-0.52715">
        <ele>21</ele>
        <time>2010-08-22T12:15:34Z</time>
      </trkpt>
      <trkpt lat="47.43429" lon="-0.5264">
        <ele>19</ele>
        <time>2010-08-22T12:15:39Z</time>
      </trkpt>
      <trkpt lat="47.43441" lon="-0.52588">
        <ele>19</ele>
        <time>2010-08-22T12:15:44Z</time>
      </trkpt>
      <trkpt lat="47.43458" lon="-0.52511">
        <ele>19</ele>
        <time>2010-08-22T12:15:49Z</time>
      </trkpt>
      <trkpt lat="47.43469" lon="-0.52464">
        <ele>19</ele>
        <time>2010-08-22T12:15:54Z</time>
      </trkpt>
      <trkpt lat="47.43482" lon="-0.524">
        <ele>19</ele>
        <time>2010-08-22T12:15:59Z</time>
      </trkpt>
      <trkpt lat="47.43486" lon="-0.52382">
        <ele>19</ele>
        <time>2010-08-22T12:16:04Z</time>
      </trkpt>
      <trkpt lat="47.43487" lon="-0.52385">
        <ele>19</ele>
        <time>2010-08-22T12:16:09Z</time>
      </trkpt>
      <trkpt lat="47.43487" lon="-0.52386">
        <ele>19</ele>
        <time>2010-08-22T12:16:14Z</time>
      </trkpt>
      <trkpt lat="47.43487" lon="-0.52387">
        <ele>19</ele>
        <time>2010-08-22T12:16:19Z</time>
      </trkpt>
      <trkpt lat="47.43487" lon="-0.52387">
        <ele>19</ele>
        <time>2010-08-22T12:16:24Z</time>
      </trkpt>
      <trkpt lat="47.43487" lon="-0.52387">
        <ele>19</ele>
        <time>2010-08-22T12:16:29Z</time>
      </trkpt>
      <trkpt lat="47.43487" lon="-0.52387">
        <ele>19</ele>
        <time>2010-08-22T12:16:34Z</time>
      </trkpt>
      <trkpt lat="47.43487" lon="-0.52387">
        <ele>19</ele>
        <time>2010-08-22T12:16:39Z</time>
      </trkpt>
      <trkpt lat="47.43487" lon="-0.52387">
        <ele>19</ele>
        <time>2010-08-22T12:16:44Z</time>
      </trkpt>
      <trkpt lat="47.43489" lon="-0.52377">
        <ele>19</ele>
        <time>2010-08-22T12:16:49Z</time>
      </trkpt>
      <trkpt lat="47.43495" lon="-0.52345">
        <ele>19</ele>
        <time>2010-08-22T12:16:54Z</time>
      </trkpt>
      <trkpt lat="47.43509" lon="-0.52282">
        <ele>19</ele>
        <time>2010-08-22T12:16:59Z</time>
      </trkpt>
      <trkpt lat="47.43521" lon="-0.52238">
        <ele>20</ele>
        <time>2010-08-22T12:17:04Z</time>
      </trkpt>
      <trkpt lat="47.43537" lon="-0.52167">
        <ele>20</ele>
        <time>2010-08-22T12:17:09Z</time>
      </trkpt>
      <trkpt lat="47.43548" lon="-0.52121">
        <ele>19</ele>
        <time>2010-08-22T12:17:14Z</time>
      </trkpt>
      <trkpt lat="47.43565" lon="-0.52051">
        <ele>18</ele>
        <time>2010-08-22T12:17:19Z</time>
      </trkpt>
      <trkpt lat="47.43576" lon="-0.52003">
        <ele>18</ele>
        <time>2010-08-22T12:17:24Z</time>
      </trkpt>
      <trkpt lat="47.43592" lon="-0.51932">
        <ele>19</ele>
        <time>2010-08-22T12:17:29Z</time>
      </trkpt>
      <trkpt lat="47.43606" lon="-0.51874">
        <ele>20</ele>
        <time>2010-08-22T12:17:34Z</time>
      </trkpt>
      <trkpt lat="47.4362" lon="-0.51816">
        <ele>22</ele>
        <time>2010-08-22T12:17:39Z</time>
      </trkpt>
      <trkpt lat="47.43633" lon="-0.51757">
        <ele>23</ele>
        <time>2010-08-22T12:17:44Z</time>
      </trkpt>
      <trkpt lat="47.43647" lon="-0.51699">
        <ele>23</ele>
        <time>2010-08-22T12:17:49Z</time>
      </trkpt>
      <trkpt lat="47.43661" lon="-0.51639">
        <ele>22</ele>
        <time>2010-08-22T12:17:54Z</time>
      </trkpt>
      <trkpt lat="47.43675" lon="-0.51577">
        <ele>21</ele>
        <time>2010-08-22T12:17:59Z</time>
      </trkpt>
      <trkpt lat="47.43688" lon="-0.51515">
        <ele>21</ele>
        <time>2010-08-22T12:18:04Z</time>
      </trkpt>
      <trkpt lat="47.43697" lon="-0.51476">
        <ele>21</ele>
        <time>2010-08-22T12:18:09Z</time>
      </trkpt>
      <trkpt lat="47.43705" lon="-0.51432">
        <ele>21</ele>
        <time>2010-08-22T12:18:14Z</time>
      </trkpt>
      <trkpt lat="47.43722" lon="-0.51389">
        <ele>22</ele>
        <time>2010-08-22T12:18:19Z</time>
      </trkpt>
      <trkpt lat="47.43735" lon="-0.51336">
        <ele>22</ele>
        <time>2010-08-22T12:18:24Z</time>
      </trkpt>
      <trkpt lat="47.43748" lon="-0.51283">
        <ele>23</ele>
        <time>2010-08-22T12:18:29Z</time>
      </trkpt>
      <trkpt lat="47.43758" lon="-0.5123">
        <ele>24</ele>
        <time>2010-08-22T12:18:34Z</time>
      </trkpt>
      <trkpt lat="47.43761" lon="-0.51186">
        <ele>23</ele>
        <time>2010-08-22T12:18:39Z</time>
      </trkpt>
      <trkpt lat="47.43765" lon="-0.51122">
        <ele>24</ele>
        <time>2010-08-22T12:18:44Z</time>
      </trkpt>
      <trkpt lat="47.43771" lon="-0.5107">
        <ele>24</ele>
        <time>2010-08-22T12:18:49Z</time>
      </trkpt>
      <trkpt lat="47.43783" lon="-0.51017">
        <ele>24</ele>
        <time>2010-08-22T12:18:54Z</time>
      </trkpt>
      <trkpt lat="47.43793" lon="-0.50974">
        <ele>24</ele>
        <time>2010-08-22T12:18:59Z</time>
      </trkpt>
      <trkpt lat="47.43786" lon="-0.50906">
        <ele>23</ele>
        <time>2010-08-22T12:19:04Z</time>
      </trkpt>
      <trkpt lat="47.43787" lon="-0.50854">
        <ele>23</ele>
        <time>2010-08-22T12:19:09Z</time>
      </trkpt>
      <trkpt lat="47.43787" lon="-0.50776">
        <ele>23</ele>
        <time>2010-08-22T12:19:14Z</time>
      </trkpt>
      <trkpt lat="47.43782" lon="-0.50732">
        <ele>24</ele>
        <time>2010-08-22T12:19:19Z</time>
      </trkpt>
      <trkpt lat="47.43772" lon="-0.50666">
        <ele>24</ele>
        <time>2010-08-22T12:19:24Z</time>
      </trkpt>
      <trkpt lat="47.43765" lon="-0.5062">
        <ele>24</ele>
        <time>2010-08-22T12:19:29Z</time>
      </trkpt>
      <trkpt lat="47.43745" lon="-0.50552">
        <ele>23</ele>
        <time>2010-08-22T12:19:34Z</time>
      </trkpt>
      <trkpt lat="47.43724" lon="-0.50507">
        <ele>23</ele>
        <time>2010-08-22T12:19:39Z</time>
      </trkpt>
      <trkpt lat="47.43691" lon="-0.5044">
        <ele>23</ele>
        <time>2010-08-22T12:19:44Z</time>
      </trkpt>
      <trkpt lat="47.43669" lon="-0.50396">
        <ele>23</ele>
        <time>2010-08-22T12:19:49Z</time>
      </trkpt>
      <trkpt lat="47.43637" lon="-0.50331">
        <ele>22</ele>
        <time>2010-08-22T12:19:54Z</time>
      </trkpt>
      <trkpt lat="47.43617" lon="-0.5029">
        <ele>22</ele>
        <time>2010-08-22T12:19:59Z</time>
      </trkpt>
      <trkpt lat="47.43587" lon="-0.50229">
        <ele>21</ele>
        <time>2010-08-22T12:20:04Z</time>
      </trkpt>
      <trkpt lat="47.43566" lon="-0.50188">
        <ele>20</ele>
        <time>2010-08-22T12:20:09Z</time>
      </trkpt>
      <trkpt lat="47.43535" lon="-0.50126">
        <ele>20</ele>
        <time>2010-08-22T12:20:14Z</time>
      </trkpt>
      <trkpt lat="47.43515" lon="-0.50086">
        <ele>19</ele>
        <time>2010-08-22T12:20:19Z</time>
      </trkpt>
      <trkpt lat="47.43487" lon="-0.50026">
        <ele>19</ele>
        <time>2010-08-22T12:20:24Z</time>
      </trkpt>
      <trkpt lat="47.43461" lon="-0.49996">
        <ele>20</ele>
        <time>2010-08-22T12:20:29Z</time>
      </trkpt>
      <trkpt lat="47.43455" lon="-0.49931">
        <ele>20</ele>
        <time>2010-08-22T12:20:34Z</time>
      </trkpt>
      <trkpt lat="47.43487" lon="-0.49907">
        <ele>21</ele>
        <time>2010-08-22T12:20:39Z</time>
      </trkpt>
      <trkpt lat="47.43517" lon="-0.49839">
        <ele>21</ele>
        <time>2010-08-22T12:20:44Z</time>
      </trkpt>
      <trkpt lat="47.43529" lon="-0.49789">
        <ele>20</ele>
        <time>2010-08-22T12:20:49Z</time>
      </trkpt>
      <trkpt lat="47.43544" lon="-0.49714">
        <ele>19</ele>
        <time>2010-08-22T12:20:54Z</time>
      </trkpt>
      <trkpt lat="47.43557" lon="-0.49654">
        <ele>19</ele>
        <time>2010-08-22T12:20:59Z</time>
      </trkpt>
      <trkpt lat="47.43573" lon="-0.49595">
        <ele>20</ele>
        <time>2010-08-22T12:21:04Z</time>
      </trkpt>
      <trkpt lat="47.4359" lon="-0.49536">
        <ele>20</ele>
        <time>2010-08-22T12:21:09Z</time>
      </trkpt>
      <trkpt lat="47.43607" lon="-0.49476">
        <ele>20</ele>
        <time>2010-08-22T12:21:14Z</time>
      </trkpt>
      <trkpt lat="47.43623" lon="-0.49416">
        <ele>21</ele>
        <time>2010-08-22T12:21:19Z</time>
      </trkpt>
      <trkpt lat="47.43636" lon="-0.49369">
        <ele>20</ele>
        <time>2010-08-22T12:21:24Z</time>
      </trkpt>
      <trkpt lat="47.43655" lon="-0.49299">
        <ele>19</ele>
        <time>2010-08-22T12:21:29Z</time>
      </trkpt>
      <trkpt lat="47.43671" lon="-0.49241">
        <ele>19</ele>
        <time>2010-08-22T12:21:34Z</time>
      </trkpt>
      <trkpt lat="47.43687" lon="-0.49182">
        <ele>20</ele>
        <time>2010-08-22T12:21:39Z</time>
      </trkpt>
      <trkpt lat="47.437" lon="-0.49135">
        <ele>20</ele>
        <time>2010-08-22T12:21:44Z</time>
      </trkpt>
      <trkpt lat="47.4372" lon="-0.49064">
        <ele>20</ele>
        <time>2010-08-22T12:21:49Z</time>
      </trkpt>
      <trkpt lat="47.43733" lon="-0.49016">
        <ele>19</ele>
        <time>2010-08-22T12:21:54Z</time>
      </trkpt>
      <trkpt lat="47.43753" lon="-0.48945">
        <ele>19</ele>
        <time>2010-08-22T12:21:59Z</time>
      </trkpt>
      <trkpt lat="47.4377" lon="-0.48885">
        <ele>19</ele>
        <time>2010-08-22T12:22:04Z</time>
      </trkpt>
      <trkpt lat="47.43787" lon="-0.48826">
        <ele>20</ele>
        <time>2010-08-22T12:22:09Z</time>
      </trkpt>
      <trkpt lat="47.43803" lon="-0.48781">
        <ele>20</ele>
        <time>2010-08-22T12:22:14Z</time>
      </trkpt>
      <trkpt lat="47.43836" lon="-0.48719">
        <ele>22</ele>
        <time>2010-08-22T12:22:19Z</time>
      </trkpt>
      <trkpt lat="47.4386" lon="-0.48682">
        <ele>22</ele>
        <time>2010-08-22T12:22:24Z</time>
      </trkpt>
      <trkpt lat="47.43888" lon="-0.48618">
        <ele>23</ele>
        <time>2010-08-22T12:22:29Z</time>
      </trkpt>
      <trkpt lat="47.43905" lon="-0.48573">
        <ele>23</ele>
        <time>2010-08-22T12:22:34Z</time>
      </trkpt>
      <trkpt lat="47.43956" lon="-0.48551">
        <ele>23</ele>
        <time>2010-08-22T12:22:39Z</time>
      </trkpt>
      <trkpt lat="47.43984" lon="-0.48515">
        <ele>23</ele>
        <time>2010-08-22T12:22:44Z</time>
      </trkpt>
      <trkpt lat="47.44027" lon="-0.4846">
        <ele>21</ele>
        <time>2010-08-22T12:22:49Z</time>
      </trkpt>
      <trkpt lat="47.44055" lon="-0.48421">
        <ele>20</ele>
        <time>2010-08-22T12:22:54Z</time>
      </trkpt>
      <trkpt lat="47.441" lon="-0.48364">
        <ele>19</ele>
        <time>2010-08-22T12:22:59Z</time>
      </trkpt>
      <trkpt lat="47.44129" lon="-0.48328">
        <ele>20</ele>
        <time>2010-08-22T12:23:04Z</time>
      </trkpt>
      <trkpt lat="47.44177" lon="-0.48302">
        <ele>19</ele>
        <time>2010-08-22T12:23:09Z</time>
      </trkpt>
      <trkpt lat="47.44199" lon="-0.48293">
        <ele>19</ele>
        <time>2010-08-22T12:23:14Z</time>
      </trkpt>
      <trkpt lat="47.44231" lon="-0.48293">
        <ele>19</ele>
        <time>2010-08-22T12:23:19Z</time>
      </trkpt>
      <trkpt lat="47.44252" lon="-0.48324">
        <ele>19</ele>
        <time>2010-08-22T12:23:24Z</time>
      </trkpt>
      <trkpt lat="47.44294" lon="-0.48345">
        <ele>19</ele>
        <time>2010-08-22T12:23:29Z</time>
      </trkpt>
      <trkpt lat="47.44325" lon="-0.48347">
        <ele>19</ele>
        <time>2010-08-22T12:23:34Z</time>
      </trkpt>
      <trkpt lat="47.44372" lon="-0.48349">
        <ele>20</ele>
        <time>2010-08-22T12:23:39Z</time>
      </trkpt>
      <trkpt lat="47.44404" lon="-0.4835">
        <ele>20</ele>
        <time>2010-08-22T12:23:44Z</time>
      </trkpt>
      <trkpt lat="47.44452" lon="-0.48357">
        <ele>20</ele>
        <time>2010-08-22T12:23:49Z</time>
      </trkpt>
      <trkpt lat="47.44483" lon="-0.48364">
        <ele>20</ele>
        <time>2010-08-22T12:23:54Z</time>
      </trkpt>
      <trkpt lat="47.44528" lon="-0.48379">
        <ele>21</ele>
        <time>2010-08-22T12:23:59Z</time>
      </trkpt>
      <trkpt lat="47.44558" lon="-0.48391">
        <ele>20</ele>
        <time>2010-08-22T12:24:04Z</time>
      </trkpt>
      <trkpt lat="47.44602" lon="-0.48412">
        <ele>21</ele>
        <time>2010-08-22T12:24:09Z</time>
      </trkpt>
      <trkpt lat="47.44631" lon="-0.48428">
        <ele>20</ele>
        <time>2010-08-22T12:24:14Z</time>
      </trkpt>
      <trkpt lat="47.44671" lon="-0.48455">
        <ele>23</ele>
        <time>2010-08-22T12:24:19Z</time>
      </trkpt>
      <trkpt lat="47.44697" lon="-0.48474">
        <ele>23</ele>
        <time>2010-08-22T12:24:24Z</time>
      </trkpt>
      <trkpt lat="47.44738" lon="-0.48493">
        <ele>24</ele>
        <time>2010-08-22T12:24:29Z</time>
      </trkpt>
      <trkpt lat="47.44772" lon="-0.48503">
        <ele>26</ele>
        <time>2010-08-22T12:24:34Z</time>
      </trkpt>
      <trkpt lat="47.44793" lon="-0.48548">
        <ele>26</ele>
        <time>2010-08-22T12:24:39Z</time>
      </trkpt>
      <trkpt lat="47.44823" lon="-0.48582">
        <ele>27</ele>
        <time>2010-08-22T12:24:44Z</time>
      </trkpt>
      <trkpt lat="47.4486" lon="-0.48593">
        <ele>26</ele>
        <time>2010-08-22T12:24:49Z</time>
      </trkpt>
      <trkpt lat="47.44897" lon="-0.48585">
        <ele>25</ele>
        <time>2010-08-22T12:24:54Z</time>
      </trkpt>
      <trkpt lat="47.44932" lon="-0.48565">
        <ele>27</ele>
        <time>2010-08-22T12:24:59Z</time>
      </trkpt>
      <trkpt lat="47.44967" lon="-0.4856">
        <ele>28</ele>
        <time>2010-08-22T12:25:04Z</time>
      </trkpt>
      <trkpt lat="47.44976" lon="-0.48604">
        <ele>25</ele>
        <time>2010-08-22T12:25:09Z</time>
      </trkpt>
      <trkpt lat="47.45007" lon="-0.48656">
        <ele>25</ele>
        <time>2010-08-22T12:25:14Z</time>
      </trkpt>
      <trkpt lat="47.45034" lon="-0.48702">
        <ele>25</ele>
        <time>2010-08-22T12:25:19Z</time>
      </trkpt>
      <trkpt lat="47.4505" lon="-0.48753">
        <ele>24</ele>
        <time>2010-08-22T12:25:24Z</time>
      </trkpt>
      <trkpt lat="47.45055" lon="-0.48806">
        <ele>24</ele>
        <time>2010-08-22T12:25:29Z</time>
      </trkpt>
      <trkpt lat="47.4505" lon="-0.48859">
        <ele>24</ele>
        <time>2010-08-22T12:25:34Z</time>
      </trkpt>
      <trkpt lat="47.45042" lon="-0.489">
        <ele>24</ele>
        <time>2010-08-22T12:25:39Z</time>
      </trkpt>
      <trkpt lat="47.45048" lon="-0.48962">
        <ele>23</ele>
        <time>2010-08-22T12:25:44Z</time>
      </trkpt>
      <trkpt lat="47.45067" lon="-0.48996">
        <ele>22</ele>
        <time>2010-08-22T12:25:49Z</time>
      </trkpt>
      <trkpt lat="47.45101" lon="-0.49041">
        <ele>23</ele>
        <time>2010-08-22T12:25:54Z</time>
      </trkpt>
      <trkpt lat="47.45122" lon="-0.49073">
        <ele>24</ele>
        <time>2010-08-22T12:25:59Z</time>
      </trkpt>
      <trkpt lat="47.45153" lon="-0.49122">
        <ele>25</ele>
        <time>2010-08-22T12:26:04Z</time>
      </trkpt>
      <trkpt lat="47.45172" lon="-0.49157">
        <ele>26</ele>
        <time>2010-08-22T12:26:09Z</time>
      </trkpt>
      <trkpt lat="47.45199" lon="-0.49211">
        <ele>26</ele>
        <time>2010-08-22T12:26:14Z</time>
      </trkpt>
      <trkpt lat="47.45216" lon="-0.49248">
        <ele>26</ele>
        <time>2010-08-22T12:26:19Z</time>
      </trkpt>
      <trkpt lat="47.4524" lon="-0.49306">
        <ele>25</ele>
        <time>2010-08-22T12:26:24Z</time>
      </trkpt>
      <trkpt lat="47.45254" lon="-0.49345">
        <ele>26</ele>
        <time>2010-08-22T12:26:29Z</time>
      </trkpt>
      <trkpt lat="47.45274" lon="-0.49405">
        <ele>27</ele>
        <time>2010-08-22T12:26:34Z</time>
      </trkpt>
      <trkpt lat="47.45286" lon="-0.49445">
        <ele>26</ele>
        <time>2010-08-22T12:26:39Z</time>
      </trkpt>
      <trkpt lat="47.45302" lon="-0.49507">
        <ele>25</ele>
        <time>2010-08-22T12:26:44Z</time>
      </trkpt>
      <trkpt lat="47.45311" lon="-0.49549">
        <ele>25</ele>
        <time>2010-08-22T12:26:49Z</time>
      </trkpt>
      <trkpt lat="47.45323" lon="-0.49611">
        <ele>24</ele>
        <time>2010-08-22T12:26:54Z</time>
      </trkpt>
      <trkpt lat="47.45329" lon="-0.49654">
        <ele>24</ele>
        <time>2010-08-22T12:26:59Z</time>
      </trkpt>
      <trkpt lat="47.45337" lon="-0.49717">
        <ele>25</ele>
        <time>2010-08-22T12:27:04Z</time>
      </trkpt>
      <trkpt lat="47.45343" lon="-0.49757">
        <ele>27</ele>
        <time>2010-08-22T12:27:09Z</time>
      </trkpt>
      <trkpt lat="47.45353" lon="-0.49813">
        <ele>28</ele>
        <time>2010-08-22T12:27:14Z</time>
      </trkpt>
      <trkpt lat="47.45359" lon="-0.49849">
        <ele>29</ele>
        <time>2010-08-22T12:27:19Z</time>
      </trkpt>
      <trkpt lat="47.4537" lon="-0.49901">
        <ele>29</ele>
        <time>2010-08-22T12:27:24Z</time>
      </trkpt>
      <trkpt lat="47.45378" lon="-0.49935">
        <ele>30</ele>
        <time>2010-08-22T12:27:29Z</time>
      </trkpt>
      <trkpt lat="47.45393" lon="-0.49986">
        <ele>30</ele>
        <time>2010-08-22T12:27:34Z</time>
      </trkpt>
      <trkpt lat="47.45404" lon="-0.5002">
        <ele>29</ele>
        <time>2010-08-22T12:27:39Z</time>
      </trkpt>
      <trkpt lat="47.45423" lon="-0.50072">
        <ele>30</ele>
        <time>2010-08-22T12:27:44Z</time>
      </trkpt>
      <trkpt lat="47.45437" lon="-0.50107">
        <ele>31</ele>
        <time>2010-08-22T12:27:49Z</time>
      </trkpt>
      <trkpt lat="47.45457" lon="-0.5016">
        <ele>31</ele>
        <time>2010-08-22T12:27:54Z</time>
      </trkpt>
      <trkpt lat="47.45475" lon="-0.50206">
        <ele>30</ele>
        <time>2010-08-22T12:27:59Z</time>
      </trkpt>
      <trkpt lat="47.45491" lon="-0.50254">
        <ele>30</ele>
        <time>2010-08-22T12:28:04Z</time>
      </trkpt>
      <trkpt lat="47.45504" lon="-0.50304">
        <ele>32</ele>
        <time>2010-08-22T12:28:09Z</time>
      </trkpt>
      <trkpt lat="47.45515" lon="-0.50356">
        <ele>32</ele>
        <time>2010-08-22T12:28:14Z</time>
      </trkpt>
      <trkpt lat="47.45523" lon="-0.50409">
        <ele>33</ele>
        <time>2010-08-22T12:28:19Z</time>
      </trkpt>
      <trkpt lat="47.4553" lon="-0.50463">
        <ele>34</ele>
        <time>2010-08-22T12:28:24Z</time>
      </trkpt>
      <trkpt lat="47.45539" lon="-0.50516">
        <ele>35</ele>
        <time>2010-08-22T12:28:29Z</time>
      </trkpt>
      <trkpt lat="47.45547" lon="-0.50559">
        <ele>35</ele>
        <time>2010-08-22T12:28:34Z</time>
      </trkpt>
      <trkpt lat="47.45565" lon="-0.5062">
        <ele>35</ele>
        <time>2010-08-22T12:28:39Z</time>
      </trkpt>
      <trkpt lat="47.45583" lon="-0.50668">
        <ele>35</ele>
        <time>2010-08-22T12:28:44Z</time>
      </trkpt>
      <trkpt lat="47.45605" lon="-0.50714">
        <ele>36</ele>
        <time>2010-08-22T12:28:49Z</time>
      </trkpt>
      <trkpt lat="47.45623" lon="-0.50749">
        <ele>36</ele>
        <time>2010-08-22T12:28:54Z</time>
      </trkpt>
      <trkpt lat="47.45652" lon="-0.50798">
        <ele>36</ele>
        <time>2010-08-22T12:28:59Z</time>
      </trkpt>
      <trkpt lat="47.45667" lon="-0.5083">
        <ele>35</ele>
        <time>2010-08-22T12:29:04Z</time>
      </trkpt>
      <trkpt lat="47.45665" lon="-0.50899">
        <ele>37</ele>
        <time>2010-08-22T12:29:09Z</time>
      </trkpt>
      <trkpt lat="47.45641" lon="-0.50931">
        <ele>37</ele>
        <time>2010-08-22T12:29:14Z</time>
      </trkpt>
      <trkpt lat="47.45624" lon="-0.50877">
        <ele>37</ele>
        <time>2010-08-22T12:29:19Z</time>
      </trkpt>
      <trkpt lat="47.45629" lon="-0.50832">
        <ele>36</ele>
        <time>2010-08-22T12:29:24Z</time>
      </trkpt>
      <trkpt lat="47.45626" lon="-0.50769">
        <ele>36</ele>
        <time>2010-08-22T12:29:29Z</time>
      </trkpt>
      <trkpt lat="47.45606" lon="-0.50733">
        <ele>36</ele>
        <time>2010-08-22T12:29:34Z</time>
      </trkpt>
      <trkpt lat="47.45577" lon="-0.50677">
        <ele>36</ele>
        <time>2010-08-22T12:29:39Z</time>
      </trkpt>
      <trkpt lat="47.45561" lon="-0.50637">
        <ele>35</ele>
        <time>2010-08-22T12:29:44Z</time>
      </trkpt>
      <trkpt lat="47.45541" lon="-0.5057">
        <ele>35</ele>
        <time>2010-08-22T12:29:49Z</time>
      </trkpt>
      <trkpt lat="47.4553" lon="-0.50523">
        <ele>34</ele>
        <time>2010-08-22T12:29:54Z</time>
      </trkpt>
      <trkpt lat="47.4552" lon="-0.5045">
        <ele>34</ele>
        <time>2010-08-22T12:29:59Z</time>
      </trkpt>
      <trkpt lat="47.45514" lon="-0.50401">
        <ele>32</ele>
        <time>2010-08-22T12:30:04Z</time>
      </trkpt>
      <trkpt lat="47.45501" lon="-0.50327">
        <ele>31</ele>
        <time>2010-08-22T12:30:09Z</time>
      </trkpt>
      <trkpt lat="47.4549" lon="-0.50279">
        <ele>30</ele>
        <time>2010-08-22T12:30:14Z</time>
      </trkpt>
      <trkpt lat="47.45468" lon="-0.50209">
        <ele>30</ele>
        <time>2010-08-22T12:30:19Z</time>
      </trkpt>
      <trkpt lat="47.45451" lon="-0.50164">
        <ele>31</ele>
        <time>2010-08-22T12:30:24Z</time>
      </trkpt>
      <trkpt lat="47.45426" lon="-0.50098">
        <ele>31</ele>
        <time>2010-08-22T12:30:29Z</time>
      </trkpt>
      <trkpt lat="47.45409" lon="-0.50054">
        <ele>29</ele>
        <time>2010-08-22T12:30:34Z</time>
      </trkpt>
      <trkpt lat="47.45386" lon="-0.49985">
        <ele>29</ele>
        <time>2010-08-22T12:30:39Z</time>
      </trkpt>
      <trkpt lat="47.45372" lon="-0.49938">
        <ele>30</ele>
        <time>2010-08-22T12:30:44Z</time>
      </trkpt>
      <trkpt lat="47.45355" lon="-0.49863">
        <ele>29</ele>
        <time>2010-08-22T12:30:49Z</time>
      </trkpt>
      <trkpt lat="47.45345" lon="-0.4981">
        <ele>28</ele>
        <time>2010-08-22T12:30:54Z</time>
      </trkpt>
      <trkpt lat="47.45331" lon="-0.49728">
        <ele>26</ele>
        <time>2010-08-22T12:30:59Z</time>
      </trkpt>
      <trkpt lat="47.45324" lon="-0.49671">
        <ele>24</ele>
        <time>2010-08-22T12:31:04Z</time>
      </trkpt>
      <trkpt lat="47.45315" lon="-0.49603">
        <ele>24</ele>
        <time>2010-08-22T12:31:09Z</time>
      </trkpt>
      <trkpt lat="47.45302" lon="-0.49538">
        <ele>25</ele>
        <time>2010-08-22T12:31:14Z</time>
      </trkpt>
      <trkpt lat="47.45284" lon="-0.49466">
        <ele>26</ele>
        <time>2010-08-22T12:31:19Z</time>
      </trkpt>
      <trkpt lat="47.45268" lon="-0.49407">
        <ele>27</ele>
        <time>2010-08-22T12:31:24Z</time>
      </trkpt>
      <trkpt lat="47.45248" lon="-0.49347">
        <ele>25</ele>
        <time>2010-08-22T12:31:29Z</time>
      </trkpt>
      <trkpt lat="47.45227" lon="-0.49289">
        <ele>25</ele>
        <time>2010-08-22T12:31:34Z</time>
      </trkpt>
      <trkpt lat="47.45204" lon="-0.49234">
        <ele>26</ele>
        <time>2010-08-22T12:31:39Z</time>
      </trkpt>
      <trkpt lat="47.45179" lon="-0.49182">
        <ele>26</ele>
        <time>2010-08-22T12:31:44Z</time>
      </trkpt>
      <trkpt lat="47.45151" lon="-0.49129">
        <ele>25</ele>
        <time>2010-08-22T12:31:49Z</time>
      </trkpt>
      <trkpt lat="47.45121" lon="-0.49078">
        <ele>24</ele>
        <time>2010-08-22T12:31:54Z</time>
      </trkpt>
      <trkpt lat="47.45095" lon="-0.49039">
        <ele>23</ele>
        <time>2010-08-22T12:31:59Z</time>
      </trkpt>
      <trkpt lat="47.45054" lon="-0.48985">
        <ele>23</ele>
        <time>2010-08-22T12:32:04Z</time>
      </trkpt>
      <trkpt lat="47.45014" lon="-0.48964">
        <ele>23</ele>
        <time>2010-08-22T12:32:09Z</time>
      </trkpt>
      <trkpt lat="47.45003" lon="-0.48912">
        <ele>24</ele>
        <time>2010-08-22T12:32:14Z</time>
      </trkpt>
      <trkpt lat="47.45036" lon="-0.48873">
        <ele>24</ele>
        <time>2010-08-22T12:32:19Z</time>
      </trkpt>
      <trkpt lat="47.45047" lon="-0.48814">
        <ele>24</ele>
        <time>2010-08-22T12:32:24Z</time>
      </trkpt>
      <trkpt lat="47.45046" lon="-0.48762">
        <ele>24</ele>
        <time>2010-08-22T12:32:29Z</time>
      </trkpt>
      <trkpt lat="47.45023" lon="-0.48686">
        <ele>25</ele>
        <time>2010-08-22T12:32:34Z</time>
      </trkpt>
      <trkpt lat="47.44998" lon="-0.48647">
        <ele>25</ele>
        <time>2010-08-22T12:32:39Z</time>
      </trkpt>
      <trkpt lat="47.44961" lon="-0.48598">
        <ele>25</ele>
        <time>2010-08-22T12:32:44Z</time>
      </trkpt>
      <trkpt lat="47.44934" lon="-0.48573">
        <ele>27</ele>
        <time>2010-08-22T12:32:49Z</time>
      </trkpt>
      <trkpt lat="47.44889" lon="-0.48592">
        <ele>25</ele>
        <time>2010-08-22T12:32:54Z</time>
      </trkpt>
      <trkpt lat="47.44858" lon="-0.48597">
        <ele>26</ele>
        <time>2010-08-22T12:32:59Z</time>
      </trkpt>
      <trkpt lat="47.44811" lon="-0.4858">
        <ele>26</ele>
        <time>2010-08-22T12:33:04Z</time>
      </trkpt>
      <trkpt lat="47.44781" lon="-0.48564">
        <ele>25</ele>
        <time>2010-08-22T12:33:09Z</time>
      </trkpt>
      <trkpt lat="47.44743" lon="-0.48532">
        <ele>22</ele>
        <time>2010-08-22T12:33:14Z</time>
      </trkpt>
      <trkpt lat="47.44718" lon="-0.48498">
        <ele>24</ele>
        <time>2010-08-22T12:33:19Z</time>
      </trkpt>
      <trkpt lat="47.44674" lon="-0.48464">
        <ele>23</ele>
        <time>2010-08-22T12:33:24Z</time>
      </trkpt>
      <trkpt lat="47.44642" lon="-0.48442">
        <ele>21</ele>
        <time>2010-08-22T12:33:29Z</time>
      </trkpt>
      <trkpt lat="47.44593" lon="-0.48413">
        <ele>20</ele>
        <time>2010-08-22T12:33:34Z</time>
      </trkpt>
      <trkpt lat="47.44559" lon="-0.48397">
        <ele>20</ele>
        <time>2010-08-22T12:33:39Z</time>
      </trkpt>
      <trkpt lat="47.44509" lon="-0.48378">
        <ele>20</ele>
        <time>2010-08-22T12:33:44Z</time>
      </trkpt>
      <trkpt lat="47.44476" lon="-0.48368">
        <ele>20</ele>
        <time>2010-08-22T12:33:49Z</time>
      </trkpt>
      <trkpt lat="47.44426" lon="-0.48357">
        <ele>20</ele>
        <time>2010-08-22T12:33:54Z</time>
      </trkpt>
      <trkpt lat="47.44393" lon="-0.48353">
        <ele>20</ele>
        <time>2010-08-22T12:33:59Z</time>
      </trkpt>
      <trkpt lat="47.44345" lon="-0.48351">
        <ele>19</ele>
        <time>2010-08-22T12:34:04Z</time>
      </trkpt>
      <trkpt lat="47.44313" lon="-0.4835">
        <ele>19</ele>
        <time>2010-08-22T12:34:09Z</time>
      </trkpt>
      <trkpt lat="47.44265" lon="-0.48348">
        <ele>19</ele>
        <time>2010-08-22T12:34:14Z</time>
      </trkpt>
      <trkpt lat="47.44233" lon="-0.48346">
        <ele>19</ele>
        <time>2010-08-22T12:34:19Z</time>
      </trkpt>
      <trkpt lat="47.4419" lon="-0.48327">
        <ele>20</ele>
        <time>2010-08-22T12:34:24Z</time>
      </trkpt>
      <trkpt lat="47.44158" lon="-0.48326">
        <ele>20</ele>
        <time>2010-08-22T12:34:29Z</time>
      </trkpt>
      <trkpt lat="47.44115" lon="-0.48366">
        <ele>19</ele>
        <time>2010-08-22T12:34:34Z</time>
      </trkpt>
      <trkpt lat="47.4409" lon="-0.48399">
        <ele>19</ele>
        <time>2010-08-22T12:34:39Z</time>
      </trkpt>
      <trkpt lat="47.44052" lon="-0.48448">
        <ele>20</ele>
        <time>2010-08-22T12:34:44Z</time>
      </trkpt>
      <trkpt lat="47.44028" lon="-0.48478">
        <ele>21</ele>
        <time>2010-08-22T12:34:49Z</time>
      </trkpt>
      <trkpt lat="47.43995" lon="-0.48521">
        <ele>23</ele>
        <time>2010-08-22T12:34:54Z</time>
      </trkpt>
      <trkpt lat="47.43969" lon="-0.48555">
        <ele>23</ele>
        <time>2010-08-22T12:34:59Z</time>
      </trkpt>
      <trkpt lat="47.43949" lon="-0.48583">
        <ele>23</ele>
        <time>2010-08-22T12:35:04Z</time>
      </trkpt>
      <trkpt lat="47.43933" lon="-0.48639">
        <ele>23</ele>
        <time>2010-08-22T12:35:09Z</time>
      </trkpt>
      <trkpt lat="47.43901" lon="-0.48667">
        <ele>22</ele>
        <time>2010-08-22T12:35:14Z</time>
      </trkpt>
      <trkpt lat="47.4387" lon="-0.48701">
        <ele>22</ele>
        <time>2010-08-22T12:35:19Z</time>
      </trkpt>
      <trkpt lat="47.43847" lon="-0.48731">
        <ele>21</ele>
        <time>2010-08-22T12:35:24Z</time>
      </trkpt>
      <trkpt lat="47.43816" lon="-0.4878">
        <ele>20</ele>
        <time>2010-08-22T12:35:29Z</time>
      </trkpt>
      <trkpt lat="47.43795" lon="-0.48826">
        <ele>20</ele>
        <time>2010-08-22T12:35:34Z</time>
      </trkpt>
      <trkpt lat="47.43779" lon="-0.48876">
        <ele>19</ele>
        <time>2010-08-22T12:35:39Z</time>
      </trkpt>
      <trkpt lat="47.43766" lon="-0.48927">
        <ele>19</ele>
        <time>2010-08-22T12:35:44Z</time>
      </trkpt>
      <trkpt lat="47.43752" lon="-0.48977">
        <ele>19</ele>
        <time>2010-08-22T12:35:49Z</time>
      </trkpt>
      <trkpt lat="47.43741" lon="-0.49019">
        <ele>19</ele>
        <time>2010-08-22T12:35:54Z</time>
      </trkpt>
      <trkpt lat="47.43723" lon="-0.49081">
        <ele>20</ele>
        <time>2010-08-22T12:35:59Z</time>
      </trkpt>
      <trkpt lat="47.43712" lon="-0.49122">
        <ele>20</ele>
        <time>2010-08-22T12:36:04Z</time>
      </trkpt>
      <trkpt lat="47.43694" lon="-0.49184">
        <ele>20</ele>
        <time>2010-08-22T12:36:09Z</time>
      </trkpt>
      <trkpt lat="47.43683" lon="-0.49225">
        <ele>20</ele>
        <time>2010-08-22T12:36:14Z</time>
      </trkpt>
      <trkpt lat="47.43666" lon="-0.49287">
        <ele>19</ele>
        <time>2010-08-22T12:36:19Z</time>
      </trkpt>
      <trkpt lat="47.43654" lon="-0.49328">
        <ele>20</ele>
        <time>2010-08-22T12:36:24Z</time>
      </trkpt>
      <trkpt lat="47.43637" lon="-0.49391">
        <ele>20</ele>
        <time>2010-08-22T12:36:29Z</time>
      </trkpt>
      <trkpt lat="47.43625" lon="-0.49432">
        <ele>20</ele>
        <time>2010-08-22T12:36:34Z</time>
      </trkpt>
      <trkpt lat="47.43608" lon="-0.49493">
        <ele>20</ele>
        <time>2010-08-22T12:36:39Z</time>
      </trkpt>
      <trkpt lat="47.43597" lon="-0.49534">
        <ele>20</ele>
        <time>2010-08-22T12:36:44Z</time>
      </trkpt>
      <trkpt lat="47.43579" lon="-0.49596">
        <ele>20</ele>
        <time>2010-08-22T12:36:49Z</time>
      </trkpt>
      <trkpt lat="47.43568" lon="-0.49638">
        <ele>19</ele>
        <time>2010-08-22T12:36:54Z</time>
      </trkpt>
      <trkpt lat="47.43552" lon="-0.497">
        <ele>19</ele>
        <time>2010-08-22T12:36:59Z</time>
      </trkpt>
      <trkpt lat="47.43543" lon="-0.49742">
        <ele>20</ele>
        <time>2010-08-22T12:37:04Z</time>
      </trkpt>
      <trkpt lat="47.43531" lon="-0.49806">
        <ele>21</ele>
        <time>2010-08-22T12:37:09Z</time>
      </trkpt>
      <trkpt lat="47.43521" lon="-0.49848">
        <ele>21</ele>
        <time>2010-08-22T12:37:14Z</time>
      </trkpt>
      <trkpt lat="47.43504" lon="-0.49909">
        <ele>21</ele>
        <time>2010-08-22T12:37:19Z</time>
      </trkpt>
      <trkpt lat="47.43501" lon="-0.49951">
        <ele>21</ele>
        <time>2010-08-22T12:37:24Z</time>
      </trkpt>
      <trkpt lat="47.43498" lon="-0.50014">
        <ele>19</ele>
        <time>2010-08-22T12:37:29Z</time>
      </trkpt>
      <trkpt lat="47.43504" lon="-0.50054">
        <ele>20</ele>
        <time>2010-08-22T12:37:34Z</time>
      </trkpt>
      <trkpt lat="47.43531" lon="-0.50108">
        <ele>20</ele>
        <time>2010-08-22T12:37:39Z</time>
      </trkpt>
      <trkpt lat="47.4355" lon="-0.50145">
        <ele>20</ele>
        <time>2010-08-22T12:37:44Z</time>
      </trkpt>
      <trkpt lat="47.4358" lon="-0.50204">
        <ele>20</ele>
        <time>2010-08-22T12:37:49Z</time>
      </trkpt>
      <trkpt lat="47.43599" lon="-0.50243">
        <ele>21</ele>
        <time>2010-08-22T12:37:54Z</time>
      </trkpt>
      <trkpt lat="47.43629" lon="-0.503">
        <ele>22</ele>
        <time>2010-08-22T12:37:59Z</time>
      </trkpt>
      <trkpt lat="47.43648" lon="-0.50337">
        <ele>23</ele>
        <time>2010-08-22T12:38:04Z</time>
      </trkpt>
      <trkpt lat="47.43676" lon="-0.50392">
        <ele>23</ele>
        <time>2010-08-22T12:38:09Z</time>
      </trkpt>
      <trkpt lat="47.43694" lon="-0.50428">
        <ele>23</ele>
        <time>2010-08-22T12:38:14Z</time>
      </trkpt>
      <trkpt lat="47.43721" lon="-0.5048">
        <ele>23</ele>
        <time>2010-08-22T12:38:19Z</time>
      </trkpt>
      <trkpt lat="47.43742" lon="-0.50523">
        <ele>23</ele>
        <time>2010-08-22T12:38:24Z</time>
      </trkpt>
      <trkpt lat="47.43761" lon="-0.50568">
        <ele>24</ele>
        <time>2010-08-22T12:38:29Z</time>
      </trkpt>
      <trkpt lat="47.43775" lon="-0.50617">
        <ele>24</ele>
        <time>2010-08-22T12:38:34Z</time>
      </trkpt>
      <trkpt lat="47.43783" lon="-0.50671">
        <ele>24</ele>
        <time>2010-08-22T12:38:39Z</time>
      </trkpt>
      <trkpt lat="47.4379" lon="-0.50724">
        <ele>24</ele>
        <time>2010-08-22T12:38:44Z</time>
      </trkpt>
      <trkpt lat="47.43794" lon="-0.50766">
        <ele>23</ele>
        <time>2010-08-22T12:38:49Z</time>
      </trkpt>
      <trkpt lat="47.43802" lon="-0.50831">
        <ele>23</ele>
        <time>2010-08-22T12:38:54Z</time>
      </trkpt>
      <trkpt lat="47.43831" lon="-0.50854">
        <ele>24</ele>
        <time>2010-08-22T12:38:59Z</time>
      </trkpt>
      <trkpt lat="47.43864" lon="-0.50853">
        <ele>24</ele>
        <time>2010-08-22T12:39:04Z</time>
      </trkpt>
      <trkpt lat="47.43895" lon="-0.50851">
        <ele>24</ele>
        <time>2010-08-22T12:39:09Z</time>
      </trkpt>
      <trkpt lat="47.43926" lon="-0.50898">
        <ele>23</ele>
        <time>2010-08-22T12:39:14Z</time>
      </trkpt>
      <trkpt lat="47.43938" lon="-0.5094">
        <ele>22</ele>
        <time>2010-08-22T12:39:19Z</time>
      </trkpt>
      <trkpt lat="47.43957" lon="-0.51002">
        <ele>23</ele>
        <time>2010-08-22T12:39:24Z</time>
      </trkpt>
      <trkpt lat="47.43974" lon="-0.51039">
        <ele>23</ele>
        <time>2010-08-22T12:39:29Z</time>
      </trkpt>
      <trkpt lat="47.4402" lon="-0.51042">
        <ele>23</ele>
        <time>2010-08-22T12:39:34Z</time>
      </trkpt>
      <trkpt lat="47.44049" lon="-0.51029">
        <ele>22</ele>
        <time>2010-08-22T12:39:39Z</time>
      </trkpt>
      <trkpt lat="47.44098" lon="-0.5101">
        <ele>21</ele>
        <time>2010-08-22T12:39:44Z</time>
      </trkpt>
      <trkpt lat="47.44131" lon="-0.50994">
        <ele>22</ele>
        <time>2010-08-22T12:39:49Z</time>
      </trkpt>
      <trkpt lat="47.44179" lon="-0.5097">
        <ele>22</ele>
        <time>2010-08-22T12:39:54Z</time>
      </trkpt>
      <trkpt lat="47.44211" lon="-0.50957">
        <ele>23</ele>
        <time>2010-08-22T12:39:59Z</time>
      </trkpt>
      <trkpt lat="47.44257" lon="-0.5094">
        <ele>23</ele>
        <time>2010-08-22T12:40:04Z</time>
      </trkpt>
      <trkpt lat="47.44282" lon="-0.5093">
        <ele>23</ele>
        <time>2010-08-22T12:40:09Z</time>
      </trkpt>
      <trkpt lat="47.44291" lon="-0.50919">
        <ele>23</ele>
        <time>2010-08-22T12:40:14Z</time>
      </trkpt>
      <trkpt lat="47.44291" lon="-0.50918">
        <ele>23</ele>
        <time>2010-08-22T12:40:19Z</time>
      </trkpt>
    </trkseg>
  </trk>
</gpx>